# Wetter Temperatur Luftdruck Luftfeuchtigkeit Sichtweite Windgeschwindigkeit Windrichtung Zeit
1 Clouds 21 1014 77 10000 5.1 230 19:58 17.10.2019
2 Clouds 21 1014 77 10000 4.6 240 19:39 17.10.2019
3 Clouds 22 1014 73 10000 5.1 230 19:19 17.10.2019
4 Clouds 22 1014 73 10000 5.1 230 19:19 17.10.2019
5 Clouds 22 1014 68 10000 4.6 210 18:43 17.10.2019
6 Clouds 22 1014 53 10000 5.1 210 18:21 17.10.2019
7 Clouds 22 1014 53 10000 5.1 210 18:00 17.10.2019
8 Clouds 23 1014 53 10000 5.1 210 17:41 17.10.2019
9 Clouds 23 1015 56 10000 5.7 210 17:23 17.10.2019
10 Clouds 23 1015 56 10000 5.7 210 16:56 17.10.2019
11 Clouds 23 1015 60 10000 4.1 200 16:37 17.10.2019
12 Clouds 23 1015 60 10000 4.1 200 16:37 17.10.2019
13 Clouds 23 1015 60 10000 4.1 200 16:37 17.10.2019
14 Clouds 23 1015 64 10000 4.1 180 16:18 17.10.2019
15 Clouds 23 1015 64 10000 4.1 180 15:55 17.10.2019
16 Clouds 23 1015 64 10000 4.1 180 15:55 17.10.2019
17 Clouds 23 1015 69 10000 4.6 160 15:37 17.10.2019
18 Clouds 23 1015 69 10000 4.1 160 15:19 17.10.2019
19 Clouds 23 1016 69 10000 3.6 180 14:42 17.10.2019
20 Clouds 23 1016 69 10000 3.6 180 14:23 17.10.2019
21 -273 0 0 0 0 0 13:56 17.10.2019
22 Clouds 23 1016 69 10000 3.1 200 13:38 17.10.2019
23 Clouds 23 1016 69 10000 1 0 13:18 17.10.2019
24 Clouds 22 1017 56 10000 1.5 310 12:41 17.10.2019
25 Clouds 21 1017 52 10000 2.6 320 12:20 17.10.2019
26 Clouds 21 1017 52 10000 2.6 320 11:59 17.10.2019
27 Clouds 20 1017 52 10000 3.6 320 11:40 17.10.2019
28 Clouds 19 1017 52 10000 3.6 320 11:19 17.10.2019
29 Clouds 19 1017 55 10000 3.1 340 10:55 17.10.2019
30 Clear 19 1016 59 10000 4.1 330 10:36 17.10.2019
31 Clouds 17 1016 67 10000 4.6 320 10:18 17.10.2019
32 Clouds 17 1016 67 10000 4.6 320 10:18 17.10.2019
33 Clouds 15 1016 66 10000 4.6 320 09:42 17.10.2019
34 Clouds 13 1016 66 10000 4.6 330 09:22 17.10.2019
35 Clouds 13 1016 66 10000 4.6 330 08:59 17.10.2019
36 Clouds 12 1016 66 10000 4.6 330 08:41 17.10.2019
37 Clouds 12 1016 71 10000 4.1 330 08:21 17.10.2019
38 Clouds 13 1016 71 10000 4.1 330 07:56 17.10.2019
39 Clouds 13 1016 71 10000 3.1 330 07:37 17.10.2019
40 Clouds 12 1016 71 10000 3.1 330 07:18 17.10.2019
41 Clouds 13 1015 67 10000 4.1 330 07:18 17.10.2019
42 Clouds 13 1016 67 10000 3.1 320 06:40 17.10.2019
43 Clouds 13 1016 67 10000 3.1 320 06:21 17.10.2019
44 Clouds 13 1016 67 10000 4.1 330 05:52 17.10.2019
45 Clouds 13 1016 87 10000 1 0 05:32 17.10.2019
46 Clouds 13 1016 87 10000 1 0 05:32 17.10.2019
47 Clouds 13 1016 67 10000 3.1 330 04:53 17.10.2019
48 Clouds 13 1016 72 10000 3.6 320 03:55 17.10.2019
49 Clouds 14 1016 72 10000 1.058 318 02:36 17.10.2019
50 Clouds 15 1016 68 10000 2.1 340 01:27 17.10.2019
51 Clouds 15 1017 72 10000 1.058 318 00:38 17.10.2019
52 Clouds 16 1017 68 10000 1.987 260 00:19 17.10.2019
53 Clouds 16 1017 63 10000 2.1 290 23:42 16.10.2019
54 Clouds 16 1016 63 10000 1.5 300 23:21 16.10.2019
55 Clouds 17 1016 63 10000 1.5 300 22:56 16.10.2019
56 Clouds 17 1016 63 10000 2.6 270 22:37 16.10.2019
57 Clouds 17 1016 68 10000 3.6 270 22:19 16.10.2019
58 Clouds 17 1016 68 10000 3.6 270 21:56 16.10.2019
59 Clouds 17 1016 68 10000 5.1 240 21:37 16.10.2019
60 Clouds 18 1016 64 10000 5.7 240 21:19 16.10.2019
61 Clouds 18 1016 64 10000 5.7 240 21:19 16.10.2019
62 Clouds 18 1016 64 10000 5.7 240 20:57 16.10.2019
63 Clouds 18 1015 64 10000 5.7 230 20:38 16.10.2019
64 Clouds 19 1015 64 10000 5.7 230 20:20 16.10.2019
65 Clouds 19 1015 60 10000 5.1 220 19:58 16.10.2019
66 Clouds 20 1015 56 10000 5.7 220 19:38 16.10.2019
67 Clouds 20 1015 56 10000 5.7 220 19:20 16.10.2019
68 Clouds 21 1015 52 10000 7.2 220 18:39 16.10.2019
69 Clouds 21 1015 46 10000 7.2 230 18:20 16.10.2019
70 Clouds 22 1015 46 10000 7.2 230 17:58 16.10.2019
71 Clouds 22 1015 52 10000 8.2 230 17:39 16.10.2019
72 Clouds 22 1016 49 10000 8.7 220 17:21 16.10.2019
73 Clouds 22 1016 49 10000 8.7 220 16:59 16.10.2019
74 Clouds 23 1016 46 10000 8.2 230 16:41 16.10.2019
75 Clouds 23 1016 46 10000 8.2 220 16:21 16.10.2019
76 Clouds 23 1016 46 10000 8.2 220 15:57 16.10.2019
77 Clouds 23 1016 46 10000 8.2 220 15:56 16.10.2019
78 Clouds 23 1016 46 10000 8.2 220 15:56 16.10.2019
79 Clouds 23 1017 43 10000 8.2 220 15:56 16.10.2019
80 Clouds 23 1017 43 10000 8.2 220 15:38 16.10.2019
81 Clouds 23 1017 43 10000 8.2 220 15:18 16.10.2019
82 Clouds 23 1017 43 10000 8.2 220 14:56 16.10.2019
83 Clouds 23 1017 43 10000 8.2 220 14:56 16.10.2019
84 Clouds 23 1017 43 10000 8.2 220 14:37 16.10.2019
85 Clouds 22 1017 43 10000 7.2 220 14:18 16.10.2019
86 Clouds 22 1018 43 10000 6.7 230 13:56 16.10.2019
87 Clouds 22 1018 43 10000 6.7 230 13:36 16.10.2019
88 Clouds 22 1018 46 10000 4.6 220 13:18 16.10.2019
89 Clouds 21 1018 49 10000 3.1 210 12:40 16.10.2019
90 Clouds 21 1018 43 10000 1 0 12:18 16.10.2019
91 Clouds 20 1019 45 10000 1.5 310 11:43 16.10.2019
92 Clouds 18 1019 48 10000 2.6 310 11:18 16.10.2019
93 Clouds 18 1019 55 10000 2.6 320 10:40 16.10.2019
94 Clouds 16 1019 58 10000 3.1 320 10:22 16.10.2019
95 Clouds 15 1019 62 10000 3.6 330 09:56 16.10.2019
96 Clouds 14 1019 62 10000 2.1 320 09:38 16.10.2019
97 Clouds 13 1019 62 10000 2.1 320 09:19 16.10.2019
98 Clouds 12 1019 71 10000 2.6 310 08:43 16.10.2019
99 -273 0 0 0 0 0 08:24 16.10.2019
100 Clouds 12 1018 66 10000 1.605 297 07:55 16.10.2019
101 Clouds 12 1018 66 10000 1.605 297 07:37 16.10.2019
102 Clouds 12 1018 66 10000 1 0 07:18 16.10.2019
103 Clouds 12 1019 71 10000 2.6 320 06:39 16.10.2019
104 Clouds 11 1019 71 10000 3.1 320 05:55 16.10.2019
105 Clouds 12 1019 67 10000 4.1 320 03:27 16.10.2019
106 Clouds 12 1019 62 10000 4.1 330 02:49 16.10.2019
107 Clouds 13 1019 58 10000 2.6 340 01:19 16.10.2019
108 Clouds 14 1020 58 10000 3.1 330 00:52 16.10.2019
109 Clouds 14 1020 58 10000 2.6 340 00:32 16.10.2019
110 Clear 14 1019 51 10000 2.6 340 23:41 15.10.2019
111 Clear 15 1019 51 10000 3.1 320 23:22 15.10.2019
112 Clouds 15 1019 51 10000 1 0 22:56 15.10.2019
113 Clouds 16 1019 45 10000 2.1 310 22:38 15.10.2019
114 Clouds 16 1019 45 10000 2.1 310 22:20 15.10.2019
115 Clouds 16 1018 55 10000 2.1 300 21:56 15.10.2019
116 Clouds 16 1018 55 10000 2.1 300 21:56 15.10.2019
117 Clouds 16 1018 55 10000 2.1 300 21:38 15.10.2019
118 Clouds 17 1018 45 10000 3.6 290 21:20 15.10.2019
119 Clear 17 1018 48 10000 2.6 300 20:57 15.10.2019
120 Clear 17 1018 48 10000 2.6 300 20:39 15.10.2019
121 Clear 17 1018 48 10000 2.6 300 20:39 15.10.2019
122 Clear 17 1017 45 10000 2.6 310 20:20 15.10.2019
123 Clear 18 1017 42 10000 3.1 320 19:58 15.10.2019
124 Clouds 19 1017 42 10000 2.6 300 19:40 15.10.2019
125 Clouds 19 1017 42 10000 2.6 300 19:20 15.10.2019
126 Clouds 20 1016 40 10000 4.1 300 18:48 15.10.2019
127 Clouds 20 1016 37 10000 1.5 330 18:29 15.10.2019
128 Clear 20 1016 35 10000 3.6 310 17:59 15.10.2019
129 Clear 20 1016 35 10000 3.6 310 17:41 15.10.2019
130 Clear 20 1016 35 10000 3.6 310 17:41 15.10.2019
131 Clouds 21 1016 35 10000 3.1 300 17:20 15.10.2019
132 Clear 21 1016 35 10000 5.1 310 16:57 15.10.2019
133 Clear 21 1016 37 10000 6.2 330 16:38 15.10.2019
134 Clear 21 1016 37 10000 6.2 330 16:20 15.10.2019
135 Clear 20 1015 37 10000 6.7 290 15:43 15.10.2019
136 Clear 20 1015 37 10000 6.7 290 15:43 15.10.2019
137 Clear 20 1015 37 10000 6.7 320 15:21 15.10.2019
138 Clear 20 1015 40 10000 7.2 320 14:59 15.10.2019
139 Clear 20 1015 40 10000 7.2 320 14:38 15.10.2019
140 Clear 20 1016 40 10000 5.7 330 14:38 15.10.2019
141 Clear 20 1016 40 10000 5.7 330 14:20 15.10.2019
142 Clear 19 1016 40 10000 5.7 330 14:20 15.10.2019
143 Clear 19 1016 37 10000 5.7 330 13:58 15.10.2019
144 Clear 19 1016 37 10000 5.7 330 13:40 15.10.2019
145 Clear 19 1015 40 10000 5.7 330 13:19 15.10.2019
146 Clear 18 1015 42 10000 2.1 270 12:43 15.10.2019
147 Clear 18 1015 42 10000 2.1 270 12:22 15.10.2019
148 Clear 17 1015 48 10000 3.1 270 11:57 15.10.2019
149 Clouds 17 1015 48 10000 3.1 250 11:38 15.10.2019
150 Clouds 17 1015 48 10000 3.1 250 11:19 15.10.2019
151 Clear 16 1014 51 10000 5.7 280 10:45 15.10.2019
152 Clouds 16 1015 48 10000 3.6 270 10:22 15.10.2019
153 Clouds 16 1014 55 10000 5.1 290 09:58 15.10.2019
154 Clouds 15 1014 55 10000 5.1 290 09:39 15.10.2019
155 Clouds 15 1014 55 10000 2.1 300 09:20 15.10.2019
156 -273 0 0 0 0 0 08:56 15.10.2019
157 Clouds 14 1013 58 10000 2.6 330 08:37 15.10.2019
158 Clouds 14 1013 58 10000 2.6 330 08:18 15.10.2019
159 Clouds 14 1012 55 10000 3.6 320 07:42 15.10.2019
160 Clouds 14 1012 59 10000 2.1 260 07:21 15.10.2019
161 Clouds 15 1011 55 10000 2.1 250 06:54 15.10.2019
162 Clouds 15 1011 59 10000 6.2 320 06:36 15.10.2019
163 Clouds 15 1011 59 10000 4.6 320 05:54 15.10.2019
164 Clouds 15 1011 55 10000 5.1 320 05:35 15.10.2019
165 Clouds 16 1010 59 10000 5.7 320 04:39 15.10.2019
166 Clouds 15 1010 77 10000 4.1 250 03:58 15.10.2019
167 Rain 16 1010 72 10000 5.7 330 03:30 15.10.2019
168 Rain 18 1010 94 9000 1.5 310 01:51 15.10.2019
169 Mist 19 1011 94 9000 2.6 310 01:24 15.10.2019
170 Mist 19 1011 94 9000 3.1 260 00:58 15.10.2019
171 -273 0 0 0 0 0 00:24 15.10.2019
172 Mist 19 1011 94 3000 1.5 240 23:55 14.10.2019
173 Mist 19 1011 94 3000 1.5 240 23:36 14.10.2019
174 Mist 19 1011 94 6000 1 0 23:18 14.10.2019
175 Rain 20 1011 94 9000 1.75 242.687 22:39 14.10.2019
176 Rain 20 1011 94 9000 1.75 242.687 22:19 14.10.2019
177 Clouds 20 1010 100 6000 2.1 80 21:57 14.10.2019
178 Clouds 20 1011 94 8000 2.6 70 21:39 14.10.2019
179 Clouds 20 1011 94 8000 2.6 70 21:20 14.10.2019
180 Clouds 20 1011 94 8000 3.1 50 20:56 14.10.2019
181 Clouds 21 1011 94 8000 3.1 50 20:38 14.10.2019
182 Clouds 21 1011 94 8000 3.1 60 20:38 14.10.2019
183 Clouds 21 1011 94 8000 3.1 60 20:18 14.10.2019
184 Rain 21 1011 94 8000 3.6 70 19:43 14.10.2019
185 -273 0 0 0 0 0 19:25 14.10.2019
186 Rain 21 1012 94 4800 2.6 100 18:59 14.10.2019
187 Rain 22 1012 94 4800 2.6 100 18:40 14.10.2019
188 Rain 21 1012 94 4800 2.6 100 18:40 14.10.2019
189 Rain 21 1012 88 9000 1.5 140 18:20 14.10.2019
190 Rain 22 1012 88 9000 1.5 140 18:20 14.10.2019
191 Rain 22 1012 83 10000 2.6 60 17:58 14.10.2019
192 Thunderstorm 22 1012 78 10000 3.1 100 17:40 14.10.2019
193 Clouds 22 1013 69 9000 5.1 150 17:22 14.10.2019
194 Clouds 23 1013 69 10000 3.1 80 16:44 14.10.2019
195 Clouds 24 1013 69 10000 3.1 80 16:22 14.10.2019
196 Clouds 24 1013 69 10000 4.1 80 15:57 14.10.2019
197 Clouds 24 1013 65 10000 5.7 70 15:38 14.10.2019
198 -273 0 0 0 0 0 15:20 14.10.2019
199 Clouds 25 1013 73 10000 6.7 70 14:43 14.10.2019
200 Clouds 24 1013 73 10000 6.7 70 14:24 14.10.2019
201 Clouds 24 1014 73 10000 6.2 70 13:57 14.10.2019
202 Clouds 24 1014 78 10000 6.7 70 13:38 14.10.2019
203 Clouds 23 1015 73 10000 5.7 70 13:19 14.10.2019
204 Clouds 23 1015 73 10000 6.2 70 12:41 14.10.2019
205 Clouds 22 1015 78 10000 2.6 50 12:19 14.10.2019
206 Clouds 22 1015 78 10000 5.7 70 11:47 14.10.2019
207 Clouds 22 1015 78 10000 5.7 70 11:27 14.10.2019
208 Clouds 21 1015 83 10000 4.6 40 10:59 14.10.2019
209 Clouds 21 1015 83 10000 4.1 50 10:40 14.10.2019
210 Clouds 20 1015 88 10000 4.1 50 10:21 14.10.2019
211 Clouds 20 1015 94 9000 5.1 60 09:57 14.10.2019
212 Clouds 20 1015 94 9000 5.1 60 09:38 14.10.2019
213 Clouds 19 1014 94 10000 4.1 50 09:19 14.10.2019
214 Clouds 19 1014 88 10000 4.1 60 08:45 14.10.2019
215 Clouds 19 1014 88 10000 4.1 60 08:22 14.10.2019
216 Clouds 19 1015 88 10000 3.6 50 07:44 14.10.2019
217 Clouds 19 1015 88 10000 3.6 50 07:19 14.10.2019
218 Clouds 19 1015 88 10000 4.6 50 06:54 14.10.2019
219 Clouds 19 1015 88 10000 4.1 50 06:27 14.10.2019
220 Clouds 19 1016 88 10000 4.1 50 05:50 14.10.2019
221 Clouds 20 1016 94 10000 3.6 50 04:49 14.10.2019
222 Clouds 20 1017 94 10000 3.6 60 03:28 14.10.2019
223 Clouds 20 1017 94 10000 4.1 60 02:56 14.10.2019
224 Clouds 20 1017 88 10000 4.1 50 01:36 14.10.2019
225 Clouds 20 1017 88 10000 3.6 50 01:18 14.10.2019
226 Clouds 20 1017 88 10000 4.1 50 00:21 14.10.2019
227 Clouds 21 1017 94 10000 3.1 70 23:46 13.10.2019
228 Clouds 21 1018 88 10000 3.1 90 23:21 13.10.2019
229 Clouds 21 1018 88 10000 3.1 90 23:00 13.10.2019
230 Clouds 21 1018 88 10000 3.1 100 22:41 13.10.2019
231 Clouds 21 1018 88 10000 3.1 100 22:22 13.10.2019
232 Clouds 21 1017 88 10000 3.1 90 22:22 13.10.2019
233 Clouds 21 1017 88 10000 3.1 90 21:58 13.10.2019
234 Clouds 21 1017 88 10000 3.6 100 21:38 13.10.2019
235 Clouds 21 1017 88 10000 3.6 100 21:19 13.10.2019
236 Clouds 21 1017 88 10000 4.1 90 20:58 13.10.2019
237 Clouds 21 1017 88 10000 3.6 90 20:40 13.10.2019
238 Clouds 21 1017 88 10000 3.6 90 20:21 13.10.2019
239 Clouds 22 1017 83 10000 3.6 100 20:00 13.10.2019
240 Clouds 22 1017 83 10000 3.6 100 19:39 13.10.2019
241 Clouds 22 1017 83 10000 3.6 100 19:21 13.10.2019
242 Clouds 22 1017 83 10000 4.1 120 18:59 13.10.2019
243 Clouds 22 1017 78 10000 4.1 90 18:38 13.10.2019
244 Clouds 23 1017 78 10000 5.1 80 18:20 13.10.2019
245 Clouds 23 1017 78 10000 5.1 80 17:59 13.10.2019
246 Clouds 23 1017 78 10000 4.6 100 17:40 13.10.2019
247 Clouds 23 1017 78 10000 4.6 110 17:22 13.10.2019
248 Clouds 24 1017 78 10000 5.1 90 16:43 13.10.2019
249 Clouds 24 1017 78 10000 5.1 90 16:19 13.10.2019
250 Clouds 24 1017 78 10000 5.7 90 15:57 13.10.2019
251 Clouds 24 1017 78 10000 5.7 90 15:57 13.10.2019
252 Clouds 24 1017 78 10000 5.7 90 15:39 13.10.2019
253 Clouds 24 1017 78 10000 5.7 90 15:20 13.10.2019
254 Clouds 24 1017 69 10000 5.1 120 14:57 13.10.2019
255 Clouds 24 1018 78 10000 6.7 70 14:39 13.10.2019
256 Clouds 24 1018 78 10000 6.7 70 14:20 13.10.2019
257 Clouds 24 1018 78 10000 7.2 60 13:43 13.10.2019
258 -273 0 0 0 0 0 13:24 13.10.2019
259 Clouds 24 1018 78 10000 6.2 70 12:59 13.10.2019
260 Clouds 24 1018 78 10000 6.2 70 12:59 13.10.2019
261 Clouds 23 1019 78 10000 5.1 60 12:40 13.10.2019
262 Clouds 23 1018 78 10000 5.1 60 12:21 13.10.2019
263 Clouds 23 1018 78 10000 5.1 60 11:59 13.10.2019
264 Clouds 23 1018 83 10000 5.1 60 11:40 13.10.2019
265 Clouds 22 1018 83 10000 4.6 40 11:21 13.10.2019
266 Clouds 22 1018 83 10000 4.6 40 10:59 13.10.2019
267 Clouds 22 1018 88 10000 4.1 40 10:40 13.10.2019
268 Clouds 21 1018 83 10000 3.6 60 10:22 13.10.2019
269 Clouds 20 1017 88 10000 3.1 50 09:40 13.10.2019
270 Clouds 20 1017 88 10000 3.1 50 09:21 13.10.2019
271 Clouds 19 1017 88 10000 3.1 60 08:57 13.10.2019
272 Clouds 19 1017 83 10000 2.1 30 08:37 13.10.2019
273 Clouds 19 1017 77 10000 1.5 350 08:18 13.10.2019
274 Clouds 19 1018 83 10000 2.6 30 07:45 13.10.2019
275 Clouds 20 1017 83 10000 3.1 50 06:55 13.10.2019
276 Clouds 20 1017 88 10000 3.6 40 06:31 13.10.2019
277 Clouds 20 1018 88 10000 3.1 50 05:34 13.10.2019
278 Clouds 20 1018 83 10000 4.1 60 04:46 13.10.2019
279 Clouds 20 1018 83 10000 3.6 50 03:39 13.10.2019
280 Clouds 20 1019 83 10000 3.6 50 02:35 13.10.2019
281 Clouds 20 1018 83 10000 4.1 70 01:53 13.10.2019
282 Clouds 20 1019 83 10000 3.1 60 01:26 13.10.2019
283 Clouds 20 1019 88 10000 3.6 60 00:46 13.10.2019
284 Clouds 21 1019 88 10000 3.6 60 00:21 13.10.2019
285 Clouds 21 1019 83 10000 3.6 60 23:55 12.10.2019
286 Clouds 20 1019 83 10000 4.6 50 23:36 12.10.2019
287 Clouds 21 1019 83 10000 3.1 60 23:18 12.10.2019
288 Clouds 20 1019 83 10000 3.1 60 22:56 12.10.2019
289 Clouds 21 1019 83 10000 2.6 70 22:37 12.10.2019
290 Clouds 21 1019 88 10000 2.1 70 22:19 12.10.2019
291 Clouds 21 1019 88 10000 2.6 70 21:42 12.10.2019
292 Clouds 21 1019 88 10000 2.6 70 21:24 12.10.2019
293 Clouds 21 1019 88 10000 1.5 100 20:58 12.10.2019
294 Clouds 21 1019 88 10000 1.5 100 20:58 12.10.2019
295 Clouds 21 1019 83 10000 1 100 20:39 12.10.2019
296 Clouds 21 1018 83 10000 1.5 100 20:21 12.10.2019
297 Clouds 21 1018 83 10000 2.1 120 19:37 12.10.2019
298 Clouds 22 1018 83 10000 2.6 120 19:19 12.10.2019
299 Clouds 22 1018 83 10000 2.6 120 18:56 12.10.2019
300 Clouds 22 1018 78 10000 3.1 120 18:37 12.10.2019
301 Clouds 22 1018 78 10000 3.1 120 18:19 12.10.2019
302 Clouds 23 1019 78 10000 3.1 140 17:42 12.10.2019
303 Clouds 23 1019 78 10000 3.6 140 17:19 12.10.2019
304 Clouds 23 1019 78 10000 3.6 140 16:54 12.10.2019
305 Clouds 23 1019 78 10000 3.6 140 16:54 12.10.2019
306 Clouds 24 1019 78 10000 4.1 130 16:36 12.10.2019
307 Clouds 24 1019 73 10000 4.1 130 16:18 12.10.2019
308 Clouds 24 1019 78 10000 4.1 130 15:40 12.10.2019
309 Clouds 24 1019 78 10000 4.1 130 15:22 12.10.2019
310 Clouds 24 1020 73 10000 3.6 150 14:43 12.10.2019
311 Clouds 24 1020 73 10000 3.6 150 14:22 12.10.2019
312 Clouds 24 1020 73 10000 3.6 130 13:57 12.10.2019
313 Clouds 24 1020 73 10000 3.6 130 13:38 12.10.2019
314 Clouds 24 1020 73 10000 3.6 130 13:20 12.10.2019
315 Clouds 23 1021 78 10000 1.5 140 12:39 12.10.2019
316 Clouds 23 1021 78 10000 1.5 140 12:21 12.10.2019
317 Clouds 22 1021 78 10000 1.5 140 11:58 12.10.2019
318 Clouds 22 1021 83 10000 1.5 360 11:38 12.10.2019
319 Clouds 21 1021 88 10000 1.5 340 11:19 12.10.2019
320 Clouds 20 1020 88 10000 1.5 360 10:41 12.10.2019
321 Clouds 20 1020 93 10000 0.5 0 10:23 12.10.2019
322 Clouds 19 1020 88 10000 2.1 330 09:58 12.10.2019
323 Clouds 19 1020 88 10000 2.1 330 09:58 12.10.2019
324 Clouds 19 1020 88 10000 2.1 330 09:39 12.10.2019
325 Clouds 19 1020 88 10000 2.1 330 09:21 12.10.2019
326 Clouds 19 1020 93 10000 2.1 10 08:57 12.10.2019
327 Clouds 19 1020 93 10000 2.1 10 08:57 12.10.2019
328 -273 0 0 0 0 0 08:37 12.10.2019
329 Clouds 19 1019 93 10000 2.1 340 08:18 12.10.2019
330 Clouds 18 1019 93 10000 0.1 172.03 07:33 12.10.2019
331 Clouds 18 1019 93 10000 0.5 350 06:50 12.10.2019
332 Clouds 18 1020 93 10000 1.5 320 05:46 12.10.2019
333 Clouds 18 1020 93 10000 1.5 320 05:22 12.10.2019
334 Clouds 19 1020 88 10000 0.27 95.31 03:58 12.10.2019
335 -273 0 0 0 0 0 03:30 12.10.2019
336 Clouds 20 1020 88 10000 0.87 210.252 01:38 12.10.2019
337 Clouds 19 1020 88 10000 0.87 210.252 01:19 12.10.2019
338 Clouds 20 1021 88 10000 1 220 00:40 12.10.2019
339 Clouds 20 1021 94 10000 2.1 220 23:59 11.10.2019
340 Clouds 20 1021 88 10000 2.6 220 23:40 11.10.2019
341 Clouds 20 1021 88 10000 2.6 220 23:20 11.10.2019
342 Clouds 20 1020 88 10000 2.6 220 22:41 11.10.2019
343 Clouds 20 1020 88 10000 2.6 220 22:41 11.10.2019
344 Clouds 20 1020 88 10000 2.6 220 22:21 11.10.2019
345 Clouds 21 1020 88 10000 3.6 220 21:57 11.10.2019
346 Clouds 21 1020 88 10000 4.6 220 21:39 11.10.2019
347 Clouds 21 1020 88 10000 4.6 220 21:20 11.10.2019
348 Clouds 21 1019 88 10000 3.1 230 20:44 11.10.2019
349 Clouds 21 1019 88 10000 3.1 230 20:26 11.10.2019
350 Clouds 22 1019 88 10000 3.6 230 19:58 11.10.2019
351 Clouds 22 1019 88 10000 3.6 230 19:39 11.10.2019
352 Clouds 22 1019 88 10000 3.6 230 19:39 11.10.2019
353 Clouds 22 1019 78 10000 4.1 230 19:18 11.10.2019
354 Clouds 22 1019 78 10000 4.1 230 18:59 11.10.2019
355 Clouds 22 1019 83 10000 4.1 230 18:38 11.10.2019
356 Clouds 23 1019 83 10000 4.1 230 18:19 11.10.2019
357 Clouds 23 1019 83 10000 4.1 230 18:19 11.10.2019
358 Clouds 23 1020 83 10000 3.6 230 17:58 11.10.2019
359 Clouds 23 1020 83 10000 3.6 220 17:38 11.10.2019
360 Clouds 23 1020 83 10000 4.6 210 17:19 11.10.2019
361 Clouds 23 1020 83 10000 4.6 210 16:58 11.10.2019
362 Clouds 23 1020 73 10000 4.6 210 16:39 11.10.2019
363 Clouds 23 1020 78 10000 4.1 210 16:19 11.10.2019
364 Clouds 23 1020 78 10000 4.1 210 15:42 11.10.2019
365 Clouds 23 1021 78 10000 4.6 190 15:21 11.10.2019
366 Clouds 23 1021 78 10000 4.6 190 14:59 11.10.2019
367 Clouds 23 1021 73 10000 3.6 190 14:40 11.10.2019
368 Clouds 23 1021 73 10000 3.1 200 14:21 11.10.2019
369 Clouds 22 1022 73 10000 3.1 220 13:45 11.10.2019
370 Clouds 22 1022 73 10000 3.1 220 13:25 11.10.2019
371 Clouds 22 1022 68 10000 1 0 12:57 11.10.2019
372 Clouds 22 1022 68 10000 2.6 330 12:39 11.10.2019
373 Clouds 21 1022 73 10000 3.1 330 12:20 11.10.2019
374 Clouds 20 1022 73 10000 3.1 330 11:58 11.10.2019
375 Clouds 20 1022 73 10000 3.6 320 11:38 11.10.2019
376 Clouds 20 1022 73 10000 3.6 320 11:38 11.10.2019
377 Clouds 20 1022 73 10000 3.6 320 11:20 11.10.2019
378 Clouds 19 1022 72 10000 2.6 320 10:56 11.10.2019
379 Clouds 19 1022 72 10000 2.6 330 10:56 11.10.2019
380 Clouds 19 1022 72 10000 2.6 330 10:36 11.10.2019
381 Clouds 19 1022 77 10000 3.1 330 10:18 11.10.2019
382 Clouds 19 1021 77 10000 3.1 320 09:42 11.10.2019
383 Clouds 18 1021 82 10000 3.1 330 09:21 11.10.2019
384 Clouds 18 1021 82 10000 3.1 330 08:59 11.10.2019
385 Clouds 18 1021 82 10000 3.1 340 08:39 11.10.2019
386 Clouds 18 1021 77 10000 2.6 330 08:20 11.10.2019
387 Clouds 18 1021 77 10000 2.6 330 07:54 11.10.2019
388 Clouds 18 1021 82 10000 2.1 330 07:34 11.10.2019
389 Clouds 18 1021 82 10000 2.1 330 06:50 11.10.2019
390 Clouds 18 1021 82 10000 2.1 330 06:25 11.10.2019
391 Clouds 18 1021 77 10000 1.5 330 05:48 11.10.2019
392 Clouds 18 1021 77 10000 1.5 330 05:30 11.10.2019
393 Clouds 18 1021 77 10000 2.1 340 04:58 11.10.2019
394 Clouds 18 1022 77 10000 1.5 330 03:40 11.10.2019
395 Clouds 18 1022 82 10000 0.95 251.871 01:26 11.10.2019
396 Clouds 18 1023 72 10000 0.95 251.871 00:41 11.10.2019
397 Clouds 18 1023 72 10000 2.02 202.607 00:20 11.10.2019
398 Clouds 18 1022 72 10000 1 0 23:41 10.10.2019
399 Clouds 18 1022 72 10000 1 220 23:20 10.10.2019
400 Clouds 18 1022 72 10000 1 220 22:56 10.10.2019
401 Clouds 18 1022 77 10000 2.1 190 22:36 10.10.2019
402 Clouds 18 1022 77 10000 2.1 190 22:18 10.10.2019
403 Clouds 18 1022 72 10000 2.1 200 22:18 10.10.2019
404 Clouds 18 1022 72 10000 2.6 200 21:42 10.10.2019
405 Clouds 19 1022 72 10000 2.6 200 21:22 10.10.2019
406 Clouds 19 1022 72 10000 2.6 200 20:59 10.10.2019
407 Clouds 19 1022 72 10000 2.6 200 20:59 10.10.2019
408 Clouds 19 1022 72 10000 2.1 210 20:40 10.10.2019
409 Clouds 19 1022 72 10000 2.1 210 20:20 10.10.2019
410 Clouds 19 1021 68 10000 3.1 200 19:57 10.10.2019
411 Clouds 19 1021 72 10000 3.1 210 19:39 10.10.2019
412 Clouds 19 1021 72 10000 4.6 210 19:19 10.10.2019
413 Clouds 20 1021 77 10000 4.1 210 18:54 10.10.2019
414 Clouds 20 1021 77 10000 4.1 210 18:36 10.10.2019
415 Clouds 20 1021 72 10000 3.6 220 18:18 10.10.2019
416 Clouds 21 1021 72 10000 3.6 220 17:40 10.10.2019
417 Clouds 21 1021 72 10000 4.1 210 17:19 10.10.2019
418 Clouds 21 1021 72 10000 4.1 210 16:58 10.10.2019
419 Clouds 21 1022 64 10000 3.1 230 16:38 10.10.2019
420 Clouds 21 1022 64 10000 3.1 230 16:20 10.10.2019
421 Rain 21 1022 64 10000 3.1 220 15:43 10.10.2019
422 Clouds 21 1022 64 10000 2.1 190 15:23 10.10.2019
423 Rain 20 1022 64 10000 2.1 190 14:59 10.10.2019
424 Clouds 20 1023 68 10000 2.1 200 14:37 10.10.2019
425 Clouds 20 1023 68 10000 2.1 200 14:37 10.10.2019
426 Clouds 20 1023 68 10000 2.1 200 14:19 10.10.2019
427 Clouds 20 1023 68 10000 2.1 210 14:19 10.10.2019
428 Clouds 20 1023 68 10000 2.1 210 13:59 10.10.2019
429 Clouds 20 1023 64 10000 2.1 190 13:39 10.10.2019
430 Clouds 20 1023 68 10000 2.1 190 13:18 10.10.2019
431 Drizzle 19 1023 64 10000 2.1 170 12:54 10.10.2019
432 Drizzle 19 1023 64 10000 2.1 170 12:36 10.10.2019
433 Clouds 19 1023 72 10000 1.5 160 12:18 10.10.2019
434 Rain 19 1023 68 10000 1.5 130 11:42 10.10.2019
435 Rain 19 1023 68 10000 0.5 0 11:21 10.10.2019
436 Rain 18 1023 68 10000 0.5 0 10:59 10.10.2019
437 Rain 18 1022 72 10000 2.26 160.709 10:41 10.10.2019
438 Clouds 18 1022 82 10000 1.5 340 10:22 10.10.2019
439 Clouds 18 1022 82 10000 1.5 340 09:55 10.10.2019
440 Clouds 18 1022 88 10000 2.1 0 09:37 10.10.2019
441 Clouds 18 1021 88 10000 2.6 330 09:19 10.10.2019
442 Clouds 18 1021 88 10000 2.1 330 08:41 10.10.2019
443 Clouds 18 1021 88 10000 3.6 330 08:22 10.10.2019
444 Clouds 18 1021 88 10000 3.6 330 07:58 10.10.2019
445 Clouds 18 1021 82 10000 3.1 310 07:38 10.10.2019
446 Clouds 18 1021 82 10000 3.1 310 07:19 10.10.2019
447 Clouds 18 1020 82 10000 2.1 310 06:45 10.10.2019
448 Clouds 18 1020 82 10000 1.5 300 06:22 10.10.2019
449 Clouds 18 1020 88 10000 2.6 310 05:23 10.10.2019
450 Clouds 18 1020 88 10000 2.6 310 04:37 10.10.2019
451 Clouds 18 1021 82 10000 1.5 270 03:27 10.10.2019
452 Drizzle 18 1021 82 10000 1 40 01:42 10.10.2019
453 Drizzle 18 1021 82 10000 1 40 01:24 10.10.2019
454 Clouds 18 1020 82 10000 2.6 50 00:45 10.10.2019
455 Clouds 18 1020 82 10000 2.6 60 00:20 10.10.2019
456 Drizzle 18 1020 82 10000 4.1 50 23:39 09.10.2019
457 Drizzle 18 1020 82 10000 4.1 50 23:20 09.10.2019
458 Clouds 18 1020 82 10000 3.6 50 22:43 09.10.2019
459 Clouds 18 1020 82 10000 3.6 50 22:24 09.10.2019
460 Clouds 18 1020 82 10000 4.6 50 21:59 09.10.2019
461 Drizzle 18 1020 82 10000 4.6 60 21:40 09.10.2019
462 Clouds 18 1019 88 10000 6.2 70 21:20 09.10.2019
463 Clouds 18 1019 88 10000 6.2 70 20:56 09.10.2019
464 Clouds 18 1019 88 10000 6.2 70 20:56 09.10.2019
465 Clouds 18 1019 88 10000 6.2 70 20:56 09.10.2019
466 Rain 18 1019 88 10000 1.5 40 20:37 09.10.2019
467 Rain 18 1019 88 10000 1.5 40 20:37 09.10.2019
468 Rain 19 1019 88 10000 1.5 40 20:19 09.10.2019
469 Rain 19 1018 93 7000 8.2 80 19:57 09.10.2019
470 Rain 19 1018 88 10000 8.2 70 19:39 09.10.2019
471 Rain 20 1018 83 10000 7.2 70 19:20 09.10.2019
472 Rain 21 1017 78 10000 3.6 160 18:38 09.10.2019
473 Clouds 22 1017 78 10000 3.6 160 18:19 09.10.2019
474 Clouds 23 1017 73 10000 4.1 180 17:57 09.10.2019
475 Clouds 23 1017 83 10000 4.1 190 17:37 09.10.2019
476 Clouds 23 1017 83 10000 3.1 190 17:19 09.10.2019
477 Clouds 23 1017 83 10000 3.1 190 17:19 09.10.2019
478 Rain 23 1017 83 10000 3.1 190 16:55 09.10.2019
479 Rain 23 1017 83 10000 3.6 190 16:36 09.10.2019
480 Rain 23 1017 78 10000 4.6 200 16:18 09.10.2019
481 Rain 23 1017 78 10000 5.1 210 15:55 09.10.2019
482 Rain 23 1017 78 10000 5.1 210 15:36 09.10.2019
483 Rain 23 1017 78 10000 5.1 210 15:18 09.10.2019
484 Rain 23 1017 78 10000 5.1 210 15:18 09.10.2019
485 Clouds 23 1017 78 10000 5.7 220 14:41 09.10.2019
486 Clouds 22 1017 73 10000 6.2 220 14:18 09.10.2019
487 Clouds 22 1017 73 10000 6.2 220 13:55 09.10.2019
488 Clouds 22 1017 69 10000 5.7 220 13:36 09.10.2019
489 Clouds 22 1017 73 10000 5.7 220 13:18 09.10.2019
490 Clouds 22 1017 69 10000 5.7 210 12:42 09.10.2019
491 Clouds 21 1018 69 10000 5.7 220 12:22 09.10.2019
492 Clouds 21 1018 69 10000 5.7 220 11:57 09.10.2019
493 Clouds 21 1018 69 10000 5.7 220 11:39 09.10.2019
494 Clouds 21 1018 73 10000 4.6 220 11:20 09.10.2019
495 Clouds 20 1018 73 10000 4.6 220 10:57 09.10.2019
496 Clouds 20 1017 73 10000 1 280 10:39 09.10.2019
497 Clouds 20 1017 77 10000 1.5 300 10:18 09.10.2019
498 Clouds 19 1017 77 10000 2.1 320 09:42 09.10.2019
499 Drizzle 18 1017 82 10000 2.6 310 09:20 09.10.2019
500 Drizzle 18 1017 82 10000 2.6 310 08:57 09.10.2019
501 Clouds 18 1017 82 10000 2.6 310 08:37 09.10.2019
502 Clouds 18 1017 82 10000 2.6 310 08:18 09.10.2019
503 Clouds 18 1017 82 10000 0.5 0 07:43 09.10.2019
504 Clouds 18 1017 82 10000 0.5 0 07:23 09.10.2019
505 Clouds 18 1017 82 10000 3.1 320 06:52 09.10.2019
506 Clouds 17 1017 82 10000 2.1 320 06:20 09.10.2019
507 Clouds 17 1017 88 10000 2.1 330 05:46 09.10.2019
508 Clouds 17 1017 88 10000 2.1 330 05:46 09.10.2019
509 Clouds 18 1017 88 10000 2.6 310 04:27 09.10.2019
510 Clouds 18 1017 88 10000 0.5 0 03:24 09.10.2019
511 Clouds 19 1017 82 10000 1 320 01:48 09.10.2019
512 Clouds 19 1017 82 10000 1 320 01:22 09.10.2019
513 Clouds 19 1017 88 10000 3.1 240 00:59 09.10.2019
514 Clouds 19 1017 88 10000 3.1 240 00:40 09.10.2019
515 Clouds 19 1017 88 10000 3.1 240 00:22 09.10.2019
516 Clouds 19 1017 88 10000 3.1 240 00:22 09.10.2019
517 Clouds 20 1017 88 10000 3.6 250 23:57 08.10.2019
518 Clouds 20 1017 88 10000 4.1 250 23:37 08.10.2019
519 Clouds 20 1017 83 10000 4.6 240 23:18 08.10.2019
520 Clouds 20 1017 83 10000 5.1 250 22:40 08.10.2019
521 Clouds 21 1017 83 10000 5.1 240 22:20 08.10.2019
522 Clouds 21 1017 83 10000 5.1 250 21:58 08.10.2019
523 Clouds 21 1017 83 10000 5.1 250 21:39 08.10.2019
524 Clouds 21 1017 83 10000 7.7 240 21:20 08.10.2019
525 Clouds 21 1017 83 10000 7.7 240 20:57 08.10.2019
526 Clouds 22 1017 78 10000 7.7 240 20:39 08.10.2019
527 Clouds 22 1017 78 10000 7.7 240 20:21 08.10.2019
528 Clouds 22 1017 78 10000 6.7 240 19:59 08.10.2019
529 Clear 23 1017 73 10000 8.7 230 19:41 08.10.2019
530 Clear 23 1016 73 10000 8.2 240 19:23 08.10.2019
531 Clouds 23 1017 69 10000 8.7 230 18:55 08.10.2019
532 Clouds 23 1017 69 10000 8.7 230 18:55 08.10.2019
533 Clouds 23 1017 69 10000 8.7 230 18:37 08.10.2019
534 Clouds 24 1017 73 10000 8.2 240 18:19 08.10.2019
535 Clouds 24 1017 69 10000 8.7 230 17:55 08.10.2019
536 Clouds 24 1017 69 10000 8.7 230 17:55 08.10.2019
537 Clouds 24 1017 69 10000 8.7 230 17:36 08.10.2019
538 Clouds 24 1017 69 10000 8.7 230 17:36 08.10.2019
539 Clouds 24 1017 69 10000 9.3 230 17:18 08.10.2019
540 Clouds 25 1017 69 10000 9.8 230 16:40 08.10.2019
541 Clouds 25 1017 69 10000 9.8 230 16:22 08.10.2019
542 Clouds 25 1018 69 10000 9.3 230 15:56 08.10.2019
543 Clouds 24 1018 64 10000 8.7 220 15:37 08.10.2019
544 Clouds 25 1018 64 10000 8.7 220 15:19 08.10.2019
545 Clouds 24 1019 57 10000 7.7 220 14:42 08.10.2019
546 Clouds 24 1019 60 10000 7.7 220 14:21 08.10.2019
547 Clouds 24 1019 60 10000 7.7 220 13:58 08.10.2019
548 Clouds 24 1019 57 10000 7.2 220 13:39 08.10.2019
549 Clouds 24 1019 57 10000 7.2 220 13:20 08.10.2019
550 Clouds 23 1020 57 10000 7.2 220 12:59 08.10.2019
551 Clouds 23 1020 57 10000 7.2 220 12:38 08.10.2019
552 Clouds 22 1020 60 10000 6.7 220 12:19 08.10.2019
553 Clouds 22 1020 64 10000 2.6 270 11:43 08.10.2019
554 Clouds 21 1020 64 10000 2.6 270 11:24 08.10.2019
555 Clouds 21 1020 64 10000 2.1 320 10:59 08.10.2019
556 Clouds 20 1020 63 10000 2.6 320 10:40 08.10.2019
557 Clouds 19 1019 68 10000 2.1 330 10:21 08.10.2019
558 Clouds 19 1019 68 10000 2.1 330 09:58 08.10.2019
559 Clouds 19 1019 72 10000 3.1 330 09:39 08.10.2019
560 Clouds 17 1019 72 10000 3.6 330 09:20 08.10.2019
561 Clouds 16 1019 67 10000 3.1 330 08:43 08.10.2019
562 Clouds 16 1019 67 10000 3.1 330 08:25 08.10.2019
563 Clouds 16 1019 72 10000 3.1 340 07:47 08.10.2019
564 Clouds 16 1019 72 10000 2.6 330 07:23 08.10.2019
565 Clouds 16 1019 72 10000 2.6 330 06:57 08.10.2019
566 Clouds 16 1019 72 10000 3.6 330 06:35 08.10.2019
567 Clouds 16 1019 72 10000 3.1 330 05:58 08.10.2019
568 Clouds 16 1019 68 10000 3.1 330 05:38 08.10.2019
569 Clouds 16 1019 72 10000 3.6 330 04:55 08.10.2019
570 Clouds 17 1019 68 10000 2.6 320 03:30 08.10.2019
571 Clouds 17 1019 63 10000 2.1 330 02:40 08.10.2019
572 Clouds 17 1019 63 10000 1.5 290 01:51 08.10.2019
573 Clouds 17 1019 63 10000 1.5 290 01:33 08.10.2019
574 Clouds 18 1019 68 10000 1 0 00:55 08.10.2019
575 Clear 18 1019 63 10000 1 180 00:23 08.10.2019
576 Clear 19 1018 60 10000 1.5 190 23:44 07.10.2019
577 Clear 19 1018 60 10000 1.5 190 23:21 07.10.2019
578 Clear 20 1018 60 10000 1.5 190 22:59 07.10.2019
579 Clear 20 1018 60 10000 3.1 210 22:40 07.10.2019
580 Clear 20 1018 60 10000 3.1 210 22:21 07.10.2019
581 Clear 20 1017 60 10000 2.1 210 21:59 07.10.2019
582 Clear 20 1017 56 10000 2.6 230 21:40 07.10.2019
583 Clear 20 1017 56 10000 2.6 230 21:20 07.10.2019
584 Clear 20 1017 56 10000 2.6 230 21:20 07.10.2019
585 Clear 20 1017 64 10000 2.6 250 20:59 07.10.2019
586 Clear 20 1016 60 10000 2.6 240 20:39 07.10.2019
587 Clear 20 1016 60 10000 2.6 240 20:39 07.10.2019
588 Clear 20 1016 60 10000 2.6 240 20:39 07.10.2019
589 Clear 20 1016 60 10000 2.1 200 20:21 07.10.2019
590 Clear 21 1016 60 10000 2.1 200 19:59 07.10.2019
591 Clear 21 1016 56 10000 5.1 240 19:41 07.10.2019
592 Clear 21 1016 56 10000 5.1 240 19:41 07.10.2019
593 Clear 22 1016 56 10000 5.1 240 19:20 07.10.2019
594 Clear 22 1015 56 10000 3.6 220 18:59 07.10.2019
595 Clouds 22 1015 53 10000 5.1 230 18:40 07.10.2019
596 Clouds 23 1015 49 10000 5.1 220 18:19 07.10.2019
597 -273 0 0 0 0 0 17:54 07.10.2019
598 Clouds 23 1015 49 10000 5.1 220 17:54 07.10.2019
599 Clouds 23 1015 46 10000 5.7 210 17:36 07.10.2019
600 Clouds 24 1015 49 10000 5.7 210 17:18 07.10.2019
601 Clouds 24 1015 46 10000 5.7 210 16:43 07.10.2019
602 Clouds 24 1015 46 10000 5.7 210 16:25 07.10.2019
603 Clouds 24 1015 46 10000 6.7 240 15:46 07.10.2019
604 Clouds 24 1015 46 10000 6.7 240 15:26 07.10.2019
605 Clouds 24 1015 46 10000 7.2 230 14:58 07.10.2019
606 Clouds 24 1015 46 10000 7.2 230 14:58 07.10.2019
607 Clouds 24 1015 49 10000 5.7 210 14:40 07.10.2019
608 Clouds 23 1016 53 10000 6.7 220 14:22 07.10.2019
609 Clouds 23 1016 53 10000 4.1 220 13:44 07.10.2019
610 Clouds 23 1016 53 10000 4.1 220 13:21 07.10.2019
611 Clouds 22 1016 46 10000 2.1 280 12:57 07.10.2019
612 Clouds 22 1016 46 10000 2.6 330 12:39 07.10.2019
613 Clouds 21 1016 45 10000 4.6 340 12:20 07.10.2019
614 Clouds 20 1016 48 10000 3.6 350 11:58 07.10.2019
615 Clouds 20 1016 48 10000 3.6 350 11:39 07.10.2019
616 Clouds 19 1016 48 10000 4.1 340 11:20 07.10.2019
617 Clouds 19 1016 45 10000 4.6 340 10:42 07.10.2019
618 Clouds 18 1016 45 10000 4.6 340 10:21 07.10.2019
619 Clouds 17 1015 48 10000 3.6 330 09:57 07.10.2019
620 Clouds 17 1015 59 10000 3.6 350 09:38 07.10.2019
621 Clouds 16 1015 59 10000 4.6 360 09:20 07.10.2019
622 Clouds 16 1015 52 10000 5.7 340 08:43 07.10.2019
623 Clouds 16 1014 55 10000 5.7 340 08:20 07.10.2019
624 Clouds 16 1014 55 10000 4.6 340 07:47 07.10.2019
625 Clouds 16 1013 63 10000 3.6 320 07:27 07.10.2019
626 Clouds 16 1013 63 10000 3.6 320 06:58 07.10.2019
627 Clouds 17 1013 68 10000 5.7 330 06:38 07.10.2019
628 Clouds 16 1013 68 10000 5.7 330 06:18 07.10.2019
629 Clouds 17 1013 82 10000 3.6 330 05:26 07.10.2019
630 Clouds 17 1014 82 10000 3.6 320 04:50 07.10.2019
631 Clouds 17 1014 82 10000 2.1 330 03:48 07.10.2019
632 Clouds 18 1015 88 10000 3.1 350 03:30 07.10.2019
633 Clouds 18 1015 88 10000 2.1 10 02:39 07.10.2019
634 Clouds 18 1015 82 10000 3.1 330 02:19 07.10.2019
635 Clouds 18 1015 82 10000 3.1 330 02:19 07.10.2019
636 Clouds 18 1016 82 10000 2.1 30 01:24 07.10.2019
637 Clouds 18 1016 82 10000 2.1 30 00:53 07.10.2019
638 Clouds 19 1016 83 10000 1.5 110 00:26 07.10.2019
639 Clouds 19 1016 83 10000 1.5 110 23:59 06.10.2019
640 Clouds 19 1016 77 10000 1.5 90 23:40 06.10.2019
641 Clouds 19 1016 73 10000 1.5 100 23:20 06.10.2019
642 Clouds 19 1016 73 10000 1.5 100 22:56 06.10.2019
643 Clouds 19 1016 73 10000 1.5 110 22:37 06.10.2019
644 Clouds 19 1016 78 10000 3.6 100 22:19 06.10.2019
645 Clouds 20 1016 78 10000 3.6 100 21:55 06.10.2019
646 Clouds 20 1016 77 10000 3.1 90 21:37 06.10.2019
647 Clouds 20 1016 83 10000 3.1 90 21:18 06.10.2019
648 Clouds 20 1016 83 10000 3.1 90 21:18 06.10.2019
649 Clouds 20 1016 77 10000 2.6 90 20:55 06.10.2019
650 Clouds 20 1016 77 10000 2.6 90 20:36 06.10.2019
651 Clouds 20 1016 73 10000 3.6 80 20:18 06.10.2019
652 Clouds 21 1016 73 10000 3.6 80 19:55 06.10.2019
653 Clouds 21 1016 69 10000 4.6 70 19:36 06.10.2019
654 Clouds 21 1016 64 10000 1.5 110 19:18 06.10.2019
655 Clouds 21 1015 64 10000 3.6 100 18:55 06.10.2019
656 Clouds 21 1015 64 10000 3.6 100 18:37 06.10.2019
657 Clouds 22 1015 73 10000 3.6 120 18:18 06.10.2019
658 Clouds 22 1015 73 10000 3.6 120 18:18 06.10.2019
659 Clouds 22 1015 73 10000 3.6 120 18:18 06.10.2019
660 Clouds 22 1015 73 10000 3.6 120 18:18 06.10.2019
661 Clouds 22 1016 73 10000 4.1 120 17:43 06.10.2019
662 Clouds 22 1016 73 10000 4.1 120 17:20 06.10.2019
663 Clouds 22 1016 73 10000 4.1 130 16:56 06.10.2019
664 Clouds 22 1016 73 10000 4.1 130 16:56 06.10.2019
665 Clouds 22 1016 69 10000 4.6 140 16:37 06.10.2019
666 Clouds 22 1016 69 10000 4.1 140 16:19 06.10.2019
667 Clouds 22 1017 73 10000 5.1 130 15:43 06.10.2019
668 Clouds 22 1017 73 10000 5.7 120 15:22 06.10.2019
669 Clouds 22 1017 73 10000 5.7 120 14:57 06.10.2019
670 Clouds 22 1018 73 10000 5.1 120 14:39 06.10.2019
671 Clouds 22 1018 73 10000 5.1 120 14:20 06.10.2019
672 Clouds 22 1018 69 10000 4.6 120 13:54 06.10.2019
673 Clouds 22 1018 69 10000 4.6 120 13:54 06.10.2019
674 Clouds 22 1018 69 10000 4.6 120 13:54 06.10.2019
675 Clouds 22 1018 73 10000 4.1 130 13:36 06.10.2019
676 Clouds 21 1018 73 10000 4.6 110 13:18 06.10.2019
677 Clouds 21 1018 73 10000 4.6 120 12:55 06.10.2019
678 Clouds 21 1018 73 10000 4.6 120 12:55 06.10.2019
679 Clouds 21 1018 73 10000 4.6 120 12:37 06.10.2019
680 Clouds 21 1018 78 10000 3.6 130 12:19 06.10.2019
681 Clouds 21 1019 73 10000 1.5 80 11:42 06.10.2019
682 Clouds 20 1018 77 10000 3.1 30 11:24 06.10.2019
683 Clouds 20 1018 77 10000 3.1 30 11:24 06.10.2019
684 Clouds 20 1018 77 10000 3.1 30 10:56 06.10.2019
685 Clouds 20 1018 77 10000 3.1 30 10:56 06.10.2019
686 Clouds 20 1018 77 10000 3.6 40 10:38 06.10.2019
687 Clouds 19 1017 77 10000 3.6 50 10:19 06.10.2019
688 Clouds 19 1017 82 10000 2.6 30 09:41 06.10.2019
689 Clouds 18 1017 82 10000 2.6 30 09:20 06.10.2019
690 Clouds 18 1017 82 10000 1.5 360 08:50 06.10.2019
691 Clouds 18 1017 82 10000 1.5 360 08:30 06.10.2019
692 Clouds 18 1016 88 10000 0.5 0 07:59 06.10.2019
693 Clouds 18 1016 88 10000 0.5 0 07:59 06.10.2019
694 Clouds 18 1016 88 10000 0.85 254.472 07:40 06.10.2019
695 Clouds 18 1016 82 10000 2.1 330 06:59 06.10.2019
696 Clouds 18 1016 82 10000 1 330 05:41 06.10.2019
697 Clouds 18 1016 82 10000 1 330 05:41 06.10.2019
698 Clouds 18 1017 88 10000 2.6 310 04:44 06.10.2019
699 Clouds 18 1017 88 10000 0.5 340 02:56 06.10.2019
700 Clouds 18 1017 82 10000 2.1 340 02:34 06.10.2019
701 Clouds 18 1017 82 10000 2.1 320 01:50 06.10.2019
702 Clouds 18 1017 82 10000 2.1 320 01:30 06.10.2019
703 Clouds 18 1017 82 10000 2.1 320 01:30 06.10.2019
704 Clouds 18 1017 82 10000 2.1 310 00:59 06.10.2019
705 Clouds 18 1017 88 10000 1.43 222.904 00:38 06.10.2019
706 Clouds 18 1017 88 10000 1.43 222.904 00:38 06.10.2019
707 Clouds 18 1017 82 10000 0.5 0 00:19 06.10.2019
708 Clouds 19 1017 77 10000 1.71 206.85 23:42 05.10.2019
709 Clouds 19 1017 77 10000 0.5 0 23:21 05.10.2019
710 Clouds 19 1017 77 10000 0.5 0 22:56 05.10.2019
711 Clouds 19 1017 77 10000 1.71 206.85 22:37 05.10.2019
712 Clouds 19 1017 77 10000 0.5 0 22:19 05.10.2019
713 Clouds 20 1016 73 10000 1 0 21:42 05.10.2019
714 Clouds 20 1016 73 10000 1 0 21:23 05.10.2019
715 Clouds 20 1016 77 10000 1 0 20:58 05.10.2019
716 Clouds 20 1016 77 10000 1 130 20:40 05.10.2019
717 Clouds 20 1016 77 10000 1 130 20:20 05.10.2019
718 Clouds 20 1016 73 10000 2.6 130 19:56 05.10.2019
719 Clouds 20 1016 73 10000 2.6 130 19:37 05.10.2019
720 Clouds 20 1016 73 10000 2.6 140 19:18 05.10.2019
721 Clouds 20 1016 73 10000 2.6 140 18:55 05.10.2019
722 Clouds 21 1016 73 10000 2.6 150 18:36 05.10.2019
723 Clouds 21 1016 73 10000 2.6 140 18:18 05.10.2019
724 Clouds 21 1015 73 10000 3.6 140 17:42 05.10.2019
725 Clouds 21 1015 73 10000 3.6 140 17:22 05.10.2019
726 Clouds 21 1015 73 10000 4.1 150 16:56 05.10.2019
727 Clouds 22 1015 68 10000 4.6 140 16:37 05.10.2019
728 Clouds 22 1015 68 10000 4.6 140 16:18 05.10.2019
729 Clouds 22 1016 68 10000 5.1 150 15:56 05.10.2019
730 Clouds 22 1016 68 10000 5.1 150 15:37 05.10.2019
731 Clouds 22 1016 64 10000 4.6 140 15:19 05.10.2019
732 Clouds 22 1016 64 10000 4.1 140 14:42 05.10.2019
733 Clouds 22 1016 69 10000 3.6 130 14:23 05.10.2019
734 Clouds 22 1016 73 10000 4.1 120 13:44 05.10.2019
735 Clouds 22 1016 69 10000 3.6 120 13:26 05.10.2019
736 Clouds 22 1016 69 10000 3.6 120 13:26 05.10.2019
737 Clouds 22 1016 69 10000 3.6 120 12:59 05.10.2019
738 Clouds 22 1016 69 10000 3.6 120 12:59 05.10.2019
739 Clouds 22 1016 68 10000 3.1 120 12:41 05.10.2019
740 Drizzle 21 1016 73 10000 0.5 170 12:19 05.10.2019
741 Clouds 21 1016 77 10000 1.5 320 11:41 05.10.2019
742 Clouds 21 1016 77 10000 2.6 350 11:20 05.10.2019
743 Clouds 20 1016 77 10000 2.6 350 10:57 05.10.2019
744 Clouds 20 1016 77 10000 2.6 350 10:57 05.10.2019
745 Clouds 20 1016 77 10000 2.1 320 10:38 05.10.2019
746 Clouds 19 1016 77 10000 2.1 320 10:20 05.10.2019
747 Clouds 18 1015 77 10000 2.6 330 09:42 05.10.2019
748 Clouds 18 1015 77 10000 2.6 330 09:23 05.10.2019
749 Clouds 18 1015 77 10000 2.6 330 09:23 05.10.2019
750 Clouds 17 1015 82 10000 3.6 330 08:56 05.10.2019
751 Clouds 17 1015 82 10000 3.6 330 08:38 05.10.2019
752 Clouds 17 1015 82 10000 4.1 330 08:18 05.10.2019
753 Clouds 17 1014 82 10000 3.6 340 07:46 05.10.2019
754 Clouds 17 1014 82 10000 3.6 340 07:28 05.10.2019
755 Clouds 17 1014 82 10000 3.1 330 06:56 05.10.2019
756 Clouds 17 1014 77 10000 3.1 340 06:23 05.10.2019
757 Clouds 17 1014 82 10000 3.1 330 05:39 05.10.2019
758 Clouds 18 1015 72 10000 3.6 50 03:32 05.10.2019
759 Clouds 18 1015 72 10000 2.1 20 02:45 05.10.2019
760 Clouds 18 1015 72 10000 2.6 350 01:27 05.10.2019
761 Clouds 19 1015 72 10000 2.6 320 00:49 05.10.2019
762 Clouds 19 1015 72 10000 2.1 340 00:28 05.10.2019
763 Clouds 19 1015 72 10000 1.5 350 23:58 04.10.2019
764 Clear 19 1015 77 10000 2.1 270 23:40 04.10.2019
765 Clear 19 1015 77 10000 2.1 270 23:22 04.10.2019
766 Clear 20 1014 73 10000 1 0 22:57 04.10.2019
767 Clear 20 1014 73 10000 1 0 22:57 04.10.2019
768 Clear 20 1014 73 10000 1 0 22:57 04.10.2019
769 Clear 19 1014 64 10000 1.5 280 22:38 04.10.2019
770 Clouds 20 1014 68 10000 2.1 280 22:19 04.10.2019
771 Clouds 20 1014 73 10000 3.1 270 21:55 04.10.2019
772 Clouds 21 1014 73 10000 3.1 270 21:36 04.10.2019
773 Clouds 21 1014 68 10000 2.6 240 21:18 04.10.2019
774 Clouds 21 1014 68 10000 2.6 230 20:41 04.10.2019
775 Clouds 22 1014 68 10000 2.6 230 20:23 04.10.2019
776 Clouds 22 1014 64 10000 4.1 230 19:57 04.10.2019
777 Clouds 22 1014 64 10000 4.1 230 19:57 04.10.2019
778 Clouds 23 1014 60 10000 4.6 230 19:39 04.10.2019
779 Clouds 23 1014 60 10000 4.6 230 19:20 04.10.2019
780 Clouds 23 1014 60 10000 5.1 220 18:56 04.10.2019
781 Clouds 24 1014 57 10000 5.1 220 18:37 04.10.2019
782 Clouds 24 1014 60 10000 5.7 220 18:18 04.10.2019
783 Clouds 24 1014 64 10000 5.1 200 17:41 04.10.2019
784 Clouds 24 1014 64 10000 5.1 200 17:22 04.10.2019
785 Clouds 25 1014 64 10000 3.6 210 16:58 04.10.2019
786 Clouds 25 1014 60 10000 3.1 170 16:40 04.10.2019
787 Clouds 25 1014 60 10000 3.1 170 16:40 04.10.2019
788 Clouds 25 1014 60 10000 3.1 170 16:19 04.10.2019
789 Clouds 25 1014 60 10000 3.1 170 16:19 04.10.2019
790 Clouds 25 1015 47 10000 3.1 170 15:57 04.10.2019
791 Clouds 24 1015 50 10000 2.6 120 15:39 04.10.2019
792 Clouds 24 1016 47 10000 3.1 110 15:20 04.10.2019
793 Clouds 24 1016 47 10000 3.1 110 14:56 04.10.2019
794 Clouds 24 1016 57 10000 3.6 70 14:38 04.10.2019
795 Clouds 24 1016 57 10000 3.6 70 14:20 04.10.2019
796 Clouds 24 1016 73 10000 5.7 60 13:45 04.10.2019
797 Clouds 23 1016 73 10000 5.7 60 13:22 04.10.2019
798 Clouds 23 1017 64 10000 3.6 40 12:56 04.10.2019
799 Clouds 22 1017 64 10000 3.6 40 12:37 04.10.2019
800 Clouds 22 1017 60 10000 3.1 320 12:18 04.10.2019
801 Clouds 21 1017 60 10000 3.6 330 11:42 04.10.2019
802 Clouds 21 1017 60 10000 3.6 330 11:42 04.10.2019
803 Clouds 20 1017 60 10000 3.6 330 11:21 04.10.2019
804 Clouds 20 1017 63 10000 3.6 330 10:42 04.10.2019
805 Clouds 19 1017 63 10000 3.6 340 10:22 04.10.2019
806 Clouds 19 1017 63 10000 3.6 340 09:58 04.10.2019
807 Clouds 18 1017 63 10000 3.6 340 09:58 04.10.2019
808 Clouds 18 1017 67 10000 4.1 330 09:40 04.10.2019
809 Clouds 18 1017 67 10000 4.1 330 09:40 04.10.2019
810 Clouds 16 1016 72 10000 4.1 340 09:22 04.10.2019
811 Clouds 15 1016 77 10000 4.1 340 08:45 04.10.2019
812 Clouds 16 1016 77 10000 4.1 340 08:26 04.10.2019
813 Clouds 15 1016 72 10000 4.1 330 07:47 04.10.2019
814 Clouds 16 1016 72 10000 3.6 340 07:24 04.10.2019
815 Clouds 15 1016 72 10000 3.6 340 06:58 04.10.2019
816 Clouds 15 1016 72 10000 3.6 330 06:39 04.10.2019
817 Clouds 15 1016 77 10000 3.1 340 06:20 04.10.2019
818 Clouds 15 1016 72 10000 3.6 330 06:20 04.10.2019
819 Clouds 15 1016 77 10000 4.1 330 05:20 04.10.2019
820 Clouds 16 1016 77 10000 3.1 330 04:37 04.10.2019
821 Clouds 16 1016 72 10000 2.6 330 03:18 04.10.2019
822 Clouds 17 1016 72 10000 3.6 340 02:43 04.10.2019
823 Clouds 16 1016 72 10000 2.6 330 01:53 04.10.2019
824 Clouds 16 1016 72 10000 2.6 330 01:53 04.10.2019
825 Clear 17 1016 72 10000 3.1 330 01:26 04.10.2019
826 Clear 17 1017 68 10000 2.6 310 00:32 04.10.2019
827 Clear 18 1017 68 10000 1.5 290 23:39 03.10.2019
828 Clear 18 1016 68 10000 2.1 270 23:21 03.10.2019
829 Clear 18 1016 68 10000 2.1 270 22:57 03.10.2019
830 Clear 18 1016 68 10000 3.1 240 22:39 03.10.2019
831 Clear 18 1016 68 10000 3.1 240 22:39 03.10.2019
832 Clear 18 1016 68 10000 3.1 240 22:39 03.10.2019
833 Clear 19 1016 68 10000 3.1 240 22:21 03.10.2019
834 Clear 19 1016 68 10000 2.6 240 21:58 03.10.2019
835 Clear 19 1016 60 10000 2.1 210 21:39 03.10.2019
836 Clear 20 1015 60 10000 3.1 220 21:19 03.10.2019
837 Clear 20 1015 60 10000 3.1 220 20:58 03.10.2019
838 Clear 21 1015 60 10000 2.6 210 20:38 03.10.2019
839 Clear 21 1015 60 10000 3.6 210 20:20 03.10.2019
840 Clear 22 1015 60 10000 3.6 210 19:56 03.10.2019
841 Clear 22 1014 56 10000 4.1 210 19:37 03.10.2019
842 Clear 23 1014 56 10000 5.1 200 19:19 03.10.2019
843 Clear 23 1014 56 10000 5.1 200 18:56 03.10.2019
844 Clear 23 1014 56 10000 5.1 200 18:37 03.10.2019
845 Clear 24 1014 53 10000 5.7 210 18:18 03.10.2019
846 Clear 24 1015 50 10000 4.6 210 17:42 03.10.2019
847 Clear 24 1014 49 10000 5.1 200 17:21 03.10.2019
848 Clear 24 1014 49 10000 5.1 200 16:55 03.10.2019
849 Clear 24 1015 53 10000 4.6 180 16:37 03.10.2019
850 Clear 24 1015 53 10000 4.6 180 16:19 03.10.2019
851 Clear 24 1015 56 10000 4.1 190 15:44 03.10.2019
852 Clear 24 1015 53 10000 4.1 190 15:24 03.10.2019
853 Clear 24 1015 53 10000 4.1 190 14:58 03.10.2019
854 Clear 24 1015 53 10000 4.6 180 14:37 03.10.2019
855 Clear 23 1016 56 10000 4.1 170 14:18 03.10.2019
856 Clear 23 1016 56 10000 4.1 190 13:44 03.10.2019
857 Clear 23 1016 56 10000 4.1 190 13:25 03.10.2019
858 Clouds 22 1016 46 10000 3.1 360 12:58 03.10.2019
859 Clouds 22 1016 46 10000 3.1 360 12:39 03.10.2019
860 Clouds 22 1016 46 10000 3.1 360 12:39 03.10.2019
861 Clouds 21 1016 52 10000 5.1 330 12:20 03.10.2019
862 Clouds 20 1016 52 10000 5.1 330 11:58 03.10.2019
863 Clouds 19 1016 52 10000 5.1 330 11:39 03.10.2019
864 Clouds 19 1016 55 10000 5.1 320 11:21 03.10.2019
865 Clouds 19 1016 55 10000 5.1 320 10:57 03.10.2019
866 Clouds 18 1016 59 10000 5.7 330 10:38 03.10.2019
867 Clouds 18 1016 63 10000 4.6 320 10:18 03.10.2019
868 Clouds 17 1016 63 10000 4.6 320 09:56 03.10.2019
869 Clouds 17 1016 67 10000 5.1 310 09:37 03.10.2019
870 Clouds 16 1016 67 10000 6.2 330 09:19 03.10.2019
871 Clouds 15 1016 67 10000 8.7 330 08:42 03.10.2019
872 Clouds 16 1016 67 10000 8.7 330 08:23 03.10.2019
873 Clouds 16 1015 63 10000 5.7 320 07:42 03.10.2019
874 Clouds 16 1015 63 10000 6.2 320 07:20 03.10.2019
875 Clouds 16 1015 63 10000 6.2 320 07:20 03.10.2019
876 Clouds 16 1015 59 10000 7.7 330 06:52 03.10.2019
877 Clouds 16 1015 59 10000 7.7 330 06:27 03.10.2019
878 Clouds 16 1015 63 10000 5.7 330 05:49 03.10.2019
879 Clouds 17 1015 63 10000 5.7 330 05:27 03.10.2019
880 Clouds 17 1015 63 10000 4.1 320 04:45 03.10.2019
881 Clouds 17 1015 68 10000 4.1 330 03:54 03.10.2019
882 Clouds 17 1016 72 10000 3.6 330 03:19 03.10.2019
883 Clouds 18 1016 72 10000 3.1 330 02:22 03.10.2019
884 Clouds 18 1015 72 10000 1 310 01:40 03.10.2019
885 Clouds 18 1016 77 10000 1 270 00:53 03.10.2019
886 Clouds 19 1016 73 10000 2.1 120 00:31 03.10.2019
887 Clouds 19 1015 73 10000 1.5 140 23:55 02.10.2019
888 Clouds 19 1015 73 10000 3.1 120 23:36 02.10.2019
889 Clear 19 1015 64 10000 2.1 110 23:18 02.10.2019
890 Clear 20 1015 64 10000 0.5 90 22:41 02.10.2019
891 Clear 20 1015 64 10000 0.5 90 22:20 02.10.2019
892 Clear 21 1014 64 10000 1.5 100 21:55 02.10.2019
893 Clear 21 1014 64 10000 1.5 80 21:55 02.10.2019
894 Clear 21 1014 64 10000 1.5 80 21:37 02.10.2019
895 Clear 21 1014 64 10000 1.5 80 21:18 02.10.2019
896 Clear 21 1013 60 10000 2.74 148.198 20:55 02.10.2019
897 Clear 21 1013 60 10000 2.74 148.198 20:55 02.10.2019
898 Clear 21 1013 60 10000 2.74 148.198 20:55 02.10.2019
899 -273 0 0 0 0 0 20:54 02.10.2019
900 Clear 21 1013 60 10000 2.74 148.198 20:36 02.10.2019
901 Clear 22 1013 60 10000 2.74 148.198 20:18 02.10.2019
902 Clouds 22 1012 56 10000 2.6 130 19:43 02.10.2019
903 Clouds 23 1012 53 10000 3.1 150 19:21 02.10.2019
904 Clouds 23 1012 53 10000 3.1 150 18:57 02.10.2019
905 Clouds 23 1012 53 10000 3.1 150 18:38 02.10.2019
906 Clouds 24 1012 53 10000 4.1 160 18:20 02.10.2019
907 Clouds 24 1012 53 10000 4.1 170 17:57 02.10.2019
908 Clouds 24 1012 53 10000 4.1 170 17:38 02.10.2019
909 Clouds 24 1012 50 10000 4.1 160 17:19 02.10.2019
910 Clouds 25 1012 53 10000 3.6 180 16:42 02.10.2019
911 Clouds 25 1012 53 10000 3.6 180 16:22 02.10.2019
912 Clouds 25 1012 53 10000 4.1 170 15:59 02.10.2019
913 Clouds 25 1012 57 10000 3.1 140 15:40 02.10.2019
914 -273 0 0 0 0 0 15:22 02.10.2019
915 Clouds 25 1012 57 10000 3.1 140 15:22 02.10.2019
916 Clouds 24 1012 64 10000 3.6 150 14:57 02.10.2019
917 Clouds 24 1012 60 10000 4.1 140 14:39 02.10.2019
918 Clouds 24 1012 60 10000 4.1 140 14:39 02.10.2019
919 Clouds 24 1012 60 10000 4.1 140 14:20 02.10.2019
920 Clouds 24 1012 41 10000 1.5 330 13:45 02.10.2019
921 Clouds 24 1012 41 10000 1.5 330 13:25 02.10.2019
922 Clouds 24 1012 44 10000 2.1 20 12:58 02.10.2019
923 Clouds 23 1012 46 10000 0.5 10 12:38 02.10.2019
924 Clouds 23 1012 46 10000 0.5 10 12:20 02.10.2019
925 Clouds 22 1012 46 10000 0.5 300 11:44 02.10.2019
926 Clouds 22 1012 52 10000 2.6 260 11:23 02.10.2019
927 Clouds 21 1012 68 10000 3.6 260 10:42 02.10.2019
928 Clouds 21 1012 77 10000 5.7 260 10:20 02.10.2019
929 Clouds 20 1012 68 10000 4.1 210 09:59 02.10.2019
930 Clouds 20 1012 68 10000 2.1 220 09:38 02.10.2019
931 Clouds 19 1012 68 10000 2.1 220 09:20 02.10.2019
932 Clouds 18 1011 73 10000 2.6 200 08:45 02.10.2019
933 Clouds 18 1011 73 10000 2.6 170 08:25 02.10.2019
934 Clouds 18 1011 77 10000 2.1 180 07:59 02.10.2019
935 Clouds 18 1011 73 10000 2.6 160 07:39 02.10.2019
936 Clouds 18 1011 73 10000 2.6 160 07:20 02.10.2019
937 Clouds 18 1011 73 10000 2.6 160 07:20 02.10.2019
938 Clouds 18 1011 73 10000 2.1 110 06:40 02.10.2019
939 Clouds 18 1010 68 10000 3.1 120 05:55 02.10.2019
940 Clouds 18 1010 68 10000 3.1 120 05:55 02.10.2019
941 Clouds 18 1010 68 10000 2.1 110 05:24 02.10.2019
942 Clouds 19 1011 68 10000 3.6 100 04:53 02.10.2019
943 Clouds 19 1011 68 10000 4.1 100 03:52 02.10.2019
944 Clouds 20 1010 68 10000 5.7 100 02:42 02.10.2019
945 Clouds 21 1011 73 10000 4.6 100 02:23 02.10.2019
946 Clouds 21 1010 83 10000 6.7 80 01:40 02.10.2019
947 Clouds 22 1010 83 10000 5.7 90 00:50 02.10.2019
948 Clouds 22 1010 83 10000 4.1 60 00:27 02.10.2019
949 Clouds 22 1010 83 10000 3.6 40 23:44 01.10.2019
950 Clouds 22 1010 83 10000 3.6 40 23:25 01.10.2019
951 Clouds 22 1009 88 9000 2.1 340 22:59 01.10.2019
952 Clouds 23 1009 88 9000 2.1 340 22:40 01.10.2019
953 Clouds 23 1009 88 10000 2.6 270 22:20 01.10.2019
954 Clouds 23 1009 83 10000 2.6 250 21:57 01.10.2019
955 Clouds 23 1008 83 10000 4.6 240 21:39 01.10.2019
956 Clouds 23 1008 83 10000 4.6 240 21:21 01.10.2019
957 Clouds 23 1008 83 10000 5.7 240 20:56 01.10.2019
958 Clouds 23 1008 78 10000 7.2 230 20:38 01.10.2019
959 Clouds 24 1008 78 10000 7.2 230 20:19 01.10.2019
960 Clouds 24 1008 83 10000 7.2 220 19:56 01.10.2019
961 Clouds 24 1008 83 10000 6.2 220 19:38 01.10.2019
962 Clouds 24 1008 83 10000 6.2 220 19:18 01.10.2019
963 Clear 25 1008 78 10000 6.7 210 18:40 01.10.2019
964 Clear 26 1008 78 10000 6.7 210 18:22 01.10.2019
965 Clear 26 1008 78 10000 6.7 210 17:59 01.10.2019
966 Clear 28 1008 78 10000 9.3 220 17:40 01.10.2019
967 Clear 27 1008 78 10000 9.3 220 17:20 01.10.2019
968 Clear 27 1008 78 10000 7.7 220 16:58 01.10.2019
969 Clear 27 1008 78 10000 7.7 220 16:40 01.10.2019
970 Clear 28 1008 78 10000 7.2 210 16:21 01.10.2019
971 Clear 27 1009 73 10000 7.2 220 15:46 01.10.2019
972 Clear 27 1009 73 10000 7.2 220 15:23 01.10.2019
973 Clear 27 1010 78 10000 6.2 210 14:56 01.10.2019
974 Clear 27 1010 73 10000 6.2 210 14:37 01.10.2019
975 Clear 27 1010 73 10000 6.2 210 14:19 01.10.2019
976 Clouds 26 1011 73 10000 5.1 200 13:41 01.10.2019
977 Clouds 26 1011 73 10000 5.1 200 13:22 01.10.2019
978 Clouds 25 1011 69 10000 4.1 210 12:59 01.10.2019
979 Clouds 25 1011 78 10000 3.6 210 12:41 01.10.2019
980 Clouds 24 1011 78 10000 3.6 210 12:20 01.10.2019
981 Clouds 24 1012 78 10000 3.1 210 11:58 01.10.2019
982 Clouds 23 1012 73 10000 1.5 270 11:38 01.10.2019
983 Clouds 23 1012 73 10000 1.5 270 11:19 01.10.2019
984 Clouds 23 1012 78 10000 3.1 320 10:58 01.10.2019
985 Clouds 22 1012 77 10000 3.6 330 10:40 01.10.2019
986 Clouds 22 1012 77 10000 3.6 330 10:22 01.10.2019
987 Clouds 20 1012 88 10000 3.6 320 09:42 01.10.2019
988 Clouds 18 1012 88 10000 3.6 320 09:21 01.10.2019
989 Clouds 18 1011 88 10000 3.6 320 08:43 01.10.2019
990 Clouds 18 1011 88 10000 3.6 320 08:43 01.10.2019
991 Clouds 17 1012 88 10000 3.1 310 08:25 01.10.2019
992 Clouds 18 1011 88 10000 2.6 320 07:49 01.10.2019
993 Clouds 18 1012 88 10000 3.6 320 07:25 01.10.2019
994 Clouds 18 1012 88 10000 3.6 320 07:25 01.10.2019
995 Clouds 18 1011 88 10000 3.6 320 06:50 01.10.2019
996 Clouds 18 1012 88 10000 3.1 320 06:23 01.10.2019
997 Clouds 19 1012 88 10000 3.1 340 05:46 01.10.2019
998 Clouds 19 1012 88 10000 3.6 340 05:19 01.10.2019
999 Clouds 19 1013 88 10000 1.5 320 04:35 01.10.2019
1000 Clouds 19 1014 82 10000 2.6 320 03:25 01.10.2019
1001 Clouds 19 1014 83 10000 2.1 0 02:18 01.10.2019
1002 Clouds 20 1014 78 10000 2.6 320 01:28 01.10.2019
1003 Clouds 20 1015 78 10000 3.6 330 00:40 01.10.2019
1004 Clouds 20 1015 78 10000 1.5 320 00:22 01.10.2019
1005 Clouds 20 1015 78 10000 2.1 260 23:41 30.09.2019
1006 Clouds 20 1015 78 10000 2.1 260 23:22 30.09.2019
1007 Clouds 21 1015 78 10000 1.5 210 22:45 30.09.2019
1008 Clouds 21 1015 78 10000 1.5 230 22:26 30.09.2019
1009 Clouds 22 1015 83 10000 1 0 21:58 30.09.2019
1010 Clouds 22 1015 78 10000 1 0 21:39 30.09.2019
1011 Clouds 22 1015 78 10000 1 0 21:20 30.09.2019
1012 Clouds 22 1015 73 10000 1 0 20:58 30.09.2019
1013 Clouds 22 1015 73 10000 2.1 190 20:39 30.09.2019
1014 Clouds 22 1015 73 10000 2.1 190 20:21 30.09.2019
1015 Clouds 22 1015 73 10000 2.1 180 19:58 30.09.2019
1016 -273 0 0 0 0 0 19:40 30.09.2019
1017 Clouds 23 1015 69 10000 3.1 180 19:20 30.09.2019
1018 Clear 24 1015 69 10000 3.1 180 18:58 30.09.2019
1019 Clouds 24 1015 69 10000 3.6 190 18:40 30.09.2019
1020 Clouds 24 1015 69 10000 3.6 190 18:20 30.09.2019
1021 -273 0 0 0 0 0 17:55 30.09.2019
1022 Clouds 25 1016 65 10000 4.6 190 17:37 30.09.2019
1023 Clouds 25 1016 65 10000 4.6 190 17:18 30.09.2019
1024 Clouds 26 1016 65 10000 4.6 180 16:42 30.09.2019
1025 Clouds 26 1016 65 10000 4.6 180 16:20 30.09.2019
1026 Clouds 26 1016 65 10000 4.6 180 16:20 30.09.2019
1027 Clouds 26 1017 69 10000 4.1 210 15:59 30.09.2019
1028 Clouds 26 1017 69 10000 4.1 210 15:39 30.09.2019
1029 Clouds 26 1017 65 10000 4.6 190 15:19 30.09.2019
1030 Clouds 26 1017 69 10000 4.6 190 14:58 30.09.2019
1031 Clouds 26 1018 65 10000 4.6 180 14:38 30.09.2019
1032 Clouds 26 1018 65 10000 4.6 180 14:19 30.09.2019
1033 Clouds 26 1018 69 10000 4.6 170 13:59 30.09.2019
1034 Clouds 26 1018 57 10000 4.1 170 13:40 30.09.2019
1035 Clouds 25 1018 57 10000 4.1 170 13:21 30.09.2019
1036 Clouds 25 1018 61 10000 4.1 160 12:44 30.09.2019
1037 Clouds 24 1018 61 10000 4.1 160 12:25 30.09.2019
1038 Clouds 24 1018 61 10000 3.6 150 11:59 30.09.2019
1039 Clouds 24 1018 69 9000 1 150 11:40 30.09.2019
1040 Clouds 23 1018 69 9000 1 150 11:21 30.09.2019
1041 Clouds 23 1018 73 9000 2.1 330 10:56 30.09.2019
1042 Clouds 23 1018 78 9000 2.6 330 10:37 30.09.2019
1043 Clouds 22 1018 78 9000 2.6 330 10:18 30.09.2019
1044 -273 0 0 0 0 0 09:55 30.09.2019
1045 Clouds 21 1017 88 9000 3.1 330 09:36 30.09.2019
1046 Clouds 20 1017 88 9000 3.1 330 09:18 30.09.2019
1047 Clouds 19 1017 88 8000 2.6 330 08:45 30.09.2019
1048 Clouds 19 1017 88 8000 3.1 320 08:27 30.09.2019
1049 Clouds 19 1016 88 6000 2.1 330 07:40 30.09.2019
1050 Clouds 18 1016 88 6000 2.1 330 07:19 30.09.2019
1051 Clouds 18 1016 88 6000 3.6 330 06:47 30.09.2019
1052 Mist 19 1016 94 5000 2.6 330 06:27 30.09.2019
1053 Mist 19 1016 94 4000 2.6 320 05:40 30.09.2019
1054 Clouds 20 1016 88 8000 3.1 320 02:54 30.09.2019
1055 Clouds 19 1016 94 10000 2.6 290 02:36 30.09.2019
1056 Clouds 20 1016 88 10000 1.5 300 01:31 30.09.2019
1057 Clouds 21 1016 88 10000 0.5 240 00:38 30.09.2019
1058 Clouds 21 1016 88 10000 0.5 240 00:19 30.09.2019
1059 Clouds 21 1016 88 10000 4.6 240 23:43 29.09.2019
1060 Clouds 22 1016 88 10000 4.6 240 23:21 29.09.2019
1061 Clouds 22 1015 88 10000 4.6 250 22:55 29.09.2019
1062 Clouds 22 1015 88 10000 5.1 240 22:36 29.09.2019
1063 Clouds 22 1015 88 10000 5.1 240 22:18 29.09.2019
1064 Clouds 23 1015 88 10000 6.7 240 21:56 29.09.2019
1065 Clouds 23 1015 88 10000 8.7 240 21:36 29.09.2019
1066 Clouds 23 1015 88 10000 8.7 240 21:18 29.09.2019
1067 Clouds 23 1014 88 10000 9.3 240 20:43 29.09.2019
1068 Clouds 24 1014 88 10000 8.7 250 20:20 29.09.2019
1069 Clouds 24 1014 83 10000 9.8 240 19:58 29.09.2019
1070 Clouds 25 1014 83 10000 7.7 240 19:37 29.09.2019
1071 Clouds 25 1014 83 10000 7.7 240 19:19 29.09.2019
1072 Clouds 26 1014 83 10000 6.7 240 18:55 29.09.2019
1073 Clouds 25 1014 83 10000 6.7 240 18:55 29.09.2019
1074 Clouds 26 1014 78 10000 7.7 220 18:37 29.09.2019
1075 Clouds 27 1014 78 10000 7.7 220 18:19 29.09.2019
1076 Clouds 27 1014 78 10000 9.3 230 17:56 29.09.2019
1077 Clouds 28 1014 83 10000 10.3 230 17:38 29.09.2019
1078 Clouds 28 1014 83 10000 10.3 230 17:19 29.09.2019
1079 Clouds 28 1015 78 10000 9.8 230 16:57 29.09.2019
1080 Clouds 28 1015 78 10000 8.7 220 16:39 29.09.2019
1081 Clouds 28 1015 78 10000 8.7 220 16:19 29.09.2019
1082 Clouds 28 1015 78 10000 10.8 220 15:41 29.09.2019
1083 Clouds 28 1016 74 10000 10.3 220 15:20 29.09.2019
1084 Clouds 28 1016 74 10000 10.3 220 14:59 29.09.2019
1085 Clouds 27 1016 78 10000 10.3 230 14:40 29.09.2019
1086 Clouds 27 1016 78 10000 10.3 230 14:20 29.09.2019
1087 Clouds 27 1016 74 10000 9.8 220 13:58 29.09.2019
1088 Clear 27 1016 73 10000 9.8 220 13:40 29.09.2019
1089 Clear 26 1016 73 10000 9.8 220 13:19 29.09.2019
1090 Clear 26 1017 73 10000 9.3 220 12:58 29.09.2019
1091 Clouds 26 1017 69 10000 8.2 220 12:39 29.09.2019
1092 Clouds 25 1017 69 10000 8.2 220 12:21 29.09.2019
1093 Clouds 24 1017 73 10000 7.7 230 11:57 29.09.2019
1094 Clouds 24 1017 73 10000 6.7 240 11:38 29.09.2019
1095 Clouds 24 1017 73 10000 6.7 240 11:18 29.09.2019
1096 Clouds 23 1017 69 10000 2.1 0 10:56 29.09.2019
1097 Clouds 23 1017 78 10000 2.6 320 10:36 29.09.2019
1098 Clouds 22 1017 78 10000 2.6 320 10:18 29.09.2019
1099 Clouds 21 1017 82 10000 3.1 320 09:44 29.09.2019
1100 Clouds 19 1017 82 10000 4.1 320 09:21 29.09.2019
1101 Clouds 18 1017 82 10000 3.1 330 08:58 29.09.2019
1102 Clouds 18 1017 82 10000 3.6 320 08:38 29.09.2019
1103 Clouds 17 1017 82 10000 3.6 320 08:18 29.09.2019
1104 Clouds 17 1017 82 10000 1.5 310 07:42 29.09.2019
1105 Clouds 17 1017 82 10000 2.6 310 07:42 29.09.2019
1106 Clouds 17 1017 82 10000 1.5 310 07:23 29.09.2019
1107 Clouds 18 1017 88 10000 2.1 320 06:42 29.09.2019
1108 Clouds 18 1017 82 10000 2.6 320 05:23 29.09.2019
1109 Clouds 18 1018 82 10000 2.1 320 04:38 29.09.2019
1110 Clouds 18 1018 82 10000 2.1 320 04:18 29.09.2019
1111 Clouds 18 1018 82 10000 2.1 320 02:47 29.09.2019
1112 Clouds 19 1018 82 10000 2.1 320 02:18 29.09.2019
1113 Clouds 19 1019 77 10000 2.6 330 01:32 29.09.2019
1114 Clouds 19 1019 77 10000 2.1 310 00:52 29.09.2019
1115 Clouds 19 1019 83 10000 2.13 213.817 00:21 29.09.2019
1116 Clouds 19 1019 83 10000 2.13 213.817 00:21 29.09.2019
1117 Clouds 20 1019 78 10000 2.13 213.817 23:44 28.09.2019
1118 Clouds 20 1019 78 10000 1 0 23:23 28.09.2019
1119 Clouds 20 1019 78 10000 1 0 22:59 28.09.2019
1120 Clouds 20 1019 78 10000 2.1 300 22:39 28.09.2019
1121 Clouds 20 1019 78 10000 2.1 300 22:21 28.09.2019
1122 Clouds 21 1019 78 10000 3.1 290 21:57 28.09.2019
1123 Clouds 21 1019 78 10000 2.1 230 21:39 28.09.2019
1124 Clouds 21 1019 78 10000 2.1 230 21:39 28.09.2019
1125 Clouds 21 1019 78 10000 2.1 230 21:20 28.09.2019
1126 Clouds 21 1019 78 10000 1.5 210 20:57 28.09.2019
1127 Clouds 21 1019 78 10000 1.5 210 20:38 28.09.2019
1128 Clouds 22 1019 78 10000 1.5 210 20:18 28.09.2019
1129 Clouds 22 1019 73 10000 1.5 200 19:56 28.09.2019
1130 Clouds 22 1019 69 10000 2.1 200 19:37 28.09.2019
1131 Clouds 23 1019 69 10000 2.1 200 19:19 28.09.2019
1132 Clouds 23 1019 69 10000 2.1 130 18:54 28.09.2019
1133 Clear 23 1020 69 10000 2.1 130 18:36 28.09.2019
1134 Clear 24 1020 69 10000 2.1 130 18:18 28.09.2019
1135 Clouds 24 1020 60 10000 2.6 150 17:42 28.09.2019
1136 Clouds 24 1020 60 10000 2.6 150 17:22 28.09.2019
1137 Clouds 24 1020 60 10000 2.6 150 17:22 28.09.2019
1138 Clouds 25 1020 60 10000 3.1 140 16:57 28.09.2019
1139 Clouds 25 1020 60 10000 3.1 150 16:38 28.09.2019
1140 Clouds 25 1020 60 10000 3.1 150 16:20 28.09.2019
1141 Clouds 25 1021 60 10000 3.1 110 15:41 28.09.2019
1142 Clouds 25 1021 60 10000 3.1 110 15:22 28.09.2019
1143 Clouds 25 1021 60 10000 3.1 110 14:56 28.09.2019
1144 Clouds 25 1021 57 10000 3.6 100 14:38 28.09.2019
1145 Clouds 25 1021 57 10000 3.6 100 14:19 28.09.2019
1146 Clouds 25 1022 57 10000 4.1 60 13:56 28.09.2019
1147 Clouds 25 1022 60 10000 5.1 80 13:37 28.09.2019
1148 Clouds 24 1022 60 10000 5.1 80 13:19 28.09.2019
1149 Clouds 25 1022 57 10000 5.1 90 12:40 28.09.2019
1150 Clouds 25 1022 57 10000 5.1 90 12:40 28.09.2019
1151 Clouds 24 1022 57 10000 5.1 90 12:19 28.09.2019
1152 Clouds 24 1022 60 10000 4.6 80 11:54 28.09.2019
1153 Clouds 24 1022 60 10000 4.1 110 11:36 28.09.2019
1154 Clouds 24 1022 60 10000 4.1 110 11:18 28.09.2019
1155 Clouds 23 1021 64 10000 4.6 80 10:40 28.09.2019
1156 Clouds 23 1021 73 10000 4.1 80 10:20 28.09.2019
1157 Clouds 22 1020 69 10000 4.1 90 09:42 28.09.2019
1158 Clouds 21 1020 69 10000 4.1 90 09:23 28.09.2019
1159 Clouds 21 1020 78 10000 4.1 70 08:58 28.09.2019
1160 Clouds 20 1020 69 10000 3.6 70 08:40 28.09.2019
1161 Clouds 20 1020 69 10000 3.6 70 08:22 28.09.2019
1162 Clouds 21 1019 78 10000 3.1 80 07:44 28.09.2019
1163 Clouds 20 1019 88 10000 2.6 90 07:21 28.09.2019
1164 Clouds 21 1019 83 10000 2.1 350 06:53 28.09.2019
1165 Clouds 21 1019 83 10000 1.5 50 06:31 28.09.2019
1166 Clouds 21 1019 88 10000 0.5 0 05:43 28.09.2019
1167 Clouds 21 1019 88 10000 0.5 0 05:20 28.09.2019
1168 Clouds 21 1019 94 9000 2.1 330 04:38 28.09.2019
1169 Clouds 21 1019 88 10000 1.5 350 03:55 28.09.2019
1170 Clouds 21 1019 94 10000 1.71 115.276 03:21 28.09.2019
1171 Clouds 22 1019 94 10000 1.5 310 02:45 28.09.2019
1172 Clouds 21 1019 94 10000 1.5 310 02:27 28.09.2019
1173 Clouds 22 1019 94 10000 1 360 01:48 28.09.2019
1174 Clouds 21 1019 94 10000 1 360 01:26 28.09.2019
1175 Clouds 22 1018 88 10000 1.94 111.44 00:52 28.09.2019
1176 Clouds 22 1019 88 10000 1.94 111.44 00:31 28.09.2019
1177 Clouds 22 1018 94 7000 1 240 23:58 27.09.2019
1178 Clouds 22 1018 94 10000 2.1 230 23:37 27.09.2019
1179 Clouds 22 1018 94 10000 2.1 230 23:19 27.09.2019
1180 Clouds 22 1018 94 10000 2.1 230 22:45 27.09.2019
1181 Clouds 23 1018 88 10000 3.1 230 22:19 27.09.2019
1182 Clouds 23 1017 94 10000 3.6 230 21:57 27.09.2019
1183 Clouds 23 1017 88 10000 3.6 230 21:37 27.09.2019
1184 Clouds 23 1017 88 10000 3.6 230 21:19 27.09.2019
1185 Clouds 23 1017 83 10000 4.1 230 20:56 27.09.2019
1186 Clouds 23 1017 83 10000 4.6 220 20:38 27.09.2019
1187 Clouds 23 1017 83 10000 4.6 220 20:19 27.09.2019
1188 Clouds 24 1017 83 10000 5.1 220 19:44 27.09.2019
1189 Clouds 24 1017 88 10000 5.1 220 19:24 27.09.2019
1190 Clouds 24 1016 78 10000 5.7 210 18:59 27.09.2019
1191 Clouds 25 1016 78 10000 5.7 210 18:40 27.09.2019
1192 Clouds 25 1016 78 10000 5.7 210 18:21 27.09.2019
1193 Clouds 26 1016 78 10000 6.2 220 17:55 27.09.2019
1194 Clouds 26 1016 78 10000 6.2 210 17:37 27.09.2019
1195 Clouds 26 1016 78 10000 6.2 210 17:18 27.09.2019
1196 Clouds 26 1016 78 10000 6.2 210 16:55 27.09.2019
1197 -273 0 0 0 0 0 16:55 27.09.2019
1198 Clouds 26 1017 78 10000 6.2 200 16:36 27.09.2019
1199 Clouds 26 1017 78 10000 6.2 200 16:18 27.09.2019
1200 Clouds 26 1017 78 10000 5.1 220 15:43 27.09.2019
1201 Clouds 26 1017 78 10000 5.1 220 15:20 27.09.2019
1202 Clouds 26 1018 78 10000 4.6 210 14:56 27.09.2019
1203 Clouds 26 1018 73 10000 2.6 210 14:38 27.09.2019
1204 Clouds 26 1018 73 10000 2.6 210 14:38 27.09.2019
1205 Clouds 25 1018 73 10000 2.6 210 14:20 27.09.2019
1206 Clouds 25 1018 78 10000 2.1 170 13:57 27.09.2019
1207 Clouds 25 1018 78 10000 2.1 160 13:38 27.09.2019
1208 Clouds 25 1018 78 10000 2.1 160 13:19 27.09.2019
1209 Clouds 25 1018 78 10000 2.1 130 12:51 27.09.2019
1210 Clouds 24 1018 73 10000 0.5 0 12:22 27.09.2019
1211 Clouds 24 1018 69 10000 1.5 330 11:57 27.09.2019
1212 Clouds 24 1018 69 10000 1.5 330 11:37 27.09.2019
1213 Clouds 23 1018 69 10000 1.5 330 11:19 27.09.2019
1214 Clouds 22 1018 68 10000 3.1 330 10:42 27.09.2019
1215 Clouds 22 1018 68 10000 3.1 330 10:21 27.09.2019
1216 Clouds 21 1018 73 10000 3.6 330 09:56 27.09.2019
1217 Clouds 20 1018 72 10000 3.1 330 09:38 27.09.2019
1218 Clouds 19 1018 72 10000 3.1 330 09:18 27.09.2019
1219 Clouds 19 1018 77 10000 2.6 330 08:41 27.09.2019
1220 Clouds 18 1018 77 10000 2.6 330 08:21 27.09.2019
1221 Clouds 18 1017 77 10000 3.1 330 08:21 27.09.2019
1222 Clouds 18 1018 77 10000 2.6 330 08:21 27.09.2019
1223 Clouds 18 1017 77 10000 3.1 330 07:49 27.09.2019
1224 Clouds 18 1017 82 10000 2.6 330 07:26 27.09.2019
1225 Clouds 18 1017 82 10000 2.6 330 06:46 27.09.2019
1226 Clouds 18 1017 82 10000 2.6 330 06:28 27.09.2019
1227 Clouds 18 1017 82 10000 1.5 330 05:54 27.09.2019
1228 Clouds 18 1017 88 10000 3.1 320 05:33 27.09.2019
1229 Clouds 19 1018 82 10000 1 0 04:24 27.09.2019
1230 Clouds 19 1018 82 10000 1.14 266.669 03:38 27.09.2019
1231 Clouds 20 1018 77 10000 1 330 01:55 27.09.2019
1232 Clouds 20 1018 83 10000 0.5 0 01:30 27.09.2019
1233 Clouds 20 1018 83 10000 0.5 0 01:30 27.09.2019
1234 Clouds 20 1018 88 10000 3.1 240 00:40 27.09.2019
1235 Clouds 21 1018 88 10000 2.6 240 23:57 26.09.2019
1236 Clouds 21 1018 88 10000 4.1 250 23:39 26.09.2019
1237 Clouds 21 1018 88 10000 4.1 250 23:19 26.09.2019
1238 Clouds 21 1018 88 10000 4.1 250 23:19 26.09.2019
1239 Clear 21 1018 88 10000 4.1 250 22:58 26.09.2019
1240 Clear 21 1018 88 10000 4.1 250 22:39 26.09.2019
1241 Clear 22 1018 83 10000 4.1 240 22:18 26.09.2019
1242 Clear 22 1018 78 10000 5.7 240 21:58 26.09.2019
1243 Clear 22 1018 78 10000 5.7 230 21:38 26.09.2019
1244 Clear 22 1018 78 10000 5.7 230 21:19 26.09.2019
1245 Clear 22 1018 78 10000 5.7 230 21:19 26.09.2019
1246 Clouds 23 1017 78 10000 5.7 230 20:58 26.09.2019
1247 Clouds 23 1017 78 10000 5.7 230 20:39 26.09.2019
1248 Clouds 23 1017 78 10000 5.7 230 20:21 26.09.2019
1249 Clouds 24 1017 73 10000 5.7 230 19:58 26.09.2019
1250 Clouds 24 1017 78 10000 6.7 220 19:39 26.09.2019
1251 Clouds 25 1017 78 10000 6.7 220 19:18 26.09.2019
1252 Clear 25 1017 73 10000 6.7 220 18:54 26.09.2019
1253 Clear 25 1017 73 10000 7.2 220 18:36 26.09.2019
1254 Clear 26 1017 69 10000 7.7 230 18:18 26.09.2019
1255 Clouds 26 1017 65 10000 7.2 220 17:38 26.09.2019
1256 Clouds 26 1017 65 10000 7.2 220 17:38 26.09.2019
1257 Clouds 26 1017 65 10000 7.2 220 17:38 26.09.2019
1258 Clouds 26 1017 65 10000 7.2 220 17:38 26.09.2019
1259 Clouds 26 1017 65 10000 7.2 220 17:19 26.09.2019
1260 Clouds 26 1017 61 10000 7.2 220 16:56 26.09.2019
1261 Clouds 26 1018 57 10000 5.7 210 16:38 26.09.2019
1262 Clouds 26 1018 57 10000 5.7 210 16:19 26.09.2019
1263 Clouds 26 1018 57 10000 4.6 210 15:56 26.09.2019
1264 Clouds 25 1018 61 10000 3.1 190 15:36 26.09.2019
1265 Clouds 25 1018 61 10000 3.1 190 15:18 26.09.2019
1266 Clouds 25 1018 64 10000 3.1 160 14:41 26.09.2019
1267 Clouds 25 1018 61 10000 3.1 180 14:22 26.09.2019
1268 Clouds 25 1019 73 10000 2.6 140 13:58 26.09.2019
1269 Clouds 25 1019 69 10000 2.6 130 13:40 26.09.2019
1270 Clouds 24 1019 69 10000 2.6 130 13:19 26.09.2019
1271 Clouds 24 1019 69 10000 2.6 130 13:19 26.09.2019
1272 Clouds 24 1019 69 10000 3.1 110 12:56 26.09.2019
1273 Clouds 24 1019 69 10000 3.1 80 12:38 26.09.2019
1274 Clouds 24 1019 69 10000 3.1 80 12:19 26.09.2019
1275 Clouds 23 1019 69 10000 1 0 11:42 26.09.2019
1276 Clouds 23 1019 69 10000 1 0 11:21 26.09.2019
1277 Clouds 22 1019 73 10000 1.5 330 10:55 26.09.2019
1278 Clouds 22 1019 77 10000 3.1 320 10:37 26.09.2019
1279 Clouds 21 1019 77 10000 3.1 320 10:19 26.09.2019
1280 Clouds 19 1018 77 10000 4.1 330 09:41 26.09.2019
1281 Clouds 18 1018 77 10000 4.1 330 09:23 26.09.2019
1282 Clouds 18 1018 82 10000 3.6 330 08:54 26.09.2019
1283 Clouds 17 1018 82 10000 3.6 330 08:32 26.09.2019
1284 Clouds 17 1017 82 10000 2.1 330 07:59 26.09.2019
1285 Clouds 17 1017 82 10000 2.1 330 07:41 26.09.2019
1286 Clouds 17 1017 88 10000 3.1 340 07:20 26.09.2019
1287 Clouds 18 1017 82 10000 2.6 330 06:43 26.09.2019
1288 Clouds 18 1017 82 10000 2.6 330 06:24 26.09.2019
1289 Clouds 18 1017 82 10000 1.5 330 05:40 26.09.2019
1290 Clouds 18 1017 82 10000 1.5 330 05:21 26.09.2019
1291 Clouds 19 1017 78 10000 2.1 200 02:47 26.09.2019
1292 Clouds 20 1017 78 10000 1.5 190 01:49 26.09.2019
1293 Clouds 20 1017 73 10000 0.5 0 01:28 26.09.2019
1294 Clouds 20 1017 73 10000 2.41 191.105 00:55 26.09.2019
1295 Clouds 20 1017 73 10000 2.1 170 00:37 26.09.2019
1296 Clouds 20 1017 73 10000 1.5 160 23:47 25.09.2019
1297 Clouds 20 1017 73 10000 0.5 0 23:28 25.09.2019
1298 Clouds 20 1017 68 10000 2.28 181.333 22:57 25.09.2019
1299 Clouds 21 1017 68 10000 1.5 140 22:39 25.09.2019
1300 Clouds 21 1017 68 10000 1.5 140 22:20 25.09.2019
1301 Clouds 21 1017 68 10000 1 0 21:56 25.09.2019
1302 Clouds 21 1017 68 10000 1.5 140 21:38 25.09.2019
1303 Clouds 20 1017 68 10000 1.5 140 21:19 25.09.2019
1304 Clouds 20 1016 68 10000 1 0 20:56 25.09.2019
1305 Clouds 20 1016 68 10000 2.1 160 20:38 25.09.2019
1306 Clouds 21 1016 68 10000 2.1 160 20:19 25.09.2019
1307 Clouds 21 1016 68 10000 2.1 130 19:41 25.09.2019
1308 Clouds 21 1016 68 10000 2.6 130 19:22 25.09.2019
1309 Clouds 22 1016 68 10000 2.6 130 18:57 25.09.2019
1310 Clouds 22 1015 64 10000 3.6 120 18:39 25.09.2019
1311 Clouds 22 1015 64 10000 3.6 120 18:21 25.09.2019
1312 Clouds 22 1015 64 10000 4.1 120 17:58 25.09.2019
1313 Clouds 23 1015 69 10000 4.1 120 17:37 25.09.2019
1314 Clouds 23 1015 69 10000 4.1 120 17:19 25.09.2019
1315 Clouds 23 1015 64 10000 4.1 140 16:45 25.09.2019
1316 Clouds 23 1015 64 10000 4.1 140 16:27 25.09.2019
1317 Clouds 23 1015 64 10000 4.1 120 15:58 25.09.2019
1318 Clouds 24 1015 60 10000 4.1 130 15:40 25.09.2019
1319 Clouds 24 1015 60 10000 4.1 130 15:21 25.09.2019
1320 Clouds 24 1016 60 10000 3.6 120 14:55 25.09.2019
1321 Clouds 24 1016 64 10000 3.6 130 14:36 25.09.2019
1322 Clouds 24 1016 64 10000 3.6 130 14:36 25.09.2019
1323 Clouds 24 1016 64 10000 3.6 130 14:36 25.09.2019
1324 Clouds 24 1016 64 10000 3.6 130 14:36 25.09.2019
1325 Clouds 24 1016 64 10000 3.6 130 14:18 25.09.2019
1326 Clouds 24 1016 69 10000 2.6 140 13:41 25.09.2019
1327 Clouds 24 1016 69 10000 2.6 140 13:22 25.09.2019
1328 Clouds 24 1016 64 10000 2.1 150 12:58 25.09.2019
1329 Clouds 24 1016 60 10000 2.6 120 12:39 25.09.2019
1330 Clouds 23 1016 60 10000 2.6 120 12:21 25.09.2019
1331 Clouds 23 1016 64 10000 2.1 90 11:42 25.09.2019
1332 Clouds 23 1016 60 10000 3.6 90 11:22 25.09.2019
1333 Clouds 23 1016 64 10000 4.1 80 10:59 25.09.2019
1334 Clouds 22 1016 64 10000 4.1 80 10:41 25.09.2019
1335 Clouds 22 1015 73 10000 2.1 80 10:21 25.09.2019
1336 Clouds 21 1015 78 10000 2.1 50 09:56 25.09.2019
1337 Clouds 20 1014 78 10000 2.1 80 09:36 25.09.2019
1338 Clouds 20 1014 78 10000 2.1 80 09:18 25.09.2019
1339 Clouds 19 1014 83 10000 2.1 60 08:42 25.09.2019
1340 Clouds 19 1014 83 10000 2.1 60 08:21 25.09.2019
1341 Clouds 19 1014 83 10000 3.6 80 07:57 25.09.2019
1342 Clouds 19 1014 78 10000 3.1 70 07:38 25.09.2019
1343 Clouds 19 1014 78 10000 3.1 70 07:19 25.09.2019
1344 Clouds 19 1013 73 10000 5.1 70 06:43 25.09.2019
1345 Clouds 19 1013 73 10000 5.1 70 06:21 25.09.2019
1346 Clouds 19 1013 83 10000 3.1 20 05:28 25.09.2019
1347 Clouds 20 1013 83 10000 3.1 30 04:50 25.09.2019
1348 Clouds 21 1013 83 10000 3.6 40 02:19 25.09.2019
1349 Clouds 21 1014 88 10000 5.7 40 00:45 25.09.2019
1350 Clouds 21 1014 88 10000 5.7 40 00:25 25.09.2019
1351 Clouds 21 1014 83 10000 6.2 50 23:58 24.09.2019
1352 Clouds 22 1014 94 10000 4.6 60 23:39 24.09.2019
1353 Clouds 22 1014 94 10000 4.6 60 23:20 24.09.2019
1354 Clouds 23 1013 73 10000 0.5 0 22:39 24.09.2019
1355 Clouds 23 1013 73 10000 0.5 0 22:21 24.09.2019
1356 Clouds 24 1013 78 10000 2.1 250 21:58 24.09.2019
1357 Clouds 24 1013 78 10000 2.1 250 21:58 24.09.2019
1358 Clouds 24 1013 83 10000 3.1 240 21:37 24.09.2019
1359 Clouds 24 1013 83 10000 3.1 240 21:19 24.09.2019
1360 Clouds 24 1013 88 10000 2.6 210 20:58 24.09.2019
1361 Clouds 24 1013 83 10000 2.6 210 20:40 24.09.2019
1362 Clouds 25 1013 83 10000 2.6 210 20:22 24.09.2019
1363 Clouds 25 1012 83 10000 4.1 220 19:57 24.09.2019
1364 Clouds 25 1012 83 10000 4.1 220 19:57 24.09.2019
1365 Clear 25 1012 78 10000 7.2 220 19:39 24.09.2019
1366 Clear 26 1012 78 10000 7.2 220 19:18 24.09.2019
1367 Clear 26 1012 78 10000 6.7 220 18:55 24.09.2019
1368 Clear 27 1012 78 10000 7.7 220 18:36 24.09.2019
1369 Clear 28 1012 78 10000 7.7 220 18:18 24.09.2019
1370 Clear 28 1012 78 10000 7.7 210 17:54 24.09.2019
1371 Clear 28 1012 74 10000 8.2 220 17:36 24.09.2019
1372 Clear 29 1012 74 10000 8.2 210 17:18 24.09.2019
1373 Clear 28 1013 69 10000 11.3 230 16:41 24.09.2019
1374 Clear 28 1013 69 10000 11.3 230 16:19 24.09.2019
1375 Clear 29 1013 74 10000 11.3 220 15:57 24.09.2019
1376 Clear 29 1013 74 10000 12.3 220 15:37 24.09.2019
1377 Clear 28 1013 69 10000 11.3 230 15:19 24.09.2019
1378 Clear 28 1014 69 10000 12.3 230 14:37 24.09.2019
1379 Clear 28 1014 69 10000 12.3 230 14:18 24.09.2019
1380 Clear 28 1014 69 10000 12.3 230 14:18 24.09.2019
1381 Clear 27 1014 78 10000 11.8 230 13:41 24.09.2019
1382 Clear 27 1014 78 10000 11.8 230 13:21 24.09.2019
1383 Clear 27 1014 78 10000 11.8 230 13:21 24.09.2019
1384 Clear 27 1015 73 10000 11.3 230 12:42 24.09.2019
1385 Clear 26 1015 61 10000 9.8 230 12:21 24.09.2019
1386 Clear 25 1015 73 10000 9.3 220 11:58 24.09.2019
1387 Clear 25 1015 69 10000 7.7 220 11:40 24.09.2019
1388 Clear 24 1015 69 10000 7.7 230 11:21 24.09.2019
1389 -273 0 0 0 0 0 10:40 24.09.2019
1390 Clear 22 1015 69 10000 3.1 270 10:21 24.09.2019
1391 Clear 22 1015 72 10000 3.1 290 09:58 24.09.2019
1392 Clear 22 1015 72 10000 3.1 290 09:58 24.09.2019
1393 Clear 20 1015 77 10000 3.6 290 09:40 24.09.2019
1394 Clear 19 1015 77 10000 4.6 300 09:19 24.09.2019
1395 Clear 18 1015 77 10000 4.6 300 08:55 24.09.2019
1396 Clouds 17 1015 82 10000 3.1 310 08:37 24.09.2019
1397 Clouds 17 1015 82 10000 3.1 310 08:18 24.09.2019
1398 Clouds 17 1015 88 10000 1.5 330 07:42 24.09.2019
1399 Clouds 17 1015 88 10000 1.5 330 07:24 24.09.2019
1400 Clouds 17 1016 88 10000 0.5 0 06:48 24.09.2019
1401 Clouds 17 1016 82 10000 2.6 330 06:28 24.09.2019
1402 Clouds 18 1016 82 10000 3.1 320 05:51 24.09.2019
1403 Clouds 18 1016 88 10000 2.6 300 05:18 24.09.2019
1404 Clouds 18 1017 82 10000 1.23 285.888 03:43 24.09.2019
1405 Clouds 19 1017 83 10000 0.5 330 02:46 24.09.2019
1406 Clouds 19 1017 83 10000 2.1 240 01:45 24.09.2019
1407 Clouds 19 1018 77 10000 3.6 250 00:43 24.09.2019
1408 Clouds 20 1018 77 10000 3.6 250 00:23 24.09.2019
1409 Clouds 20 1018 77 10000 4.1 260 23:45 23.09.2019
1410 Clouds 20 1018 77 10000 4.1 260 23:24 23.09.2019
1411 Clouds 21 1018 77 10000 3.1 250 22:59 23.09.2019
1412 Clouds 21 1018 73 10000 3.6 250 22:39 23.09.2019
1413 Clouds 21 1018 73 10000 3.6 250 22:20 23.09.2019
1414 Clouds 21 1018 73 10000 4.6 260 21:56 23.09.2019
1415 Clouds 21 1018 73 10000 4.6 250 21:37 23.09.2019
1416 Clouds 21 1018 73 10000 4.6 250 21:19 23.09.2019
1417 Clouds 21 1018 73 10000 4.6 250 21:19 23.09.2019
1418 Clouds 21 1018 68 10000 6.2 240 20:41 23.09.2019
1419 Clouds 22 1017 68 10000 5.7 240 20:20 23.09.2019
1420 Clouds 22 1017 64 10000 6.2 230 19:58 23.09.2019
1421 Clouds 22 1018 64 10000 5.1 220 19:38 23.09.2019
1422 Clouds 22 1018 64 10000 5.1 220 19:20 23.09.2019
1423 Clouds 23 1017 60 10000 5.7 210 18:55 23.09.2019
1424 Clouds 23 1017 60 10000 5.7 210 18:55 23.09.2019
1425 Clouds 23 1017 64 10000 5.1 200 18:36 23.09.2019
1426 Clouds 23 1017 64 10000 5.1 200 18:36 23.09.2019
1427 Clouds 23 1017 64 10000 5.1 200 18:18 23.09.2019
1428 Clouds 23 1017 64 10000 5.1 200 17:54 23.09.2019
1429 Clouds 23 1017 64 10000 5.7 210 17:36 23.09.2019
1430 Clouds 23 1017 64 10000 5.7 210 17:18 23.09.2019
1431 Clouds 24 1018 60 10000 6.7 200 16:39 23.09.2019
1432 Clouds 24 1018 60 10000 6.7 200 16:21 23.09.2019
1433 Clouds 24 1018 57 10000 7.2 200 15:59 23.09.2019
1434 Clouds 24 1018 57 10000 7.2 200 15:40 23.09.2019
1435 Clouds 24 1018 57 10000 7.2 200 15:19 23.09.2019
1436 Clouds 24 1018 60 10000 7.2 210 14:58 23.09.2019
1437 Clouds 24 1018 64 10000 7.2 200 14:37 23.09.2019
1438 Clouds 24 1018 64 10000 7.2 200 14:19 23.09.2019
1439 Clouds 24 1019 64 10000 5.1 210 13:42 23.09.2019
1440 Clouds 24 1019 64 10000 3.6 190 13:19 23.09.2019
1441 Clouds 24 1019 64 10000 3.6 190 13:19 23.09.2019
1442 Clouds 24 1019 64 10000 3.6 190 12:59 23.09.2019
1443 Clouds 24 1019 60 10000 3.1 180 12:40 23.09.2019
1444 Clouds 23 1019 60 10000 3.1 180 12:21 23.09.2019
1445 Clouds 22 1020 60 10000 2.1 190 11:45 23.09.2019
1446 Clouds 22 1019 64 10000 1 290 11:27 23.09.2019
1447 Clouds 21 1019 60 10000 0.5 0 10:57 23.09.2019
1448 Clouds 21 1019 73 10000 1.5 330 10:39 23.09.2019
1449 Clouds 20 1019 73 10000 1.5 330 10:20 23.09.2019
1450 Clouds 19 1019 82 10000 2.6 330 09:40 23.09.2019
1451 Clouds 19 1019 82 10000 2.6 330 09:40 23.09.2019
1452 Clouds 18 1019 82 10000 2.6 330 09:21 23.09.2019
1453 Clouds 18 1019 88 10000 2.6 320 08:58 23.09.2019
1454 Clouds 17 1018 88 10000 2.6 320 08:38 23.09.2019
1455 Clouds 17 1018 88 10000 2.6 320 08:18 23.09.2019
1456 Clouds 17 1018 88 10000 2.6 320 08:18 23.09.2019
1457 Clouds 17 1018 88 10000 2.6 320 08:18 23.09.2019
1458 Clouds 17 1018 82 10000 1.5 350 07:34 23.09.2019
1459 Clouds 18 1017 72 10000 1.5 20 06:58 23.09.2019
1460 Clouds 18 1017 77 10000 1.5 360 06:20 23.09.2019
1461 Clouds 19 1017 77 10000 2.1 60 05:38 23.09.2019
1462 Clouds 19 1017 77 10000 2.1 70 04:58 23.09.2019
1463 Clouds 20 1016 77 10000 3.1 70 03:59 23.09.2019
1464 Clouds 21 1016 88 10000 5.1 80 01:26 23.09.2019
1465 Clouds 21 1015 88 10000 6.7 70 00:38 23.09.2019
1466 Clouds 21 1015 88 10000 6.7 70 00:18 23.09.2019
1467 Drizzle 21 1014 78 10000 1.5 160 23:41 22.09.2019
1468 Drizzle 21 1014 78 10000 1.5 160 23:22 22.09.2019
1469 Rain 22 1014 83 10000 2.6 220 22:56 22.09.2019
1470 Rain 23 1013 78 10000 2.6 270 22:37 22.09.2019
1471 Rain 23 1013 78 10000 2.6 270 22:19 22.09.2019
1472 Rain 23 1013 83 10000 2.6 260 21:43 22.09.2019
1473 Rain 23 1013 83 10000 2.6 260 21:43 22.09.2019
1474 Rain 23 1013 83 10000 2.6 260 21:21 22.09.2019
1475 Rain 24 1012 83 10000 8.2 240 20:45 22.09.2019
1476 Clouds 24 1012 83 10000 7.2 230 20:27 22.09.2019
1477 Clouds 24 1011 88 10000 5.7 230 19:59 22.09.2019
1478 Clouds 24 1011 83 10000 6.2 230 19:41 22.09.2019
1479 Clouds 25 1011 83 10000 6.2 230 19:21 22.09.2019
1480 Clouds 25 1011 78 10000 5.7 220 18:57 22.09.2019
1481 Clouds 26 1010 78 10000 6.2 220 18:38 22.09.2019
1482 Clouds 26 1010 83 10000 6.7 220 18:18 22.09.2019
1483 Clouds 26 1010 78 10000 6.7 210 17:48 22.09.2019
1484 Clouds 26 1010 78 10000 6.7 210 17:27 22.09.2019
1485 Clouds 27 1010 83 10000 6.7 210 16:59 22.09.2019
1486 Clouds 27 1010 83 10000 6.7 210 16:59 22.09.2019
1487 Clouds 27 1010 83 10000 6.7 210 16:59 22.09.2019
1488 Clouds 27 1010 83 10000 7.7 220 16:40 22.09.2019
1489 Clouds 27 1010 83 10000 7.7 220 16:40 22.09.2019
1490 Clouds 27 1010 83 10000 7.7 220 16:21 22.09.2019
1491 Clouds 27 1011 78 10000 7.2 210 15:46 22.09.2019
1492 Clouds 27 1011 78 10000 7.2 210 15:27 22.09.2019
1493 Clouds 27 1011 78 10000 6.7 210 14:58 22.09.2019
1494 Clouds 26 1011 78 10000 6.2 210 14:40 22.09.2019
1495 Clouds 26 1011 78 10000 6.2 210 14:21 22.09.2019
1496 Clouds 26 1011 73 10000 6.7 210 13:55 22.09.2019
1497 Clouds 26 1012 73 10000 6.7 220 13:36 22.09.2019
1498 Clouds 26 1012 73 10000 6.7 220 13:18 22.09.2019
1499 Clouds 25 1012 78 10000 5.1 230 12:42 22.09.2019
1500 Clouds 24 1012 78 10000 4.6 230 12:22 22.09.2019
1501 Clouds 24 1012 78 10000 4.6 230 11:56 22.09.2019
1502 Clouds 23 1012 78 10000 4.6 220 11:38 22.09.2019
1503 Clouds 23 1012 78 10000 4.6 220 11:19 22.09.2019
1504 Clouds 23 1012 78 10000 3.1 220 10:43 22.09.2019
1505 Clouds 22 1012 83 10000 1 0 10:20 22.09.2019
1506 Clouds 22 1012 83 10000 2.1 310 09:57 22.09.2019
1507 Clouds 21 1012 82 10000 2.6 320 09:37 22.09.2019
1508 Clouds 20 1012 82 10000 2.6 320 09:19 22.09.2019
1509 Clouds 18 1012 88 10000 3.6 320 08:43 22.09.2019
1510 Clouds 18 1011 88 10000 3.1 340 08:23 22.09.2019
1511 Clouds 18 1011 88 10000 3.1 340 07:53 22.09.2019
1512 Clouds 18 1011 88 10000 3.1 340 07:34 22.09.2019
1513 Clouds 18 1011 88 10000 3.1 320 06:59 22.09.2019
1514 Clouds 18 1011 88 10000 3.6 330 06:38 22.09.2019
1515 Clouds 18 1011 88 10000 3.6 310 05:22 22.09.2019
1516 Clouds 19 1012 82 10000 3.1 320 02:59 22.09.2019
1517 Clouds 19 1013 88 10000 2.1 330 02:36 22.09.2019
1518 Clouds 19 1013 88 10000 2.1 330 02:18 22.09.2019
1519 Clouds 19 1013 77 10000 1 10 00:57 22.09.2019
1520 Rain 19 1013 83 10000 1.5 30 00:33 22.09.2019
1521 Rain 19 1013 83 10000 1.5 40 23:57 21.09.2019
1522 Clouds 19 1013 83 10000 3.6 50 23:39 21.09.2019
1523 Clouds 19 1013 83 10000 4.1 60 22:59 21.09.2019
1524 Clouds 20 1013 83 10000 5.7 50 22:38 21.09.2019
1525 Clouds 20 1013 83 10000 5.7 50 22:20 21.09.2019
1526 Clouds 20 1013 83 10000 5.7 50 22:20 21.09.2019
1527 Clouds 20 1013 83 10000 5.7 60 21:42 21.09.2019
1528 Clouds 20 1012 83 10000 6.2 70 21:20 21.09.2019
1529 Clouds 20 1012 83 10000 7.2 80 20:58 21.09.2019
1530 Clouds 20 1012 88 10000 7.2 80 20:38 21.09.2019
1531 Clouds 20 1012 88 10000 7.2 80 20:38 21.09.2019
1532 Clouds 21 1012 83 10000 5.7 70 20:19 21.09.2019
1533 Clouds 21 1012 88 10000 7.2 80 20:19 21.09.2019
1534 Clouds 21 1012 83 10000 5.7 70 19:46 21.09.2019
1535 Clouds 22 1012 83 10000 5.1 70 19:23 21.09.2019
1536 Clouds 22 1012 83 10000 6.2 60 18:55 21.09.2019
1537 Clouds 22 1012 83 10000 5.1 60 18:36 21.09.2019
1538 Clouds 22 1012 83 10000 7.2 60 18:18 21.09.2019
1539 Clouds 22 1012 83 10000 6.7 70 17:39 21.09.2019
1540 Clouds 22 1012 83 10000 6.7 70 17:19 21.09.2019
1541 Clouds 22 1012 83 10000 5.7 60 16:43 21.09.2019
1542 Clouds 22 1012 83 10000 5.7 60 16:24 21.09.2019
1543 Rain 21 1013 88 10000 3.6 50 15:48 21.09.2019
1544 Rain 21 1013 88 10000 3.6 50 15:25 21.09.2019
1545 Rain 21 1013 94 8000 2.1 50 14:55 21.09.2019
1546 Rain 21 1013 100 1200 5.7 70 14:37 21.09.2019
1547 Rain 21 1013 100 1200 5.7 70 14:19 21.09.2019
1548 Rain 21 1013 83 10000 7.7 50 13:41 21.09.2019
1549 Rain 21 1013 83 10000 7.7 50 13:23 21.09.2019
1550 Rain 21 1013 88 10000 9.8 60 12:57 21.09.2019
1551 Rain 21 1014 94 10000 6.2 70 12:38 21.09.2019
1552 Rain 21 1014 94 10000 6.2 70 12:20 21.09.2019
1553 Rain 21 1014 83 10000 3.6 50 11:47 21.09.2019
1554 Rain 21 1014 83 10000 3.6 50 11:25 21.09.2019
1555 Rain 22 1014 78 10000 2.6 30 10:55 21.09.2019
1556 Rain 22 1014 83 10000 3.6 340 10:37 21.09.2019
1557 Rain 21 1014 83 10000 3.6 340 10:19 21.09.2019
1558 Rain 21 1014 78 10000 2.6 340 09:40 21.09.2019
1559 Rain 21 1014 78 10000 2.6 340 09:21 21.09.2019
1560 Rain 21 1014 78 10000 3.1 320 08:59 21.09.2019
1561 Clouds 21 1014 78 10000 3.1 320 08:40 21.09.2019
1562 Clouds 22 1014 78 10000 2.1 330 07:58 21.09.2019
1563 Clouds 21 1014 78 10000 2.1 340 07:39 21.09.2019
1564 Clouds 21 1014 78 10000 2.1 340 07:18 21.09.2019
1565 Clouds 21 1015 78 10000 3.1 330 06:35 21.09.2019
1566 Clouds 21 1015 73 10000 4.1 40 05:51 21.09.2019
1567 Clouds 21 1016 83 10000 6.2 60 04:39 21.09.2019
1568 Clouds 21 1015 83 10000 5.7 40 04:39 21.09.2019
1569 Clouds 21 1016 83 10000 5.1 70 03:25 21.09.2019
1570 Clouds 21 1016 83 10000 5.7 60 02:25 21.09.2019
1571 Clouds 21 1017 83 10000 4.6 60 01:48 21.09.2019
1572 Clouds 21 1017 88 10000 5.1 60 01:23 21.09.2019
1573 Clouds 21 1017 88 10000 5.1 60 00:23 21.09.2019
1574 Clouds 21 1017 83 10000 5.1 60 23:49 20.09.2019
1575 Clouds 21 1017 83 10000 5.1 60 23:30 20.09.2019
1576 Clouds 21 1018 83 10000 5.1 60 22:55 20.09.2019
1577 Clouds 21 1018 83 10000 5.1 60 22:55 20.09.2019
1578 Clouds 22 1018 78 10000 5.1 70 22:36 20.09.2019
1579 Clouds 21 1018 78 10000 5.1 70 22:36 20.09.2019
1580 Clouds 22 1018 78 10000 5.1 70 22:18 20.09.2019
1581 Clouds 22 1018 83 10000 4.6 80 21:54 20.09.2019
1582 Clouds 22 1018 83 10000 4.6 80 21:36 20.09.2019
1583 Clouds 22 1018 83 10000 4.6 80 21:18 20.09.2019
1584 Clouds 22 1018 83 10000 4.6 80 20:41 20.09.2019
1585 Clouds 22 1018 83 10000 4.6 90 20:20 20.09.2019
1586 Clouds 22 1018 83 10000 4.6 90 20:20 20.09.2019
1587 Clouds 22 1018 83 10000 5.1 80 19:56 20.09.2019
1588 Clouds 23 1017 78 10000 5.7 90 19:37 20.09.2019
1589 Clouds 23 1017 78 10000 5.7 90 19:19 20.09.2019
1590 Clouds 23 1017 73 10000 6.7 80 18:39 20.09.2019
1591 Clouds 24 1017 73 10000 6.7 80 18:20 20.09.2019
1592 Clouds 24 1017 73 10000 6.7 80 17:57 20.09.2019
1593 Clouds 24 1017 73 10000 6.7 80 17:57 20.09.2019
1594 Clouds 24 1018 73 10000 5.7 90 17:38 20.09.2019
1595 Clouds 25 1018 73 10000 5.7 90 17:18 20.09.2019
1596 Clear 25 1018 69 10000 5.7 70 16:41 20.09.2019
1597 Clear 25 1018 69 10000 5.7 70 16:41 20.09.2019
1598 Clear 25 1018 69 10000 5.7 70 16:19 20.09.2019
1599 Clear 25 1018 65 10000 6.2 70 15:43 20.09.2019
1600 Clouds 26 1018 65 10000 5.7 80 15:23 20.09.2019
1601 Clouds 25 1019 61 10000 5.7 80 14:57 20.09.2019
1602 Clear 25 1019 61 10000 4.6 90 14:38 20.09.2019
1603 Clear 25 1019 61 10000 4.6 90 14:18 20.09.2019
1604 Clear 25 1020 57 10000 4.6 100 13:47 20.09.2019
1605 Clear 25 1020 57 10000 3.6 100 13:27 20.09.2019
1606 Clear 25 1020 57 10000 3.6 100 12:56 20.09.2019
1607 Clear 24 1020 57 10000 4.1 80 12:36 20.09.2019
1608 Clear 24 1020 57 10000 4.1 80 12:18 20.09.2019
1609 Clear 24 1020 57 10000 4.1 80 11:45 20.09.2019
1610 Clear 23 1020 64 10000 4.1 70 11:20 20.09.2019
1611 Clear 23 1020 60 10000 4.6 70 10:43 20.09.2019
1612 Clear 22 1020 68 10000 3.6 50 10:23 20.09.2019
1613 Clouds 21 1019 73 10000 2.6 330 09:55 20.09.2019
1614 Clouds 20 1019 72 10000 2.6 330 09:36 20.09.2019
1615 Clouds 20 1019 72 10000 2.6 330 09:36 20.09.2019
1616 Clouds 19 1019 72 10000 2.6 330 09:18 20.09.2019
1617 Clouds 18 1019 77 10000 2.6 340 08:41 20.09.2019
1618 Clouds 18 1019 77 10000 2.6 340 08:21 20.09.2019
1619 Clouds 17 1018 82 10000 3.1 340 07:45 20.09.2019
1620 Clouds 17 1018 77 10000 3.6 320 07:26 20.09.2019
1621 Clouds 18 1018 77 10000 4.6 340 06:44 20.09.2019
1622 Clouds 18 1018 77 10000 4.6 340 06:44 20.09.2019
1623 Clouds 18 1018 77 10000 4.6 340 06:21 20.09.2019
1624 Clouds 18 1018 77 10000 3.6 340 05:43 20.09.2019
1625 Clouds 18 1018 77 10000 3.6 330 03:36 20.09.2019
1626 Clouds 19 1018 77 10000 3.1 330 03:18 20.09.2019
1627 Clouds 19 1018 82 10000 2.1 330 01:44 20.09.2019
1628 Clouds 19 1019 83 10000 1.09 19.297 00:52 20.09.2019
1629 Clouds 20 1019 83 10000 1.39 94.452 00:21 20.09.2019
1630 Clouds 20 1019 83 10000 1.5 60 23:42 19.09.2019
1631 Clouds 20 1019 83 10000 1.5 60 23:19 19.09.2019
1632 Clouds 20 1019 83 10000 1.5 50 22:55 19.09.2019
1633 Clouds 21 1019 83 10000 2.6 60 22:37 19.09.2019
1634 Clouds 21 1019 83 10000 2.6 60 22:18 19.09.2019
1635 Clouds 21 1018 83 10000 1.5 80 21:55 19.09.2019
1636 Clouds 21 1018 83 10000 4.1 50 21:36 19.09.2019
1637 Clouds 22 1018 83 10000 4.1 50 21:18 19.09.2019
1638 Clouds 22 1017 78 10000 3.6 60 20:43 19.09.2019
1639 Clouds 22 1017 78 10000 4.1 50 20:22 19.09.2019
1640 Clouds 22 1017 78 10000 3.1 80 19:55 19.09.2019
1641 Clouds 23 1017 69 10000 3.1 100 19:37 19.09.2019
1642 Clouds 23 1017 69 10000 3.1 100 19:19 19.09.2019
1643 Clouds 23 1017 69 10000 2.1 140 18:42 19.09.2019
1644 Clouds 24 1017 69 10000 2.1 140 18:24 19.09.2019
1645 Clouds 24 1017 64 10000 2.6 150 17:54 19.09.2019
1646 Clouds 24 1017 69 10000 3.6 120 17:36 19.09.2019
1647 Clouds 25 1017 69 10000 3.1 140 17:18 19.09.2019
1648 Clouds 25 1017 69 10000 3.1 140 16:56 19.09.2019
1649 Clouds 25 1017 69 10000 4.1 130 16:37 19.09.2019
1650 Clouds 25 1017 69 10000 4.1 130 16:18 19.09.2019
1651 Clouds 26 1017 65 10000 4.6 120 15:38 19.09.2019
1652 Clouds 26 1017 65 10000 4.6 120 15:18 19.09.2019
1653 Clouds 26 1017 69 10000 4.1 130 14:42 19.09.2019
1654 Clouds 26 1017 69 10000 4.1 130 14:23 19.09.2019
1655 Clouds 26 1017 69 10000 4.1 130 14:23 19.09.2019
1656 Clear 26 1017 65 10000 4.1 120 13:58 19.09.2019
1657 Clear 27 1017 65 10000 4.1 130 13:39 19.09.2019
1658 Clear 26 1017 65 10000 4.1 130 13:19 19.09.2019
1659 Clouds 26 1018 57 10000 2.1 100 12:39 19.09.2019
1660 Clouds 25 1018 57 10000 2.1 100 12:19 19.09.2019
1661 Clouds 25 1018 57 10000 2.6 110 11:56 19.09.2019
1662 Clouds 25 1018 57 10000 1.5 350 11:38 19.09.2019
1663 Clouds 24 1018 57 10000 1.5 350 11:19 19.09.2019
1664 Clouds 24 1017 64 10000 3.1 330 10:41 19.09.2019
1665 Clouds 23 1017 64 10000 3.1 330 10:22 19.09.2019
1666 Clouds 22 1017 73 10000 4.1 330 09:58 19.09.2019
1667 Clouds 22 1017 68 10000 3.6 330 09:40 19.09.2019
1668 Clouds 20 1017 68 10000 3.6 330 09:20 19.09.2019
1669 Clouds 19 1017 72 10000 3.6 330 08:52 19.09.2019
1670 Clouds 19 1017 72 10000 4.1 330 08:27 19.09.2019
1671 Clouds 19 1017 72 10000 4.1 330 07:56 19.09.2019
1672 Clouds 19 1017 72 10000 3.6 330 07:38 19.09.2019
1673 Clouds 19 1017 72 10000 3.6 330 07:19 19.09.2019
1674 Clouds 19 1016 73 10000 2.6 310 06:43 19.09.2019
1675 Clouds 19 1016 73 10000 2.6 310 06:43 19.09.2019
1676 Clouds 19 1016 73 10000 2.6 310 06:25 19.09.2019
1677 Clouds 20 1016 73 10000 3.6 320 05:50 19.09.2019
1678 Clouds 20 1016 73 10000 1.5 310 04:27 19.09.2019
1679 Clouds 20 1017 64 10000 2.1 350 03:21 19.09.2019
1680 Clouds 21 1016 60 10000 1.5 340 01:53 19.09.2019
1681 Clouds 22 1016 64 10000 2.1 300 01:21 19.09.2019
1682 Clouds 22 1016 94 8000 2.6 260 00:47 19.09.2019
1683 Clouds 22 1016 94 8000 2.6 260 00:25 19.09.2019
1684 Clouds 23 1015 64 10000 1 190 23:39 18.09.2019
1685 Clouds 23 1015 64 10000 1 190 23:21 18.09.2019
1686 Clouds 23 1015 88 10000 2.1 260 22:43 18.09.2019
1687 Clouds 23 1015 88 10000 2.1 260 22:20 18.09.2019
1688 Clouds 23 1015 88 10000 1.29 44.561 21:58 18.09.2019
1689 Clouds 23 1015 88 10000 1.29 44.561 21:58 18.09.2019
1690 Clouds 23 1015 78 10000 1.29 44.561 21:40 18.09.2019
1691 Clouds 23 1015 78 10000 2.79 167.081 21:19 18.09.2019
1692 Clouds 23 1015 83 10000 0.5 0 20:58 18.09.2019
1693 Clouds 24 1015 78 10000 0.5 150 20:40 18.09.2019
1694 Clouds 24 1015 78 10000 0.5 150 20:22 18.09.2019
1695 Clouds 24 1015 65 10000 1.5 220 19:58 18.09.2019
1696 Clouds 24 1015 78 10000 3.1 80 19:39 18.09.2019
1697 Clouds 25 1015 78 10000 3.1 80 19:19 18.09.2019
1698 Clouds 25 1015 78 10000 3.1 90 18:56 18.09.2019
1699 Clouds 25 1015 78 10000 2.6 70 18:37 18.09.2019
1700 Clouds 25 1015 78 10000 2.6 70 18:19 18.09.2019
1701 Clouds 25 1015 78 10000 2.6 110 17:57 18.09.2019
1702 Clouds 25 1015 78 10000 2.6 110 17:57 18.09.2019
1703 Clouds 25 1015 78 10000 3.6 100 17:39 18.09.2019
1704 Clouds 25 1015 78 10000 3.6 100 17:19 18.09.2019
1705 Clouds 26 1015 78 10000 3.6 110 16:56 18.09.2019
1706 Clouds 26 1015 78 10000 3.6 110 16:56 18.09.2019
1707 Clouds 26 1015 78 10000 4.1 110 16:37 18.09.2019
1708 Clouds 26 1015 78 10000 4.1 110 16:18 18.09.2019
1709 Clouds 26 1015 78 10000 4.1 110 15:55 18.09.2019
1710 Clouds 27 1015 78 10000 4.1 110 15:37 18.09.2019
1711 Clouds 27 1015 78 10000 4.1 110 15:18 18.09.2019
1712 Clouds 28 1015 65 10000 4.6 90 14:57 18.09.2019
1713 Clouds 28 1015 57 10000 4.6 90 14:38 18.09.2019
1714 Clouds 28 1015 57 10000 4.6 90 14:20 18.09.2019
1715 Clear 28 1015 47 10000 4.1 80 13:43 18.09.2019
1716 Clear 28 1015 47 10000 4.1 80 13:19 18.09.2019
1717 Clear 28 1015 48 10000 3.6 80 12:55 18.09.2019
1718 Clear 28 1015 51 10000 3.1 100 12:36 18.09.2019
1719 Clear 27 1015 51 10000 1 0 12:18 18.09.2019
1720 Clear 26 1015 54 10000 2.6 330 11:39 18.09.2019
1721 Clear 26 1015 54 10000 2.6 330 11:19 18.09.2019
1722 Clear 25 1015 57 10000 3.6 340 10:41 18.09.2019
1723 Clear 24 1014 60 10000 4.1 330 10:22 18.09.2019
1724 Clear 23 1014 64 10000 3.1 330 09:58 18.09.2019
1725 Clear 23 1014 68 10000 4.1 340 09:40 18.09.2019
1726 Clear 23 1014 68 10000 4.1 340 09:40 18.09.2019
1727 Clear 21 1014 68 10000 4.1 340 09:22 18.09.2019
1728 Clouds 20 1013 68 9000 3.6 330 08:46 18.09.2019
1729 Clouds 20 1013 68 9000 3.6 330 08:26 18.09.2019
1730 Clouds 19 1013 72 10000 3.1 310 07:59 18.09.2019
1731 Clear 19 1013 72 10000 0.98 331.324 07:41 18.09.2019
1732 Clear 19 1013 72 10000 0.98 331.324 07:23 18.09.2019
1733 Clouds 20 1013 72 10000 3.6 290 06:41 18.09.2019
1734 Clear 20 1013 72 10000 2.6 320 05:58 18.09.2019
1735 Clear 20 1013 77 10000 2.1 320 05:22 18.09.2019
1736 Clouds 20 1014 77 10000 2.1 330 03:25 18.09.2019
1737 Clouds 20 1014 88 10000 1.5 230 02:40 18.09.2019
1738 Clouds 20 1015 83 10000 2.6 330 01:35 18.09.2019
1739 Clouds 21 1015 83 10000 0.5 0 00:51 18.09.2019
1740 Clouds 21 1015 83 10000 2.1 250 00:28 18.09.2019
1741 Clouds 21 1015 83 10000 1.5 230 23:47 17.09.2019
1742 Clouds 21 1015 83 10000 2.6 210 23:23 17.09.2019
1743 Clouds 21 1015 83 10000 2.6 200 22:55 17.09.2019
1744 Clear 21 1015 78 10000 2.1 210 22:36 17.09.2019
1745 Clear 22 1015 78 10000 2.1 210 22:18 17.09.2019
1746 Clear 22 1014 78 10000 0.5 190 21:54 17.09.2019
1747 Clear 22 1014 78 10000 1.52 203.722 21:36 17.09.2019
1748 Clear 22 1014 78 10000 1.94 154.44 21:18 17.09.2019
1749 Clear 23 1014 73 10000 1.5 150 20:54 17.09.2019
1750 Clear 23 1014 73 10000 1.5 160 20:36 17.09.2019
1751 Clear 24 1014 73 10000 1.5 160 20:18 17.09.2019
1752 Clouds 25 1014 73 10000 2.1 200 19:39 17.09.2019
1753 Clouds 25 1014 73 10000 2.1 200 19:39 17.09.2019
1754 Clear 25 1014 69 10000 3.1 210 19:20 17.09.2019
1755 Clear 26 1014 69 10000 3.1 210 18:59 17.09.2019
1756 Clear 26 1015 69 10000 3.1 200 18:41 17.09.2019
1757 Clear 27 1015 69 10000 3.1 200 18:22 17.09.2019
1758 Clear 27 1015 69 10000 3.1 210 17:49 17.09.2019
1759 Clear 27 1015 69 10000 3.1 210 17:21 17.09.2019
1760 Clear 28 1015 65 10000 3.6 190 16:59 17.09.2019
1761 Clear 28 1015 65 10000 3.6 190 16:41 17.09.2019
1762 Clear 28 1015 65 10000 3.1 170 16:22 17.09.2019
1763 Clear 28 1015 54 10000 2.1 140 15:55 17.09.2019
1764 Clear 28 1015 54 10000 2.1 140 15:55 17.09.2019
1765 Clear 28 1016 50 10000 0.5 180 15:37 17.09.2019
1766 Clear 28 1016 47 10000 2.6 180 15:18 17.09.2019
1767 Clear 28 1016 47 10000 2.6 180 14:55 17.09.2019
1768 Clear 28 1016 53 10000 2.6 170 14:37 17.09.2019
1769 Clear 28 1016 53 10000 2.6 170 14:18 17.09.2019
1770 Clear 28 1017 42 10000 2.6 120 13:42 17.09.2019
1771 Clear 28 1017 53 10000 3.1 190 13:23 17.09.2019
1772 Clear 28 1017 57 10000 3.6 170 12:56 17.09.2019
1773 Clear 27 1017 57 10000 2.6 170 12:37 17.09.2019
1774 Clear 27 1017 57 10000 2.6 170 12:18 17.09.2019
1775 Clear 27 1017 57 10000 2.6 170 12:18 17.09.2019
1776 Clear 26 1017 44 10000 0.64 298.924 11:42 17.09.2019
1777 Clear 25 1017 44 10000 0.64 298.924 11:24 17.09.2019
1778 Clear 24 1017 53 10000 2.6 0 10:43 17.09.2019
1779 Clear 23 1017 56 10000 2.6 320 10:24 17.09.2019
1780 Clear 23 1017 60 10000 3.6 330 09:59 17.09.2019
1781 Clear 22 1017 64 10000 3.6 330 09:41 17.09.2019
1782 Clear 21 1017 64 10000 3.6 330 09:21 17.09.2019
1783 Clouds 20 1016 68 10000 3.6 340 08:49 17.09.2019
1784 Clouds 19 1016 68 10000 3.6 330 08:30 17.09.2019
1785 Clouds 18 1016 63 10000 3.6 340 07:59 17.09.2019
1786 Clouds 19 1016 68 10000 3.6 340 07:39 17.09.2019
1787 Clouds 19 1016 68 10000 3.6 340 07:39 17.09.2019
1788 Clouds 19 1016 68 10000 3.6 340 07:39 17.09.2019
1789 Clouds 18 1016 68 10000 2.6 350 07:19 17.09.2019
1790 Clouds 18 1016 68 10000 2.6 350 06:45 17.09.2019
1791 Clouds 18 1016 68 10000 2.6 340 06:20 17.09.2019
1792 Clouds 18 1016 68 10000 3.1 320 05:47 17.09.2019
1793 Clouds 19 1017 68 10000 2.1 340 04:29 17.09.2019
1794 Clouds 19 1017 68 10000 2.1 340 04:29 17.09.2019
1795 Clouds 19 1017 64 10000 2.1 330 02:57 17.09.2019
1796 Clouds 19 1017 68 10000 3.1 320 02:38 17.09.2019
1797 Clear 20 1017 68 10000 2.6 300 01:24 17.09.2019
1798 Clear 21 1018 64 10000 1 0 00:40 17.09.2019
1799 Clear 21 1017 60 10000 0.88 140.912 23:39 16.09.2019
1800 Clear 22 1017 60 10000 0.88 140.912 23:19 16.09.2019
1801 Clear 22 1017 78 10000 0.88 140.912 22:56 16.09.2019
1802 Clear 22 1017 78 10000 0.88 140.912 22:56 16.09.2019
1803 Clear 22 1017 78 10000 1 90 22:37 16.09.2019
1804 Clear 23 1017 78 10000 1 90 22:19 16.09.2019
1805 Clear 23 1017 69 10000 1.5 130 21:40 16.09.2019
1806 Clear 24 1017 69 10000 1.5 130 21:22 16.09.2019
1807 Clear 24 1017 57 10000 2.19 146.129 20:59 16.09.2019
1808 Clear 24 1017 41 10000 2.03 163.017 20:40 16.09.2019
1809 Clear 25 1017 41 10000 2.03 163.017 20:20 16.09.2019
1810 Clear 25 1017 47 10000 2.1 20 19:57 16.09.2019
1811 Clear 26 1017 47 10000 1.5 90 19:38 16.09.2019
1812 Clear 26 1017 61 10000 2.1 70 19:19 16.09.2019
1813 Clear 26 1017 61 10000 2.1 70 18:46 16.09.2019
1814 Clear 26 1017 65 10000 3.1 80 18:27 16.09.2019
1815 Clear 26 1018 61 10000 3.1 70 17:57 16.09.2019
1816 Clear 26 1018 61 10000 3.1 70 17:57 16.09.2019
1817 Clear 27 1018 44 10000 3.6 80 17:38 16.09.2019
1818 Clear 27 1018 44 10000 3.6 80 17:20 16.09.2019
1819 Clear 27 1018 54 10000 3.6 90 16:54 16.09.2019
1820 -273 0 0 0 0 0 16:36 16.09.2019
1821 Clear 27 1018 54 10000 4.1 70 16:18 16.09.2019
1822 Clear 27 1019 54 10000 4.1 70 15:54 16.09.2019
1823 Clear 27 1019 54 10000 4.6 70 15:36 16.09.2019
1824 Clear 27 1019 54 10000 4.6 70 15:18 16.09.2019
1825 Clear 27 1020 65 10000 4.6 70 14:40 16.09.2019
1826 Clear 26 1020 65 10000 4.6 70 14:22 16.09.2019
1827 Clear 26 1020 57 10000 4.1 80 13:55 16.09.2019
1828 Clear 26 1020 64 10000 4.6 100 13:37 16.09.2019
1829 Clear 26 1020 69 10000 5.1 90 13:18 16.09.2019
1830 Clear 26 1020 69 10000 5.1 90 13:18 16.09.2019
1831 Clear 26 1020 61 10000 4.1 80 12:40 16.09.2019
1832 Clear 26 1020 61 10000 4.1 80 12:22 16.09.2019
1833 Clear 25 1020 57 10000 4.1 70 11:46 16.09.2019
1834 Clear 25 1020 57 10000 4.1 70 11:23 16.09.2019
1835 Clear 25 1020 60 10000 3.1 60 10:58 16.09.2019
1836 Clear 24 1019 56 10000 3.1 60 10:38 16.09.2019
1837 Clear 24 1019 56 10000 3.1 60 10:19 16.09.2019
1838 Clear 23 1019 56 10000 2.6 350 09:57 16.09.2019
1839 Clouds 23 1019 60 10000 2.6 340 09:38 16.09.2019
1840 Clouds 23 1019 60 10000 2.6 340 09:38 16.09.2019
1841 Clouds 21 1019 60 10000 2.6 340 09:18 16.09.2019
1842 Clouds 19 1019 60 10000 3.1 340 08:42 16.09.2019
1843 Clear 19 1019 60 10000 3.1 330 08:24 16.09.2019
1844 Clear 19 1018 60 10000 4.1 330 07:44 16.09.2019
1845 Clear 19 1018 60 10000 4.1 330 07:25 16.09.2019
1846 Clouds 19 1018 60 10000 4.1 330 06:59 16.09.2019
1847 Clouds 19 1018 56 10000 3.6 340 06:40 16.09.2019
1848 Clouds 19 1018 56 10000 3.6 340 06:22 16.09.2019
1849 Clouds 19 1019 56 10000 3.1 330 05:43 16.09.2019
1850 Clouds 19 1019 56 10000 3.1 330 05:23 16.09.2019
1851 Clouds 19 1020 60 10000 3.6 340 03:51 16.09.2019
1852 Clear 21 1020 60 10000 2.1 350 01:40 16.09.2019
1853 Clear 21 1021 64 10000 2.1 330 00:39 16.09.2019
1854 Clear 22 1021 64 10000 2.1 330 00:21 16.09.2019
1855 Clear 22 1021 57 10000 3.1 10 23:39 15.09.2019
1856 Clear 22 1021 57 10000 3.1 10 23:20 15.09.2019
1857 Clear 22 1021 60 10000 3.6 30 22:42 15.09.2019
1858 Clear 23 1021 78 10000 4.6 40 22:21 15.09.2019
1859 Clear 23 1021 78 10000 4.6 50 21:58 15.09.2019
1860 Clear 23 1021 78 10000 5.1 60 21:40 15.09.2019
1861 Clear 23 1021 78 10000 5.1 60 21:40 15.09.2019
1862 Clear 23 1021 78 10000 5.1 60 21:21 15.09.2019
1863 Clear 24 1020 73 10000 6.2 60 20:59 15.09.2019
1864 Clear 24 1020 73 10000 6.2 60 20:59 15.09.2019
1865 Clear 24 1020 73 10000 6.2 70 20:41 15.09.2019
1866 Clear 24 1020 73 10000 6.2 70 20:23 15.09.2019
1867 Clear 24 1020 73 10000 6.2 70 20:23 15.09.2019
1868 Clear 25 1020 65 10000 6.7 60 19:45 15.09.2019
1869 Clear 25 1020 65 10000 6.7 60 19:23 15.09.2019
1870 Clear 26 1020 61 10000 7.2 70 18:55 15.09.2019
1871 Clear 26 1020 61 10000 6.7 70 18:36 15.09.2019
1872 Clear 26 1020 61 10000 6.7 70 18:18 15.09.2019
1873 Clear 27 1020 69 10000 7.7 80 17:40 15.09.2019
1874 Clear 27 1020 69 10000 7.7 80 17:20 15.09.2019
1875 Clear 28 1021 69 10000 7.2 80 16:44 15.09.2019
1876 Clear 27 1021 69 10000 7.2 80 16:26 15.09.2019
1877 Clear 27 1021 69 10000 7.2 80 15:59 15.09.2019
1878 Clear 28 1021 69 10000 7.2 80 15:41 15.09.2019
1879 Clear 27 1021 74 10000 7.2 80 15:21 15.09.2019
1880 Clouds 27 1022 65 10000 6.7 90 14:58 15.09.2019
1881 Clouds 27 1022 57 10000 7.2 100 14:40 15.09.2019
1882 Clouds 27 1022 57 10000 7.2 100 14:20 15.09.2019
1883 Clouds 27 1022 51 10000 7.2 80 13:47 15.09.2019
1884 Clear 27 1022 50 10000 7.7 70 13:24 15.09.2019
1885 Clear 27 1022 50 10000 7.7 60 12:56 15.09.2019
1886 Clear 26 1022 44 10000 8.7 60 12:38 15.09.2019
1887 Clear 26 1022 44 10000 8.7 60 12:18 15.09.2019
1888 Clear 26 1023 44 10000 2.1 70 11:42 15.09.2019
1889 Clear 25 1023 44 10000 2.1 70 11:22 15.09.2019
1890 Clear 25 1023 44 10000 2.1 70 11:22 15.09.2019
1891 Clear 25 1023 47 10000 6.7 60 10:58 15.09.2019
1892 Clear 24 1023 57 10000 7.2 60 10:39 15.09.2019
1893 Clear 23 1023 57 10000 7.2 60 10:21 15.09.2019
1894 Clouds 21 1022 64 10000 2.1 360 09:40 15.09.2019
1895 Clouds 21 1022 64 10000 2.1 360 09:20 15.09.2019
1896 Clouds 20 1022 64 10000 3.1 50 08:53 15.09.2019
1897 Clouds 19 1022 64 10000 2.6 10 08:30 15.09.2019
1898 Clouds 19 1022 56 10000 3.1 350 07:57 15.09.2019
1899 Clouds 19 1022 56 10000 2.1 340 07:39 15.09.2019
1900 Clouds 19 1022 60 10000 1 350 06:43 15.09.2019
1901 Clouds 21 1023 60 10000 2.6 340 04:59 15.09.2019
1902 Thunderstorm 22 1023 73 10000 7.7 60 03:18 15.09.2019
1903 Clouds 22 1024 69 10000 5.7 80 01:58 15.09.2019
1904 Clouds 22 1023 64 10000 5.7 70 01:36 15.09.2019
1905 Clouds 22 1023 69 10000 5.1 50 00:56 15.09.2019
1906 Clouds 22 1023 69 10000 6.2 50 00:36 15.09.2019
1907 Clouds 22 1023 73 10000 6.2 60 00:18 15.09.2019
1908 Clouds 22 1023 73 10000 6.2 60 23:55 14.09.2019
1909 Clouds 22 1024 69 10000 6.7 50 23:37 14.09.2019
1910 Clouds 22 1024 69 10000 6.7 50 23:18 14.09.2019
1911 Clouds 23 1024 73 10000 6.7 70 22:55 14.09.2019
1912 Clouds 23 1024 73 10000 5.7 50 22:37 14.09.2019
1913 Clouds 23 1024 73 10000 5.7 50 22:18 14.09.2019
1914 Clouds 23 1024 73 10000 5.1 70 21:40 14.09.2019
1915 Clouds 23 1023 73 10000 3.6 70 21:20 14.09.2019
1916 Clouds 23 1023 73 10000 5.1 80 20:58 14.09.2019
1917 Clouds 23 1023 69 10000 5.7 60 20:38 14.09.2019
1918 Clouds 24 1023 69 10000 5.7 60 20:20 14.09.2019
1919 Clear 24 1023 64 10000 6.2 60 19:46 14.09.2019
1920 Clear 25 1023 61 10000 6.7 50 19:22 14.09.2019
1921 Clear 25 1023 65 10000 7.7 50 18:58 14.09.2019
1922 Clear 25 1023 61 10000 6.2 60 18:38 14.09.2019
1923 Clear 25 1023 61 10000 6.2 60 18:20 14.09.2019
1924 Clear 26 1023 61 10000 5.7 70 17:44 14.09.2019
1925 Clear 26 1023 57 10000 5.1 80 17:24 14.09.2019
1926 Clear 27 1023 50 10000 5.1 80 16:54 14.09.2019
1927 Clear 27 1024 54 10000 5.7 90 16:36 14.09.2019
1928 Clear 27 1024 54 10000 5.7 90 16:18 14.09.2019
1929 Clear 28 1024 44 10000 6.2 70 15:41 14.09.2019
1930 Clear 27 1024 44 10000 6.2 70 15:22 14.09.2019
1931 Clear 27 1024 44 10000 6.2 70 15:22 14.09.2019
1932 Clear 28 1024 42 10000 7.2 70 14:54 14.09.2019
1933 Clear 27 1025 44 10000 8.7 80 14:36 14.09.2019
1934 Clear 27 1025 44 10000 8.7 80 14:18 14.09.2019
1935 Clear 28 1025 44 10000 8.2 70 13:44 14.09.2019
1936 Clear 27 1025 44 10000 8.7 70 13:20 14.09.2019
1937 Clear 27 1026 47 10000 8.2 70 12:45 14.09.2019
1938 Clear 27 1026 47 10000 8.2 70 12:23 14.09.2019
1939 Clear 26 1025 47 10000 8.7 90 11:41 14.09.2019
1940 Clear 26 1025 47 10000 8.7 90 11:20 14.09.2019
1941 Clouds 25 1025 50 10000 1 340 10:40 14.09.2019
1942 Clouds 25 1025 50 10000 1 340 10:22 14.09.2019
1943 Clouds 24 1024 53 10000 2.1 330 09:58 14.09.2019
1944 Clouds 24 1024 53 10000 2.1 330 09:58 14.09.2019
1945 Clouds 23 1024 56 10000 3.6 330 09:40 14.09.2019
1946 Clouds 21 1024 56 10000 3.6 330 09:21 14.09.2019
1947 Clouds 20 1024 64 10000 3.6 330 08:56 14.09.2019
1948 Clouds 20 1024 64 10000 3.6 330 08:56 14.09.2019
1949 Clouds 20 1024 64 10000 3.6 330 08:37 14.09.2019
1950 Clouds 20 1024 64 10000 3.6 330 08:18 14.09.2019
1951 Clouds 20 1024 68 10000 3.1 330 07:42 14.09.2019
1952 Clouds 20 1023 68 10000 2.6 330 07:20 14.09.2019
1953 Clouds 20 1023 68 10000 4.1 330 06:33 14.09.2019
1954 Clouds 21 1023 72 10000 3.1 330 05:43 14.09.2019
1955 Clouds 21 1023 73 10000 4.1 10 04:27 14.09.2019
1956 Clouds 21 1025 73 10000 2.6 20 03:20 14.09.2019
1957 Rain 21 1026 73 10000 2.1 360 02:42 14.09.2019
1958 Rain 21 1025 73 10000 5.7 40 01:45 14.09.2019
1959 Rain 21 1025 83 10000 5.7 20 01:19 14.09.2019
1960 Rain 21 1028 83 10000 2.6 220 00:40 14.09.2019
1961 Rain 21 1028 83 10000 2.6 220 00:22 14.09.2019
1962 Rain 21 1028 78 10000 1.5 250 23:56 13.09.2019
1963 Rain 21 1027 78 10000 2.6 360 23:37 13.09.2019
1964 Rain 21 1027 78 10000 2.6 360 23:18 13.09.2019
1965 Rain 22 1027 73 10000 2.6 50 22:55 13.09.2019
1966 Rain 22 1027 73 10000 2.6 90 22:36 13.09.2019
1967 Rain 22 1027 73 10000 2.6 90 22:18 13.09.2019
1968 Clouds 23 1025 69 10000 4.1 40 21:39 13.09.2019
1969 Clouds 23 1025 69 10000 4.1 40 21:19 13.09.2019
1970 Clouds 23 1025 69 10000 4.6 70 20:58 13.09.2019
1971 Clouds 23 1025 64 10000 3.6 60 20:37 13.09.2019
1972 Clouds 24 1025 64 10000 3.6 60 20:19 13.09.2019
1973 Clouds 24 1025 64 10000 4.6 60 19:54 13.09.2019
1974 Clouds 25 1024 61 10000 5.1 60 19:36 13.09.2019
1975 Clouds 25 1024 61 10000 5.1 60 19:18 13.09.2019
1976 Clouds 26 1024 54 10000 6.2 60 18:38 13.09.2019
1977 Clouds 26 1024 54 10000 6.2 60 18:20 13.09.2019
1978 Clouds 26 1024 54 10000 7.2 60 17:55 13.09.2019
1979 Clouds 26 1025 57 10000 4.6 80 17:37 13.09.2019
1980 Clouds 26 1025 57 10000 4.6 80 17:18 13.09.2019
1981 Clouds 26 1026 42 10000 5.1 60 16:40 13.09.2019
1982 Clouds 26 1026 42 10000 5.1 60 16:20 13.09.2019
1983 Clouds 26 1026 53 10000 6.7 40 15:45 13.09.2019
1984 Clouds 26 1026 53 10000 6.7 40 15:27 13.09.2019
1985 Clouds 25 1027 53 10000 7.7 60 14:57 13.09.2019
1986 Clouds 25 1028 53 10000 6.7 70 14:39 13.09.2019
1987 Clouds 25 1028 53 10000 6.7 70 14:19 13.09.2019
1988 Rain 25 1028 57 10000 7.7 70 13:45 13.09.2019
1989 Rain 25 1028 64 10000 8.7 60 13:23 13.09.2019
1990 Clouds 24 1029 57 10000 7.2 90 12:56 13.09.2019
1991 Clouds 24 1030 57 10000 4.1 130 12:38 13.09.2019
1992 Clouds 24 1030 57 10000 4.1 130 12:20 13.09.2019
1993 Clouds 24 1030 53 10000 6.7 150 11:54 13.09.2019
1994 Clear 24 1027 47 10000 6.7 70 11:18 13.09.2019
1995 Clear 24 1026 46 10000 1.5 300 10:38 13.09.2019
1996 Clear 23 1026 46 10000 1.5 300 10:19 13.09.2019
1997 Clear 23 1024 52 10000 3.6 340 09:44 13.09.2019
1998 Clear 21 1024 56 10000 3.1 330 09:24 13.09.2019
1999 Clear 19 1025 68 10000 6.2 360 08:58 13.09.2019
2000 Clear 19 1026 68 10000 4.1 340 08:40 13.09.2019
2001 Clear 18 1026 68 10000 4.1 340 08:20 13.09.2019
2002 Clear 18 1027 68 10000 3.1 340 07:45 13.09.2019
2003 Clear 18 1027 72 10000 3.1 330 07:27 13.09.2019
2004 Clear 17 1027 72 10000 4.1 330 06:45 13.09.2019
2005 Clear 17 1027 77 10000 1.5 310 05:47 13.09.2019
2006 Clear 17 1027 77 10000 2.6 330 04:51 13.09.2019
2007 Clear 18 1027 77 10000 3.1 330 03:39 13.09.2019
2008 Clear 18 1028 72 10000 2.1 330 02:20 13.09.2019
2009 Clear 19 1028 72 10000 3.1 330 01:42 13.09.2019
2010 Clear 19 1028 72 10000 3.1 330 01:22 13.09.2019
2011 Clear 20 1028 73 10000 1 0 00:38 13.09.2019
2012 Clear 20 1028 64 10000 2.1 50 23:58 12.09.2019
2013 Clear 20 1027 64 10000 1.5 60 23:35 12.09.2019
2014 Clear 21 1027 64 10000 5.1 50 22:59 12.09.2019
2015 Clear 21 1027 64 10000 5.7 50 22:41 12.09.2019
2016 Clear 22 1027 64 10000 5.7 50 22:23 12.09.2019
2017 Clear 22 1027 60 10000 5.7 50 21:57 12.09.2019
2018 Clear 22 1027 60 10000 7.2 50 21:37 12.09.2019
2019 Clear 23 1027 60 10000 7.2 50 21:19 12.09.2019
2020 Clear 22 1027 60 10000 7.2 50 21:19 12.09.2019
2021 Clouds 23 1026 60 10000 8.2 60 20:55 12.09.2019
2022 Clouds 23 1026 57 10000 7.7 60 20:37 12.09.2019
2023 Clouds 24 1026 57 10000 7.7 60 20:19 12.09.2019
2024 Clouds 24 1026 57 10000 7.7 60 20:19 12.09.2019
2025 Clouds 25 1026 53 10000 7.7 50 19:41 12.09.2019
2026 Clouds 25 1026 53 10000 7.7 50 19:20 12.09.2019
2027 Clear 26 1026 53 10000 8.2 70 18:58 12.09.2019
2028 Clear 26 1026 50 10000 4.6 70 18:37 12.09.2019
2029 Clear 26 1026 50 10000 4.6 70 18:18 12.09.2019
2030 Clear 27 1026 50 10000 6.2 80 17:54 12.09.2019
2031 Clear 27 1026 50 10000 6.7 70 17:36 12.09.2019
2032 Clear 27 1026 50 10000 6.7 70 17:18 12.09.2019
2033 Clear 27 1026 53 10000 7.7 80 16:41 12.09.2019
2034 Clear 27 1026 50 10000 7.2 70 16:21 12.09.2019
2035 Clear 27 1026 54 10000 5.7 80 15:43 12.09.2019
2036 Clear 27 1027 61 10000 5.7 100 15:24 12.09.2019
2037 Clear 27 1027 61 10000 5.7 100 14:56 12.09.2019
2038 Clear 27 1027 36 10000 6.2 100 14:38 12.09.2019
2039 Clear 27 1027 36 10000 6.2 100 14:20 12.09.2019
2040 Clear 28 1027 42 10000 3.6 100 13:39 12.09.2019
2041 Clear 28 1027 42 10000 3.6 100 13:21 12.09.2019
2042 Clouds 27 1027 41 10000 4.1 110 12:49 12.09.2019
2043 Clouds 26 1027 44 10000 3.1 90 12:20 12.09.2019
2044 Rain 26 1027 47 10000 2.6 320 11:58 12.09.2019
2045 Clear 25 1027 50 10000 3.1 310 11:40 12.09.2019
2046 Clear 24 1027 50 10000 3.1 310 11:21 12.09.2019
2047 Clear 24 1027 53 10000 3.1 320 10:54 12.09.2019
2048 Clear 23 1027 56 10000 3.1 330 10:36 12.09.2019
2049 Clear 22 1027 56 10000 3.1 330 10:18 12.09.2019
2050 Clear 21 1026 63 10000 4.1 340 09:42 12.09.2019
2051 Clear 20 1026 63 10000 4.1 340 09:20 12.09.2019
2052 Clear 19 1025 63 10000 5.7 340 08:44 12.09.2019
2053 Clear 18 1025 63 10000 5.7 340 08:25 12.09.2019
2054 Clear 18 1025 68 10000 5.1 340 07:55 12.09.2019
2055 Clear 18 1025 72 10000 5.1 340 07:36 12.09.2019
2056 Clear 18 1024 72 10000 5.7 330 07:18 12.09.2019
2057 Clear 18 1024 72 10000 4.6 340 06:45 12.09.2019
2058 Clear 18 1024 72 10000 4.6 340 06:18 12.09.2019
2059 Clear 18 1024 68 10000 4.1 330 05:42 12.09.2019
2060 Clear 19 1024 68 10000 4.1 330 05:19 12.09.2019
2061 Clear 19 1024 64 10000 3.1 330 03:58 12.09.2019
2062 Clear 20 1023 64 10000 3.1 340 01:44 12.09.2019
2063 Clear 20 1023 64 10000 3.1 340 01:26 12.09.2019
2064 Clear 20 1023 64 10000 4.6 340 00:50 12.09.2019
2065 Clear 20 1023 60 10000 3.6 340 00:31 12.09.2019
2066 Clear 21 1023 49 10000 2.1 20 23:47 11.09.2019
2067 Clear 21 1023 49 10000 2.1 20 23:27 11.09.2019
2068 Clear 21 1023 49 10000 2.6 10 22:58 11.09.2019
2069 Clear 21 1023 50 10000 2.1 10 22:38 11.09.2019
2070 Clear 22 1023 50 10000 2.1 10 22:20 11.09.2019
2071 Clear 22 1023 53 10000 5.1 50 21:59 11.09.2019
2072 Clear 22 1023 53 10000 5.7 60 21:41 11.09.2019
2073 Clear 22 1023 53 10000 5.7 60 21:22 11.09.2019
2074 Clear 23 1022 60 10000 5.7 60 20:56 11.09.2019
2075 Clear 23 1022 60 10000 5.7 60 20:38 11.09.2019
2076 Clear 23 1022 60 10000 5.7 60 20:19 11.09.2019
2077 Clear 24 1022 60 10000 5.7 70 19:56 11.09.2019
2078 Clouds 25 1022 53 10000 7.2 80 19:37 11.09.2019
2079 Clouds 25 1022 53 10000 7.2 80 19:37 11.09.2019
2080 Clouds 25 1022 53 10000 7.2 80 19:19 11.09.2019
2081 Clouds 25 1021 53 10000 8.7 70 18:44 11.09.2019
2082 Clouds 25 1021 53 10000 8.7 70 18:26 11.09.2019
2083 Clouds 25 1021 53 10000 8.7 70 18:00 11.09.2019
2084 Clouds 25 1021 53 10000 8.7 60 17:41 11.09.2019
2085 Clouds 25 1021 53 10000 8.7 60 17:41 11.09.2019
2086 Clouds 25 1021 50 10000 10.8 60 17:22 11.09.2019
2087 Clouds 25 1021 50 10000 10.8 60 16:57 11.09.2019
2088 Clouds 25 1021 47 10000 9.3 60 16:39 11.09.2019
2089 Clouds 25 1021 47 10000 9.3 60 16:20 11.09.2019
2090 Clouds 24 1021 53 10000 9.3 60 15:47 11.09.2019
2091 Clouds 24 1021 53 10000 9.3 60 15:47 11.09.2019
2092 Clouds 24 1021 57 10000 10.8 50 15:24 11.09.2019
2093 Clouds 23 1020 53 10000 11.8 50 14:59 11.09.2019
2094 Clouds 23 1020 53 10000 11.8 50 14:40 11.09.2019
2095 Clouds 23 1021 53 10000 5.7 50 14:20 11.09.2019
2096 Clouds 23 1020 53 10000 10.3 50 13:59 11.09.2019
2097 Clouds 23 1020 57 10000 11.8 50 13:37 11.09.2019
2098 Clouds 23 1020 57 10000 11.8 50 13:18 11.09.2019
2099 Clouds 22 1019 60 10000 10.8 50 12:42 11.09.2019
2100 Clouds 22 1019 60 10000 10.8 50 12:22 11.09.2019
2101 Clouds 21 1018 64 10000 10.8 40 11:58 11.09.2019
2102 Rain 20 1018 68 10000 9.3 40 11:38 11.09.2019
2103 Rain 20 1018 68 10000 9.3 40 11:20 11.09.2019
2104 Rain 19 1018 77 10000 6.7 30 10:55 11.09.2019
2105 Rain 18 1017 77 10000 5.7 30 10:36 11.09.2019
2106 Rain 18 1017 88 10000 5.1 20 10:18 11.09.2019
2107 Rain 18 1016 77 9000 6.2 20 09:37 11.09.2019
2108 Rain 18 1016 77 9000 6.2 20 09:19 11.09.2019
2109 Rain 18 1016 77 9000 6.2 20 09:19 11.09.2019
2110 Rain 18 1014 77 10000 9.3 40 08:41 11.09.2019
2111 Rain 18 1014 77 10000 9.3 40 08:21 11.09.2019
2112 Rain 18 1013 77 10000 10.8 40 07:57 11.09.2019
2113 Rain 18 1013 72 10000 12.3 40 07:38 11.09.2019
2114 Rain 18 1013 72 10000 12.3 40 07:19 11.09.2019
2115 Rain 18 1012 77 10000 9.8 30 06:38 11.09.2019
2116 Rain 18 1012 72 10000 6.2 20 06:19 11.09.2019
2117 Rain 18 1012 82 10000 6.2 10 05:33 11.09.2019
2118 Clouds 17 1011 87 10000 7.2 20 04:52 11.09.2019
2119 Clouds 17 1011 87 10000 7.7 10 03:59 11.09.2019
2120 Rain 16 1011 87 10000 4.6 350 03:26 11.09.2019
2121 Rain 15 1013 93 9000 3.6 340 02:31 11.09.2019
2122 Rain 15 1012 93 10000 2.1 320 01:32 11.09.2019
2123 Rain 15 1013 93 10000 1 0 00:37 11.09.2019
2124 Rain 15 1013 93 10000 1 0 00:19 11.09.2019
2125 Rain 15 1013 93 10000 2.1 330 23:40 10.09.2019
2126 Rain 14 1013 93 10000 2.1 330 23:21 10.09.2019
2127 Rain 14 1013 93 8000 3.6 340 22:55 10.09.2019
2128 Rain 14 1012 87 10000 3.1 320 22:37 10.09.2019
2129 Rain 14 1012 87 10000 3.1 320 22:18 10.09.2019
2130 Rain 15 1012 87 8000 3.1 320 21:54 10.09.2019
2131 Rain 15 1012 93 8000 3.1 330 21:36 10.09.2019
2132 Rain 15 1011 93 10000 3.6 320 21:18 10.09.2019
2133 Rain 15 1011 93 10000 3.6 320 20:55 10.09.2019
2134 Rain 15 1011 82 10000 2.6 350 20:37 10.09.2019
2135 Rain 15 1011 82 10000 2.6 350 20:18 10.09.2019
2136 Rain 15 1011 82 10000 5.1 10 19:55 10.09.2019
2137 Rain 15 1011 82 10000 5.1 10 19:55 10.09.2019
2138 Rain 15 1010 82 10000 6.7 60 19:36 10.09.2019
2139 Rain 15 1010 82 10000 6.7 60 19:36 10.09.2019
2140 Rain 15 1010 82 10000 6.7 60 19:18 10.09.2019
2141 Rain 16 1011 87 10000 4.1 360 18:45 10.09.2019
2142 Rain 16 1011 87 10000 4.1 360 18:22 10.09.2019
2143 Rain 16 1011 87 10000 2.6 350 17:57 10.09.2019
2144 Rain 16 1011 87 10000 2.1 300 17:39 10.09.2019
2145 Rain 16 1011 87 10000 2.1 300 17:20 10.09.2019
2146 Rain 16 1011 87 10000 3.1 280 16:57 10.09.2019
2147 Rain 16 1011 87 10000 2.1 290 16:38 10.09.2019
2148 Rain 16 1011 87 10000 2.1 290 16:38 10.09.2019
2149 Rain 16 1011 87 10000 2.1 290 16:19 10.09.2019
2150 Rain 16 1011 87 10000 2.1 290 16:19 10.09.2019
2151 Rain 16 1010 87 10000 3.1 340 15:44 10.09.2019
2152 Rain 16 1010 87 10000 3.1 340 15:44 10.09.2019
2153 Rain 16 1011 72 10000 4.1 320 15:23 10.09.2019
2154 Rain 16 1011 82 10000 3.1 260 14:58 10.09.2019
2155 Rain 16 1011 82 10000 2.1 70 14:39 10.09.2019
2156 Rain 16 1011 82 10000 2.1 70 14:21 10.09.2019
2157 Rain 16 1011 82 10000 3.1 30 13:48 10.09.2019
2158 Rain 16 1011 82 10000 4.6 50 13:24 10.09.2019
2159 Rain 16 1011 93 7000 3.6 70 12:55 10.09.2019
2160 Rain 16 1011 93 7000 3.6 70 12:55 10.09.2019
2161 Rain 16 1010 88 7000 5.1 50 12:36 10.09.2019
2162 Rain 16 1010 87 4000 2.6 310 12:18 10.09.2019
2163 Rain 17 1010 88 3000 5.1 300 11:42 10.09.2019
2164 Rain 17 1010 88 3000 5.1 300 11:22 10.09.2019
2165 Clouds 17 1008 68 10000 3.6 20 10:59 10.09.2019
2166 Clouds 17 1008 68 10000 4.1 20 10:37 10.09.2019
2167 Clouds 18 1009 72 10000 6.2 70 10:18 10.09.2019
2168 Clouds 18 1009 72 10000 3.6 360 09:44 10.09.2019
2169 Clouds 18 1008 82 10000 2.6 360 09:20 10.09.2019
2170 Clouds 18 1008 82 10000 2.6 360 08:56 10.09.2019
2171 Clouds 18 1008 82 10000 2.6 10 08:38 10.09.2019
2172 Clouds 18 1008 82 10000 2.6 10 08:19 10.09.2019
2173 Clouds 18 1007 82 10000 3.6 30 07:43 10.09.2019
2174 Clouds 18 1007 82 10000 3.6 30 07:25 10.09.2019
2175 Thunderstorm 18 1007 88 10000 7.7 50 06:46 10.09.2019
2176 Rain 18 1007 88 10000 7.7 50 06:28 10.09.2019
2177 Rain 19 1007 93 9000 9.8 40 04:38 10.09.2019
2178 Rain 20 1008 83 10000 7.7 230 02:44 10.09.2019
2179 Rain 21 1008 88 3000 7.2 230 02:22 10.09.2019
2180 Rain 21 1008 88 3000 7.2 230 02:22 10.09.2019
2181 Rain 21 1008 88 3000 7.2 230 01:52 10.09.2019
2182 Rain 21 1008 88 3000 7.2 230 01:52 10.09.2019
2183 Rain 21 1008 88 3000 7.2 230 01:52 10.09.2019
2184 Rain 21 1008 88 3000 7.2 230 01:52 10.09.2019
2185 Rain 21 1008 88 3000 7.2 230 01:52 10.09.2019
2186 Thunderstorm 22 1010 78 10000 4.1 250 01:23 10.09.2019
2187 Thunderstorm 22 1011 73 10000 2.6 240 00:44 10.09.2019
2188 Thunderstorm 22 1011 73 10000 2.6 240 00:23 10.09.2019
2189 Clouds 23 1012 78 10000 3.6 220 23:41 09.09.2019
2190 Clouds 23 1012 78 10000 3.6 220 23:19 09.09.2019
2191 Clouds 23 1012 78 10000 3.6 220 22:56 09.09.2019
2192 Clouds 23 1012 83 10000 2.6 230 22:37 09.09.2019
2193 Clouds 23 1012 83 10000 2.6 260 22:19 09.09.2019
2194 Clouds 23 1012 83 10000 2.6 260 21:56 09.09.2019
2195 Clouds 23 1012 83 10000 3.1 220 21:37 09.09.2019
2196 Clouds 23 1012 83 10000 3.1 220 21:19 09.09.2019
2197 Clouds 23 1012 83 10000 3.6 220 20:55 09.09.2019
2198 Clouds 23 1012 73 10000 3.6 220 20:37 09.09.2019
2199 Clouds 23 1012 73 10000 4.1 220 20:18 09.09.2019
2200 Clouds 23 1012 73 10000 4.1 220 19:56 09.09.2019
2201 Clouds 23 1012 73 10000 3.1 210 19:38 09.09.2019
2202 Clouds 24 1012 73 10000 3.6 200 19:19 09.09.2019
2203 Clouds 24 1012 69 10000 3.1 170 18:56 09.09.2019
2204 Clouds 24 1012 69 10000 3.1 170 18:38 09.09.2019
2205 Clouds 24 1012 69 10000 3.1 170 18:19 09.09.2019
2206 Clouds 24 1013 69 10000 3.1 120 17:56 09.09.2019
2207 Clouds 25 1013 69 10000 3.6 120 17:38 09.09.2019
2208 Clouds 25 1013 69 10000 3.6 120 17:38 09.09.2019
2209 Clouds 24 1013 69 10000 3.6 120 17:20 09.09.2019
2210 Clouds 24 1014 69 10000 4.1 90 16:55 09.09.2019
2211 Clouds 24 1014 69 10000 4.1 90 16:37 09.09.2019
2212 Clouds 24 1014 69 10000 4.1 90 16:18 09.09.2019
2213 Clouds 24 1014 60 10000 4.6 90 15:43 09.09.2019
2214 Clouds 24 1014 60 10000 4.6 90 15:24 09.09.2019
2215 Clouds 24 1015 60 10000 5.1 80 14:58 09.09.2019
2216 Clouds 23 1016 60 10000 5.1 70 14:40 09.09.2019
2217 Clouds 23 1016 60 10000 5.1 70 14:21 09.09.2019
2218 Clouds 23 1016 60 10000 6.2 70 13:57 09.09.2019
2219 Clouds 23 1016 60 10000 6.2 70 13:39 09.09.2019
2220 Clouds 23 1016 60 10000 6.2 70 13:18 09.09.2019
2221 Clouds 23 1017 60 10000 6.7 60 12:54 09.09.2019
2222 Clouds 23 1017 60 10000 6.7 60 12:36 09.09.2019
2223 Clouds 23 1017 64 10000 6.7 60 12:18 09.09.2019
2224 Clouds 22 1017 64 10000 6.7 60 11:43 09.09.2019
2225 Clouds 22 1017 64 10000 6.7 60 11:20 09.09.2019
2226 Clouds 21 1017 64 10000 6.7 60 10:54 09.09.2019
2227 Clouds 21 1017 64 10000 6.2 60 10:36 09.09.2019
2228 Clouds 21 1017 64 10000 6.2 60 10:18 09.09.2019
2229 Clouds 20 1016 64 10000 4.1 80 09:46 09.09.2019
2230 Clouds 20 1016 64 10000 4.1 80 09:27 09.09.2019
2231 Clouds 19 1016 82 10000 4.1 80 08:56 09.09.2019
2232 Rain 19 1017 77 10000 1.5 0 08:38 09.09.2019
2233 Rain 19 1017 77 10000 1.5 0 08:19 09.09.2019
2234 Rain 19 1016 83 5000 4.1 360 07:41 09.09.2019
2235 Rain 19 1016 83 5000 4.1 360 07:20 09.09.2019
2236 Rain 19 1016 78 10000 1.5 340 06:54 09.09.2019
2237 Clouds 19 1016 73 10000 3.6 40 06:27 09.09.2019
2238 Clouds 20 1017 73 10000 2.6 350 03:21 09.09.2019
2239 Rain 20 1018 73 10000 3.1 40 02:42 09.09.2019
2240 Rain 20 1018 77 10000 3.1 50 01:25 09.09.2019
2241 Clouds 20 1018 78 10000 2.6 110 00:24 09.09.2019
2242 Clouds 20 1018 78 10000 2.6 110 23:56 08.09.2019
2243 Clouds 21 1018 73 10000 3.1 130 23:56 08.09.2019
2244 Clouds 21 1018 73 10000 3.1 130 23:38 08.09.2019
2245 Clouds 20 1018 73 10000 3.1 130 23:19 08.09.2019
2246 Clouds 21 1018 73 10000 3.1 150 22:41 08.09.2019
2247 Clouds 21 1018 73 10000 3.1 150 22:23 08.09.2019
2248 Clouds 21 1018 73 10000 3.1 150 22:23 08.09.2019
2249 Clouds 21 1018 73 10000 2.6 150 21:59 08.09.2019
2250 Clouds 21 1017 78 10000 3.6 130 21:40 08.09.2019
2251 Clouds 21 1017 78 10000 3.6 130 21:40 08.09.2019
2252 Clouds 21 1017 78 10000 3.6 130 21:22 08.09.2019
2253 Clouds 21 1017 73 10000 4.1 130 20:56 08.09.2019
2254 Clouds 21 1016 73 10000 3.6 150 20:37 08.09.2019
2255 Clouds 21 1016 57 10000 4.1 160 20:18 08.09.2019
2256 Rain 21 1016 64 10000 3.1 40 19:39 08.09.2019
2257 Rain 21 1016 73 10000 5.1 40 19:21 08.09.2019
2258 Rain 21 1016 64 10000 3.1 40 19:21 08.09.2019
2259 Rain 21 1016 73 10000 5.1 40 18:59 08.09.2019
2260 Rain 21 1016 69 10000 5.1 20 18:39 08.09.2019
2261 Rain 22 1016 69 10000 5.1 20 18:20 08.09.2019
2262 Rain 23 1016 61 10000 3.1 10 17:59 08.09.2019
2263 Rain 23 1016 73 9000 7.2 170 17:37 08.09.2019
2264 Rain 23 1015 73 10000 8.2 120 17:19 08.09.2019
2265 Rain 23 1015 73 10000 8.2 120 16:58 08.09.2019
2266 Rain 23 1015 65 10000 7.7 140 16:40 08.09.2019
2267 Rain 23 1016 69 10000 6.7 160 16:20 08.09.2019
2268 Rain 23 1016 69 10000 6.7 160 15:56 08.09.2019
2269 Rain 24 1016 69 10000 8.2 130 15:36 08.09.2019
2270 Rain 24 1016 69 10000 8.2 130 15:18 08.09.2019
2271 Rain 24 1017 69 10000 5.7 150 14:40 08.09.2019
2272 Clouds 24 1017 69 10000 5.7 150 14:22 08.09.2019
2273 Clouds 24 1017 65 10000 4.6 140 13:58 08.09.2019
2274 Clouds 24 1017 61 10000 3.1 130 13:40 08.09.2019
2275 Clouds 24 1017 61 10000 3.1 130 13:22 08.09.2019
2276 Clouds 24 1017 61 10000 4.1 70 12:55 08.09.2019
2277 Clouds 24 1017 64 10000 3.6 60 12:37 08.09.2019
2278 Clouds 23 1017 64 10000 3.6 60 12:19 08.09.2019
2279 Clouds 23 1017 64 10000 3.6 60 12:19 08.09.2019
2280 Clouds 23 1018 60 10000 3.1 40 11:56 08.09.2019
2281 Clouds 23 1018 60 10000 4.1 40 11:37 08.09.2019
2282 Clouds 23 1018 60 10000 4.1 40 11:37 08.09.2019
2283 Clouds 23 1018 60 10000 4.1 40 11:19 08.09.2019
2284 Clouds 21 1018 64 10000 4.1 320 10:42 08.09.2019
2285 Clouds 21 1018 64 10000 4.1 320 10:23 08.09.2019
2286 Clouds 21 1018 64 10000 4.1 320 10:23 08.09.2019
2287 Clouds 19 1018 68 10000 4.6 330 09:56 08.09.2019
2288 Clouds 19 1018 72 10000 5.1 330 09:37 08.09.2019
2289 Clouds 18 1018 72 10000 4.6 330 09:19 08.09.2019
2290 Clouds 17 1018 77 10000 4.6 330 08:40 08.09.2019
2291 Clouds 17 1018 77 10000 4.6 330 08:40 08.09.2019
2292 Clouds 16 1017 77 10000 4.1 340 08:19 08.09.2019
2293 Clouds 16 1017 77 10000 4.1 340 08:19 08.09.2019
2294 Clouds 16 1017 77 10000 4.1 340 07:59 08.09.2019
2295 Clouds 16 1017 77 10000 4.6 330 07:37 08.09.2019
2296 Clouds 16 1017 77 10000 4.6 330 07:19 08.09.2019
2297 Clouds 16 1017 77 10000 4.1 330 06:44 08.09.2019
2298 Clouds 17 1017 77 10000 2.6 320 05:45 08.09.2019
2299 Clouds 17 1017 77 10000 2.6 320 05:27 08.09.2019
2300 Clouds 18 1018 72 10000 3.6 330 03:30 08.09.2019
2301 Clouds 18 1018 72 10000 3.6 330 02:51 08.09.2019
2302 Clouds 18 1019 72 10000 2.1 310 01:57 08.09.2019
2303 Clouds 18 1019 72 10000 2.1 310 01:57 08.09.2019
2304 Clouds 18 1019 77 10000 1.5 300 01:34 08.09.2019
2305 Clouds 19 1019 77 10000 1.5 310 00:50 08.09.2019
2306 Clouds 19 1019 77 10000 1.5 310 00:32 08.09.2019
2307 Clouds 20 1019 73 10000 1.9 156.813 23:59 07.09.2019
2308 Clouds 20 1019 77 10000 1 0 23:38 07.09.2019
2309 Clouds 20 1019 77 10000 1 0 23:19 07.09.2019
2310 Clouds 21 1019 73 10000 1.5 300 22:57 07.09.2019
2311 Clouds 22 1019 73 10000 2.6 270 22:37 07.09.2019
2312 Clouds 22 1018 73 10000 3.1 260 22:18 07.09.2019
2313 Clouds 22 1018 78 10000 3.1 260 21:40 07.09.2019
2314 Clouds 22 1018 78 10000 3.1 260 21:22 07.09.2019
2315 Clouds 23 1017 64 10000 3.1 180 20:42 07.09.2019
2316 Clouds 23 1017 64 10000 3.1 180 20:22 07.09.2019
2317 Clouds 23 1017 60 10000 4.1 170 19:58 07.09.2019
2318 Clouds 24 1017 61 10000 4.1 170 19:39 07.09.2019
2319 Clouds 24 1017 61 10000 4.1 170 19:21 07.09.2019
2320 Clouds 24 1017 65 10000 5.1 180 18:59 07.09.2019
2321 Clouds 24 1018 65 10000 5.1 180 18:40 07.09.2019
2322 Clouds 25 1018 65 10000 5.1 180 18:22 07.09.2019
2323 Clouds 25 1018 65 10000 4.6 180 17:59 07.09.2019
2324 Clouds 25 1018 65 10000 4.6 180 17:59 07.09.2019
2325 Clouds 25 1018 61 10000 5.1 180 17:40 07.09.2019
2326 Clouds 25 1018 61 10000 5.1 180 17:19 07.09.2019
2327 Clouds 25 1018 61 10000 5.1 180 17:19 07.09.2019
2328 Clouds 25 1018 61 10000 5.1 190 16:59 07.09.2019
2329 Clouds 25 1018 61 10000 5.7 170 16:40 07.09.2019
2330 Clouds 25 1018 61 10000 5.7 170 16:20 07.09.2019
2331 Clouds 25 1019 64 10000 5.1 170 15:47 07.09.2019
2332 Clouds 25 1019 60 10000 4.6 180 15:26 07.09.2019
2333 Clouds 25 1019 64 10000 4.6 170 14:57 07.09.2019
2334 Clouds 25 1020 60 10000 4.6 180 14:37 07.09.2019
2335 Clouds 25 1020 60 10000 4.6 180 14:19 07.09.2019
2336 Clouds 25 1020 64 10000 3.6 170 13:57 07.09.2019
2337 Clouds 24 1020 60 10000 2.1 150 13:39 07.09.2019
2338 Clouds 24 1020 60 10000 2.1 150 13:21 07.09.2019
2339 Clouds 24 1020 53 10000 1 210 12:44 07.09.2019
2340 Clouds 23 1020 53 10000 1 210 12:25 07.09.2019
2341 Clouds 22 1021 53 10000 4.6 310 11:57 07.09.2019
2342 Clouds 22 1021 52 10000 5.1 330 11:39 07.09.2019
2343 Clouds 21 1021 52 10000 6.2 330 11:19 07.09.2019
2344 Clouds 20 1021 55 10000 6.2 330 10:40 07.09.2019
2345 Clouds 20 1021 55 10000 6.2 330 10:21 07.09.2019
2346 Clouds 19 1021 55 10000 6.7 330 09:44 07.09.2019
2347 Clouds 18 1021 55 10000 6.7 330 09:25 07.09.2019
2348 Clouds 17 1020 59 10000 6.7 330 08:59 07.09.2019
2349 Clouds 17 1020 59 10000 6.2 340 08:41 07.09.2019
2350 Clouds 16 1020 59 10000 6.2 330 08:23 07.09.2019
2351 Clouds 16 1020 63 10000 5.7 330 07:45 07.09.2019
2352 Clouds 16 1020 63 10000 5.7 330 07:26 07.09.2019
2353 Clouds 17 1019 72 10000 4.6 320 06:47 07.09.2019
2354 Clouds 17 1020 68 10000 4.1 320 06:20 07.09.2019
2355 Clouds 18 1020 77 10000 2.1 30 04:49 07.09.2019
2356 Clouds 18 1019 77 10000 3.1 360 04:20 07.09.2019
2357 Clouds 19 1020 88 10000 2.6 10 02:49 07.09.2019
2358 Rain 19 1020 93 3500 8.2 230 01:53 07.09.2019
2359 Rain 19 1020 93 3500 8.2 230 01:53 07.09.2019
2360 Clouds 19 1020 60 10000 2.6 320 01:23 07.09.2019
2361 Clouds 19 1020 56 10000 1.5 330 00:40 07.09.2019
2362 Clouds 20 1020 56 10000 2.1 220 00:19 07.09.2019
2363 Clouds 20 1019 60 10000 2.6 200 23:41 06.09.2019
2364 Clouds 20 1019 57 10000 3.1 200 23:22 06.09.2019
2365 Clouds 20 1019 57 10000 3.1 200 22:58 06.09.2019
2366 Clouds 20 1019 57 10000 3.1 200 22:58 06.09.2019
2367 Clouds 20 1019 57 10000 2.6 200 22:38 06.09.2019
2368 Clouds 20 1019 57 10000 2.6 200 22:19 06.09.2019
2369 Clouds 21 1019 57 10000 2.6 200 21:58 06.09.2019
2370 Clouds 22 1019 53 10000 2.1 200 21:39 06.09.2019
2371 Clear 22 1018 50 10000 2.1 210 21:21 06.09.2019
2372 Clear 22 1018 50 10000 2.1 210 20:58 06.09.2019
2373 Clear 23 1018 44 10000 2.6 190 20:39 06.09.2019
2374 Clear 23 1018 44 10000 2.6 190 20:21 06.09.2019
2375 Clear 24 1018 44 10000 3.1 200 19:57 06.09.2019
2376 Clear 24 1018 44 10000 3.6 200 19:39 06.09.2019
2377 Clear 24 1018 44 10000 4.6 200 19:20 06.09.2019
2378 Clear 24 1018 44 10000 5.1 190 18:46 06.09.2019
2379 Clear 25 1018 44 10000 5.1 190 18:25 06.09.2019
2380 Clear 25 1018 44 10000 5.1 200 17:59 06.09.2019
2381 Clear 25 1018 44 10000 4.6 210 17:38 06.09.2019
2382 Clear 25 1018 44 10000 4.6 210 17:19 06.09.2019
2383 Clear 25 1018 44 10000 4.6 210 17:19 06.09.2019
2384 Clear 25 1018 38 10000 5.1 190 16:41 06.09.2019
2385 Clear 25 1018 38 10000 5.1 190 16:19 06.09.2019
2386 Clouds 25 1019 41 10000 5.7 200 15:56 06.09.2019
2387 Clouds 25 1019 41 10000 6.2 200 15:38 06.09.2019
2388 Clouds 24 1019 50 10000 4.6 200 15:20 06.09.2019
2389 Clouds 24 1019 50 10000 3.6 190 14:39 06.09.2019
2390 Clouds 24 1019 50 10000 3.6 190 14:18 06.09.2019
2391 Clouds 25 1019 53 10000 4.1 140 13:43 06.09.2019
2392 Clouds 24 1019 53 10000 4.1 140 13:22 06.09.2019
2393 Clouds 24 1020 47 10000 0.5 100 12:41 06.09.2019
2394 Clouds 23 1020 46 10000 2.6 330 12:23 06.09.2019
2395 Clouds 23 1020 46 10000 2.6 330 11:59 06.09.2019
2396 Clouds 22 1020 43 10000 5.1 320 11:40 06.09.2019
2397 Clouds 22 1020 43 10000 5.1 320 11:22 06.09.2019
2398 Rain 21 1020 46 10000 5.7 340 10:54 06.09.2019
2399 Clouds 21 1020 46 10000 5.7 340 10:54 06.09.2019
2400 Rain 21 1019 43 10000 6.2 330 10:36 06.09.2019
2401 Rain 20 1019 45 10000 5.7 330 10:18 06.09.2019
2402 Clouds 19 1019 48 10000 7.2 340 09:38 06.09.2019
2403 Clouds 18 1019 48 10000 7.2 340 09:19 06.09.2019
2404 Clouds 18 1019 48 10000 6.7 330 08:54 06.09.2019
2405 Clouds 17 1019 48 10000 6.7 330 08:36 06.09.2019
2406 Clouds 18 1019 45 10000 6.7 330 08:18 06.09.2019
2407 Clouds 18 1019 45 10000 6.7 330 07:41 06.09.2019
2408 Clouds 18 1019 49 10000 6.7 330 07:22 06.09.2019
2409 Clouds 18 1018 49 10000 5.7 330 06:41 06.09.2019
2410 Clouds 18 1018 49 10000 4.6 330 05:58 06.09.2019
2411 Clouds 19 1018 56 10000 3.6 340 04:56 06.09.2019
2412 Clouds 19 1018 68 10000 4.1 340 04:26 06.09.2019
2413 Clouds 20 1018 68 10000 2.1 340 03:23 06.09.2019
2414 Clouds 20 1018 68 10000 1.5 10 01:47 06.09.2019
2415 Clouds 20 1018 64 10000 5.09 188.719 00:23 06.09.2019
2416 Clouds 20 1018 64 10000 1 310 23:43 05.09.2019
2417 Clouds 20 1018 64 10000 1 310 23:23 05.09.2019
2418 Clouds 21 1018 68 10000 2.1 360 22:47 05.09.2019
2419 Clouds 21 1018 68 10000 2.1 360 22:28 05.09.2019
2420 Clouds 20 1018 64 10000 3.6 50 21:58 05.09.2019
2421 Rain 21 1018 57 10000 5.1 40 21:40 05.09.2019
2422 Rain 21 1018 57 10000 5.1 40 21:21 05.09.2019
2423 Rain 21 1017 64 10000 4.6 90 20:58 05.09.2019
2424 Rain 21 1017 64 10000 4.6 90 20:58 05.09.2019
2425 Rain 22 1017 61 10000 5.1 160 20:40 05.09.2019
2426 Rain 22 1017 61 10000 5.1 160 20:22 05.09.2019
2427 Clouds 23 1017 65 10000 4.1 150 19:59 05.09.2019
2428 Clouds 24 1017 65 10000 3.6 140 19:41 05.09.2019
2429 Clouds 24 1017 65 10000 3.6 140 19:22 05.09.2019
2430 Clouds 24 1016 65 10000 4.6 180 18:56 05.09.2019
2431 Clouds 24 1016 65 10000 4.6 180 18:38 05.09.2019
2432 Clouds 25 1016 61 10000 5.1 180 18:18 05.09.2019
2433 Clouds 25 1016 61 10000 5.1 180 17:41 05.09.2019
2434 Clouds 26 1016 61 10000 5.1 180 17:22 05.09.2019
2435 Clouds 26 1017 61 10000 5.1 180 16:58 05.09.2019
2436 Clouds 26 1017 57 10000 4.1 160 16:40 05.09.2019
2437 Clouds 26 1017 57 10000 3.6 160 16:20 05.09.2019
2438 Clouds 26 1017 57 10000 3.6 160 15:55 05.09.2019
2439 Clouds 26 1017 57 10000 3.6 170 15:37 05.09.2019
2440 Clouds 26 1017 57 10000 4.1 180 15:18 05.09.2019
2441 Clouds 26 1017 61 10000 3.6 150 14:42 05.09.2019
2442 Clouds 26 1017 57 10000 3.1 190 14:20 05.09.2019
2443 Clouds 26 1017 61 10000 2.6 200 13:44 05.09.2019
2444 Clouds 26 1017 61 10000 2.6 200 13:23 05.09.2019
2445 Clouds 25 1018 50 10000 5.48 155.343 12:58 05.09.2019
2446 Clouds 25 1018 47 10000 3.6 340 12:38 05.09.2019
2447 Clouds 25 1018 47 10000 3.6 340 12:20 05.09.2019
2448 Clouds 24 1018 49 10000 5.7 330 11:43 05.09.2019
2449 Clouds 23 1018 49 10000 5.7 330 11:20 05.09.2019
2450 Clouds 22 1017 53 10000 7.2 330 10:43 05.09.2019
2451 Clouds 22 1017 53 10000 7.2 330 10:23 05.09.2019
2452 Clouds 22 1017 53 10000 7.2 330 10:23 05.09.2019
2453 Clouds 21 1017 56 10000 8.2 330 09:59 05.09.2019
2454 Clouds 21 1017 56 10000 7.2 340 09:40 05.09.2019
2455 Clouds 20 1017 56 10000 7.7 330 09:20 05.09.2019
2456 Clouds 20 1017 56 10000 7.7 330 08:46 05.09.2019
2457 Clouds 20 1017 56 10000 7.2 330 08:28 05.09.2019
2458 Clouds 20 1017 56 10000 7.2 330 08:28 05.09.2019
2459 Clouds 20 1016 56 10000 7.7 330 07:56 05.09.2019
2460 Clouds 20 1016 60 10000 6.7 340 07:37 05.09.2019
2461 Clouds 20 1016 60 10000 6.7 340 07:19 05.09.2019
2462 Clouds 20 1016 64 10000 6.7 340 06:39 05.09.2019
2463 Clouds 20 1016 64 10000 6.7 340 06:18 05.09.2019
2464 Clouds 20 1016 83 10000 4.1 330 05:40 05.09.2019
2465 Clouds 20 1016 83 10000 4.1 330 05:22 05.09.2019
2466 Clouds 21 1016 83 10000 2.1 330 04:29 05.09.2019
2467 Clouds 21 1016 83 10000 1.5 350 03:41 05.09.2019
2468 Clouds 21 1016 83 10000 1.5 340 02:56 05.09.2019
2469 Clouds 21 1017 88 10000 2.6 320 02:28 05.09.2019
2470 Clear 22 1017 83 10000 1.78 224.296 01:48 05.09.2019
2471 Clouds 22 1017 83 10000 1.91 223.833 00:51 05.09.2019
2472 Mist 22 1017 78 10000 1 310 00:23 05.09.2019
2473 Clouds 23 1017 78 10000 1.5 290 23:59 04.09.2019
2474 Clouds 23 1017 83 10000 2.6 260 23:39 04.09.2019
2475 Clouds 23 1017 83 10000 2.6 260 23:19 04.09.2019
2476 Clouds 23 1017 83 10000 2.6 230 22:47 04.09.2019
2477 Clouds 24 1017 83 10000 2.6 230 22:19 04.09.2019
2478 Clouds 24 1017 78 10000 2.1 220 21:55 04.09.2019
2479 Clouds 24 1017 78 10000 2.1 220 21:55 04.09.2019
2480 Clouds 24 1017 78 10000 2.1 220 21:55 04.09.2019
2481 Clouds 24 1016 78 10000 3.1 220 21:37 04.09.2019
2482 Clouds 25 1016 73 10000 3.6 230 21:18 04.09.2019
2483 Clouds 25 1016 73 10000 3.6 230 20:54 04.09.2019
2484 Clouds 25 1016 69 10000 4.1 220 20:36 04.09.2019
2485 Clear 26 1016 65 10000 4.1 220 20:18 04.09.2019
2486 Clear 27 1016 65 10000 4.6 220 19:40 04.09.2019
2487 Clear 27 1016 65 10000 4.6 220 19:21 04.09.2019
2488 Clear 28 1016 65 10000 5.1 210 18:42 04.09.2019
2489 Clear 28 1016 65 10000 5.1 210 18:24 04.09.2019
2490 Clear 28 1016 65 10000 5.7 210 17:58 04.09.2019
2491 Clear 28 1017 65 10000 5.7 220 17:40 04.09.2019
2492 Clear 28 1017 65 10000 5.7 220 17:21 04.09.2019
2493 Clear 28 1017 65 10000 5.7 220 17:21 04.09.2019
2494 Clear 28 1017 65 10000 6.2 210 16:54 04.09.2019
2495 Clear 29 1017 61 10000 5.7 200 16:36 04.09.2019
2496 Clear 29 1017 61 10000 5.7 200 16:18 04.09.2019
2497 Clear 29 1017 65 10000 5.7 210 15:39 04.09.2019
2498 Clear 29 1017 65 10000 5.7 210 15:21 04.09.2019
2499 Clear 29 1018 65 10000 6.2 210 14:58 04.09.2019
2500 Clear 29 1018 65 10000 5.1 210 14:38 04.09.2019
2501 Clear 29 1018 65 10000 5.1 210 14:38 04.09.2019
2502 Clear 28 1018 65 10000 5.1 210 14:20 04.09.2019
2503 Clear 28 1018 65 10000 5.1 210 13:57 04.09.2019
2504 Clear 28 1018 61 10000 4.1 200 13:38 04.09.2019
2505 Clear 28 1018 61 10000 4.1 200 13:38 04.09.2019
2506 Clear 28 1018 61 10000 4.1 200 13:19 04.09.2019
2507 Clear 27 1019 61 10000 3.1 170 12:43 04.09.2019
2508 Clear 27 1019 61 10000 3.1 170 12:24 04.09.2019
2509 Clear 26 1019 57 10000 1.5 210 11:56 04.09.2019
2510 Clear 26 1019 54 10000 0.61 251.742 11:38 04.09.2019
2511 Clear 26 1019 57 10000 2.6 330 11:19 04.09.2019
2512 -273 0 0 0 0 0 10:55 04.09.2019
2513 Clear 25 1019 60 10000 3.6 320 10:36 04.09.2019
2514 Clear 24 1019 68 10000 4.6 320 10:18 04.09.2019
2515 Clear 22 1019 68 10000 5.1 330 09:42 04.09.2019
2516 Clear 21 1019 68 10000 5.1 330 09:19 04.09.2019
2517 Clear 19 1019 77 10000 5.7 330 08:42 04.09.2019
2518 Clear 19 1019 77 10000 5.7 330 08:24 04.09.2019
2519 Clear 19 1019 77 10000 6.2 320 07:58 04.09.2019
2520 Clear 19 1018 72 10000 5.7 320 07:35 04.09.2019
2521 Clear 19 1018 72 10000 5.1 320 06:53 04.09.2019
2522 Clear 19 1018 72 10000 5.1 320 06:32 04.09.2019
2523 Clear 19 1019 72 10000 5.1 320 04:54 04.09.2019
2524 Clear 19 1020 73 10000 4.1 320 04:22 04.09.2019
2525 Clear 20 1020 68 10000 3.6 340 02:36 04.09.2019
2526 Clouds 21 1021 73 10000 2.1 320 00:58 04.09.2019
2527 Clouds 21 1020 69 10000 1.5 320 00:39 04.09.2019
2528 Clouds 21 1020 69 10000 2.1 310 00:18 04.09.2019
2529 Clouds 21 1020 69 10000 2.1 300 23:47 03.09.2019
2530 Clouds 21 1020 69 10000 2.1 300 23:23 03.09.2019
2531 Clouds 22 1020 69 10000 0.5 0 22:41 03.09.2019
2532 Clouds 22 1020 69 10000 0.5 0 22:22 03.09.2019
2533 Clouds 23 1020 61 10000 0.5 0 21:57 03.09.2019
2534 Clouds 23 1020 61 10000 1.24 162.833 21:38 03.09.2019
2535 Clouds 24 1020 61 10000 3.64 140.668 21:20 03.09.2019
2536 Clouds 24 1020 61 10000 0.5 0 20:55 03.09.2019
2537 Clouds 24 1020 65 10000 3.64 140.668 20:36 03.09.2019
2538 Clouds 24 1020 65 10000 3.64 140.668 20:18 03.09.2019
2539 Clouds 25 1019 61 10000 2.1 140 19:43 03.09.2019
2540 Clouds 26 1020 61 10000 2.6 180 19:19 03.09.2019
2541 Clouds 26 1020 61 10000 2.6 160 18:57 03.09.2019
2542 Clouds 26 1020 61 10000 2.6 160 18:57 03.09.2019
2543 Clouds 26 1020 61 10000 2.6 160 18:38 03.09.2019
2544 Clouds 26 1020 65 10000 3.1 150 18:19 03.09.2019
2545 Clouds 27 1020 65 10000 3.1 150 17:55 03.09.2019
2546 Clouds 27 1020 65 10000 3.1 150 17:55 03.09.2019
2547 Clouds 27 1020 65 10000 3.1 150 17:55 03.09.2019
2548 Clouds 27 1020 65 10000 3.1 170 17:36 03.09.2019
2549 Clouds 27 1020 65 10000 3.6 160 17:18 03.09.2019
2550 Clouds 27 1020 65 10000 3.6 170 16:42 03.09.2019
2551 Clouds 27 1020 65 10000 3.6 170 16:22 03.09.2019
2552 Clouds 27 1020 57 10000 4.1 150 15:55 03.09.2019
2553 Clouds 27 1020 57 10000 3.6 140 15:37 03.09.2019
2554 Clouds 27 1020 61 10000 3.6 150 15:19 03.09.2019
2555 Clouds 27 1020 61 10000 3.6 150 14:55 03.09.2019
2556 Clouds 27 1020 57 10000 4.1 160 14:36 03.09.2019
2557 Clear 27 1020 57 10000 3.6 150 14:18 03.09.2019
2558 Clear 27 1020 57 10000 3.6 150 13:55 03.09.2019
2559 Clear 27 1021 57 10000 3.6 160 13:37 03.09.2019
2560 Clear 27 1021 57 10000 3.6 160 13:18 03.09.2019
2561 Clear 27 1021 47 10000 1.5 330 12:46 03.09.2019
2562 Clear 26 1021 47 10000 1.5 330 12:28 03.09.2019
2563 Clear 25 1021 47 10000 4.6 330 11:44 03.09.2019
2564 Clear 24 1021 47 10000 4.6 330 11:25 03.09.2019
2565 Clear 24 1021 53 10000 6.2 330 10:59 03.09.2019
2566 Clear 24 1021 53 10000 6.2 330 10:59 03.09.2019
2567 Clear 23 1021 53 10000 5.7 330 10:40 03.09.2019
2568 Clear 23 1021 53 10000 5.7 330 10:21 03.09.2019
2569 Clear 22 1021 53 10000 5.7 330 09:51 03.09.2019
2570 Clear 21 1020 60 10000 6.2 340 09:33 03.09.2019
2571 Clear 19 1020 60 10000 4.1 320 08:57 03.09.2019
2572 Clear 19 1020 60 10000 4.1 330 08:38 03.09.2019
2573 Clear 19 1020 60 10000 4.1 330 08:19 03.09.2019
2574 Clouds 19 1020 68 10000 3.1 330 07:43 03.09.2019
2575 Clouds 19 1020 68 10000 3.1 330 07:24 03.09.2019
2576 Clouds 20 1019 88 10000 3.6 340 06:54 03.09.2019
2577 Clouds 20 1019 88 10000 3.6 340 06:36 03.09.2019
2578 Rain 22 1020 94 10000 0.5 0 03:44 03.09.2019
2579 Drizzle 22 1020 94 10000 3.1 310 02:49 03.09.2019
2580 Drizzle 22 1020 94 10000 0.5 0 02:30 03.09.2019
2581 Drizzle 22 1020 100 10000 2.6 100 01:58 03.09.2019
2582 Drizzle 22 1020 100 10000 2.1 160 01:40 03.09.2019
2583 Rain 22 1020 94 2000 8.7 80 01:21 03.09.2019
2584 Rain 22 1020 73 10000 3.1 150 00:28 03.09.2019
2585 Rain 22 1020 73 10000 3.6 150 23:56 02.09.2019
2586 Rain 22 1020 69 10000 2.6 150 23:36 02.09.2019
2587 Clouds 23 1020 69 10000 3.1 140 23:18 02.09.2019
2588 Clouds 23 1020 69 10000 3.1 140 23:18 02.09.2019
2589 Clouds 23 1020 69 10000 3.1 140 23:18 02.09.2019
2590 Rain 23 1020 69 10000 3.1 140 22:54 02.09.2019
2591 Clouds 23 1019 69 10000 3.1 150 22:36 02.09.2019
2592 Clouds 23 1019 69 10000 3.1 150 22:18 02.09.2019
2593 Clouds 23 1019 65 10000 3.1 150 21:54 02.09.2019
2594 Clouds 24 1018 65 10000 3.1 150 21:36 02.09.2019
2595 Clouds 23 1018 65 10000 3.1 150 21:18 02.09.2019
2596 Clouds 24 1018 61 10000 3.1 150 20:41 02.09.2019
2597 Clouds 24 1018 61 10000 3.1 150 20:22 02.09.2019
2598 Clouds 25 1017 57 10000 4.6 190 19:58 02.09.2019
2599 Clouds 25 1017 57 10000 4.6 190 19:40 02.09.2019
2600 Clouds 26 1017 54 10000 5.7 190 19:21 02.09.2019
2601 Clouds 26 1017 54 10000 5.7 190 18:56 02.09.2019
2602 Clouds 26 1017 47 10000 6.2 180 18:36 02.09.2019
2603 Clouds 26 1017 54 10000 6.2 190 18:18 02.09.2019
2604 Clouds 26 1017 54 10000 7.2 190 17:40 02.09.2019
2605 Clouds 27 1017 54 10000 7.2 190 17:21 02.09.2019
2606 Clouds 27 1017 51 10000 7.7 210 16:59 02.09.2019
2607 Clouds 27 1017 54 10000 7.2 200 16:39 02.09.2019
2608 Clouds 27 1017 54 10000 7.2 200 16:20 02.09.2019
2609 Clouds 27 1017 54 10000 7.2 200 16:20 02.09.2019
2610 Clouds 27 1017 57 10000 5.7 200 15:46 02.09.2019
2611 Clouds 27 1017 57 10000 5.7 200 15:27 02.09.2019
2612 Clouds 27 1018 57 10000 5.7 210 14:58 02.09.2019
2613 Clouds 27 1018 57 10000 5.7 200 14:40 02.09.2019
2614 Clouds 27 1018 57 10000 5.7 200 14:22 02.09.2019
2615 Clouds 26 1018 69 10000 4.1 190 13:56 02.09.2019
2616 Clouds 26 1018 61 10000 4.1 170 13:37 02.09.2019
2617 Clouds 26 1018 57 10000 0.5 300 13:19 02.09.2019
2618 Clouds 26 1018 57 10000 2.1 330 12:45 02.09.2019
2619 Clouds 25 1018 57 10000 2.1 330 12:25 02.09.2019
2620 Clouds 25 1018 57 10000 2.1 330 12:25 02.09.2019
2621 Clouds 25 1018 57 10000 4.6 340 11:58 02.09.2019
2622 Clouds 25 1018 57 10000 4.6 330 11:39 02.09.2019
2623 Clouds 24 1018 61 10000 2.1 300 11:21 02.09.2019
2624 Clouds 24 1018 61 10000 2.1 300 10:57 02.09.2019
2625 Clouds 23 1018 69 10000 3.6 320 10:38 02.09.2019
2626 Clouds 23 1018 69 10000 3.6 320 10:19 02.09.2019
2627 Clouds 22 1018 73 10000 1 0 09:46 02.09.2019
2628 Clouds 22 1018 73 10000 1 0 09:22 02.09.2019
2629 Clouds 22 1017 78 10000 2.1 20 08:58 02.09.2019
2630 Clouds 22 1017 78 10000 2.1 350 08:38 02.09.2019
2631 Clouds 21 1017 78 10000 0.5 0 08:18 02.09.2019
2632 Clouds 21 1016 73 10000 1.56 173.294 07:40 02.09.2019
2633 Rain 21 1016 83 10000 1.5 290 07:21 02.09.2019
2634 Rain 21 1016 78 10000 2.6 300 06:45 02.09.2019
2635 Rain 22 1016 78 10000 2.6 300 06:25 02.09.2019
2636 Rain 22 1016 78 10000 1.5 300 05:48 02.09.2019
2637 Thunderstorm 22 1016 78 10000 1.5 300 05:19 02.09.2019
2638 Thunderstorm 22 1016 78 10000 2.07 219.621 04:20 02.09.2019
2639 Thunderstorm 23 1016 73 10000 2.13 175.319 01:48 02.09.2019
2640 Thunderstorm 24 1015 69 10000 2.17 196.821 00:49 02.09.2019
2641 Thunderstorm 24 1015 69 10000 2.17 196.821 00:31 02.09.2019
2642 Thunderstorm 24 1016 74 10000 1 0 23:46 01.09.2019
2643 Thunderstorm 24 1016 74 10000 1 0 23:23 01.09.2019
2644 Clouds 24 1016 74 10000 1.5 90 22:59 01.09.2019
2645 Clouds 24 1016 74 10000 1.5 90 22:59 01.09.2019
2646 Clouds 24 1016 69 10000 1.5 110 22:40 01.09.2019
2647 Clouds 24 1015 69 10000 2.1 110 22:19 01.09.2019
2648 Clouds 24 1015 69 10000 2.1 110 21:57 01.09.2019
2649 Clouds 24 1015 69 10000 2.1 100 21:39 01.09.2019
2650 Clouds 25 1015 69 10000 2.1 100 21:20 01.09.2019
2651 Clouds 25 1014 69 10000 2.1 110 20:57 01.09.2019
2652 Clouds 25 1014 69 10000 1.5 110 20:38 01.09.2019
2653 Clouds 25 1014 69 10000 1.5 110 20:38 01.09.2019
2654 Clouds 25 1014 69 10000 1.5 110 20:38 01.09.2019
2655 Clouds 25 1014 69 10000 1.5 110 20:18 01.09.2019
2656 Clouds 25 1014 74 10000 3.1 110 19:58 01.09.2019
2657 Clouds 25 1014 78 10000 2.6 120 19:37 01.09.2019
2658 Rain 26 1013 74 10000 3.6 130 19:19 01.09.2019
2659 Clouds 26 1013 74 10000 4.1 140 18:43 01.09.2019
2660 Clouds 27 1013 74 10000 3.6 140 18:25 01.09.2019
2661 Clouds 27 1013 74 10000 3.6 140 17:56 01.09.2019
2662 Clouds 28 1013 69 10000 4.1 140 17:38 01.09.2019
2663 Clouds 28 1013 74 10000 4.1 140 17:19 01.09.2019
2664 Clouds 28 1013 65 10000 4.6 150 16:41 01.09.2019
2665 Clouds 29 1014 65 10000 3.6 140 16:19 01.09.2019
2666 Clouds 29 1014 65 10000 3.6 140 15:49 01.09.2019
2667 Clouds 29 1014 65 10000 3.1 140 15:31 01.09.2019
2668 Clouds 29 1014 65 10000 2.6 150 14:59 01.09.2019
2669 Clouds 29 1014 65 10000 0.5 120 14:40 01.09.2019
2670 Clouds 29 1014 65 10000 0.5 120 14:40 01.09.2019
2671 Clouds 28 1014 65 10000 0.5 120 14:21 01.09.2019
2672 Clouds 28 1014 74 10000 1.5 100 13:56 01.09.2019
2673 Clouds 28 1014 69 10000 2.1 140 13:37 01.09.2019
2674 Clouds 27 1014 69 10000 2.1 140 13:19 01.09.2019
2675 Clouds 27 1015 58 10000 2.1 100 12:42 01.09.2019
2676 Clouds 27 1015 58 10000 2.1 100 12:24 01.09.2019
2677 Clouds 27 1015 54 10000 1 130 11:55 01.09.2019
2678 Clear 27 1015 58 10000 0.5 280 11:36 01.09.2019
2679 Clear 27 1015 58 10000 0.5 280 11:18 01.09.2019
2680 Clear 26 1014 54 10000 2.1 330 10:43 01.09.2019
2681 Clear 25 1014 60 10000 3.1 340 10:23 01.09.2019
2682 Clear 24 1014 64 10000 4.1 330 09:44 01.09.2019
2683 Clear 23 1014 64 10000 4.1 330 09:25 01.09.2019
2684 Clear 21 1014 73 10000 4.1 330 08:45 01.09.2019
2685 Clear 21 1014 73 10000 4.1 330 08:25 01.09.2019
2686 Clear 20 1013 73 10000 4.6 330 07:59 01.09.2019
2687 Clear 20 1013 68 10000 3.6 330 07:41 01.09.2019
2688 Clear 21 1013 68 10000 3.6 330 07:18 01.09.2019
2689 Clear 21 1014 68 10000 4.6 330 06:37 01.09.2019
2690 Clear 21 1014 68 10000 4.6 330 05:57 01.09.2019
2691 Clear 21 1014 68 10000 4.6 330 05:57 01.09.2019
2692 Clear 21 1014 64 10000 4.1 330 04:34 01.09.2019
2693 Clear 21 1014 69 10000 2.1 330 03:43 01.09.2019
2694 Clear 22 1014 60 10000 2.6 340 02:59 01.09.2019
2695 Clear 22 1014 57 10000 3.1 330 02:29 01.09.2019
2696 Clouds 23 1015 60 10000 2.6 330 01:52 01.09.2019
2697 Clouds 23 1014 57 10000 3.1 360 01:25 01.09.2019
2698 Clouds 23 1014 54 10000 3.6 310 00:47 01.09.2019
2699 Clouds 23 1014 54 10000 3.6 310 00:23 01.09.2019
2700 Clouds 24 1014 51 10000 1 0 23:56 31.08.2019
2701 Clouds 24 1014 54 10000 1.5 330 23:38 31.08.2019
2702 Clouds 25 1014 54 10000 1.5 330 23:18 31.08.2019
2703 Clouds 25 1014 54 10000 1.5 330 23:18 31.08.2019
2704 Clouds 25 1014 65 10000 3.1 260 22:54 31.08.2019
2705 Clouds 25 1014 69 10000 6.2 250 22:36 31.08.2019
2706 Clouds 25 1014 69 10000 6.2 250 22:36 31.08.2019
2707 Clouds 25 1014 65 10000 3.1 250 22:18 31.08.2019
2708 Clouds 26 1013 61 10000 1 0 21:40 31.08.2019
2709 Clouds 26 1013 61 10000 1 0 21:40 31.08.2019
2710 Clouds 26 1013 61 10000 1 0 21:21 31.08.2019
2711 Clouds 26 1013 58 10000 2.1 100 20:50 31.08.2019
2712 Clouds 26 1014 58 10000 3.1 340 20:31 31.08.2019
2713 Clouds 26 1014 58 10000 2.6 330 19:59 31.08.2019
2714 Clouds 26 1014 69 10000 2.6 300 19:40 31.08.2019
2715 Clouds 26 1014 69 10000 2.6 300 19:21 31.08.2019
2716 Clouds 26 1014 69 10000 1 220 18:41 31.08.2019
2717 Clouds 26 1014 69 10000 1 220 18:21 31.08.2019
2718 Clouds 26 1014 74 10000 2.1 90 17:58 31.08.2019
2719 Thunderstorm 26 1015 74 10000 1 0 17:37 31.08.2019
2720 Thunderstorm 26 1015 74 10000 1 0 17:19 31.08.2019
2721 Thunderstorm 27 1014 69 10000 2.1 120 16:59 31.08.2019
2722 Thunderstorm 28 1014 74 10000 2.6 140 16:41 31.08.2019
2723 Thunderstorm 28 1014 74 10000 2.6 140 16:21 31.08.2019
2724 Clouds 29 1015 69 10000 3.6 110 15:59 31.08.2019
2725 Clouds 30 1015 65 10000 3.6 120 15:38 31.08.2019
2726 Clouds 31 1015 62 10000 3.6 120 15:18 31.08.2019
2727 Clouds 31 1015 69 10000 4.1 150 14:42 31.08.2019
2728 Clouds 31 1015 65 10000 3.1 120 14:23 31.08.2019
2729 Clouds 31 1015 65 10000 3.1 120 13:56 31.08.2019
2730 Clouds 31 1016 61 10000 3.6 110 13:36 31.08.2019
2731 Clear 31 1016 54 10000 3.1 140 13:18 31.08.2019
2732 Clear 31 1016 58 10000 2.6 130 12:41 31.08.2019
2733 Clear 30 1016 58 10000 2.6 130 12:21 31.08.2019
2734 Clear 30 1016 58 10000 2.6 130 12:21 31.08.2019
2735 Clear 30 1016 51 10000 1.5 100 11:58 31.08.2019
2736 Clear 29 1016 51 10000 0.5 90 11:40 31.08.2019
2737 Clear 29 1016 54 10000 1.5 310 11:22 31.08.2019
2738 Clear 28 1016 54 10000 1.5 310 10:54 31.08.2019
2739 Clear 27 1016 57 10000 2.6 320 10:36 31.08.2019
2740 Clear 27 1016 57 10000 2.6 320 10:18 31.08.2019
2741 Clear 25 1016 69 10000 4.1 330 09:39 31.08.2019
2742 Clear 24 1016 69 10000 4.1 330 09:21 31.08.2019
2743 Clear 23 1016 69 10000 4.1 320 08:45 31.08.2019
2744 Clear 23 1015 69 10000 3.6 320 08:27 31.08.2019
2745 Clear 22 1015 69 10000 3.6 310 07:43 31.08.2019
2746 Clear 22 1015 69 10000 3.6 310 07:23 31.08.2019
2747 Clear 22 1015 64 10000 4.1 300 06:59 31.08.2019
2748 Clear 23 1015 69 10000 4.6 320 06:23 31.08.2019
2749 Clear 23 1015 64 10000 4.6 320 05:49 31.08.2019
2750 Clear 23 1015 69 10000 5.1 320 05:27 31.08.2019
2751 Clear 23 1015 69 10000 4.1 320 04:28 31.08.2019
2752 Clear 23 1016 65 10000 2.6 310 03:42 31.08.2019
2753 Clear 24 1016 57 10000 3.1 310 02:20 31.08.2019
2754 Clear 24 1016 57 10000 3.1 310 02:20 31.08.2019
2755 Clouds 24 1017 69 10000 4.1 320 01:42 31.08.2019
2756 Clouds 24 1017 61 10000 1.5 310 01:23 31.08.2019
2757 Clear 24 1017 69 10000 3.1 320 00:44 31.08.2019
2758 Clear 24 1017 69 10000 3.1 320 00:44 31.08.2019
2759 Clear 25 1017 69 10000 3.1 320 00:25 31.08.2019
2760 Clear 25 1018 78 10000 1.5 270 23:48 30.08.2019
2761 Clear 25 1018 78 10000 2.6 240 23:19 30.08.2019
2762 Clear 25 1018 78 10000 2.6 240 22:57 30.08.2019
2763 Clear 25 1018 78 10000 2.6 250 22:37 30.08.2019
2764 Clear 26 1018 78 10000 2.6 250 22:19 30.08.2019
2765 Clear 26 1018 78 10000 2.6 220 21:56 30.08.2019
2766 Clear 26 1018 74 10000 2.6 210 21:36 30.08.2019
2767 Clear 26 1018 74 10000 2.6 210 21:18 30.08.2019
2768 Clear 26 1018 74 10000 2.6 210 21:18 30.08.2019
2769 Clear 27 1018 74 10000 2.1 210 20:55 30.08.2019
2770 Clear 27 1018 74 10000 1.5 210 20:37 30.08.2019
2771 Clear 27 1018 74 10000 1 0 20:18 30.08.2019
2772 Clear 28 1017 69 10000 2.6 180 19:41 30.08.2019
2773 Clear 28 1017 69 10000 2.6 180 19:22 30.08.2019
2774 Clear 29 1018 65 10000 2.1 200 18:59 30.08.2019
2775 Clear 29 1018 62 10000 2.6 180 18:41 30.08.2019
2776 Clear 29 1018 62 10000 2.6 180 18:41 30.08.2019
2777 Clear 29 1018 62 10000 2.6 180 18:41 30.08.2019
2778 Clear 30 1018 62 10000 2.1 190 18:22 30.08.2019
2779 Clear 29 1018 62 10000 2.6 180 17:56 30.08.2019
2780 Clear 30 1018 62 10000 2.6 180 17:38 30.08.2019
2781 Clear 30 1018 62 10000 2.6 180 17:18 30.08.2019
2782 Clear 30 1018 58 10000 3.1 170 16:46 30.08.2019
2783 Clear 30 1019 58 10000 2.6 170 16:27 30.08.2019
2784 Clear 31 1019 58 10000 3.6 180 15:57 30.08.2019
2785 Clear 31 1019 54 10000 3.1 180 15:38 30.08.2019
2786 Clear 31 1019 54 10000 3.1 180 15:38 30.08.2019
2787 Clear 31 1019 51 10000 3.1 180 15:19 30.08.2019
2788 Clear 31 1019 48 10000 2.6 170 14:42 30.08.2019
2789 Clear 31 1019 48 10000 2.6 170 14:42 30.08.2019
2790 Clear 31 1019 48 10000 2.6 170 14:24 30.08.2019
2791 Clear 31 1020 51 10000 2.6 180 13:56 30.08.2019
2792 Clear 31 1020 51 10000 2.6 180 13:56 30.08.2019
2793 Clear 31 1020 51 10000 2.6 180 13:56 30.08.2019
2794 Clear 31 1020 51 10000 2.6 160 13:36 30.08.2019
2795 Clear 31 1020 51 10000 2.6 160 13:18 30.08.2019
2796 Clear 31 1020 54 10000 2.6 140 12:42 30.08.2019
2797 Clear 30 1020 54 10000 2.6 140 12:22 30.08.2019
2798 Clear 29 1020 48 10000 1.15 339.35 11:43 30.08.2019
2799 Clear 29 1020 48 10000 1.15 339.35 11:25 30.08.2019
2800 Clear 29 1020 51 10000 2.1 0 10:59 30.08.2019
2801 Clear 28 1020 51 10000 3.6 310 10:37 30.08.2019
2802 Clear 27 1019 61 10000 3.6 320 10:18 30.08.2019
2803 Clear 26 1019 61 10000 4.6 320 09:42 30.08.2019
2804 Clear 24 1019 61 10000 4.6 320 09:20 30.08.2019
2805 Clear 23 1019 64 10000 5.1 330 08:58 30.08.2019
2806 Clear 23 1019 69 10000 5.1 320 08:39 30.08.2019
2807 Clear 22 1019 69 10000 5.1 320 08:21 30.08.2019
2808 Clear 23 1019 69 10000 5.1 320 07:43 30.08.2019
2809 Clear 22 1019 69 10000 5.1 320 07:23 30.08.2019
2810 Clear 22 1019 69 10000 5.1 330 06:47 30.08.2019
2811 Clear 22 1019 69 10000 4.6 320 06:29 30.08.2019
2812 Clouds 22 1018 64 10000 4.1 320 05:54 30.08.2019
2813 Clouds 23 1018 69 10000 4.6 320 04:27 30.08.2019
2814 Clouds 23 1019 64 10000 3.1 320 03:46 30.08.2019
2815 Clouds 23 1019 73 10000 2.6 300 03:27 30.08.2019
2816 Clouds 23 1019 73 10000 3.6 320 02:32 30.08.2019
2817 Clouds 23 1019 69 10000 1.5 250 01:38 30.08.2019
2818 Clouds 24 1019 73 10000 1.5 270 00:46 30.08.2019
2819 Clouds 24 1019 73 10000 2.6 250 00:18 30.08.2019
2820 Clouds 24 1019 69 10000 2.1 290 23:41 29.08.2019
2821 Clouds 24 1019 69 10000 2.1 270 23:21 29.08.2019
2822 Clouds 25 1019 74 10000 2.6 250 22:44 29.08.2019
2823 Clouds 25 1019 74 10000 2.6 250 22:26 29.08.2019
2824 Clouds 25 1019 78 10000 3.6 250 21:58 29.08.2019
2825 Clouds 25 1019 78 10000 3.6 230 21:39 29.08.2019
2826 Clouds 26 1019 78 10000 3.6 230 21:21 29.08.2019
2827 Clouds 26 1019 74 10000 4.1 230 20:57 29.08.2019
2828 Clouds 26 1019 69 10000 3.1 230 20:38 29.08.2019
2829 Clouds 27 1018 69 10000 3.6 220 20:18 29.08.2019
2830 Clouds 27 1018 61 10000 4.1 210 19:46 29.08.2019
2831 Clouds 28 1018 65 10000 3.6 210 19:26 29.08.2019
2832 Clouds 28 1018 65 10000 3.6 210 18:57 29.08.2019
2833 Clouds 29 1018 65 10000 4.6 210 18:39 29.08.2019
2834 Clouds 29 1018 61 10000 5.1 200 18:18 29.08.2019
2835 Clouds 29 1018 58 10000 5.7 210 17:54 29.08.2019
2836 Clouds 29 1018 58 10000 5.7 210 17:36 29.08.2019
2837 Clouds 30 1018 58 10000 5.7 210 17:18 29.08.2019
2838 Clouds 30 1018 58 10000 5.1 210 16:41 29.08.2019
2839 Clouds 30 1019 58 10000 5.7 210 16:23 29.08.2019
2840 Clouds 30 1019 62 10000 5.1 210 15:41 29.08.2019
2841 Clouds 31 1019 62 10000 5.1 210 15:22 29.08.2019
2842 Clouds 30 1019 58 10000 4.6 200 14:59 29.08.2019
2843 Clouds 31 1019 58 10000 4.1 190 14:41 29.08.2019
2844 Clouds 31 1019 58 10000 4.1 190 14:20 29.08.2019
2845 Clear 30 1019 54 10000 4.1 150 13:57 29.08.2019
2846 Clear 30 1019 51 10000 3.1 160 13:39 29.08.2019
2847 Clear 30 1019 48 10000 3.1 140 13:19 29.08.2019
2848 Clear 30 1019 54 10000 2.1 100 12:56 29.08.2019
2849 Clear 30 1019 54 10000 2.1 100 12:38 29.08.2019
2850 Clear 29 1019 51 10000 2.1 130 12:20 29.08.2019
2851 Clear 28 1019 51 10000 1 20 11:43 29.08.2019
2852 Clear 28 1019 51 10000 1 20 11:21 29.08.2019
2853 Clear 27 1019 57 10000 2.6 340 10:59 29.08.2019
2854 Clear 27 1019 61 10000 2.6 320 10:40 29.08.2019
2855 Clear 26 1019 61 10000 2.6 320 10:22 29.08.2019
2856 Clear 25 1018 69 10000 4.1 330 09:41 29.08.2019
2857 Clear 23 1018 69 10000 4.1 330 09:20 29.08.2019
2858 Clouds 22 1018 69 10000 5.1 330 08:56 29.08.2019
2859 Clouds 21 1018 78 10000 4.6 320 08:36 29.08.2019
2860 Clouds 21 1018 78 10000 4.1 320 08:18 29.08.2019
2861 Clouds 21 1018 78 10000 3.1 310 07:41 29.08.2019
2862 Clouds 21 1018 78 10000 3.1 310 07:23 29.08.2019
2863 Clouds 21 1018 73 10000 3.1 300 06:42 29.08.2019
2864 Clouds 21 1018 73 10000 3.1 300 06:18 29.08.2019
2865 Clouds 21 1018 73 10000 2.6 320 05:38 29.08.2019
2866 Clouds 22 1018 78 10000 3.1 310 04:50 29.08.2019
2867 Clouds 22 1018 78 10000 2.1 330 04:28 29.08.2019
2868 Clouds 22 1018 73 10000 2.1 330 02:44 29.08.2019
2869 Clouds 23 1018 73 10000 2.1 330 01:42 29.08.2019
2870 Clouds 23 1018 73 10000 2.1 340 00:58 29.08.2019
2871 Clouds 23 1018 73 10000 2.1 300 00:40 29.08.2019
2872 Clouds 23 1018 69 10000 2.6 290 00:20 29.08.2019
2873 Clear 23 1018 73 10000 1.55 216.248 23:41 28.08.2019
2874 Clear 23 1018 69 10000 1.55 216.248 23:23 28.08.2019
2875 Clear 24 1018 69 10000 1.55 216.248 22:58 28.08.2019
2876 Clear 24 1017 69 10000 1.55 216.248 22:38 28.08.2019
2877 Clear 24 1017 69 10000 1.55 216.248 22:18 28.08.2019
2878 Clear 24 1017 69 10000 1.55 216.248 22:18 28.08.2019
2879 Clear 24 1017 69 10000 1.52 204.912 21:57 28.08.2019
2880 Clear 24 1017 69 10000 1.52 204.912 21:57 28.08.2019
2881 Clear 24 1017 69 10000 1.52 204.912 21:38 28.08.2019
2882 Clear 25 1017 69 10000 3.32 159.958 21:20 28.08.2019
2883 Clear 25 1016 69 10000 2.1 150 20:41 28.08.2019
2884 Clear 26 1016 65 10000 2.6 180 20:22 28.08.2019
2885 Clear 27 1016 61 10000 3.1 180 19:55 28.08.2019
2886 Clear 27 1016 61 10000 3.1 180 19:37 28.08.2019
2887 Clear 27 1016 61 10000 4.1 190 19:18 28.08.2019
2888 Clouds 27 1015 61 10000 4.1 200 18:42 28.08.2019
2889 Clouds 28 1015 61 10000 4.1 200 18:21 28.08.2019
2890 Clouds 28 1015 61 10000 4.1 210 17:55 28.08.2019
2891 Clouds 28 1016 58 10000 4.1 200 17:37 28.08.2019
2892 Clouds 28 1016 58 10000 4.1 200 17:37 28.08.2019
2893 Clouds 28 1016 58 10000 4.1 200 17:19 28.08.2019
2894 Clouds 28 1016 65 10000 4.1 180 16:42 28.08.2019
2895 Clouds 29 1016 61 10000 3.6 190 16:18 28.08.2019
2896 Clouds 29 1016 61 10000 3.6 190 15:57 28.08.2019
2897 Clouds 29 1016 65 10000 3.1 170 15:36 28.08.2019
2898 Clouds 29 1016 65 10000 3.1 170 15:18 28.08.2019
2899 Clouds 28 1017 58 10000 3.1 150 14:55 28.08.2019
2900 Clouds 29 1017 58 10000 3.1 140 14:37 28.08.2019
2901 Clouds 29 1017 57 10000 2.6 130 14:18 28.08.2019
2902 Clouds 29 1017 57 10000 2.6 130 13:56 28.08.2019
2903 Clouds 28 1017 54 10000 3.6 130 13:36 28.08.2019
2904 Clouds 28 1017 58 10000 4.1 140 13:18 28.08.2019
2905 Clouds 28 1017 54 10000 3.1 120 12:40 28.08.2019
2906 Clouds 27 1017 54 10000 3.1 120 12:21 28.08.2019
2907 Clouds 27 1017 57 10000 2.6 310 11:41 28.08.2019
2908 Clouds 26 1017 57 10000 2.6 310 11:22 28.08.2019
2909 Clear 26 1016 65 10000 3.6 310 10:58 28.08.2019
2910 Clear 25 1016 69 10000 4.6 330 10:40 28.08.2019
2911 Clear 25 1016 69 10000 4.6 330 10:20 28.08.2019
2912 Clear 23 1016 78 10000 3.6 330 09:42 28.08.2019
2913 Clear 22 1016 78 10000 3.6 330 09:22 28.08.2019
2914 Clouds 22 1016 83 10000 4.1 330 08:59 28.08.2019
2915 Clouds 21 1016 88 10000 3.1 320 08:38 28.08.2019
2916 Clear 20 1016 88 10000 3.1 330 08:19 28.08.2019
2917 Clear 20 1016 83 10000 3.1 330 07:39 28.08.2019
2918 Clear 20 1016 83 10000 3.1 330 07:20 28.08.2019
2919 Clear 20 1016 83 10000 4.6 330 06:50 28.08.2019
2920 Clear 21 1015 83 10000 4.1 330 06:31 28.08.2019
2921 Clouds 21 1016 88 10000 2.6 340 05:29 28.08.2019
2922 Clouds 22 1017 83 10000 3.1 320 02:24 28.08.2019
2923 Clouds 21 1016 83 10000 2.1 330 01:31 28.08.2019
2924 Clouds 22 1016 83 10000 2.6 320 00:54 28.08.2019
2925 Clouds 22 1016 83 10000 3.1 310 00:34 28.08.2019
2926 Clouds 22 1016 83 10000 2.6 330 23:58 27.08.2019
2927 Clouds 22 1016 78 10000 1 0 23:38 27.08.2019
2928 Clouds 22 1016 78 10000 1.78 158.898 23:20 27.08.2019
2929 Clouds 22 1016 73 10000 0.5 60 22:42 27.08.2019
2930 Clouds 23 1016 73 10000 0.5 60 22:23 27.08.2019
2931 Clouds 23 1016 78 10000 2.1 350 21:57 27.08.2019
2932 Clouds 23 1015 78 10000 3.1 330 21:39 27.08.2019
2933 Clouds 23 1015 78 10000 3.1 330 21:20 27.08.2019
2934 Clouds 23 1015 78 10000 3.1 330 20:59 27.08.2019
2935 Rain 23 1015 73 10000 2.6 330 20:40 27.08.2019
2936 Rain 23 1015 73 10000 2.6 330 20:19 27.08.2019
2937 Clouds 24 1015 73 10000 2.6 310 19:46 27.08.2019
2938 Clouds 24 1015 73 10000 2.6 310 19:28 27.08.2019
2939 Clouds 24 1014 73 10000 4.1 330 18:59 27.08.2019
2940 Clouds 24 1015 73 10000 2.6 320 18:41 27.08.2019
2941 Clouds 24 1015 73 10000 2.6 320 18:18 27.08.2019
2942 Clouds 24 1015 73 10000 3.1 300 17:56 27.08.2019
2943 Clouds 24 1015 69 10000 2.1 10 17:37 27.08.2019
2944 Clouds 23 1015 78 10000 3.1 40 17:18 27.08.2019
2945 Clouds 23 1016 65 10000 4.1 100 16:43 27.08.2019
2946 Clouds 22 1016 65 10000 4.1 100 16:24 27.08.2019
2947 Clouds 22 1017 94 10000 2.6 330 15:57 27.08.2019
2948 Rain 22 1018 94 2000 1.5 50 15:38 27.08.2019
2949 Rain 22 1018 88 10000 2.1 50 15:19 27.08.2019
2950 Rain 23 1018 88 10000 3.6 10 14:43 27.08.2019
2951 Rain 23 1018 88 10000 3.6 10 14:24 27.08.2019
2952 Rain 24 1017 83 10000 3.6 40 13:57 27.08.2019
2953 Rain 23 1017 83 10000 5.1 50 13:38 27.08.2019
2954 Rain 24 1017 88 10000 3.6 120 13:20 27.08.2019
2955 Thunderstorm 25 1017 83 10000 2.6 120 12:41 27.08.2019
2956 Thunderstorm 25 1017 83 10000 2.6 120 12:20 27.08.2019
2957 Clouds 25 1017 78 10000 3.1 110 11:56 27.08.2019
2958 Rain 24 1016 69 10000 4.6 50 11:37 27.08.2019
2959 Rain 24 1016 69 10000 4.6 50 11:18 27.08.2019
2960 Rain 24 1015 69 10000 3.1 120 10:40 27.08.2019
2961 Rain 24 1015 61 10000 2.6 110 10:19 27.08.2019
2962 Clouds 23 1015 61 10000 2.6 110 09:55 27.08.2019
2963 Clouds 23 1016 69 10000 1.5 80 09:36 27.08.2019
2964 Clouds 23 1015 69 10000 2.6 330 09:18 27.08.2019
2965 Rain 23 1015 69 10000 3.6 320 08:42 27.08.2019
2966 Rain 22 1015 69 10000 3.6 320 08:23 27.08.2019
2967 Drizzle 23 1015 73 10000 3.1 20 07:42 27.08.2019
2968 Drizzle 22 1015 73 10000 3.1 20 07:20 27.08.2019
2969 Clouds 23 1015 73 10000 3.6 20 06:58 27.08.2019
2970 Clouds 22 1015 78 10000 2.6 340 06:37 27.08.2019
2971 Clouds 22 1015 78 10000 3.1 340 06:18 27.08.2019
2972 Clouds 22 1015 78 10000 2.1 330 05:24 27.08.2019
2973 Clouds 23 1016 78 10000 1 110 03:43 27.08.2019
2974 Clouds 23 1016 83 10000 2.6 330 02:28 27.08.2019
2975 Clouds 23 1016 83 10000 2.6 330 01:45 27.08.2019
2976 Clouds 23 1016 83 10000 2.1 320 01:24 27.08.2019
2977 Clouds 23 1016 83 10000 2.6 310 00:48 27.08.2019
2978 Clouds 23 1016 78 10000 1.98 131.314 00:26 27.08.2019
2979 Clouds 23 1016 83 10000 1 0 23:40 26.08.2019
2980 Clouds 24 1016 78 10000 1.98 131.314 23:21 26.08.2019
2981 Clouds 24 1016 78 10000 1.98 131.314 22:57 26.08.2019
2982 Clouds 24 1016 78 10000 1.98 131.314 22:36 26.08.2019
2983 Clouds 24 1016 78 10000 1.98 131.314 22:18 26.08.2019
2984 Clouds 25 1015 74 10000 1.5 150 21:39 26.08.2019
2985 Clouds 25 1015 78 10000 2.1 150 21:20 26.08.2019
2986 Clouds 25 1015 78 10000 2.6 160 20:57 26.08.2019
2987 Clouds 26 1015 78 10000 2.6 160 20:39 26.08.2019
2988 Clouds 26 1015 74 10000 3.1 140 20:19 26.08.2019
2989 Clouds 27 1015 83 10000 3.6 150 19:54 26.08.2019
2990 Clouds 27 1015 83 10000 3.6 150 19:36 26.08.2019
2991 Clear 27 1015 74 10000 3.6 140 19:18 26.08.2019
2992 Clear 28 1015 69 10000 2.1 140 18:39 26.08.2019
2993 Clear 28 1016 69 10000 2.6 170 18:20 26.08.2019
2994 Clear 28 1016 65 10000 3.1 200 17:56 26.08.2019
2995 Clear 29 1016 65 10000 3.1 200 17:37 26.08.2019
2996 Clear 29 1017 58 10000 3.6 200 17:18 26.08.2019
2997 Clear 29 1017 65 10000 4.1 210 16:55 26.08.2019
2998 Clear 29 1017 65 10000 4.1 210 16:37 26.08.2019
2999 Clear 29 1017 65 10000 4.1 200 16:18 26.08.2019
3000 Clear 29 1017 58 10000 3.6 190 15:41 26.08.2019
3001 Clear 29 1017 58 10000 4.1 170 15:21 26.08.2019
3002 Clear 30 1017 58 10000 4.6 160 14:46 26.08.2019
3003 Clear 30 1017 54 10000 3.6 150 14:23 26.08.2019
3004 Clear 30 1017 54 10000 3.1 170 13:59 26.08.2019
3005 Clear 30 1017 54 10000 3.1 170 13:59 26.08.2019
3006 Clear 30 1017 54 10000 3.1 170 13:39 26.08.2019
3007 Clear 30 1017 31 10000 1 130 13:20 26.08.2019
3008 Clear 30 1017 61 10000 2.6 160 12:43 26.08.2019
3009 Clear 29 1017 61 10000 2.6 160 12:25 26.08.2019
3010 Clear 29 1017 57 10000 0.5 290 11:56 26.08.2019
3011 Clear 28 1017 57 10000 0.5 290 11:36 26.08.2019
3012 Clear 27 1017 57 10000 2.6 330 11:18 26.08.2019
3013 Clear 26 1017 57 10000 3.1 330 10:44 26.08.2019
3014 Clear 25 1017 57 10000 4.1 330 10:22 26.08.2019
3015 Clear 25 1017 57 10000 4.1 330 10:22 26.08.2019
3016 Clear 25 1017 64 10000 4.6 340 09:57 26.08.2019
3017 Clear 25 1017 64 10000 4.6 340 09:39 26.08.2019
3018 Clear 23 1017 68 10000 4.1 340 09:19 26.08.2019
3019 Clear 21 1017 68 10000 4.1 330 08:42 26.08.2019
3020 Clear 21 1017 68 10000 4.1 330 08:24 26.08.2019
3021 Clear 20 1016 68 10000 3.1 330 07:59 26.08.2019
3022 Clear 20 1016 73 10000 4.1 320 07:41 26.08.2019
3023 Clear 20 1016 73 10000 4.1 320 07:22 26.08.2019
3024 Clear 20 1016 68 10000 3.6 320 06:45 26.08.2019
3025 Clear 20 1016 73 10000 3.6 320 06:24 26.08.2019
3026 Clear 20 1016 68 10000 3.1 310 05:49 26.08.2019
3027 Clear 21 1017 68 10000 2.1 310 04:28 26.08.2019
3028 Clear 22 1017 68 10000 1.5 310 02:55 26.08.2019
3029 Clear 22 1017 69 10000 2.1 300 01:39 26.08.2019
3030 Clear 23 1017 69 10000 2.1 300 01:18 26.08.2019
3031 Clear 23 1017 69 10000 1.5 250 00:38 26.08.2019
3032 Clear 23 1017 78 10000 1.5 210 00:19 26.08.2019
3033 Clear 24 1017 78 10000 2.1 200 23:42 25.08.2019
3034 Clear 24 1017 78 10000 2.6 220 23:19 25.08.2019
3035 Clear 24 1017 78 10000 2.6 240 22:56 25.08.2019
3036 Clear 24 1017 78 10000 2.6 240 22:38 25.08.2019
3037 Clear 25 1017 78 10000 2.1 220 22:19 25.08.2019
3038 Clear 25 1017 78 10000 2.6 230 21:56 25.08.2019
3039 Clear 25 1017 78 10000 2.6 230 21:37 25.08.2019
3040 Clear 26 1016 74 10000 3.1 220 21:18 25.08.2019
3041 Clear 27 1016 74 10000 3.1 210 20:40 25.08.2019
3042 Clear 27 1016 69 10000 3.1 210 20:20 25.08.2019
3043 Clear 27 1016 74 10000 3.1 190 19:56 25.08.2019
3044 Clear 27 1016 74 10000 3.1 190 19:38 25.08.2019
3045 Clear 28 1016 74 10000 3.1 190 19:18 25.08.2019
3046 Clear 28 1017 65 10000 4.1 190 18:57 25.08.2019
3047 Clear 28 1016 74 10000 3.1 190 18:57 25.08.2019
3048 Clear 29 1017 43 10000 3.6 150 18:39 25.08.2019
3049 Clear 29 1017 65 10000 4.1 200 18:20 25.08.2019
3050 Clear 30 1017 69 10000 4.1 220 17:43 25.08.2019
3051 Clouds 30 1017 69 10000 5.1 200 17:25 25.08.2019
3052 Clouds 30 1017 69 10000 5.1 200 16:54 25.08.2019
3053 Clouds 30 1017 69 10000 5.1 200 16:36 25.08.2019
3054 Clouds 30 1017 69 10000 4.6 200 16:18 25.08.2019
3055 Clouds 30 1017 69 10000 5.7 200 15:42 25.08.2019
3056 Clouds 30 1017 69 10000 6.7 200 15:23 25.08.2019
3057 Clouds 31 1017 69 10000 6.7 200 14:43 25.08.2019
3058 Clear 30 1017 69 10000 6.2 190 14:24 25.08.2019
3059 Clear 30 1017 74 10000 6.2 210 13:56 25.08.2019
3060 Clear 30 1017 29 10000 2.1 170 13:37 25.08.2019
3061 Clear 30 1017 61 10000 5.1 210 13:18 25.08.2019
3062 Clear 30 1018 69 10000 5.1 200 12:42 25.08.2019
3063 Clear 29 1018 35 10000 2.6 0 12:24 25.08.2019
3064 Clear 29 1018 65 10000 4.6 210 11:58 25.08.2019
3065 Clear 29 1018 69 10000 3.6 210 11:38 25.08.2019
3066 Clear 28 1018 74 10000 1.5 260 11:20 25.08.2019
3067 Clear 28 1018 65 10000 2.1 280 10:57 25.08.2019
3068 Clear 27 1018 65 10000 2.1 280 10:38 25.08.2019
3069 Clear 26 1018 65 10000 2.6 320 10:19 25.08.2019
3070 Clear 26 1017 64 10000 3.1 320 09:44 25.08.2019
3071 Clear 24 1017 69 10000 3.1 320 09:24 25.08.2019
3072 Clear 23 1017 73 10000 2.6 320 08:48 25.08.2019
3073 Clear 22 1017 73 10000 2.6 320 08:29 25.08.2019
3074 Clear 21 1017 78 10000 2.6 320 07:55 25.08.2019
3075 Clear 21 1017 78 10000 2.6 320 07:33 25.08.2019
3076 Clear 21 1017 73 10000 2.6 320 06:40 25.08.2019
3077 Clear 22 1017 73 10000 3.1 320 05:35 25.08.2019
3078 Clear 23 1017 78 10000 1.5 320 03:51 25.08.2019
3079 Clear 23 1018 73 10000 1.5 290 02:55 25.08.2019
3080 Clear 23 1018 78 10000 1.5 250 02:36 25.08.2019
3081 Clear 24 1018 73 10000 1.5 210 00:58 25.08.2019
3082 Clear 24 1018 73 10000 1.5 210 00:37 25.08.2019
3083 Clear 24 1018 78 10000 1.5 190 00:18 25.08.2019
3084 Clear 24 1018 83 10000 1.5 200 23:45 24.08.2019
3085 Clear 24 1018 78 10000 1.53 197.772 23:22 24.08.2019
3086 Clear 25 1018 74 10000 0.5 0 22:54 24.08.2019
3087 Clear 25 1018 74 10000 0.5 0 22:36 24.08.2019
3088 Clear 25 1018 74 10000 1.53 197.772 22:18 24.08.2019
3089 Clear 25 1018 74 10000 1.53 197.772 21:42 24.08.2019
3090 Clear 26 1017 74 10000 2.1 200 21:24 24.08.2019
3091 Clear 26 1017 74 10000 2.1 200 20:59 24.08.2019
3092 Clear 26 1017 74 10000 2.1 200 20:41 24.08.2019
3093 Clear 27 1017 65 10000 3.1 190 20:20 24.08.2019
3094 Clear 27 1017 65 10000 3.1 190 19:59 24.08.2019
3095 Clear 27 1017 65 10000 2.6 190 19:40 24.08.2019
3096 Clear 28 1018 61 10000 3.6 200 19:22 24.08.2019
3097 Clear 28 1018 61 10000 3.6 180 18:57 24.08.2019
3098 Clear 28 1018 61 10000 3.6 180 18:37 24.08.2019
3099 Clear 29 1018 65 10000 4.1 180 18:19 24.08.2019
3100 Clear 29 1018 65 10000 4.1 190 17:43 24.08.2019
3101 Clear 29 1018 65 10000 4.1 190 17:24 24.08.2019
3102 Clear 29 1018 65 10000 4.1 180 16:44 24.08.2019
3103 Clear 30 1018 58 10000 4.6 190 16:20 24.08.2019
3104 Clear 30 1018 61 10000 4.6 190 15:57 24.08.2019
3105 Clear 30 1018 61 10000 4.6 190 15:38 24.08.2019
3106 Clouds 30 1018 58 10000 4.1 190 15:20 24.08.2019
3107 Clouds 30 1018 58 10000 3.6 170 14:42 24.08.2019
3108 Clouds 30 1019 54 10000 3.6 170 14:21 24.08.2019
3109 Clouds 30 1019 61 10000 3.6 180 13:56 24.08.2019
3110 Clouds 30 1019 61 10000 3.6 180 13:37 24.08.2019
3111 Clear 30 1019 57 10000 3.1 150 13:18 24.08.2019
3112 Clear 29 1019 61 10000 2.1 150 12:42 24.08.2019
3113 Clear 28 1019 58 10000 2.6 120 12:24 24.08.2019
3114 Clear 28 1019 58 10000 2.6 120 11:57 24.08.2019
3115 Clear 28 1019 48 10000 1.61 162.071 11:38 24.08.2019
3116 Clear 27 1019 57 10000 1.61 162.071 11:19 24.08.2019
3117 Clear 26 1019 61 10000 2.1 340 10:44 24.08.2019
3118 Clear 25 1019 60 10000 3.6 320 10:23 24.08.2019
3119 Clear 24 1019 64 10000 3.6 330 09:44 24.08.2019
3120 Clouds 23 1019 68 10000 4.1 330 09:20 24.08.2019
3121 Clouds 22 1019 68 10000 4.1 330 08:58 24.08.2019
3122 Clouds 22 1019 68 10000 4.6 330 08:39 24.08.2019
3123 Clouds 21 1018 73 10000 4.1 330 08:21 24.08.2019
3124 Clouds 20 1018 73 10000 3.6 330 07:47 24.08.2019
3125 Clouds 20 1018 73 10000 3.6 330 07:26 24.08.2019
3126 Clouds 21 1018 68 10000 3.6 330 06:28 24.08.2019
3127 Clouds 21 1018 68 10000 3.1 320 05:41 24.08.2019
3128 Clouds 21 1019 68 10000 2.6 320 04:36 24.08.2019
3129 Clouds 22 1019 73 10000 1.5 310 03:36 24.08.2019
3130 Clouds 22 1019 78 10000 2.6 310 02:25 24.08.2019
3131 Clouds 23 1019 69 10000 2.1 310 01:31 24.08.2019
3132 Clouds 23 1019 69 10000 1.5 310 00:53 24.08.2019
3133 Clouds 23 1019 73 10000 1.5 300 00:26 24.08.2019
3134 Clouds 23 1019 73 10000 1.5 300 23:58 23.08.2019
3135 Clouds 23 1019 73 10000 0.72 186.878 23:37 23.08.2019
3136 Clouds 24 1019 69 10000 0.5 100 23:18 23.08.2019
3137 Clouds 24 1019 65 10000 1.5 110 22:42 23.08.2019
3138 Clouds 24 1019 69 10000 1.5 60 22:23 23.08.2019
3139 Clear 25 1018 69 10000 1 0 21:40 23.08.2019
3140 Clear 25 1018 69 10000 0.5 0 21:21 23.08.2019
3141 Clear 25 1018 69 10000 1.5 110 20:57 23.08.2019
3142 Clear 25 1018 69 10000 1.5 110 20:38 23.08.2019
3143 Clear 26 1018 65 10000 2.1 120 20:19 23.08.2019
3144 Clear 26 1018 65 10000 2.6 130 19:44 23.08.2019
3145 Clear 27 1019 65 10000 2.6 150 19:19 23.08.2019
3146 Clear 27 1019 65 10000 2.6 150 19:19 23.08.2019
3147 Clear 27 1019 65 10000 2.6 150 18:48 23.08.2019
3148 Clear 27 1019 65 10000 3.1 140 18:30 23.08.2019
3149 Clear 28 1019 65 10000 3.1 140 17:58 23.08.2019
3150 Clear 28 1019 65 10000 3.6 150 17:39 23.08.2019
3151 Clear 28 1019 61 10000 3.6 130 17:20 23.08.2019
3152 Clear 28 1019 61 10000 3.6 140 16:48 23.08.2019
3153 Clear 29 1019 57 10000 3.1 130 16:29 23.08.2019
3154 Clear 29 1019 57 10000 3.1 130 15:57 23.08.2019
3155 Clear 28 1020 65 10000 3.6 130 15:37 23.08.2019
3156 Clear 28 1020 65 10000 3.6 130 15:19 23.08.2019
3157 Clear 28 1020 57 10000 4.1 120 14:42 23.08.2019
3158 Clear 28 1020 51 10000 3.6 110 14:21 23.08.2019
3159 Clear 29 1020 51 10000 3.1 110 13:58 23.08.2019
3160 Clear 29 1020 51 10000 3.1 110 13:40 23.08.2019
3161 Clear 28 1020 45 10000 3.6 110 13:22 23.08.2019
3162 Clear 28 1020 47 10000 3.6 100 12:58 23.08.2019
3163 Clear 28 1020 47 10000 3.6 100 12:40 23.08.2019
3164 Clear 28 1020 42 10000 3.6 100 12:21 23.08.2019
3165 Clear 28 1020 42 10000 3.6 100 11:56 23.08.2019
3166 Clear 27 1020 39 10000 3.6 80 11:38 23.08.2019
3167 Clear 27 1020 54 10000 2.6 310 11:18 23.08.2019
3168 Clear 27 1020 54 10000 2.6 310 11:18 23.08.2019
3169 Clear 26 1020 61 10000 2.6 320 10:44 23.08.2019
3170 Clear 26 1020 64 10000 3.6 320 10:23 23.08.2019
3171 Clear 25 1020 64 10000 3.6 320 09:58 23.08.2019
3172 Clear 24 1020 69 10000 4.1 330 09:39 23.08.2019
3173 Clouds 22 1020 73 10000 4.1 330 09:20 23.08.2019
3174 Clouds 22 1020 77 10000 4.6 330 08:44 23.08.2019
3175 Clouds 21 1020 77 10000 4.1 330 08:20 23.08.2019
3176 Clouds 20 1020 77 10000 4.1 330 07:44 23.08.2019
3177 Clouds 20 1019 77 10000 3.6 330 07:24 23.08.2019
3178 Clouds 20 1019 77 10000 3.6 330 06:59 23.08.2019
3179 Clouds 20 1019 78 10000 4.1 330 06:40 23.08.2019
3180 Clouds 20 1020 78 10000 3.1 320 06:21 23.08.2019
3181 Clouds 20 1019 78 10000 1.5 350 05:43 23.08.2019
3182 Clouds 20 1019 78 10000 1.5 350 05:23 23.08.2019
3183 Clouds 22 1020 78 10000 2.1 320 03:36 23.08.2019
3184 Clouds 22 1020 78 10000 2.6 320 02:37 23.08.2019
3185 Clouds 22 1020 73 10000 2.6 320 02:18 23.08.2019
3186 Clouds 23 1020 78 10000 2.1 300 00:46 23.08.2019
3187 Clouds 23 1020 78 10000 2.1 280 00:23 23.08.2019
3188 Clouds 23 1020 73 10000 2.6 280 23:53 22.08.2019
3189 Clouds 23 1020 73 10000 2.6 280 23:33 22.08.2019
3190 Clouds 24 1020 69 10000 2.6 220 22:59 22.08.2019
3191 Clouds 24 1020 69 10000 2.6 220 22:41 22.08.2019
3192 Clouds 25 1020 65 10000 2.6 200 22:22 22.08.2019
3193 Clouds 25 1020 65 10000 2.6 200 21:57 22.08.2019
3194 Clouds 25 1020 65 10000 2.1 200 21:39 22.08.2019
3195 Clouds 25 1019 65 10000 3.1 200 21:20 22.08.2019
3196 Clouds 25 1019 65 10000 3.1 200 20:57 22.08.2019
3197 Clouds 26 1019 65 10000 3.1 200 20:39 22.08.2019
3198 Clouds 26 1019 61 10000 3.6 200 20:19 22.08.2019
3199 Clouds 26 1019 61 10000 3.6 200 19:56 22.08.2019
3200 Clouds 26 1019 61 10000 3.6 200 19:55 22.08.2019
3201 Clouds 27 1019 61 10000 3.6 200 19:37 22.08.2019
3202 Clouds 27 1019 58 10000 4.1 190 19:19 22.08.2019
3203 Clouds 28 1019 58 10000 4.1 190 18:56 22.08.2019
3204 Clouds 28 1019 58 10000 4.1 190 18:37 22.08.2019
3205 Clouds 28 1019 58 10000 4.1 170 18:18 22.08.2019
3206 Clouds 28 1019 54 10000 4.6 180 17:42 22.08.2019
3207 Clouds 28 1019 54 10000 4.6 180 17:21 22.08.2019
3208 Clouds 28 1019 54 10000 4.6 180 17:21 22.08.2019
3209 Clouds 28 1019 58 10000 5.7 210 16:58 22.08.2019
3210 Clouds 29 1019 58 10000 5.7 210 16:39 22.08.2019
3211 Clouds 29 1019 65 10000 6.2 210 16:20 22.08.2019
3212 Clouds 29 1019 58 10000 5.7 200 15:58 22.08.2019
3213 Clouds 29 1019 58 10000 5.7 200 15:38 22.08.2019
3214 Clouds 29 1019 58 10000 5.7 200 15:38 22.08.2019
3215 Clouds 29 1019 58 10000 5.7 200 15:20 22.08.2019
3216 Clouds 29 1019 58 10000 5.7 200 15:20 22.08.2019
3217 Clouds 29 1019 61 10000 6.7 200 14:56 22.08.2019
3218 Clouds 29 1019 61 10000 6.7 200 14:38 22.08.2019
3219 Clouds 28 1020 61 10000 6.2 200 14:18 22.08.2019
3220 Clouds 29 1020 61 10000 6.2 210 13:42 22.08.2019
3221 Clouds 28 1020 57 10000 6.2 210 13:24 22.08.2019
3222 Clouds 28 1020 57 10000 6.2 210 12:59 22.08.2019
3223 Clouds 28 1020 58 10000 6.2 210 12:39 22.08.2019
3224 Clouds 28 1020 61 10000 5.7 210 12:21 22.08.2019
3225 Clouds 27 1020 57 10000 4.6 190 11:55 22.08.2019
3226 Clouds 27 1020 57 10000 4.6 190 11:36 22.08.2019
3227 Clouds 27 1020 51 10000 2.6 220 11:18 22.08.2019
3228 Clouds 26 1020 69 10000 1.5 270 10:56 22.08.2019
3229 Clouds 26 1020 69 10000 1.5 270 10:36 22.08.2019
3230 Clouds 25 1020 73 10000 3.1 310 10:18 22.08.2019
3231 Clouds 24 1019 78 10000 3.1 330 09:39 22.08.2019
3232 Clouds 23 1019 78 10000 3.1 330 09:21 22.08.2019
3233 Clouds 23 1019 78 10000 3.1 330 08:58 22.08.2019
3234 Clouds 22 1019 78 10000 3.1 330 08:39 22.08.2019
3235 Clouds 22 1019 83 10000 3.1 330 08:20 22.08.2019
3236 Clouds 22 1019 83 10000 2.6 300 07:41 22.08.2019
3237 Clouds 21 1019 83 10000 1 320 07:23 22.08.2019
3238 Clouds 22 1019 83 10000 1 320 06:55 22.08.2019
3239 Clouds 22 1019 78 10000 1.32 330.287 06:25 22.08.2019
3240 Clouds 22 1018 78 10000 1.32 330.287 05:59 22.08.2019
3241 Clouds 23 1019 78 10000 2.6 330 04:39 22.08.2019
3242 Clouds 23 1018 73 10000 3.1 300 02:52 22.08.2019
3243 Clouds 23 1018 73 10000 3.1 300 02:34 22.08.2019
3244 Clouds 24 1019 73 10000 1.5 340 01:25 22.08.2019
3245 Clouds 23 1019 73 10000 2.6 270 00:45 22.08.2019
3246 Clouds 23 1019 73 10000 2.6 250 00:27 22.08.2019
3247 Clouds 24 1019 73 10000 2.6 250 23:58 21.08.2019
3248 Clouds 24 1019 73 10000 2.6 230 23:37 21.08.2019
3249 Clouds 24 1019 73 10000 3.1 220 23:19 21.08.2019
3250 Clouds 24 1019 73 10000 3.1 220 22:55 21.08.2019
3251 Clouds 24 1019 78 10000 2.6 210 22:37 21.08.2019
3252 Clouds 24 1019 73 10000 2.1 200 22:19 21.08.2019
3253 Clouds 24 1019 73 10000 1.5 180 21:55 21.08.2019
3254 Clouds 24 1019 73 10000 1.5 180 21:36 21.08.2019
3255 Clouds 24 1019 73 10000 3.1 210 21:18 21.08.2019
3256 Clouds 24 1018 73 10000 3.1 210 20:43 21.08.2019
3257 Clouds 25 1018 73 10000 3.1 210 20:24 21.08.2019
3258 Clouds 25 1018 69 10000 3.6 200 19:57 21.08.2019
3259 Clouds 25 1018 69 10000 3.6 200 19:39 21.08.2019
3260 Clouds 25 1018 69 10000 4.1 190 19:20 21.08.2019
3261 Clouds 26 1018 65 10000 5.7 200 18:55 21.08.2019
3262 Clouds 26 1018 65 10000 5.7 200 18:37 21.08.2019
3263 Clouds 26 1018 65 10000 4.6 200 18:19 21.08.2019
3264 Clouds 27 1018 65 10000 5.1 210 17:42 21.08.2019
3265 Clouds 27 1018 61 10000 6.2 210 17:20 21.08.2019
3266 Clouds 27 1018 61 10000 6.2 210 16:55 21.08.2019
3267 Clouds 28 1018 61 10000 6.2 210 16:36 21.08.2019
3268 Clouds 28 1018 57 10000 5.7 200 16:18 21.08.2019
3269 Clouds 28 1019 61 10000 5.7 210 15:56 21.08.2019
3270 Clouds 28 1019 61 10000 5.7 210 15:37 21.08.2019
3271 Clouds 28 1019 57 10000 5.1 210 15:18 21.08.2019
3272 Clouds 28 1019 57 10000 5.1 190 14:39 21.08.2019
3273 Clouds 28 1019 65 10000 6.2 190 14:21 21.08.2019
3274 Clouds 27 1019 65 10000 5.1 200 13:58 21.08.2019
3275 Clouds 27 1019 65 10000 5.1 200 13:40 21.08.2019
3276 Clouds 27 1020 61 10000 5.7 200 13:19 21.08.2019
3277 Clouds 27 1020 57 10000 2.6 190 12:57 21.08.2019
3278 Clouds 27 1020 57 10000 2.6 190 12:38 21.08.2019
3279 Clouds 26 1020 57 10000 1 250 12:19 21.08.2019
3280 Clouds 25 1020 57 10000 3.6 340 11:44 21.08.2019
3281 Clear 25 1020 60 10000 3.6 350 11:24 21.08.2019
3282 Clear 24 1020 60 10000 3.6 350 10:58 21.08.2019
3283 Clear 24 1020 60 10000 5.1 340 10:40 21.08.2019
3284 Clear 23 1020 64 10000 4.1 340 10:21 21.08.2019
3285 Clear 23 1020 64 10000 4.1 340 09:58 21.08.2019
3286 Clear 23 1020 68 10000 4.6 340 09:40 21.08.2019
3287 Clear 20 1020 73 10000 4.6 330 09:21 21.08.2019
3288 Clouds 20 1020 77 10000 4.6 330 08:50 21.08.2019
3289 Clouds 19 1020 77 10000 4.6 340 08:26 21.08.2019
3290 Clouds 18 1020 77 10000 4.1 330 07:46 21.08.2019
3291 Clouds 19 1020 77 10000 4.1 330 07:26 21.08.2019
3292 Clouds 19 1020 77 10000 2.6 340 06:59 21.08.2019
3293 Clouds 19 1020 77 10000 2.6 340 06:41 21.08.2019
3294 Clouds 19 1020 77 10000 3.1 330 06:18 21.08.2019
3295 Clouds 20 1020 77 10000 3.6 340 05:29 21.08.2019
3296 Clouds 20 1020 73 10000 3.1 10 04:51 21.08.2019
3297 Clouds 21 1021 69 10000 4.6 320 02:44 21.08.2019
3298 Clouds 21 1021 64 10000 3.1 330 01:36 21.08.2019
3299 Clouds 22 1021 69 10000 2.1 330 00:43 21.08.2019
3300 Clouds 22 1021 69 10000 1 330 00:21 21.08.2019
3301 Clouds 22 1021 57 10000 1.5 20 23:45 20.08.2019
3302 Clouds 22 1021 57 10000 1.5 20 23:45 20.08.2019
3303 Clouds 23 1021 61 10000 1.5 80 23:21 20.08.2019
3304 Clouds 23 1021 61 10000 1.5 80 22:59 20.08.2019
3305 Clouds 23 1020 65 10000 2.1 90 22:41 20.08.2019
3306 Clouds 23 1020 57 10000 2.1 90 22:22 20.08.2019
3307 Clouds 23 1020 61 10000 1 0 21:58 20.08.2019
3308 Clouds 24 1020 61 10000 1 0 21:39 20.08.2019
3309 Clouds 24 1020 65 10000 2.6 100 21:20 20.08.2019
3310 Clouds 24 1020 65 10000 2.6 100 20:59 20.08.2019
3311 Clouds 24 1020 65 10000 2.6 100 20:59 20.08.2019
3312 Clouds 24 1019 65 10000 4.1 110 20:41 20.08.2019
3313 Clouds 25 1019 65 10000 5.1 100 20:23 20.08.2019
3314 Clouds 25 1019 65 10000 4.6 110 19:41 20.08.2019
3315 Clouds 25 1019 57 10000 4.1 120 19:22 20.08.2019
3316 Clouds 26 1019 57 10000 4.1 120 18:58 20.08.2019
3317 Clouds 26 1019 61 10000 3.6 120 18:40 20.08.2019
3318 Clouds 26 1019 61 10000 3.6 120 18:40 20.08.2019
3319 Clouds 26 1019 65 10000 3.6 120 18:19 20.08.2019
3320 Clouds 26 1019 61 10000 5.1 110 17:58 20.08.2019
3321 Clouds 26 1019 61 10000 5.1 110 17:39 20.08.2019
3322 Clouds 26 1019 61 10000 5.1 110 17:20 20.08.2019
3323 Clouds 26 1019 65 10000 4.1 100 16:46 20.08.2019
3324 Clouds 26 1019 65 10000 4.1 100 16:28 20.08.2019
3325 Clouds 26 1019 65 10000 4.1 100 15:58 20.08.2019
3326 Clouds 26 1019 54 10000 3.1 110 15:40 20.08.2019
3327 Clouds 25 1019 54 10000 3.1 110 15:18 20.08.2019
3328 Clouds 25 1019 54 10000 3.1 320 14:44 20.08.2019
3329 Clouds 25 1019 54 10000 3.1 320 14:44 20.08.2019
3330 Clouds 25 1019 54 10000 3.1 320 14:22 20.08.2019
3331 Clouds 25 1019 54 10000 3.1 320 14:22 20.08.2019
3332 Clouds 25 1020 54 10000 2.6 90 13:59 20.08.2019
3333 Clouds 25 1019 57 10000 3.6 70 13:40 20.08.2019
3334 Clouds 24 1019 57 10000 5.7 70 13:21 20.08.2019
3335 Clouds 24 1019 57 10000 5.7 70 12:55 20.08.2019
3336 Clouds 24 1018 61 10000 7.2 80 12:36 20.08.2019
3337 Clouds 25 1019 57 10000 7.7 80 12:18 20.08.2019
3338 Clouds 25 1018 54 10000 7.7 70 11:42 20.08.2019
3339 Clouds 26 1017 57 10000 8.2 70 11:22 20.08.2019
3340 Clouds 26 1017 57 10000 8.2 70 10:58 20.08.2019
3341 Clouds 26 1017 54 10000 7.7 80 10:39 20.08.2019
3342 Clouds 26 1017 54 10000 7.7 80 10:39 20.08.2019
3343 Clouds 25 1017 54 10000 7.7 80 10:20 20.08.2019
3344 Clouds 25 1017 61 10000 6.7 80 09:58 20.08.2019
3345 Clouds 24 1017 61 10000 5.7 70 09:40 20.08.2019
3346 Clouds 24 1017 61 10000 5.7 70 09:40 20.08.2019
3347 Clouds 24 1017 61 10000 5.7 80 09:21 20.08.2019
3348 Clouds 24 1017 61 10000 5.7 80 09:21 20.08.2019
3349 Clouds 23 1017 61 10000 3.6 60 08:42 20.08.2019
3350 Clouds 23 1017 61 10000 3.6 60 08:23 20.08.2019
3351 Clouds 23 1017 61 10000 4.6 80 07:57 20.08.2019
3352 Clouds 23 1017 61 10000 4.6 80 07:57 20.08.2019
3353 Clouds 23 1017 61 10000 4.6 80 07:57 20.08.2019
3354 Clouds 23 1017 61 10000 4.6 60 07:38 20.08.2019
3355 Clouds 23 1017 61 10000 4.6 60 07:20 20.08.2019
3356 Clouds 23 1016 61 10000 5.7 80 06:44 20.08.2019
3357 Clouds 23 1016 61 10000 5.7 80 06:20 20.08.2019
3358 Clouds 23 1016 61 10000 5.1 80 05:42 20.08.2019
3359 Clouds 24 1017 61 10000 5.1 80 04:26 20.08.2019
3360 Clouds 24 1017 65 10000 6.7 70 02:50 20.08.2019
3361 Clouds 24 1017 65 10000 7.7 70 01:58 20.08.2019
3362 Clouds 24 1017 69 10000 7.7 80 01:21 20.08.2019
3363 Clouds 24 1017 69 10000 7.7 70 00:45 20.08.2019
3364 Clouds 24 1017 69 10000 7.7 70 00:25 20.08.2019
3365 Clouds 24 1017 73 10000 6.2 70 23:50 19.08.2019
3366 Clouds 24 1017 73 10000 6.2 70 23:19 19.08.2019
3367 Clouds 24 1017 73 10000 6.7 70 22:59 19.08.2019
3368 Clouds 24 1017 73 10000 6.7 70 22:41 19.08.2019
3369 Clouds 24 1017 73 10000 6.7 70 22:21 19.08.2019
3370 Clouds 24 1017 73 10000 5.7 70 21:58 19.08.2019
3371 Clouds 24 1016 73 10000 6.7 80 21:38 19.08.2019
3372 Clouds 24 1016 73 10000 6.7 80 21:20 19.08.2019
3373 Clouds 24 1016 78 10000 7.2 80 20:56 19.08.2019
3374 Clouds 25 1016 73 10000 7.2 70 20:37 19.08.2019
3375 Clouds 25 1016 73 10000 7.2 70 20:19 19.08.2019
3376 Clouds 25 1016 73 10000 6.7 70 19:55 19.08.2019
3377 Clouds 25 1016 69 10000 7.2 80 19:55 19.08.2019
3378 Clouds 25 1016 69 10000 7.2 80 19:36 19.08.2019
3379 Clouds 26 1016 69 10000 6.7 90 19:18 19.08.2019
3380 Clouds 26 1016 65 10000 7.2 80 18:41 19.08.2019
3381 Clouds 27 1016 65 10000 7.2 80 18:23 19.08.2019
3382 Clouds 27 1016 61 10000 6.7 80 17:57 19.08.2019
3383 Clouds 28 1016 54 10000 7.2 80 17:38 19.08.2019
3384 Clouds 27 1016 61 10000 6.7 90 17:19 19.08.2019
3385 Rain 27 1016 61 10000 6.7 90 16:56 19.08.2019
3386 Clouds 28 1017 54 10000 6.7 90 16:37 19.08.2019
3387 Clouds 28 1017 54 10000 6.7 90 16:18 19.08.2019
3388 Clouds 28 1017 58 10000 6.7 90 15:45 19.08.2019
3389 Clouds 28 1017 61 10000 7.2 90 15:20 19.08.2019
3390 Clouds 28 1017 61 10000 7.2 90 14:56 19.08.2019
3391 Clouds 28 1017 61 10000 7.2 80 14:37 19.08.2019
3392 Clouds 28 1017 65 10000 6.2 90 14:19 19.08.2019
3393 Clouds 28 1017 61 10000 7.7 80 13:56 19.08.2019
3394 Clouds 28 1017 61 10000 7.7 80 13:36 19.08.2019
3395 Clouds 28 1017 61 10000 7.2 80 13:18 19.08.2019
3396 Clouds 28 1017 65 10000 6.7 70 12:43 19.08.2019
3397 Clouds 28 1017 65 10000 6.7 70 12:43 19.08.2019
3398 Clouds 27 1016 65 10000 6.7 70 12:23 19.08.2019
3399 Clouds 27 1016 74 10000 6.7 80 11:56 19.08.2019
3400 Clouds 27 1016 74 10000 6.7 80 11:36 19.08.2019
3401 Clouds 26 1016 78 10000 7.7 80 11:18 19.08.2019
3402 Clouds 26 1015 78 10000 7.7 80 10:40 19.08.2019
3403 Clouds 26 1015 78 10000 7.2 70 10:19 19.08.2019
3404 Clouds 26 1015 78 10000 7.2 70 10:19 19.08.2019
3405 Clouds 25 1015 78 10000 7.2 70 09:56 19.08.2019
3406 Clouds 25 1015 78 10000 7.2 70 09:38 19.08.2019
3407 Clouds 24 1014 78 10000 6.2 70 09:20 19.08.2019
3408 Clouds 24 1014 88 10000 4.6 60 08:46 19.08.2019
3409 Clouds 23 1014 88 10000 4.6 60 08:25 19.08.2019
3410 Clouds 23 1014 88 10000 5.7 70 07:59 19.08.2019
3411 Clouds 23 1014 88 10000 5.1 70 07:40 19.08.2019
3412 Clouds 23 1014 88 10000 4.1 60 07:21 19.08.2019
3413 Clouds 23 1014 88 10000 4.6 60 06:40 19.08.2019
3414 Clouds 23 1014 88 10000 4.6 70 05:54 19.08.2019
3415 Clouds 24 1014 88 10000 4.1 70 04:35 19.08.2019
3416 Clouds 24 1014 88 10000 3.1 70 03:58 19.08.2019
3417 Clouds 24 1014 88 10000 2.6 50 03:18 19.08.2019
3418 Clouds 25 1014 88 10000 3.1 60 01:46 19.08.2019
3419 Clouds 25 1013 88 10000 1.5 70 00:59 19.08.2019
3420 Clouds 25 1013 88 10000 1.5 70 00:37 19.08.2019
3421 Clouds 25 1013 88 10000 1.5 80 00:18 19.08.2019
3422 Clouds 25 1013 88 10000 2.6 40 23:40 18.08.2019
3423 Clouds 25 1012 83 10000 2.1 40 23:20 18.08.2019
3424 Clouds 25 1012 83 10000 2.1 40 23:20 18.08.2019
3425 Clouds 25 1012 78 10000 1.5 80 22:40 18.08.2019
3426 Clouds 25 1012 74 10000 0.5 0 22:22 18.08.2019
3427 Clouds 25 1011 78 10000 1.5 150 21:57 18.08.2019
3428 Clouds 27 1011 78 10000 1.5 150 21:39 18.08.2019
3429 Clouds 28 1011 83 10000 2.1 160 21:20 18.08.2019
3430 Clouds 28 1011 78 10000 2.6 180 20:58 18.08.2019
3431 Clouds 28 1011 78 10000 2.6 180 20:40 18.08.2019
3432 Clouds 28 1011 78 10000 2.6 180 20:40 18.08.2019
3433 Clouds 28 1011 78 10000 3.1 180 20:22 18.08.2019
3434 Clouds 29 1011 74 10000 3.6 190 19:42 18.08.2019
3435 Clouds 30 1011 74 10000 4.6 200 19:23 18.08.2019
3436 Clouds 30 1011 74 10000 4.6 200 18:57 18.08.2019
3437 Clouds 30 1011 74 10000 4.6 200 18:39 18.08.2019
3438 Clouds 30 1011 74 10000 4.6 200 18:39 18.08.2019
3439 Clouds 30 1011 70 10000 5.7 210 18:21 18.08.2019
3440 Clouds 30 1011 70 10000 5.7 210 18:21 18.08.2019
3441 Clouds 30 1012 70 10000 6.7 200 17:55 18.08.2019
3442 Clouds 30 1012 70 10000 6.7 200 17:37 18.08.2019
3443 Clouds 30 1012 70 10000 6.7 220 17:18 18.08.2019
3444 Clouds 30 1012 70 10000 6.7 220 16:55 18.08.2019
3445 Clouds 30 1012 70 10000 6.7 220 16:36 18.08.2019
3446 Clouds 30 1012 74 10000 6.2 210 16:18 18.08.2019
3447 Clouds 30 1012 74 10000 6.7 210 15:40 18.08.2019
3448 Clouds 31 1012 74 10000 6.2 210 15:20 18.08.2019
3449 Clouds 31 1013 70 10000 6.2 210 14:58 18.08.2019
3450 Clouds 30 1013 70 10000 6.2 210 14:39 18.08.2019
3451 Clouds 30 1013 74 10000 5.7 210 14:19 18.08.2019
3452 Clouds 30 1013 74 10000 5.7 210 13:57 18.08.2019
3453 Clouds 30 1013 78 10000 4.1 190 13:39 18.08.2019
3454 Clouds 30 1013 78 10000 3.6 180 13:20 18.08.2019
3455 Clouds 30 1013 78 10000 3.6 180 12:54 18.08.2019
3456 Clouds 29 1013 78 10000 5.1 190 12:36 18.08.2019
3457 Clouds 29 1013 78 10000 4.1 210 12:18 18.08.2019
3458 Clouds 28 1013 78 10000 3.6 210 11:41 18.08.2019
3459 Clouds 28 1013 78 10000 3.1 260 11:22 18.08.2019
3460 Clouds 28 1013 78 10000 3.1 260 10:56 18.08.2019
3461 Clouds 28 1013 74 10000 1.5 320 10:38 18.08.2019
3462 Clouds 26 1013 78 10000 2.6 330 10:18 18.08.2019
3463 Clouds 24 1013 83 10000 2.1 330 09:42 18.08.2019
3464 Clouds 24 1013 78 10000 2.6 330 09:19 18.08.2019
3465 Clouds 22 1013 83 10000 3.1 330 08:43 18.08.2019
3466 Clouds 22 1013 88 10000 3.1 330 08:25 18.08.2019
3467 Clouds 22 1013 83 10000 3.1 330 07:53 18.08.2019
3468 Clouds 22 1013 83 10000 3.1 330 07:29 18.08.2019
3469 Clouds 22 1013 88 10000 2.1 330 06:32 18.08.2019
3470 Clouds 21 1013 88 10000 2.6 320 05:41 18.08.2019
3471 Clouds 22 1014 83 10000 2.1 320 03:51 18.08.2019
3472 Clouds 23 1014 78 10000 1.5 320 02:52 18.08.2019
3473 Clouds 23 1014 78 10000 1.5 320 02:34 18.08.2019
3474 Clouds 23 1014 78 10000 1.11 185.504 01:57 18.08.2019
3475 Clouds 24 1014 83 10000 0.97 172.97 01:26 18.08.2019
3476 Clouds 24 1014 83 10000 0.97 172.97 00:42 18.08.2019
3477 Clouds 25 1014 78 10000 2.01 200.886 00:22 18.08.2019
3478 Clouds 26 1014 83 10000 1 0 23:58 17.08.2019
3479 Clouds 26 1014 83 10000 1 0 23:38 17.08.2019
3480 Clouds 26 1014 83 10000 1.5 200 23:19 17.08.2019
3481 Clouds 26 1014 83 10000 2.1 210 22:57 17.08.2019
3482 Clouds 26 1014 83 10000 2.1 210 22:39 17.08.2019
3483 Clouds 27 1014 78 10000 2.6 210 22:21 17.08.2019
3484 Clouds 27 1014 78 10000 3.6 210 21:55 17.08.2019
3485 Clouds 27 1014 78 10000 3.6 210 21:37 17.08.2019
3486 Clear 28 1014 74 10000 3.6 220 21:18 17.08.2019
3487 Clear 28 1014 74 10000 4.6 220 20:39 17.08.2019
3488 Clouds 28 1014 74 10000 5.1 220 20:20 17.08.2019
3489 Clouds 28 1014 65 10000 5.1 220 19:56 17.08.2019
3490 Clouds 28 1014 65 10000 5.1 220 19:37 17.08.2019
3491 Clouds 28 1014 69 10000 6.2 230 19:19 17.08.2019
3492 Clouds 28 1015 69 10000 6.2 220 18:39 17.08.2019
3493 Clouds 29 1015 65 10000 6.2 220 18:19 17.08.2019
3494 Clouds 29 1015 69 10000 6.2 220 17:55 17.08.2019
3495 Clouds 29 1015 65 10000 6.2 220 17:55 17.08.2019
3496 Clouds 29 1015 69 10000 6.2 220 17:37 17.08.2019
3497 Clouds 29 1015 69 10000 6.7 210 17:18 17.08.2019
3498 Clouds 29 1015 74 10000 7.2 210 16:43 17.08.2019
3499 Clouds 29 1015 74 10000 6.7 210 16:25 17.08.2019
3500 Clouds 30 1015 74 10000 6.7 220 15:57 17.08.2019
3501 Clouds 30 1015 74 10000 6.7 220 15:38 17.08.2019
3502 Clouds 30 1016 74 10000 6.7 210 15:20 17.08.2019
3503 Clouds 30 1016 74 10000 6.7 210 15:20 17.08.2019
3504 Clouds 30 1016 74 10000 6.7 200 14:41 17.08.2019
3505 Clouds 30 1016 74 10000 6.2 200 14:22 17.08.2019
3506 Clouds 30 1016 78 10000 5.1 210 13:47 17.08.2019
3507 Clouds 29 1016 78 10000 5.7 210 13:22 17.08.2019
3508 Clouds 29 1016 74 10000 4.6 200 12:58 17.08.2019
3509 Clouds 29 1016 74 10000 4.6 200 12:39 17.08.2019
3510 Clear 29 1017 54 10000 2.6 210 12:19 17.08.2019
3511 Clouds 28 1016 78 10000 3.6 220 11:44 17.08.2019
3512 Clouds 28 1016 78 10000 3.6 240 11:21 17.08.2019
3513 Clouds 27 1016 78 10000 3.6 240 10:57 17.08.2019
3514 Clouds 27 1016 78 10000 1.5 260 10:39 17.08.2019
3515 Clouds 26 1016 78 10000 1.5 310 10:19 17.08.2019
3516 Clouds 25 1016 78 10000 2.1 330 09:48 17.08.2019
3517 Clouds 24 1016 78 10000 2.1 330 09:29 17.08.2019
3518 Clouds 23 1016 78 10000 2.6 320 08:54 17.08.2019
3519 Clouds 22 1016 83 10000 3.1 320 08:25 17.08.2019
3520 Clouds 21 1016 88 10000 3.1 330 07:51 17.08.2019
3521 Clouds 21 1015 88 10000 3.1 320 07:21 17.08.2019
3522 Clouds 21 1015 88 10000 3.1 320 06:53 17.08.2019
3523 Clouds 22 1016 94 10000 3.1 330 05:32 17.08.2019
3524 Clouds 22 1016 83 10000 3.1 330 04:29 17.08.2019
3525 Clouds 22 1016 83 10000 2.6 310 03:20 17.08.2019
3526 Clouds 22 1017 83 10000 1 270 01:47 17.08.2019
3527 Clouds 23 1017 83 10000 1 270 01:28 17.08.2019
3528 Clouds 23 1017 88 10000 2.6 260 00:55 17.08.2019
3529 Clouds 23 1017 88 10000 3.1 250 00:28 17.08.2019
3530 Clouds 24 1017 88 10000 3.1 250 23:50 16.08.2019
3531 Clouds 24 1016 83 10000 4.1 250 23:27 16.08.2019
3532 Clouds 24 1016 83 10000 4.1 250 22:57 16.08.2019
3533 Clouds 24 1016 83 10000 5.1 240 22:39 16.08.2019
3534 Clouds 25 1016 83 10000 5.7 240 22:19 16.08.2019
3535 Clouds 25 1015 83 10000 5.7 230 21:41 16.08.2019
3536 Clouds 26 1015 78 10000 6.7 230 21:20 16.08.2019
3537 Clouds 26 1015 78 10000 8.2 230 20:56 16.08.2019
3538 Clouds 27 1015 78 10000 8.2 230 20:38 16.08.2019
3539 Clouds 27 1015 74 10000 8.2 230 20:18 16.08.2019
3540 Rain 27 1015 74 10000 8.2 230 19:43 16.08.2019
3541 Rain 28 1015 74 10000 7.7 230 19:23 16.08.2019
3542 Rain 28 1015 69 10000 7.7 230 18:54 16.08.2019
3543 Rain 28 1015 69 10000 7.7 230 18:36 16.08.2019
3544 Rain 28 1016 74 10000 7.7 230 18:18 16.08.2019
3545 Rain 28 1016 69 10000 7.7 230 17:43 16.08.2019
3546 Rain 28 1016 74 10000 7.2 230 17:24 16.08.2019
3547 Rain 28 1016 74 10000 6.7 220 16:56 16.08.2019
3548 Rain 28 1016 74 10000 6.7 220 16:37 16.08.2019
3549 Rain 28 1017 74 10000 5.1 200 16:18 16.08.2019
3550 Clouds 28 1017 74 10000 5.1 170 15:41 16.08.2019
3551 Clouds 27 1018 78 10000 3.6 160 15:22 16.08.2019
3552 Clouds 27 1018 78 10000 2.1 160 14:58 16.08.2019
3553 Clouds 27 1018 78 10000 2.1 160 14:40 16.08.2019
3554 Clouds 26 1019 78 10000 0.5 0 14:19 16.08.2019
3555 Clouds 26 1019 78 10000 0.5 0 13:58 16.08.2019
3556 Clouds 26 1019 73 10000 2.1 130 13:38 16.08.2019
3557 Clouds 26 1020 73 10000 3.1 160 13:19 16.08.2019
3558 Clouds 25 1019 94 10000 1.5 140 12:39 16.08.2019
3559 Clouds 25 1019 88 10000 1.5 130 12:20 16.08.2019
3560 Rain 24 1019 88 10000 2.1 90 11:43 16.08.2019
3561 Rain 23 1019 88 9000 1.5 90 11:24 16.08.2019
3562 Rain 23 1019 88 9000 1.5 90 10:55 16.08.2019
3563 Rain 23 1019 88 9000 1.5 90 10:55 16.08.2019
3564 Drizzle 23 1019 83 10000 3.1 80 10:36 16.08.2019
3565 Rain 23 1019 88 10000 4.1 40 10:18 16.08.2019
3566 Rain 23 1019 88 10000 2.6 50 09:38 16.08.2019
3567 Rain 22 1019 94 3000 2.6 60 09:19 16.08.2019
3568 Rain 22 1019 94 3000 2.6 60 08:56 16.08.2019
3569 Rain 22 1018 94 10000 3.1 70 08:38 16.08.2019
3570 Rain 22 1018 88 10000 2.6 60 08:18 16.08.2019
3571 Rain 22 1018 94 3000 3.1 70 07:44 16.08.2019
3572 Rain 22 1018 83 10000 1.5 90 07:24 16.08.2019
3573 Rain 22 1018 88 10000 1 0 06:38 16.08.2019
3574 Rain 22 1018 88 10000 1 0 05:58 16.08.2019
3575 Rain 23 1018 88 10000 3.1 300 05:33 16.08.2019
3576 Rain 23 1019 83 10000 4.1 150 03:19 16.08.2019
3577 Rain 23 1019 78 10000 2.1 10 01:45 16.08.2019
3578 Rain 23 1019 78 10000 3.1 10 01:25 16.08.2019
3579 Rain 23 1019 74 10000 2.1 10 00:48 16.08.2019
3580 Rain 23 1019 74 10000 3.6 20 00:22 16.08.2019
3581 Rain 24 1019 78 10000 0.5 360 23:55 15.08.2019
3582 Rain 24 1019 78 10000 0.5 360 23:37 15.08.2019
3583 Rain 24 1019 78 10000 2.1 190 23:18 15.08.2019
3584 Rain 24 1019 78 10000 3.1 200 22:41 15.08.2019
3585 Rain 24 1018 78 10000 2.6 200 22:22 15.08.2019
3586 Clouds 24 1018 78 10000 2.6 200 21:58 15.08.2019
3587 Clouds 25 1018 78 10000 3.1 200 21:39 15.08.2019
3588 Tornado 25 1018 74 10000 2.6 210 21:19 15.08.2019
3589 Tornado 25 1018 74 10000 2.6 210 20:56 15.08.2019
3590 Clouds 25 1018 74 10000 3.1 200 20:38 15.08.2019
3591 Clouds 26 1017 69 10000 4.1 190 20:19 15.08.2019
3592 Clouds 26 1017 74 10000 4.6 180 19:39 15.08.2019
3593 Clouds 27 1017 74 10000 5.1 190 19:21 15.08.2019
3594 Clouds 27 1017 74 10000 6.2 200 18:49 15.08.2019
3595 Clouds 28 1017 74 10000 5.7 210 18:25 15.08.2019
3596 Clouds 28 1017 74 10000 5.7 210 17:59 15.08.2019
3597 Clouds 29 1017 69 10000 6.2 210 17:39 15.08.2019
3598 Clouds 29 1017 61 10000 6.2 210 17:20 15.08.2019
3599 Clouds 29 1017 61 10000 6.2 210 16:59 15.08.2019
3600 Clouds 29 1017 61 10000 6.2 210 16:41 15.08.2019
3601 Clouds 29 1017 48 10000 4.6 160 16:23 15.08.2019
3602 Clouds 29 1017 61 10000 7.2 210 15:39 15.08.2019
3603 Clouds 29 1017 65 10000 6.2 200 15:21 15.08.2019
3604 Clouds 29 1017 65 10000 6.2 200 14:58 15.08.2019
3605 Clouds 29 1018 65 10000 5.1 200 14:40 15.08.2019
3606 Clouds 29 1018 61 10000 5.1 210 14:21 15.08.2019
3607 Clouds 29 1018 58 10000 4.6 190 13:57 15.08.2019
3608 Clouds 28 1018 58 10000 4.6 190 13:38 15.08.2019
3609 Clouds 28 1018 62 10000 3.1 0 13:20 15.08.2019
3610 Clouds 28 1018 74 10000 3.1 130 12:55 15.08.2019
3611 Clouds 27 1018 74 10000 3.1 130 12:36 15.08.2019
3612 Clouds 27 1019 74 10000 2.1 130 12:18 15.08.2019
3613 Clouds 27 1019 69 10000 0.5 10 11:39 15.08.2019
3614 Clouds 26 1019 74 10000 0.5 0 11:21 15.08.2019
3615 Clouds 25 1019 73 10000 2.6 340 10:59 15.08.2019
3616 Clouds 25 1019 73 10000 2.6 340 10:38 15.08.2019
3617 Drizzle 25 1019 73 10000 2.6 330 10:20 15.08.2019
3618 Clouds 23 1019 73 10000 3.1 340 09:44 15.08.2019
3619 Clouds 23 1019 73 10000 1 0 09:23 15.08.2019
3620 Clouds 22 1018 83 10000 2.6 330 08:56 15.08.2019
3621 Clouds 22 1018 83 10000 2.6 330 08:36 15.08.2019
3622 Clouds 22 1018 83 10000 2.6 330 08:18 15.08.2019
3623 Clouds 21 1018 83 10000 3.1 340 07:42 15.08.2019
3624 Clouds 21 1017 83 10000 3.1 320 07:23 15.08.2019
3625 Clouds 21 1017 83 10000 3.1 320 07:23 15.08.2019
3626 Clouds 21 1017 83 10000 2.6 330 06:53 15.08.2019
3627 Clouds 21 1017 88 10000 2.6 330 06:32 15.08.2019
3628 Clouds 21 1017 88 10000 2.6 340 05:44 15.08.2019
3629 Clouds 21 1017 88 10000 1.5 330 05:25 15.08.2019
3630 Clouds 21 1017 83 10000 1 330 04:34 15.08.2019
3631 Clouds 21 1018 83 10000 1.5 320 03:39 15.08.2019
3632 Clouds 22 1018 83 10000 2.1 320 02:44 15.08.2019
3633 Clouds 22 1018 78 10000 1.38 182.452 01:52 15.08.2019
3634 Clouds 23 1018 78 10000 1.4 176.549 01:31 15.08.2019
3635 Clouds 23 1018 78 10000 1 350 00:41 15.08.2019
3636 Clouds 23 1018 78 10000 2.6 260 00:21 15.08.2019
3637 Clouds 23 1018 78 10000 2.6 220 23:57 14.08.2019
3638 Clouds 23 1018 78 10000 2.6 220 23:38 14.08.2019
3639 Clouds 24 1018 78 10000 2.1 210 23:19 14.08.2019
3640 Clouds 24 1018 78 10000 2.1 210 22:57 14.08.2019
3641 Clouds 24 1017 74 10000 1 0 22:38 14.08.2019
3642 Clouds 24 1017 74 10000 1.5 180 22:19 14.08.2019
3643 Clouds 25 1017 74 10000 1.5 180 21:55 14.08.2019
3644 Clouds 25 1017 74 10000 1.5 180 21:55 14.08.2019
3645 -273 0 0 0 0 0 21:55 14.08.2019
3646 Clouds 25 1017 74 10000 1.5 180 21:37 14.08.2019
3647 Clouds 25 1017 74 10000 1.5 180 21:37 14.08.2019
3648 Clouds 25 1017 69 10000 3.1 200 21:18 14.08.2019
3649 Clouds 25 1017 69 10000 2.6 190 20:41 14.08.2019
3650 Clouds 26 1017 65 10000 3.1 200 20:21 14.08.2019
3651 Clouds 26 1017 65 10000 3.1 200 19:56 14.08.2019
3652 Clouds 27 1017 61 10000 3.1 180 19:38 14.08.2019
3653 Clouds 27 1017 57 10000 2.6 180 19:19 14.08.2019
3654 Clouds 27 1017 57 10000 3.1 190 18:57 14.08.2019
3655 Clouds 27 1017 57 10000 3.1 190 18:38 14.08.2019
3656 Clouds 27 1017 54 10000 3.1 180 18:19 14.08.2019
3657 Clouds 27 1017 51 10000 3.6 170 17:56 14.08.2019
3658 Clouds 27 1017 51 10000 3.6 170 17:37 14.08.2019
3659 Clouds 27 1017 47 10000 4.1 180 17:19 14.08.2019
3660 Clouds 27 1017 54 10000 4.1 140 16:43 14.08.2019
3661 Clouds 27 1017 61 10000 4.6 130 16:20 14.08.2019
3662 Clouds 27 1018 65 10000 5.1 110 15:55 14.08.2019
3663 Clouds 27 1018 65 10000 5.1 110 15:37 14.08.2019
3664 Clouds 27 1018 57 10000 5.1 110 15:18 14.08.2019
3665 Clouds 26 1018 65 10000 5.7 120 14:41 14.08.2019
3666 Clouds 27 1018 57 10000 5.1 100 14:19 14.08.2019
3667 Clouds 26 1018 61 10000 5.1 100 13:59 14.08.2019
3668 Clouds 26 1018 61 10000 5.1 100 13:41 14.08.2019
3669 Clouds 26 1019 61 10000 5.1 100 13:22 14.08.2019
3670 Clouds 26 1019 61 10000 5.1 100 13:22 14.08.2019
3671 Clouds 26 1019 61 10000 5.1 100 12:56 14.08.2019
3672 Clouds 26 1019 57 10000 4.6 70 12:38 14.08.2019
3673 Clouds 26 1019 61 10000 4.6 70 12:20 14.08.2019
3674 Clouds 25 1019 61 10000 3.6 70 11:47 14.08.2019
3675 Clouds 25 1019 61 10000 3.6 70 11:23 14.08.2019
3676 Clouds 24 1019 60 10000 4.1 60 10:59 14.08.2019
3677 Clouds 24 1019 60 10000 4.1 60 10:39 14.08.2019
3678 Clouds 24 1019 60 10000 4.1 60 10:39 14.08.2019
3679 Clouds 23 1019 64 10000 4.6 50 10:21 14.08.2019
3680 Clouds 22 1019 64 10000 3.1 360 09:45 14.08.2019
3681 Clouds 21 1018 68 10000 3.1 340 09:22 14.08.2019
3682 Clouds 20 1018 77 10000 3.6 320 08:49 14.08.2019
3683 Clouds 20 1018 77 10000 3.6 320 08:30 14.08.2019
3684 Clouds 20 1018 77 10000 3.6 330 07:58 14.08.2019
3685 Clouds 20 1018 77 10000 3.6 330 07:39 14.08.2019
3686 Clouds 21 1018 77 10000 3.1 330 07:21 14.08.2019
3687 Clouds 21 1018 77 10000 4.1 340 06:43 14.08.2019
3688 Clouds 21 1018 77 10000 3.6 20 05:47 14.08.2019
3689 Clouds 22 1018 73 10000 2.6 360 04:45 14.08.2019
3690 Clouds 22 1018 78 10000 2.1 330 02:56 14.08.2019
3691 Clouds 22 1018 78 10000 1.5 330 02:26 14.08.2019
3692 Clouds 22 1018 69 10000 3.11 162.147 01:38 14.08.2019
3693 Clouds 22 1018 69 10000 3.11 162.147 00:51 14.08.2019
3694 Clouds 23 1018 69 10000 3.6 250 23:47 13.08.2019
3695 Clouds 23 1018 73 10000 5.7 240 23:23 13.08.2019
3696 Clouds 23 1017 69 10000 5.1 230 22:58 13.08.2019
3697 Clouds 23 1017 69 10000 5.1 230 22:39 13.08.2019
3698 Clouds 23 1017 69 10000 5.1 230 22:39 13.08.2019
3699 Clouds 23 1017 69 10000 5.7 240 22:21 13.08.2019
3700 Clouds 24 1017 69 10000 5.7 240 21:58 13.08.2019
3701 Clouds 24 1017 69 10000 6.2 230 21:37 13.08.2019
3702 Clear 24 1016 61 10000 7.2 220 21:19 13.08.2019
3703 Clear 25 1016 57 10000 8.2 230 20:46 13.08.2019
3704 Clear 25 1016 54 10000 8.2 230 20:20 13.08.2019
3705 Clear 26 1016 54 10000 8.2 230 19:59 13.08.2019
3706 Clear 26 1016 54 10000 8.2 230 19:59 13.08.2019
3707 Clear 26 1016 54 10000 8.2 220 19:40 13.08.2019
3708 Clear 26 1016 50 10000 8.2 220 19:21 13.08.2019
3709 Clear 27 1016 47 10000 8.7 210 18:56 13.08.2019
3710 Clear 27 1016 47 10000 8.7 210 18:37 13.08.2019
3711 Clear 27 1016 50 10000 8.7 210 18:18 13.08.2019
3712 Clear 27 1017 50 10000 9.3 210 17:41 13.08.2019
3713 Clear 27 1017 47 10000 8.2 210 17:21 13.08.2019
3714 Clear 27 1017 47 10000 8.2 210 16:56 13.08.2019
3715 Clear 27 1017 47 10000 8.2 210 16:38 13.08.2019
3716 Clouds 27 1017 44 10000 8.2 210 16:19 13.08.2019
3717 Clouds 27 1017 50 10000 8.2 200 15:39 13.08.2019
3718 Clouds 27 1018 50 10000 6.7 190 15:20 13.08.2019
3719 Clouds 26 1018 50 10000 6.7 190 14:59 13.08.2019
3720 Clouds 26 1018 47 10000 5.7 200 14:40 13.08.2019
3721 Clouds 26 1018 47 10000 5.7 200 14:19 13.08.2019
3722 Clouds 26 1018 47 10000 5.7 200 14:19 13.08.2019
3723 Clouds 26 1019 50 10000 4.1 200 13:42 13.08.2019
3724 Clouds 26 1019 50 10000 1 290 13:23 13.08.2019
3725 Clouds 25 1019 47 10000 2.6 310 12:59 13.08.2019
3726 Clouds 25 1019 47 10000 2.6 310 12:41 13.08.2019
3727 Clouds 24 1019 46 10000 5.1 320 12:22 13.08.2019
3728 Clouds 24 1019 46 10000 5.1 320 12:22 13.08.2019
3729 Clouds 24 1019 46 10000 5.1 320 11:59 13.08.2019
3730 Clouds 23 1019 49 10000 6.2 330 11:39 13.08.2019
3731 Clouds 22 1019 49 10000 7.2 330 11:20 13.08.2019
3732 Clouds 22 1019 49 10000 7.2 330 10:56 13.08.2019
3733 Clouds 22 1019 49 10000 6.7 320 10:37 13.08.2019
3734 Clouds 21 1019 49 10000 7.7 330 10:19 13.08.2019
3735 Clouds 20 1019 52 10000 8.7 330 09:44 13.08.2019
3736 Clouds 20 1019 52 10000 7.7 330 09:23 13.08.2019
3737 Clouds 20 1019 52 10000 7.7 330 09:23 13.08.2019
3738 Clouds 19 1019 52 10000 7.2 330 08:44 13.08.2019
3739 Clouds 19 1018 52 10000 6.7 330 08:23 13.08.2019
3740 Clouds 19 1018 52 10000 6.2 330 07:58 13.08.2019
3741 Clouds 19 1018 52 10000 6.2 330 07:58 13.08.2019
3742 Clouds 19 1018 52 10000 6.2 330 07:38 13.08.2019
3743 Clouds 19 1018 52 10000 6.2 330 07:38 13.08.2019
3744 Clouds 19 1018 52 10000 6.2 330 07:19 13.08.2019
3745 Clouds 19 1018 49 10000 6.2 330 06:41 13.08.2019
3746 Clouds 20 1018 49 10000 6.2 330 05:46 13.08.2019
3747 Clouds 21 1018 78 10000 2.6 330 03:45 13.08.2019
3748 Clouds 21 1018 73 10000 2.89 254.019 02:22 13.08.2019
3749 Clouds 22 1018 73 10000 3.1 320 01:21 13.08.2019
3750 Clear 22 1018 73 10000 2.6 320 00:47 13.08.2019
3751 Clear 22 1018 73 10000 2.6 320 00:47 13.08.2019
3752 Clouds 22 1018 73 10000 2.6 300 00:18 13.08.2019
3753 Clouds 23 1018 69 10000 2.1 290 23:41 12.08.2019
3754 Clouds 23 1017 61 10000 0.5 0 23:20 12.08.2019
3755 Clouds 24 1017 61 10000 2.92 245.122 22:40 12.08.2019
3756 Clouds 24 1017 65 10000 1.5 90 22:20 12.08.2019
3757 Clouds 24 1016 61 10000 2.1 110 21:57 12.08.2019
3758 Clouds 24 1016 61 10000 2.1 110 21:38 12.08.2019
3759 Clouds 25 1016 61 10000 2.1 120 21:19 12.08.2019
3760 Clouds 25 1016 61 10000 2.6 130 20:58 12.08.2019
3761 Clouds 25 1016 61 10000 2.6 130 20:58 12.08.2019
3762 Clouds 25 1016 61 10000 2.6 130 20:39 12.08.2019
3763 Clouds 25 1015 65 10000 2.6 150 20:20 12.08.2019
3764 Clouds 26 1015 61 10000 4.1 180 19:56 12.08.2019
3765 Clouds 26 1015 61 10000 4.1 180 19:38 12.08.2019
3766 Clouds 27 1015 57 10000 4.6 190 19:19 12.08.2019
3767 Clouds 27 1015 57 10000 4.6 190 18:56 12.08.2019
3768 Clouds 27 1015 57 10000 5.1 210 18:37 12.08.2019
3769 Clouds 28 1015 57 10000 5.1 190 18:19 12.08.2019
3770 Clouds 28 1015 57 10000 5.7 200 17:47 12.08.2019
3771 Clouds 28 1015 61 10000 5.1 190 17:28 12.08.2019
3772 Clouds 28 1015 61 10000 4.6 200 16:58 12.08.2019
3773 Clouds 28 1015 61 10000 4.6 200 16:39 12.08.2019
3774 Clouds 28 1015 61 10000 5.1 190 16:20 12.08.2019
3775 Clouds 28 1015 61 10000 5.1 190 16:20 12.08.2019
3776 Clouds 28 1015 61 10000 5.1 190 15:59 12.08.2019
3777 -273 0 0 0 0 0 15:41 12.08.2019
3778 Clouds 28 1015 61 10000 4.6 190 15:41 12.08.2019
3779 Clouds 28 1016 61 10000 4.6 190 15:21 12.08.2019
3780 Clouds 28 1016 61 10000 4.6 190 14:57 12.08.2019
3781 Clouds 28 1016 61 10000 4.6 190 14:57 12.08.2019
3782 Clouds 28 1016 61 10000 3.1 200 14:39 12.08.2019
3783 Clouds 27 1016 65 10000 3.6 190 14:20 12.08.2019
3784 Clouds 27 1016 61 10000 2.6 190 13:46 12.08.2019
3785 Clouds 27 1016 61 10000 3.1 340 13:24 12.08.2019
3786 Clouds 26 1016 57 10000 4.1 330 12:59 12.08.2019
3787 Clouds 26 1016 57 10000 4.1 330 12:40 12.08.2019
3788 Clouds 25 1016 61 10000 4.1 330 12:18 12.08.2019
3789 Clouds 25 1015 65 10000 4.6 330 11:43 12.08.2019
3790 Clouds 24 1015 65 10000 4.6 330 11:25 12.08.2019
3791 -273 0 0 0 0 0 10:43 12.08.2019
3792 Rain 23 1014 88 10000 2.6 330 10:23 12.08.2019
3793 Rain 23 1014 83 10000 4.1 0 09:57 12.08.2019
3794 Rain 22 1014 83 10000 4.1 0 09:38 12.08.2019
3795 Clouds 22 1014 88 10000 3.6 330 09:20 12.08.2019
3796 Clouds 21 1014 88 10000 4.1 320 08:58 12.08.2019
3797 Clouds 21 1014 88 10000 4.1 320 08:39 12.08.2019
3798 Drizzle 21 1013 88 10000 3.1 330 08:20 12.08.2019
3799 Clouds 21 1013 94 10000 4.1 340 07:53 12.08.2019
3800 Clouds 21 1013 94 10000 4.1 340 07:33 12.08.2019
3801 Thunderstorm 21 1013 94 10000 2.6 340 06:52 12.08.2019
3802 Rain 21 1013 100 6000 3.1 110 05:41 12.08.2019
3803 Clouds 25 1014 74 10000 2.1 80 02:45 12.08.2019
3804 Clouds 25 1014 69 10000 3.1 60 01:55 12.08.2019
3805 Clouds 25 1014 65 10000 4.6 70 01:22 12.08.2019
3806 Clouds 25 1014 65 10000 4.6 70 00:58 12.08.2019
3807 Clouds 25 1014 65 10000 6.7 80 00:58 12.08.2019
3808 Clouds 25 1014 65 10000 6.7 80 00:40 12.08.2019
3809 Clouds 25 1014 69 10000 7.2 70 00:20 12.08.2019
3810 Clouds 25 1014 65 10000 7.7 80 23:56 11.08.2019
3811 Clouds 25 1014 65 10000 7.7 80 23:38 11.08.2019
3812 Clouds 25 1013 65 10000 8.7 70 23:19 11.08.2019
3813 Clouds 25 1013 65 10000 8.7 70 22:55 11.08.2019
3814 Clouds 26 1013 78 10000 6.2 80 22:36 11.08.2019
3815 Clouds 26 1013 83 10000 4.6 90 22:18 11.08.2019
3816 Clouds 26 1012 83 10000 4.1 90 21:42 11.08.2019
3817 Clouds 27 1012 83 10000 3.1 120 21:22 11.08.2019
3818 Clouds 27 1012 83 10000 3.1 120 20:58 11.08.2019
3819 Clouds 27 1011 78 10000 2.6 180 20:40 11.08.2019
3820 Clouds 28 1011 74 10000 4.1 210 20:22 11.08.2019
3821 Clouds 28 1011 78 10000 4.6 200 19:45 11.08.2019
3822 Clouds 29 1012 74 10000 5.7 210 19:22 11.08.2019
3823 Clear 29 1011 74 10000 5.1 210 18:58 11.08.2019
3824 Clear 29 1011 74 10000 5.1 210 18:38 11.08.2019
3825 Clear 30 1011 74 10000 4.1 200 18:19 11.08.2019
3826 Clouds 30 1012 74 10000 4.1 210 17:42 11.08.2019
3827 Clouds 30 1012 69 10000 4.1 190 17:20 11.08.2019
3828 Clouds 31 1012 66 10000 4.1 170 16:59 11.08.2019
3829 Clouds 31 1012 66 10000 4.1 170 16:40 11.08.2019
3830 Clouds 31 1012 65 10000 4.1 170 16:22 11.08.2019
3831 Clouds 31 1012 54 10000 4.6 140 15:57 11.08.2019
3832 Clouds 30 1012 54 10000 4.6 140 15:38 11.08.2019
3833 Clouds 30 1012 58 10000 4.6 140 15:20 11.08.2019
3834 Clouds 30 1013 58 10000 4.1 140 14:54 11.08.2019
3835 Clouds 30 1013 58 10000 4.1 140 14:36 11.08.2019
3836 Clouds 30 1013 54 10000 4.1 150 14:18 11.08.2019
3837 Clouds 30 1013 61 10000 3.1 150 13:41 11.08.2019
3838 Clouds 30 1013 58 10000 2.6 140 13:22 11.08.2019
3839 Clouds 29 1014 65 10000 2.6 210 12:41 11.08.2019
3840 Clear 29 1014 55 10000 1 200 12:22 11.08.2019
3841 Clouds 29 1014 69 10000 2.6 170 11:41 11.08.2019
3842 Clouds 28 1014 69 10000 3.1 170 11:23 11.08.2019
3843 Clouds 28 1014 69 10000 1.5 280 10:57 11.08.2019
3844 Clouds 27 1014 69 10000 1.5 280 10:39 11.08.2019
3845 Clouds 27 1014 78 10000 2.1 280 10:20 11.08.2019
3846 Clouds 26 1014 78 10000 2.1 280 09:55 11.08.2019
3847 Clouds 26 1014 74 10000 2.6 330 09:37 11.08.2019
3848 Clouds 25 1014 83 10000 3.1 320 09:18 11.08.2019
3849 Clouds 24 1014 83 10000 2.6 330 08:41 11.08.2019
3850 Clouds 23 1014 83 10000 3.1 330 08:23 11.08.2019
3851 Clouds 23 1014 83 10000 2.1 330 07:47 11.08.2019
3852 Clouds 23 1014 83 10000 2.1 330 07:20 11.08.2019
3853 Clouds 23 1014 83 10000 0.5 330 06:38 11.08.2019
3854 Clouds 23 1014 83 10000 1.5 90 05:34 11.08.2019
3855 Clouds 24 1015 83 10000 2.6 70 03:36 11.08.2019
3856 Clear 24 1016 78 10000 1.5 70 02:45 11.08.2019
3857 Clear 25 1016 83 10000 2.1 60 01:35 11.08.2019
3858 Clouds 25 1016 83 10000 2.6 70 00:59 11.08.2019
3859 Clouds 25 1016 83 10000 2.1 80 00:40 11.08.2019
3860 Clouds 25 1016 78 10000 2.6 80 00:22 11.08.2019
3861 Clouds 25 1016 83 10000 3.6 90 23:39 10.08.2019
3862 Clouds 25 1016 78 10000 4.6 80 23:20 10.08.2019
3863 Clouds 25 1016 78 10000 3.6 80 22:43 10.08.2019
3864 Clouds 26 1016 78 10000 4.1 70 22:24 10.08.2019
3865 Clouds 26 1016 78 10000 4.1 90 21:57 10.08.2019
3866 Clouds 26 1016 78 10000 4.1 90 21:38 10.08.2019
3867 Clear 26 1015 74 10000 4.1 90 21:18 10.08.2019
3868 Clear 27 1015 74 10000 4.1 100 20:42 10.08.2019
3869 Clear 27 1015 69 10000 4.1 80 20:21 10.08.2019
3870 Clear 28 1015 65 10000 4.1 100 19:57 10.08.2019
3871 Clear 28 1015 65 10000 4.1 100 19:38 10.08.2019
3872 Clouds 29 1015 65 10000 4.6 100 19:19 10.08.2019
3873 Clouds 29 1016 65 10000 4.1 100 18:39 10.08.2019
3874 Clouds 30 1016 65 10000 4.6 100 18:21 10.08.2019
3875 Clouds 31 1016 62 10000 4.6 100 17:44 10.08.2019
3876 Clouds 30 1016 62 10000 4.6 100 17:25 10.08.2019
3877 Clouds 30 1016 62 10000 4.6 110 16:47 10.08.2019
3878 Clouds 31 1016 62 10000 4.1 140 16:28 10.08.2019
3879 Clouds 31 1016 66 10000 4.1 140 15:55 10.08.2019
3880 Clouds 31 1016 66 10000 4.1 140 15:26 10.08.2019
3881 Clouds 31 1016 66 10000 3.6 170 14:45 10.08.2019
3882 Clouds 31 1016 74 10000 4.1 160 14:23 10.08.2019
3883 Clouds 31 1016 74 10000 4.1 160 13:59 10.08.2019
3884 Clouds 31 1017 74 10000 4.1 160 13:39 10.08.2019
3885 Clouds 31 1017 74 10000 3.6 140 13:18 10.08.2019
3886 Clouds 31 1017 78 10000 4.1 130 12:42 10.08.2019
3887 Clouds 30 1017 78 10000 3.1 140 12:22 10.08.2019
3888 Clouds 30 1017 74 10000 2.6 130 11:57 10.08.2019
3889 Clouds 30 1017 74 10000 2.6 130 11:38 10.08.2019
3890 Clouds 29 1017 78 10000 1 0 11:20 10.08.2019
3891 Clouds 28 1017 78 10000 2.1 120 10:39 10.08.2019
3892 Clouds 28 1017 78 10000 3.1 100 10:20 10.08.2019
3893 Clouds 28 1016 78 10000 3.1 100 09:59 10.08.2019
3894 Clouds 27 1016 78 10000 3.1 100 09:38 10.08.2019
3895 Clouds 27 1016 78 10000 3.6 90 09:20 10.08.2019
3896 Clouds 26 1016 83 10000 3.6 80 08:38 10.08.2019
3897 Clouds 25 1015 88 10000 3.6 90 08:19 10.08.2019
3898 Clouds 24 1015 83 10000 5.7 80 07:51 10.08.2019
3899 Clouds 24 1015 83 10000 5.7 80 07:27 10.08.2019
3900 Clouds 25 1014 83 10000 5.1 70 06:48 10.08.2019
3901 Clouds 25 1014 88 10000 5.7 70 06:21 10.08.2019
3902 Clouds 25 1013 88 10000 6.7 60 05:24 10.08.2019
3903 Clouds 26 1012 83 10000 0.5 0 04:21 10.08.2019
3904 Clouds 26 1012 83 10000 2.1 250 02:53 10.08.2019
3905 Clouds 26 1012 88 10000 4.1 210 01:57 10.08.2019
3906 Clouds 27 1012 88 10000 4.1 210 01:39 10.08.2019
3907 Clouds 27 1012 83 10000 3.6 210 01:20 10.08.2019
3908 Clouds 27 1012 69 10000 3.1 210 00:43 10.08.2019
3909 Clouds 27 1012 78 10000 4.6 230 00:21 10.08.2019
3910 Clouds 27 1012 88 10000 4.1 230 23:42 09.08.2019
3911 Clouds 28 1012 94 10000 5.1 220 23:22 09.08.2019
3912 Clouds 28 1011 88 10000 5.1 220 22:56 09.08.2019
3913 Clouds 28 1011 88 10000 5.1 220 22:38 09.08.2019
3914 Clouds 28 1011 83 10000 4.6 220 22:19 09.08.2019
3915 Clouds 28 1010 83 10000 5.7 220 21:41 09.08.2019
3916 Clouds 28 1010 83 10000 5.7 220 21:41 09.08.2019
3917 Clouds 29 1010 83 10000 5.7 220 21:23 09.08.2019
3918 Clouds 30 1010 83 10000 6.7 220 20:59 09.08.2019
3919 Clouds 30 1010 83 10000 6.7 220 20:40 09.08.2019
3920 Clouds 31 1010 83 10000 7.7 220 20:21 09.08.2019
3921 Clouds 31 1010 83 10000 7.7 220 19:56 09.08.2019
3922 Clouds 31 1010 83 10000 8.2 220 19:38 09.08.2019
3923 Clouds 32 1010 83 10000 7.7 220 19:18 09.08.2019
3924 Clouds 33 1010 79 10000 6.7 220 18:41 09.08.2019
3925 Clouds 33 1010 79 10000 6.2 210 18:22 09.08.2019
3926 Clouds 33 1010 83 10000 5.7 220 17:57 09.08.2019
3927 Clouds 32 1010 83 10000 5.7 220 17:39 09.08.2019
3928 Clouds 33 1011 83 10000 5.1 200 17:20 09.08.2019
3929 Clouds 33 1011 79 10000 5.7 200 16:41 09.08.2019
3930 Clouds 33 1011 74 10000 6.7 190 16:23 09.08.2019
3931 Clouds 33 1011 79 10000 5.7 190 15:57 09.08.2019
3932 Clouds 33 1011 79 10000 5.7 190 15:57 09.08.2019
3933 Clouds 33 1011 79 10000 5.7 190 15:57 09.08.2019
3934 Clouds 34 1011 79 10000 5.7 190 15:38 09.08.2019
3935 Clouds 34 1011 74 10000 5.7 190 15:19 09.08.2019
3936 Clouds 34 1011 74 10000 5.7 190 14:55 09.08.2019
3937 Clouds 34 1011 74 10000 5.7 190 14:36 09.08.2019
3938 Clouds 34 1012 79 10000 5.1 190 14:18 09.08.2019
3939 Clouds 34 1012 79 10000 5.1 190 13:42 09.08.2019
3940 Clouds 33 1012 79 10000 5.1 190 13:20 09.08.2019
3941 Clouds 32 1012 74 10000 5.1 200 12:46 09.08.2019
3942 Clouds 31 1012 74 10000 4.6 180 12:24 09.08.2019
3943 Clouds 31 1012 78 10000 4.1 190 11:58 09.08.2019
3944 Clouds 30 1012 78 10000 4.1 190 11:37 09.08.2019
3945 Clouds 30 1012 78 10000 4.1 190 11:37 09.08.2019
3946 Clouds 30 1012 78 10000 4.1 190 11:18 09.08.2019
3947 Clouds 29 1012 78 10000 2.6 250 10:40 09.08.2019
3948 Clouds 28 1012 74 10000 1.5 310 10:21 09.08.2019
3949 Clouds 27 1012 69 10000 2.1 320 09:46 09.08.2019
3950 Clouds 26 1012 69 10000 2.6 320 09:20 09.08.2019
3951 Clouds 25 1012 69 10000 2.6 320 08:58 09.08.2019
3952 Clouds 25 1012 69 10000 3.1 320 08:40 09.08.2019
3953 Clouds 24 1012 69 10000 2.6 320 08:20 09.08.2019
3954 Clouds 23 1012 69 10000 1.5 320 07:44 09.08.2019
3955 Clouds 23 1012 69 10000 1 310 07:24 09.08.2019
3956 Clouds 23 1012 69 10000 1 320 06:56 09.08.2019
3957 Clouds 23 1012 69 10000 1 310 06:56 09.08.2019
3958 Clouds 23 1012 69 10000 1 320 06:33 09.08.2019
3959 Clouds 23 1012 65 10000 1 0 05:58 09.08.2019
3960 Clear 24 1012 65 10000 2.1 320 04:22 09.08.2019
3961 Clouds 25 1012 88 10000 3.1 210 02:18 09.08.2019
3962 Clouds 26 1012 88 10000 3.6 210 00:50 09.08.2019
3963 Clear 26 1012 83 10000 3.1 200 00:27 09.08.2019
3964 Clear 26 1012 83 10000 3.1 200 23:59 08.08.2019
3965 Clear 27 1012 78 10000 3.1 220 23:38 08.08.2019
3966 Clear 27 1011 83 10000 2.6 230 23:20 08.08.2019
3967 Clear 27 1011 83 10000 4.1 250 22:59 08.08.2019
3968 Clear 27 1011 83 10000 4.1 250 22:37 08.08.2019
3969 Clear 28 1011 83 10000 6.2 240 22:19 08.08.2019
3970 Clear 28 1011 83 10000 5.1 230 21:58 08.08.2019
3971 Clear 28 1011 83 10000 5.1 230 21:40 08.08.2019
3972 Clear 28 1010 83 10000 6.2 240 21:21 08.08.2019
3973 Clear 29 1010 83 10000 6.2 240 20:56 08.08.2019
3974 Clear 29 1011 78 10000 6.7 230 20:38 08.08.2019
3975 Clouds 30 1011 83 10000 7.2 230 20:19 08.08.2019
3976 Clouds 30 1011 79 10000 7.2 220 19:43 08.08.2019
3977 Clouds 30 1011 79 10000 6.7 220 19:22 08.08.2019
3978 Clouds 31 1011 79 10000 6.7 220 18:44 08.08.2019
3979 Clouds 31 1011 79 10000 6.7 210 18:24 08.08.2019
3980 Clouds 31 1011 79 10000 6.7 210 17:58 08.08.2019
3981 Clouds 31 1011 74 10000 6.7 210 17:40 08.08.2019
3982 Clouds 31 1011 74 10000 6.7 210 17:22 08.08.2019
3983 Clouds 31 1011 79 10000 6.7 200 16:55 08.08.2019
3984 Clouds 31 1011 79 10000 6.7 200 16:37 08.08.2019
3985 Clouds 31 1012 74 10000 7.2 210 16:19 08.08.2019
3986 Clouds 32 1012 70 10000 7.2 200 15:42 08.08.2019
3987 Clouds 31 1012 74 10000 6.7 210 15:23 08.08.2019
3988 Clouds 32 1012 79 10000 6.7 210 14:59 08.08.2019
3989 Clouds 32 1012 79 10000 6.7 210 14:37 08.08.2019
3990 Clouds 32 1012 79 10000 7.2 200 14:18 08.08.2019
3991 Clouds 31 1012 74 10000 6.7 200 13:40 08.08.2019
3992 Clouds 31 1012 83 10000 6.7 210 13:22 08.08.2019
3993 Clouds 31 1012 78 10000 5.7 200 12:43 08.08.2019
3994 Clouds 30 1012 78 10000 5.7 220 12:23 08.08.2019
3995 Clouds 30 1012 78 10000 5.7 220 11:59 08.08.2019
3996 Clouds 30 1012 78 10000 4.6 210 11:39 08.08.2019
3997 Clouds 29 1012 78 9000 3.6 200 11:21 08.08.2019
3998 Clouds 29 1012 74 9000 1.5 230 10:41 08.08.2019
3999 Clouds 28 1012 78 9000 1 0 10:22 08.08.2019
4000 Clouds 27 1012 78 9000 1.5 300 09:54 08.08.2019
4001 Clouds 27 1012 78 9000 1.5 300 09:32 08.08.2019
4002 Clear 25 1012 83 10000 1.5 330 09:00 08.08.2019
4003 Clear 24 1012 83 10000 1.5 330 08:40 08.08.2019
4004 Clouds 24 1011 83 10000 2.1 320 08:20 08.08.2019
4005 Clouds 23 1011 83 10000 1 0 07:42 08.08.2019
4006 Clouds 23 1011 83 10000 1 300 07:20 08.08.2019
4007 Clouds 23 1011 83 10000 1 300 06:56 08.08.2019
4008 Clouds 23 1011 83 10000 1.5 320 06:38 08.08.2019
4009 Clouds 24 1011 83 10000 1.5 260 05:54 08.08.2019
4010 Clouds 24 1011 83 10000 3.6 250 05:20 08.08.2019
4011 Clouds 25 1011 83 10000 2.6 230 03:54 08.08.2019
4012 Clouds 24 1012 83 10000 1 0 03:35 08.08.2019
4013 Clouds 25 1011 74 10000 1.5 340 01:39 08.08.2019
4014 Clouds 25 1012 74 10000 1.5 300 00:45 08.08.2019
4015 Clouds 25 1012 74 10000 0.76 251.398 00:18 08.08.2019
4016 Clouds 25 1012 74 10000 1 0 23:22 07.08.2019
4017 Clouds 25 1012 74 10000 1 0 22:59 07.08.2019
4018 Clouds 25 1011 74 10000 1.5 90 22:41 07.08.2019
4019 Clouds 25 1011 74 10000 2.1 100 22:20 07.08.2019
4020 Clouds 25 1011 74 10000 2.1 100 21:56 07.08.2019
4021 Clouds 25 1011 74 10000 1 0 21:38 07.08.2019
4022 Clouds 26 1011 74 10000 1 0 21:38 07.08.2019
4023 Clouds 26 1011 74 10000 2.6 120 21:20 07.08.2019
4024 Clouds 26 1011 74 10000 2.6 120 20:57 07.08.2019
4025 Clouds 26 1011 78 10000 2.6 120 20:38 07.08.2019
4026 Clouds 26 1011 83 10000 3.1 120 20:19 07.08.2019
4027 Clouds 26 1011 78 10000 3.1 120 19:55 07.08.2019
4028 Clouds 27 1011 74 10000 3.1 120 19:36 07.08.2019
4029 Clouds 27 1011 74 10000 3.1 120 19:18 07.08.2019
4030 Clouds 27 1011 78 10000 3.1 120 18:40 07.08.2019
4031 Clouds 27 1011 74 10000 3.6 110 18:19 07.08.2019
4032 Clouds 27 1011 78 10000 4.1 110 17:55 07.08.2019
4033 Clouds 27 1011 78 10000 4.1 110 17:37 07.08.2019
4034 Clouds 27 1011 74 10000 4.1 110 17:18 07.08.2019
4035 Clouds 28 1011 74 10000 4.1 110 16:56 07.08.2019
4036 Clouds 28 1011 74 10000 4.6 120 16:37 07.08.2019
4037 Clouds 28 1011 74 10000 4.6 120 16:37 07.08.2019
4038 Clouds 28 1011 74 10000 4.6 120 16:19 07.08.2019
4039 Clouds 28 1011 69 10000 4.6 130 15:43 07.08.2019
4040 Clouds 28 1011 69 10000 4.6 130 15:21 07.08.2019
4041 Clouds 29 1011 74 10000 4.6 120 14:50 07.08.2019
4042 Clouds 29 1011 74 10000 5.1 120 14:31 07.08.2019
4043 Clouds 29 1011 74 10000 5.1 110 13:59 07.08.2019
4044 Clouds 29 1011 74 10000 5.1 110 13:40 07.08.2019
4045 Clouds 29 1011 74 10000 5.7 120 13:19 07.08.2019
4046 Clouds 29 1011 74 10000 5.1 100 12:57 07.08.2019
4047 Clouds 29 1011 74 10000 5.1 100 12:38 07.08.2019
4048 Clouds 28 1011 78 10000 4.6 90 12:19 07.08.2019
4049 Clouds 28 1011 78 10000 4.6 90 11:58 07.08.2019
4050 Clouds 28 1011 78 10000 5.1 90 11:40 07.08.2019
4051 Clouds 28 1011 78 10000 4.1 70 11:18 07.08.2019
4052 Clouds 27 1010 78 10000 4.1 70 10:41 07.08.2019
4053 Clouds 27 1010 78 10000 3.1 80 10:20 07.08.2019
4054 Clouds 26 1010 83 10000 3.1 80 09:59 07.08.2019
4055 Clouds 26 1010 83 10000 3.1 80 09:40 07.08.2019
4056 Clouds 25 1009 83 9000 3.6 60 09:20 07.08.2019
4057 Clouds 25 1009 83 9000 3.6 60 08:45 07.08.2019
4058 Clouds 25 1009 83 9000 3.1 70 08:25 07.08.2019
4059 Clouds 24 1009 83 9000 3.1 60 07:51 07.08.2019
4060 Clouds 24 1009 83 9000 3.1 60 07:31 07.08.2019
4061 Clouds 24 1009 88 10000 4.1 60 06:48 07.08.2019
4062 Clouds 24 1009 88 10000 3.6 70 06:26 07.08.2019
4063 Clouds 24 1009 88 10000 2.1 90 05:43 07.08.2019
4064 Clouds 25 1009 88 10000 3.6 80 04:41 07.08.2019
4065 Clouds 25 1011 88 10000 1 100 03:20 07.08.2019
4066 Clouds 25 1011 88 10000 1 0 02:42 07.08.2019
4067 Clouds 25 1011 83 10000 1 0 01:53 07.08.2019
4068 Clouds 25 1010 88 10000 1.5 90 01:23 07.08.2019
4069 Clouds 25 1010 78 10000 1 100 00:38 07.08.2019
4070 Clouds 25 1010 88 10000 1 90 00:19 07.08.2019
4071 Clouds 26 1010 83 10000 0.5 0 23:40 06.08.2019
4072 Clouds 26 1010 83 10000 1.5 210 23:20 06.08.2019
4073 Clouds 26 1009 78 10000 2.1 210 22:42 06.08.2019
4074 Clouds 26 1009 78 10000 2.6 210 22:22 06.08.2019
4075 Clouds 26 1009 78 10000 2.6 210 21:59 06.08.2019
4076 Clouds 27 1009 78 10000 3.1 220 21:40 06.08.2019
4077 Clouds 27 1009 78 10000 3.6 230 21:20 06.08.2019
4078 Clouds 27 1009 78 10000 3.6 230 21:19 06.08.2019
4079 Clouds 27 1009 78 10000 3.6 230 21:19 06.08.2019
4080 Clouds 28 1009 74 10000 4.6 220 20:47 06.08.2019
4081 Clouds 28 1009 74 10000 4.6 220 20:29 06.08.2019
4082 Clouds 28 1009 74 10000 3.1 210 19:58 06.08.2019
4083 Clouds 29 1010 74 10000 3.1 190 19:38 06.08.2019
4084 Clouds 29 1010 74 10000 3.6 170 19:19 06.08.2019
4085 Clouds 29 1010 74 10000 3.6 160 18:43 06.08.2019
4086 Clouds 30 1010 74 10000 3.6 160 18:25 06.08.2019
4087 Clouds 31 1010 74 10000 3.6 170 17:58 06.08.2019
4088 Clouds 31 1011 74 10000 3.6 170 17:38 06.08.2019
4089 Clouds 32 1011 70 10000 4.1 140 17:20 06.08.2019
4090 Clouds 31 1011 74 10000 4.6 140 16:54 06.08.2019
4091 Clouds 31 1011 74 10000 4.6 140 16:36 06.08.2019
4092 Clouds 31 1011 70 10000 3.6 140 16:18 06.08.2019
4093 Clouds 31 1012 74 10000 4.1 140 15:56 06.08.2019
4094 Clouds 31 1012 74 10000 4.1 140 15:37 06.08.2019
4095 Clouds 31 1012 70 10000 3.6 130 15:18 06.08.2019
4096 Clouds 31 1012 70 10000 3.6 130 14:40 06.08.2019
4097 Clouds 31 1013 66 10000 2.1 70 14:22 06.08.2019
4098 Clouds 30 1013 74 10000 2.6 110 13:57 06.08.2019
4099 Clouds 30 1013 74 10000 2.6 110 13:38 06.08.2019
4100 Clouds 30 1013 74 10000 2.6 100 13:19 06.08.2019
4101 Clouds 29 1013 78 10000 4.1 70 12:42 06.08.2019
4102 Clouds 29 1013 78 10000 4.1 70 12:24 06.08.2019
4103 Clouds 28 1013 78 10000 4.1 70 11:59 06.08.2019
4104 Clouds 28 1013 78 10000 4.6 90 11:40 06.08.2019
4105 Clouds 28 1013 74 10000 4.6 80 11:18 06.08.2019
4106 Clouds 27 1012 69 10000 4.1 70 10:41 06.08.2019
4107 Clouds 27 1012 65 10000 4.1 50 10:22 06.08.2019
4108 Clouds 26 1012 65 10000 4.6 40 09:48 06.08.2019
4109 Clouds 25 1012 65 10000 3.1 20 09:24 06.08.2019
4110 Clouds 24 1012 65 10000 3.1 20 08:57 06.08.2019
4111 Clouds 24 1012 73 10000 2.1 340 08:38 06.08.2019
4112 Clouds 23 1012 73 10000 2.1 340 08:20 06.08.2019
4113 Clouds 22 1013 78 10000 2.6 340 07:36 06.08.2019
4114 Clouds 22 1013 73 10000 2.1 330 06:51 06.08.2019
4115 Clouds 22 1013 73 10000 2.1 330 06:29 06.08.2019
4116 Clouds 22 1013 73 10000 2.1 330 05:47 06.08.2019
4117 Clear 24 1013 69 10000 1.5 80 02:59 06.08.2019
4118 Clear 24 1013 78 10000 2.1 70 01:51 06.08.2019
4119 Clear 24 1013 74 10000 1 80 01:22 06.08.2019
4120 Clear 25 1013 74 10000 1.5 70 00:29 06.08.2019
4121 Clear 25 1013 74 10000 1.5 30 23:44 05.08.2019
4122 Clear 26 1013 69 10000 0.5 0 23:18 05.08.2019
4123 Clear 26 1013 69 10000 1 0 22:40 05.08.2019
4124 Clear 26 1012 74 10000 2.1 120 22:22 05.08.2019
4125 Clear 27 1012 65 10000 2.1 120 21:54 05.08.2019
4126 Clear 27 1012 65 10000 2.1 120 21:36 05.08.2019
4127 Clear 27 1012 65 10000 2.1 110 21:18 05.08.2019
4128 Clear 28 1012 65 10000 2.1 110 20:54 05.08.2019
4129 Clear 29 1012 65 10000 2.1 120 20:36 05.08.2019
4130 Clear 29 1012 51 10000 1.5 130 20:18 05.08.2019
4131 Clear 30 1013 66 10000 2.6 200 19:40 05.08.2019
4132 Clear 30 1013 62 10000 3.1 210 19:21 05.08.2019
4133 Clear 31 1013 62 10000 2.6 190 18:45 05.08.2019
4134 Clear 31 1013 54 10000 3.6 210 18:22 05.08.2019
4135 Clear 31 1013 58 10000 3.6 200 17:58 05.08.2019
4136 Clear 31 1013 54 10000 3.6 210 17:58 05.08.2019
4137 Clear 32 1013 58 10000 3.6 200 17:40 05.08.2019
4138 Clear 31 1014 51 10000 4.1 190 17:22 05.08.2019
4139 Clear 32 1014 48 10000 4.1 200 16:46 05.08.2019
4140 Clear 32 1014 51 10000 4.1 200 16:25 05.08.2019
4141 Clear 32 1014 55 10000 4.6 210 15:45 05.08.2019
4142 Clear 32 1014 54 10000 4.6 200 15:22 05.08.2019
4143 Clear 32 1014 51 10000 4.6 200 14:58 05.08.2019
4144 Clear 32 1014 51 10000 4.6 200 14:38 05.08.2019
4145 Clear 32 1015 48 10000 4.6 200 14:19 05.08.2019
4146 Clear 32 1015 48 10000 3.6 180 13:41 05.08.2019
4147 Clear 32 1015 48 10000 3.6 190 13:21 05.08.2019
4148 Clouds 32 1015 45 10000 3.1 160 12:45 05.08.2019
4149 Clouds 31 1015 45 10000 0.5 220 12:20 05.08.2019
4150 Clouds 31 1015 54 10000 0.5 280 11:46 05.08.2019
4151 Clouds 30 1015 54 10000 0.5 280 11:27 05.08.2019
4152 Clouds 29 1015 51 10000 2.1 320 10:51 05.08.2019
4153 Clouds 28 1015 51 10000 2.1 320 10:33 05.08.2019
4154 Clear 27 1015 53 10000 4.1 330 09:59 05.08.2019
4155 Clear 27 1015 53 10000 4.1 330 09:40 05.08.2019
4156 Clouds 25 1015 57 10000 3.6 320 09:21 05.08.2019
4157 Clouds 24 1015 60 10000 4.1 320 08:47 05.08.2019
4158 Clouds 22 1015 60 10000 4.1 330 08:25 05.08.2019
4159 Clouds 22 1014 64 10000 3.6 330 07:54 05.08.2019
4160 Clouds 22 1014 64 10000 3.6 330 07:31 05.08.2019
4161 Clouds 22 1014 60 10000 3.1 320 06:59 05.08.2019
4162 Clouds 22 1014 56 10000 3.6 320 06:29 05.08.2019
4163 Clouds 22 1014 56 10000 3.6 330 05:41 05.08.2019
4164 Clouds 22 1015 60 10000 1.5 340 04:56 05.08.2019
4165 Clouds 23 1015 60 10000 2.6 320 03:58 05.08.2019
4166 Clouds 23 1015 73 10000 1.5 320 03:20 05.08.2019
4167 Clouds 23 1015 73 10000 2.1 280 02:26 05.08.2019
4168 Clouds 24 1015 88 10000 2.6 220 01:32 05.08.2019
4169 Clear 25 1014 88 10000 2.6 200 00:41 05.08.2019
4170 Clear 25 1014 83 10000 1 0 00:21 05.08.2019
4171 Clear 25 1014 83 10000 1 0 23:55 04.08.2019
4172 Clear 25 1014 83 10000 1.5 190 23:36 04.08.2019
4173 Clear 26 1014 83 10000 2.1 210 23:18 04.08.2019
4174 Clear 26 1014 83 10000 2.6 210 22:54 04.08.2019
4175 Clear 26 1014 83 10000 2.6 210 22:36 04.08.2019
4176 Clear 26 1013 83 10000 3.6 210 22:18 04.08.2019
4177 Clear 27 1013 78 10000 3.1 200 21:41 04.08.2019
4178 Clear 27 1013 78 10000 3.1 210 21:20 04.08.2019
4179 Clear 28 1013 78 10000 3.1 210 20:43 04.08.2019
4180 Clear 29 1013 74 10000 3.1 220 20:19 04.08.2019
4181 Clear 29 1013 74 10000 3.1 220 19:57 04.08.2019
4182 Clear 29 1013 69 10000 4.6 230 19:37 04.08.2019
4183 Clear 30 1014 66 10000 4.1 220 19:19 04.08.2019
4184 Clear 29 1014 74 10000 6.2 210 18:42 04.08.2019
4185 Clear 30 1014 69 10000 6.2 210 18:20 04.08.2019
4186 Clear 30 1014 69 10000 6.2 210 18:20 04.08.2019
4187 Clear 30 1014 69 10000 6.7 220 17:45 04.08.2019
4188 Clouds 30 1014 74 10000 6.2 210 17:25 04.08.2019
4189 Clouds 31 1014 74 10000 6.7 210 16:59 04.08.2019
4190 Clouds 31 1014 74 10000 6.7 210 16:38 04.08.2019
4191 Clouds 31 1014 74 10000 5.1 210 16:19 04.08.2019
4192 Clouds 31 1014 70 10000 5.1 200 15:42 04.08.2019
4193 Clouds 31 1014 74 10000 5.7 190 15:21 04.08.2019
4194 Clouds 31 1014 69 10000 6.2 210 14:45 04.08.2019
4195 Clouds 31 1014 74 10000 6.2 190 14:26 04.08.2019
4196 Clouds 31 1014 74 10000 5.1 190 13:47 04.08.2019
4197 Clouds 31 1014 74 10000 5.1 190 13:28 04.08.2019
4198 Clear 31 1015 33 10000 2.1 210 12:59 04.08.2019
4199 Clear 31 1015 33 10000 2.1 210 12:40 04.08.2019
4200 Clear 30 1014 69 10000 3.6 200 12:22 04.08.2019
4201 Clear 29 1014 69 10000 3.1 200 11:55 04.08.2019
4202 Clear 29 1014 69 10000 3.1 200 11:36 04.08.2019
4203 Clear 29 1014 65 10000 2.6 220 11:18 04.08.2019
4204 Clear 28 1014 65 10000 1.5 0 10:40 04.08.2019
4205 Clear 27 1014 61 10000 2.6 320 10:19 04.08.2019
4206 Clouds 26 1014 61 10000 3.1 330 09:42 04.08.2019
4207 Clouds 25 1014 64 10000 3.6 320 09:21 04.08.2019
4208 Clouds 23 1014 64 10000 4.1 330 08:41 04.08.2019
4209 Clouds 23 1014 69 10000 3.1 330 08:20 04.08.2019
4210 Clouds 22 1014 73 10000 3.1 330 07:48 04.08.2019
4211 Clouds 22 1014 78 10000 3.1 340 06:47 04.08.2019
4212 Clouds 22 1014 78 10000 3.1 320 06:24 04.08.2019
4213 Clear 22 1014 73 10000 1 0 03:44 04.08.2019
4214 Clear 23 1014 73 10000 1.5 290 02:22 04.08.2019
4215 Clouds 23 1014 69 10000 1.5 290 01:33 04.08.2019
4216 Clouds 24 1014 74 10000 2.1 220 00:45 04.08.2019
4217 Clouds 25 1014 74 10000 2.6 250 00:26 04.08.2019
4218 Clouds 25 1014 74 10000 2.6 250 23:57 03.08.2019
4219 Clouds 25 1014 74 10000 2.6 230 23:39 03.08.2019
4220 Clear 25 1014 74 10000 2.6 250 23:18 03.08.2019
4221 Clear 26 1013 69 10000 3.1 230 22:43 03.08.2019
4222 Clear 26 1013 69 10000 4.1 240 22:20 03.08.2019
4223 Clear 27 1013 74 10000 4.6 230 21:40 03.08.2019
4224 Clear 27 1012 69 10000 3.6 220 21:22 03.08.2019
4225 Clear 27 1013 69 10000 4.1 220 20:46 03.08.2019
4226 Clear 28 1013 69 10000 4.1 220 20:27 03.08.2019
4227 Clear 28 1013 69 10000 4.1 210 19:58 03.08.2019
4228 Clear 28 1013 69 10000 4.6 210 19:40 03.08.2019
4229 Clear 29 1013 74 10000 4.6 200 19:21 03.08.2019
4230 Clear 29 1013 69 10000 5.7 200 18:46 03.08.2019
4231 Clear 29 1013 69 10000 5.7 200 18:46 03.08.2019
4232 Clear 30 1014 69 10000 5.7 190 18:26 03.08.2019
4233 Clear 30 1014 69 10000 6.2 190 17:47 03.08.2019
4234 Clear 30 1014 65 10000 6.2 200 17:21 03.08.2019
4235 Clear 31 1014 65 10000 6.2 210 16:55 03.08.2019
4236 Clear 31 1014 65 10000 6.2 210 16:37 03.08.2019
4237 Clear 31 1015 65 10000 6.7 210 16:18 03.08.2019
4238 Clear 31 1015 58 10000 7.2 210 15:42 03.08.2019
4239 Clear 31 1015 58 10000 7.2 210 15:20 03.08.2019
4240 Clear 31 1015 51 10000 6.7 200 14:38 03.08.2019
4241 Clear 31 1015 48 10000 5.7 190 14:19 03.08.2019
4242 Clear 31 1015 29 10000 3.1 160 13:50 03.08.2019
4243 Clear 31 1015 29 10000 1.5 150 13:24 03.08.2019
4244 Clear 31 1015 51 10000 5.1 190 12:57 03.08.2019
4245 Clear 31 1015 48 10000 4.1 190 12:38 03.08.2019
4246 Clear 30 1015 42 10000 2.6 210 12:20 03.08.2019
4247 Clear 30 1015 37 10000 2.1 210 11:47 03.08.2019
4248 Clear 29 1015 45 10000 1 260 11:25 03.08.2019
4249 Clear 28 1015 47 10000 2.6 320 10:40 03.08.2019
4250 Clear 27 1015 50 10000 3.1 330 10:21 03.08.2019
4251 Clear 26 1015 53 10000 3.6 320 09:39 03.08.2019
4252 Clear 24 1015 57 10000 4.1 320 09:19 03.08.2019
4253 Clear 23 1015 60 10000 3.6 320 08:46 03.08.2019
4254 Clear 21 1014 60 10000 4.1 330 07:47 03.08.2019
4255 Clear 21 1014 60 10000 4.1 330 07:28 03.08.2019
4256 Clear 21 1014 64 10000 4.1 310 06:22 03.08.2019
4257 Clear 22 1015 64 10000 4.6 320 03:58 03.08.2019
4258 Clear 23 1015 64 10000 4.1 320 02:28 03.08.2019
4259 Clear 23 1015 69 10000 2.6 310 01:22 03.08.2019
4260 Clear 23 1015 65 10000 1.5 320 00:33 03.08.2019
4261 Clear 24 1015 69 10000 2.1 270 23:57 02.08.2019
4262 Clear 24 1015 69 10000 2.1 270 23:57 02.08.2019
4263 Clear 24 1015 61 10000 1.5 210 23:37 02.08.2019
4264 Clear 25 1015 69 10000 2.1 210 23:18 02.08.2019
4265 Clear 25 1015 65 10000 3.1 210 22:54 02.08.2019
4266 Clear 25 1015 65 10000 3.1 210 22:36 02.08.2019
4267 Clear 25 1014 61 10000 3.1 210 22:18 02.08.2019
4268 Clear 26 1014 61 10000 2.6 200 21:41 02.08.2019
4269 Clear 26 1014 54 10000 3.6 210 21:22 02.08.2019
4270 Clear 27 1014 57 10000 3.6 200 20:45 02.08.2019
4271 Clear 27 1014 57 10000 3.6 200 20:27 02.08.2019
4272 Clear 28 1014 54 10000 5.1 210 19:56 02.08.2019
4273 Clear 28 1014 54 10000 5.1 210 19:34 02.08.2019
4274 Clear 29 1014 51 10000 5.1 210 18:57 02.08.2019
4275 Clear 29 1015 51 10000 6.2 200 18:39 02.08.2019
4276 Clear 29 1015 51 10000 5.7 210 18:20 02.08.2019
4277 Clear 29 1015 51 10000 6.2 210 17:42 02.08.2019
4278 Clear 30 1015 48 10000 6.7 210 17:22 02.08.2019
4279 Clear 30 1015 45 10000 7.2 210 16:40 02.08.2019
4280 Clear 30 1015 45 10000 7.2 210 16:40 02.08.2019
4281 Clear 30 1015 45 10000 7.2 220 16:21 02.08.2019
4282 Clear 30 1014 48 10000 7.2 220 15:58 02.08.2019
4283 Clear 31 1014 48 10000 7.2 220 15:38 02.08.2019
4284 Clear 31 1014 51 10000 6.2 210 15:18 02.08.2019
4285 Clear 31 1014 42 10000 6.2 210 14:45 02.08.2019
4286 Clear 31 1014 39 10000 6.2 210 14:18 02.08.2019
4287 Clear 31 1014 39 10000 4.6 190 13:47 02.08.2019
4288 Clear 31 1014 39 10000 4.6 190 13:23 02.08.2019
4289 Clear 31 1014 42 10000 4.1 220 12:44 02.08.2019
4290 Clear 30 1014 37 10000 1.5 280 12:21 02.08.2019
4291 Clear 30 1014 37 10000 2.6 310 11:46 02.08.2019
4292 Clear 29 1014 42 10000 3.1 320 11:26 02.08.2019
4293 Clear 28 1014 42 10000 3.1 320 10:55 02.08.2019
4294 Clear 28 1014 44 10000 3.6 330 10:37 02.08.2019
4295 Clear 27 1014 47 10000 3.6 320 10:18 02.08.2019
4296 Clear 26 1014 53 10000 3.6 320 09:44 02.08.2019
4297 Clear 24 1014 53 10000 3.6 330 09:24 02.08.2019
4298 Clear 23 1014 56 10000 4.6 330 08:44 02.08.2019
4299 Clear 22 1014 56 10000 4.6 330 08:21 02.08.2019
4300 Clear 21 1014 56 10000 4.1 330 07:48 02.08.2019
4301 Clear 21 1014 56 10000 4.1 330 07:28 02.08.2019
4302 Clear 21 1013 56 10000 4.6 330 06:44 02.08.2019
4303 Clear 21 1013 56 10000 3.6 330 05:50 02.08.2019
4304 Clear 22 1014 56 10000 3.6 330 04:19 02.08.2019
4305 Clear 22 1013 60 10000 3.6 320 03:25 02.08.2019
4306 Clear 22 1013 53 10000 3.1 70 01:46 02.08.2019
4307 Clear 23 1014 57 10000 2.6 80 00:35 02.08.2019
4308 Clear 23 1013 57 10000 2.1 80 23:46 01.08.2019
4309 Clear 24 1013 57 10000 2.1 80 23:28 01.08.2019
4310 Clear 24 1012 54 10000 4.1 60 22:56 01.08.2019
4311 Clear 24 1012 54 10000 4.1 60 22:37 01.08.2019
4312 Clear 25 1012 54 10000 5.1 60 22:19 01.08.2019
4313 Clear 25 1011 54 10000 5.7 70 21:43 01.08.2019
4314 Clear 26 1011 51 10000 6.2 70 21:23 01.08.2019
4315 Clouds 26 1012 51 10000 5.1 80 20:48 01.08.2019
4316 Clouds 27 1012 47 10000 5.1 80 20:24 01.08.2019
4317 Clouds 27 1012 47 10000 5.1 80 20:00 01.08.2019
4318 Clouds 27 1012 47 10000 5.1 80 19:40 01.08.2019
4319 Clouds 27 1012 47 10000 5.1 100 19:19 01.08.2019
4320 Clouds 27 1013 51 10000 5.7 90 18:44 01.08.2019
4321 Clouds 28 1013 57 10000 5.7 90 18:24 01.08.2019
4322 Clouds 28 1013 54 10000 6.7 90 17:51 01.08.2019
4323 Clouds 29 1013 54 10000 6.7 90 17:32 01.08.2019
4324 Clouds 29 1013 39 10000 6.2 90 16:57 01.08.2019
4325 Clouds 29 1013 39 10000 6.2 90 16:39 01.08.2019
4326 Clouds 29 1012 30 10000 7.2 80 16:19 01.08.2019
4327 Clouds 30 1013 35 10000 6.7 90 15:41 01.08.2019
4328 Clouds 30 1013 30 10000 7.2 90 15:19 01.08.2019
4329 Clear 30 1013 30 10000 6.7 90 14:42 01.08.2019
4330 Clear 29 1014 35 10000 6.7 80 14:19 01.08.2019
4331 Clear 30 1014 35 10000 6.7 80 13:58 01.08.2019
4332 Clear 29 1014 37 10000 7.7 80 13:39 01.08.2019
4333 Clear 29 1014 37 10000 6.7 80 13:20 01.08.2019
4334 Clear 29 1014 39 10000 7.2 80 12:46 01.08.2019
4335 Clear 28 1015 47 10000 6.7 70 12:27 01.08.2019
4336 Clear 28 1014 47 10000 6.7 70 11:43 01.08.2019
4337 Clear 27 1014 47 10000 6.7 70 11:24 01.08.2019
4338 Clear 26 1014 50 10000 6.2 70 10:56 01.08.2019
4339 Clear 26 1014 50 10000 6.2 70 10:38 01.08.2019
4340 Clear 26 1013 54 10000 6.7 80 10:20 01.08.2019
4341 Clear 25 1013 65 10000 4.1 50 09:44 01.08.2019
4342 Clear 24 1013 73 10000 3.1 0 09:23 01.08.2019
4343 Clear 22 1013 78 10000 2.1 320 08:47 01.08.2019
4344 Clear 22 1013 73 10000 2.6 320 08:21 01.08.2019
4345 Clouds 21 1013 78 10000 3.1 330 07:52 01.08.2019
4346 Clouds 21 1013 78 10000 3.1 330 07:52 01.08.2019
4347 Clouds 21 1013 78 10000 3.1 330 07:28 01.08.2019
4348 Clouds 21 1014 78 10000 2.6 330 06:49 01.08.2019
4349 Clouds 21 1014 78 10000 2.6 330 06:29 01.08.2019
4350 Clouds 21 1014 78 10000 4.6 330 05:31 01.08.2019
4351 Clouds 22 1016 73 10000 2.1 330 02:35 01.08.2019
4352 Clouds 22 1016 69 10000 1 0 00:51 01.08.2019
4353 Clouds 22 1016 69 10000 2.1 70 00:26 01.08.2019
4354 Clouds 22 1016 69 10000 2.1 70 23:57 31.07.2019
4355 Clouds 23 1016 69 10000 2.1 70 23:39 31.07.2019
4356 Clouds 23 1016 69 10000 2.1 80 23:19 31.07.2019
4357 Clouds 23 1016 69 10000 1 0 22:44 31.07.2019
4358 Clouds 23 1016 65 10000 1.5 120 22:24 31.07.2019
4359 Clouds 24 1016 65 10000 1.5 130 21:41 31.07.2019
4360 Clouds 24 1016 65 10000 1.5 120 21:22 31.07.2019
4361 Clouds 24 1016 65 10000 2.1 150 20:49 31.07.2019
4362 Clouds 25 1016 65 10000 2.6 140 20:24 31.07.2019
4363 Clouds 25 1016 65 10000 2.6 120 19:49 31.07.2019
4364 Clouds 26 1016 65 10000 2.6 120 19:31 31.07.2019
4365 Clouds 26 1016 61 10000 3.6 150 18:58 31.07.2019
4366 Clouds 26 1016 61 10000 3.6 150 18:39 31.07.2019
4367 Clouds 26 1017 61 10000 4.1 130 18:18 31.07.2019
4368 Clouds 26 1017 57 10000 4.1 130 17:45 31.07.2019
4369 Clouds 26 1017 61 10000 4.6 130 17:20 31.07.2019
4370 Clouds 27 1017 61 10000 4.6 120 16:54 31.07.2019
4371 Clouds 27 1017 61 10000 4.6 120 16:33 31.07.2019
4372 Clouds 27 1018 61 10000 4.6 130 15:58 31.07.2019
4373 Clouds 27 1018 61 10000 4.6 130 15:38 31.07.2019
4374 Clouds 27 1018 61 10000 5.1 130 15:20 31.07.2019
4375 Clouds 26 1018 61 10000 4.6 120 14:42 31.07.2019
4376 Clouds 26 1018 61 10000 5.1 120 14:20 31.07.2019
4377 Clouds 26 1018 65 10000 5.7 120 13:55 31.07.2019
4378 Clouds 26 1018 65 10000 5.7 120 13:37 31.07.2019
4379 Clouds 26 1018 61 10000 4.6 130 13:18 31.07.2019
4380 Clouds 26 1018 57 10000 5.7 90 12:40 31.07.2019
4381 Clouds 25 1017 61 10000 5.7 90 12:22 31.07.2019
4382 Clouds 25 1018 57 10000 4.1 90 11:40 31.07.2019
4383 Clouds 25 1018 47 10000 1.5 330 11:21 31.07.2019
4384 Clouds 25 1018 47 10000 1.5 330 10:56 31.07.2019
4385 Clouds 24 1018 47 10000 1.5 330 10:38 31.07.2019
4386 Clouds 24 1018 50 10000 2.6 320 10:19 31.07.2019
4387 Clouds 23 1018 50 10000 2.1 330 09:42 31.07.2019
4388 Clouds 23 1018 50 10000 2.1 350 09:23 31.07.2019
4389 Clouds 23 1018 53 10000 3.1 320 08:43 31.07.2019
4390 Clouds 22 1017 73 10000 1.5 313.053 08:24 31.07.2019
4391 Clouds 22 1017 73 10000 1 0 07:48 31.07.2019
4392 Rain 22 1017 73 10000 1 0 07:30 31.07.2019
4393 Clouds 23 1016 73 10000 1 310 05:23 31.07.2019
4394 Clouds 23 1017 65 10000 2.19 251.921 03:56 31.07.2019
4395 Clouds 24 1017 65 10000 2.6 140 00:38 31.07.2019
4396 Clouds 24 1017 73 10000 3.1 130 23:51 30.07.2019
4397 Clouds 24 1017 69 10000 3.1 120 23:29 30.07.2019
4398 Clouds 24 1016 69 10000 3.1 120 22:49 30.07.2019
4399 Clouds 24 1016 69 10000 2.6 130 22:26 30.07.2019
4400 Clouds 25 1015 74 10000 2.6 120 21:59 30.07.2019
4401 Clouds 25 1015 74 10000 2.6 120 21:37 30.07.2019
4402 Clouds 25 1015 69 10000 2.6 140 21:19 30.07.2019
4403 Clouds 25 1015 69 10000 2.6 140 20:56 30.07.2019
4404 Clouds 26 1015 69 10000 3.1 140 20:37 30.07.2019
4405 Clouds 26 1015 69 10000 3.1 150 20:18 30.07.2019
4406 Clouds 26 1014 65 10000 4.1 160 19:44 30.07.2019
4407 Clouds 26 1014 65 10000 4.1 160 19:26 30.07.2019
4408 Clouds 27 1014 65 10000 4.6 170 18:48 30.07.2019
4409 Clouds 28 1014 65 10000 5.1 150 18:23 30.07.2019
4410 Clouds 28 1014 65 10000 5.1 150 17:58 30.07.2019
4411 Clouds 28 1014 61 10000 6.2 170 17:39 30.07.2019
4412 Clouds 28 1014 69 10000 6.7 160 17:18 30.07.2019
4413 Clouds 28 1014 69 10000 6.7 170 16:41 30.07.2019
4414 Clouds 28 1014 65 10000 6.2 170 16:19 30.07.2019
4415 Clouds 29 1015 65 10000 5.1 190 15:39 30.07.2019
4416 Clouds 29 1015 65 10000 4.1 190 15:19 30.07.2019
4417 Clouds 29 1015 65 10000 4.1 190 15:19 30.07.2019
4418 Clouds 29 1015 65 10000 4.6 180 14:43 30.07.2019
4419 Clouds 29 1015 61 10000 4.6 180 14:22 30.07.2019
4420 Clouds 29 1015 61 10000 4.6 180 13:55 30.07.2019
4421 Clouds 29 1015 65 10000 4.1 200 13:36 30.07.2019
4422 Clouds 28 1015 69 10000 5.1 190 13:18 30.07.2019
4423 Clouds 28 1015 65 10000 4.6 190 12:43 30.07.2019
4424 Clouds 28 1015 69 10000 4.6 200 12:24 30.07.2019
4425 Clouds 28 1015 69 10000 4.6 200 12:24 30.07.2019
4426 Clouds 28 1014 69 10000 3.6 190 11:46 30.07.2019
4427 Clouds 27 1014 69 10000 3.6 190 11:26 30.07.2019
4428 Clouds 27 1014 74 10000 3.1 200 10:57 30.07.2019
4429 Clouds 27 1014 74 10000 2.6 210 10:38 30.07.2019
4430 Clouds 26 1014 83 10000 1.5 250 10:20 30.07.2019
4431 Clouds 26 1014 83 10000 1.5 250 10:20 30.07.2019
4432 Clouds 26 1014 78 10000 1 0 09:48 30.07.2019
4433 Clouds 25 1014 78 10000 1.5 330 09:28 30.07.2019
4434 Clouds 24 1013 78 10000 3.1 320 08:41 30.07.2019
4435 Clouds 23 1013 83 10000 3.1 320 08:19 30.07.2019
4436 Clouds 23 1013 83 10000 2.1 330 07:43 30.07.2019
4437 Clouds 23 1013 83 10000 2.1 330 07:43 30.07.2019
4438 Clouds 23 1012 83 10000 2.1 340 07:23 30.07.2019
4439 Clouds 23 1012 83 10000 1 0 06:44 30.07.2019
4440 Clouds 23 1012 78 10000 1.5 340 05:36 30.07.2019
4441 Clouds 23 1012 78 10000 1.5 320 04:42 30.07.2019
4442 Clouds 24 1012 88 10000 1.5 240 01:30 30.07.2019
4443 Clouds 24 1011 88 10000 2.6 220 00:28 30.07.2019
4444 Clouds 24 1011 83 10000 4.1 230 23:59 29.07.2019
4445 Clouds 24 1011 83 10000 4.1 230 23:41 29.07.2019
4446 Clouds 25 1010 88 10000 3.6 230 23:22 29.07.2019
4447 Clouds 25 1010 83 10000 4.6 240 22:55 29.07.2019
4448 Clouds 25 1010 83 10000 4.6 240 22:55 29.07.2019
4449 Clouds 25 1010 83 10000 4.6 240 22:37 29.07.2019
4450 Clouds 26 1010 83 10000 4.6 230 22:18 29.07.2019
4451 Clouds 26 1010 83 10000 5.1 230 21:42 29.07.2019
4452 Clouds 26 1010 78 10000 4.6 230 21:23 29.07.2019
4453 Clouds 27 1010 78 10000 4.6 230 20:58 29.07.2019
4454 Clouds 27 1009 78 10000 4.6 210 20:39 29.07.2019
4455 Clouds 27 1009 78 10000 5.1 220 20:19 29.07.2019
4456 Clouds 28 1009 78 10000 5.1 200 19:47 29.07.2019
4457 Clouds 28 1009 74 10000 5.1 210 19:23 29.07.2019
4458 Clouds 28 1009 74 10000 5.1 210 18:58 29.07.2019
4459 Clouds 29 1009 74 10000 5.7 220 18:40 29.07.2019
4460 Clouds 29 1010 74 10000 5.7 210 18:20 29.07.2019
4461 Clouds 30 1010 69 10000 5.7 210 17:47 29.07.2019
4462 Clouds 29 1010 69 10000 5.7 210 17:29 29.07.2019
4463 Clouds 29 1010 69 10000 6.2 210 16:55 29.07.2019
4464 Clouds 30 1010 69 10000 6.2 210 16:37 29.07.2019
4465 Clouds 30 1010 69 10000 6.2 210 16:18 29.07.2019
4466 Clouds 30 1010 66 10000 6.7 210 15:45 29.07.2019
4467 Clouds 29 1010 66 10000 6.7 210 15:27 29.07.2019
4468 Clouds 29 1010 74 10000 6.7 210 14:42 29.07.2019
4469 Clouds 29 1010 69 10000 6.2 200 14:21 29.07.2019
4470 Clouds 29 1011 69 10000 6.7 200 13:46 29.07.2019
4471 Clouds 28 1011 69 10000 5.1 170 13:24 29.07.2019
4472 Clouds 28 1011 69 10000 5.1 170 12:57 29.07.2019
4473 Clouds 28 1011 69 10000 3.6 170 12:38 29.07.2019
4474 Clouds 27 1011 69 10000 2.6 160 12:20 29.07.2019
4475 Clouds 27 1011 65 10000 2.1 140 11:41 29.07.2019
4476 Clouds 26 1011 69 10000 2.1 130 11:19 29.07.2019
4477 Clouds 25 1011 65 10000 1 0 10:43 29.07.2019
4478 Clear 25 1011 64 10000 2.6 320 10:22 29.07.2019
4479 Clear 23 1011 73 10000 3.6 330 09:44 29.07.2019
4480 Clear 22 1010 73 10000 4.6 330 09:21 29.07.2019
4481 Clear 21 1010 73 10000 4.1 330 08:49 29.07.2019
4482 Clear 20 1010 73 10000 4.1 330 08:27 29.07.2019
4483 Clouds 20 1010 77 10000 5.1 330 07:50 29.07.2019
4484 Clouds 19 1010 77 10000 5.1 330 07:30 29.07.2019
4485 Clouds 19 1010 77 10000 5.1 330 07:30 29.07.2019
4486 Clouds 19 1010 73 10000 4.1 330 06:40 29.07.2019
4487 Clouds 19 1010 73 10000 3.1 330 05:37 29.07.2019
4488 Clouds 20 1010 73 10000 1.5 330 04:23 29.07.2019
4489 Clouds 21 1011 69 10000 1.71 137.109 01:52 29.07.2019
4490 Clouds 21 1011 69 10000 1.56 115.776 01:34 29.07.2019
4491 Clouds 21 1011 64 10000 0.5 0 00:58 29.07.2019
4492 Clouds 22 1011 64 10000 0.5 100 00:30 29.07.2019
4493 Clouds 22 1011 64 10000 1.5 320 23:44 28.07.2019
4494 Clouds 23 1011 64 10000 1.5 320 23:26 28.07.2019
4495 Clouds 24 1010 64 10000 3.6 230 22:46 28.07.2019
4496 Clouds 24 1010 64 10000 3.6 230 22:28 28.07.2019
4497 Clouds 24 1010 65 10000 4.6 220 21:56 28.07.2019
4498 -273 0 0 0 0 0 21:56 28.07.2019
4499 Clouds 24 1010 65 10000 4.6 220 21:37 28.07.2019
4500 Clear 24 1009 50 10000 4.6 210 21:18 28.07.2019
4501 Clear 25 1009 51 10000 4.1 190 20:42 28.07.2019
4502 Clear 26 1009 54 10000 3.6 160 20:24 28.07.2019
4503 Clear 26 1008 47 10000 3.6 160 19:41 28.07.2019
4504 Clear 27 1008 47 10000 3.6 170 19:21 28.07.2019
4505 Clear 27 1008 47 10000 4.6 160 18:46 28.07.2019
4506 Clear 27 1008 47 10000 4.6 160 18:28 28.07.2019
4507 Clear 27 1008 50 10000 5.7 160 17:57 28.07.2019
4508 Clear 27 1008 50 10000 5.7 160 17:38 28.07.2019
4509 Clear 27 1009 50 10000 5.1 160 17:19 28.07.2019
4510 Clear 27 1009 47 10000 4.1 150 16:45 28.07.2019
4511 Clear 27 1009 47 10000 3.6 160 16:25 28.07.2019
4512 Clear 27 1009 41 10000 3.1 150 15:49 28.07.2019
4513 Clear 27 1009 41 10000 3.1 150 15:27 28.07.2019
4514 Clear 27 1009 44 10000 3.1 130 14:56 28.07.2019
4515 Clear 27 1009 50 10000 3.6 130 14:37 28.07.2019
4516 Clear 26 1009 47 10000 4.1 110 14:18 28.07.2019
4517 Clear 27 1009 47 10000 5.1 110 13:40 28.07.2019
4518 Clear 27 1009 32 10000 4.6 120 13:21 28.07.2019
4519 Clear 26 1009 32 10000 3.6 310 12:47 28.07.2019
4520 Clear 26 1009 32 10000 3.6 310 12:28 28.07.2019
4521 Clear 25 1009 44 10000 5.1 330 11:52 28.07.2019
4522 Clear 24 1009 44 10000 5.1 330 11:32 28.07.2019
4523 Clear 24 1009 47 10000 5.7 340 10:59 28.07.2019
4524 Clear 23 1008 46 10000 5.1 310 10:39 28.07.2019
4525 Clear 22 1008 46 10000 5.7 310 10:19 28.07.2019
4526 Clear 21 1008 53 10000 4.1 300 09:41 28.07.2019
4527 Clouds 20 1008 52 10000 5.1 310 09:23 28.07.2019
4528 Clouds 20 1008 56 10000 5.1 310 08:44 28.07.2019
4529 Clouds 19 1007 56 10000 2.6 320 08:26 28.07.2019
4530 Clouds 18 1007 63 10000 5.1 330 07:51 28.07.2019
4531 Clouds 18 1007 63 10000 5.1 330 07:32 28.07.2019
4532 Clear 18 1007 60 10000 3.1 330 06:38 28.07.2019
4533 Clouds 19 1006 77 10000 3.1 330 05:23 28.07.2019
4534 Clouds 20 1006 83 10000 0.5 90 03:21 28.07.2019
4535 Clouds 20 1006 78 10000 3.1 60 02:18 28.07.2019
4536 Clouds 21 1005 83 10000 4.1 90 01:18 28.07.2019
4537 Thunderstorm 21 1005 78 10000 4.1 60 00:44 28.07.2019
4538 Thunderstorm 22 1005 78 10000 3.1 140 23:56 27.07.2019
4539 Rain 22 1005 83 10000 4.1 160 23:38 27.07.2019
4540 Clouds 23 1005 83 10000 4.6 140 23:18 27.07.2019
4541 Clouds 23 1004 78 10000 2.6 140 22:40 27.07.2019
4542 Clouds 23 1004 83 10000 3.1 170 22:18 27.07.2019
4543 Clouds 23 1004 78 10000 3.1 170 21:39 27.07.2019
4544 Clouds 23 1003 78 10000 2.6 150 21:20 27.07.2019
4545 Clouds 24 1003 78 10000 2.6 150 20:50 27.07.2019
4546 Clouds 24 1003 78 10000 3.1 150 20:23 27.07.2019
4547 Clouds 24 1002 69 10000 3.6 120 19:46 27.07.2019
4548 Clouds 25 1002 73 10000 3.1 130 19:26 27.07.2019
4549 Rain 24 1003 73 10000 4.1 110 18:52 27.07.2019
4550 Rain 25 1003 73 10000 4.1 110 18:34 27.07.2019
4551 Rain 25 1003 73 10000 4.1 90 17:52 27.07.2019
4552 Clouds 26 1003 73 10000 4.1 90 17:33 27.07.2019
4553 Clouds 26 1003 73 10000 4.6 90 16:59 27.07.2019
4554 Clouds 26 1003 73 10000 4.1 100 16:40 27.07.2019
4555 Clouds 26 1004 78 10000 1 70 16:21 27.07.2019
4556 Clouds 25 1004 78 10000 2.1 20 15:48 27.07.2019
4557 Clouds 24 1004 88 10000 2.6 60 15:20 27.07.2019
4558 Rain 23 1005 94 10000 2.6 50 14:50 27.07.2019
4559 Rain 23 1005 94 10000 2.6 20 14:31 27.07.2019
4560 Rain 22 1005 94 10000 2.6 20 13:55 27.07.2019
4561 Rain 22 1005 100 4000 6.7 30 13:25 27.07.2019
4562 Rain 21 1004 78 10000 7.2 20 12:59 27.07.2019
4563 Rain 21 1004 78 10000 7.2 20 12:41 27.07.2019
4564 Thunderstorm 22 1006 83 5000 2.6 320 12:21 27.07.2019
4565 Thunderstorm 24 1005 69 10000 4.6 130 11:41 27.07.2019
4566 Rain 24 1005 74 10000 4.1 120 11:23 27.07.2019
4567 Clouds 25 1006 69 10000 3.6 100 10:42 27.07.2019
4568 Clouds 25 1005 78 10000 4.1 120 10:23 27.07.2019
4569 Clouds 25 1005 78 10000 3.1 100 09:43 27.07.2019
4570 Clouds 24 1005 74 10000 2.6 70 09:23 27.07.2019
4571 Clouds 24 1006 83 10000 2.6 50 08:52 27.07.2019
4572 Rain 23 1006 88 10000 2.6 80 08:33 27.07.2019
4573 Rain 23 1006 88 10000 2.6 80 07:57 27.07.2019
4574 Thunderstorm 23 1006 73 10000 3.1 120 07:38 27.07.2019
4575 Thunderstorm 23 1006 74 10000 3.1 100 07:18 27.07.2019
4576 Clouds 23 1006 69 10000 4.1 80 06:49 27.07.2019
4577 Clouds 23 1006 74 10000 4.1 80 06:20 27.07.2019
4578 Clouds 23 1006 78 10000 3.6 30 05:34 27.07.2019
4579 Clouds 23 1007 83 10000 3.6 50 04:38 27.07.2019
4580 Clouds 24 1007 83 10000 3.6 60 03:39 27.07.2019
4581 Clouds 24 1008 83 10000 3.6 60 02:42 27.07.2019
4582 Clouds 24 1008 83 10000 4.6 80 01:57 27.07.2019
4583 Clouds 24 1008 83 10000 4.6 80 01:32 27.07.2019
4584 Clouds 25 1008 78 10000 4.1 80 00:38 27.07.2019
4585 Clouds 25 1009 78 10000 2.1 60 00:18 27.07.2019
4586 Clouds 25 1009 78 10000 2.1 80 23:41 26.07.2019
4587 Clouds 26 1008 65 10000 3.1 50 23:23 26.07.2019
4588 Clouds 26 1008 65 10000 4.1 70 22:42 26.07.2019
4589 Rain 27 1008 61 10000 2.1 90 22:24 26.07.2019
4590 Clear 27 1008 58 10000 1.5 160 21:51 26.07.2019
4591 Clear 28 1008 69 10000 2.1 190 21:20 26.07.2019
4592 Clear 28 1008 69 10000 2.1 210 20:51 26.07.2019
4593 Clear 28 1008 69 10000 2.1 210 20:32 26.07.2019
4594 Clear 29 1007 69 10000 2.6 190 19:55 26.07.2019
4595 Clear 29 1007 69 10000 2.6 190 19:36 26.07.2019
4596 Clear 29 1008 66 10000 4.1 210 19:18 26.07.2019
4597 Clear 30 1009 62 10000 4.6 200 18:41 26.07.2019
4598 Clear 30 1009 58 10000 4.6 200 18:21 26.07.2019
4599 Clear 31 1009 58 10000 4.6 200 17:56 26.07.2019
4600 Clear 32 1009 58 10000 5.1 220 17:37 26.07.2019
4601 Clear 31 1010 58 10000 5.7 220 17:18 26.07.2019
4602 Clear 31 1010 55 10000 4.1 200 16:41 26.07.2019
4603 Clear 31 1010 52 10000 3.6 190 16:21 26.07.2019
4604 Clear 31 1010 62 10000 3.6 190 15:59 26.07.2019
4605 Clear 31 1010 62 10000 3.6 190 15:40 26.07.2019
4606 Clear 31 1010 55 10000 3.1 170 15:21 26.07.2019
4607 Clear 31 1011 54 10000 3.6 180 14:45 26.07.2019
4608 Clear 31 1011 54 10000 3.6 180 14:25 26.07.2019
4609 Clear 31 1011 66 10000 3.6 160 13:47 26.07.2019
4610 Clear 31 1011 66 10000 3.6 160 13:28 26.07.2019
4611 Clear 31 1011 62 10000 3.1 140 12:54 26.07.2019
4612 Clear 31 1011 62 10000 3.1 140 12:36 26.07.2019
4613 Clear 30 1011 62 10000 3.1 140 12:18 26.07.2019
4614 Clear 29 1011 48 10000 3.1 150 11:38 26.07.2019
4615 Clear 29 1011 54 10000 3.1 110 11:18 26.07.2019
4616 Clear 29 1011 48 10000 1 0 10:46 26.07.2019
4617 Clear 28 1012 51 10000 0.5 0 10:28 26.07.2019
4618 Clear 27 1012 57 10000 2.6 340 09:50 26.07.2019
4619 Clear 27 1012 57 10000 2.6 340 09:31 26.07.2019
4620 Clear 25 1012 64 10000 3.6 330 08:42 26.07.2019
4621 Clear 23 1012 73 10000 3.1 330 08:21 26.07.2019
4622 Clear 23 1011 73 10000 2.6 330 07:52 26.07.2019
4623 Clear 22 1011 73 10000 2.6 330 07:26 26.07.2019
4624 Clouds 23 1012 69 10000 3.6 320 06:31 26.07.2019
4625 Clouds 23 1012 57 10000 2.6 320 04:31 26.07.2019
4626 Clouds 23 1012 60 10000 3.6 320 03:55 26.07.2019
4627 Clouds 24 1013 65 10000 1.43 205.793 02:25 26.07.2019
4628 Clouds 24 1013 74 10000 0.5 230 01:31 26.07.2019
4629 Clouds 25 1013 88 10000 1 220 00:33 26.07.2019
4630 Clouds 25 1014 88 10000 2.1 210 23:55 25.07.2019
4631 Clear 26 1013 83 10000 2.6 200 23:23 25.07.2019
4632 Clear 27 1013 83 10000 1.5 200 22:55 25.07.2019
4633 Clear 27 1013 83 10000 1.5 200 22:36 25.07.2019
4634 Clear 27 1013 83 10000 1.5 200 22:18 25.07.2019
4635 Clear 27 1013 83 10000 2.1 210 21:41 25.07.2019
4636 Clear 28 1013 83 10000 2.1 190 21:20 25.07.2019
4637 Clear 29 1013 78 10000 3.1 200 20:45 25.07.2019
4638 Clear 29 1013 78 10000 2.6 210 20:22 25.07.2019
4639 Clear 29 1013 78 10000 3.1 180 19:42 25.07.2019
4640 Clouds 30 1013 74 10000 2.6 180 19:24 25.07.2019
4641 Clouds 29 1013 79 10000 3.1 160 18:46 25.07.2019
4642 Clouds 31 1013 79 10000 3.1 160 18:27 25.07.2019
4643 Clouds 31 1014 79 10000 3.6 160 17:57 25.07.2019
4644 Clouds 30 1014 79 10000 3.6 160 17:38 25.07.2019
4645 Clouds 31 1014 74 10000 3.6 170 17:20 25.07.2019
4646 Clouds 31 1014 74 10000 4.1 170 16:43 25.07.2019
4647 Clouds 31 1014 74 10000 4.1 130 16:24 25.07.2019
4648 Clouds 31 1014 74 10000 3.6 130 15:51 25.07.2019
4649 Clouds 31 1015 74 10000 4.1 130 15:21 25.07.2019
4650 Clouds 31 1015 74 10000 4.1 130 14:56 25.07.2019
4651 Clouds 31 1015 74 10000 4.1 140 14:38 25.07.2019
4652 Clouds 31 1015 78 10000 4.1 150 14:18 25.07.2019
4653 Clouds 31 1015 74 10000 4.1 150 13:40 25.07.2019
4654 Clear 31 1015 74 10000 3.6 150 13:22 25.07.2019
4655 Clear 30 1015 74 10000 3.6 140 12:35 25.07.2019
4656 Clear 30 1015 74 10000 3.6 130 11:59 25.07.2019
4657 Clear 30 1015 74 10000 3.1 130 11:40 25.07.2019
4658 Clouds 29 1015 74 10000 2.6 120 11:22 25.07.2019
4659 Clear 28 1015 69 10000 1 60 10:45 25.07.2019
4660 Clear 28 1015 69 10000 1.5 310 10:24 25.07.2019
4661 Clear 27 1015 69 10000 2.6 340 09:46 25.07.2019
4662 Clear 26 1015 69 10000 2.6 330 09:27 25.07.2019
4663 Clear 26 1015 69 10000 2.6 330 09:27 25.07.2019
4664 Clear 24 1015 73 10000 2.6 330 08:53 25.07.2019
4665 Clear 22 1015 73 10000 1.5 330 08:32 25.07.2019
4666 Clear 22 1015 73 10000 2.6 320 07:40 25.07.2019
4667 Clouds 22 1014 78 10000 3.1 330 06:46 25.07.2019
4668 Clouds 22 1014 78 10000 3.1 320 06:20 25.07.2019
4669 Clouds 22 1014 73 10000 2.6 320 05:36 25.07.2019
4670 Clouds 22 1015 78 10000 2.6 320 04:50 25.07.2019
4671 Clouds 23 1015 78 10000 1 310 03:24 25.07.2019
4672 Clouds 24 1015 83 10000 0.5 100 01:21 25.07.2019
4673 Clouds 25 1016 78 10000 1 100 00:34 25.07.2019
4674 Clear 25 1015 74 10000 1 110 23:56 24.07.2019
4675 Clear 25 1015 74 10000 1 110 23:38 24.07.2019
4676 Clear 26 1015 78 10000 1 90 23:20 24.07.2019
4677 Clear 26 1015 78 10000 1 130 22:44 24.07.2019
4678 Clouds 27 1015 83 10000 1.5 140 22:22 24.07.2019
4679 Clouds 27 1015 83 10000 1.5 200 21:55 24.07.2019
4680 Clouds 27 1015 83 10000 1.5 200 21:37 24.07.2019
4681 Clouds 28 1015 83 10000 2.6 160 21:18 24.07.2019
4682 Clouds 28 1015 78 10000 2.6 130 20:45 24.07.2019
4683 Clouds 29 1015 78 10000 2.6 150 20:26 24.07.2019
4684 Clouds 29 1015 78 10000 2.6 150 19:58 24.07.2019
4685 Clouds 29 1015 69 10000 3.1 150 19:39 24.07.2019
4686 Clouds 30 1015 70 10000 3.1 130 19:19 24.07.2019
4687 Clouds 30 1015 74 10000 3.6 120 18:43 24.07.2019
4688 Clouds 31 1015 70 10000 3.6 130 18:24 24.07.2019
4689 Clear 31 1015 66 10000 3.6 110 17:47 24.07.2019
4690 Clear 32 1016 70 10000 3.1 140 17:21 24.07.2019
4691 Clear 32 1016 70 10000 3.6 140 16:44 24.07.2019
4692 Clear 32 1016 70 10000 4.1 160 16:23 24.07.2019
4693 Clouds 32 1016 74 10000 4.1 150 15:59 24.07.2019
4694 Clouds 31 1016 74 10000 4.1 150 15:37 24.07.2019
4695 Clouds 32 1016 78 10000 4.1 130 15:19 24.07.2019
4696 Clouds 31 1016 78 10000 4.1 120 14:44 24.07.2019
4697 Clear 31 1016 74 10000 4.6 110 14:20 24.07.2019
4698 Clear 32 1016 74 10000 4.6 110 13:40 24.07.2019
4699 Clear 32 1016 70 10000 4.1 140 13:19 24.07.2019
4700 Clear 31 1016 70 10000 4.1 120 12:52 24.07.2019
4701 Clear 31 1016 70 10000 4.1 120 12:34 24.07.2019
4702 Clear 30 1016 62 10000 3.1 110 11:41 24.07.2019
4703 Clear 29 1016 66 10000 3.1 90 11:21 24.07.2019
4704 Clear 29 1016 61 10000 1 360 10:49 24.07.2019
4705 Clear 28 1017 61 10000 1 0 10:27 24.07.2019
4706 Clear 27 1017 61 10000 1 0 09:59 24.07.2019
4707 Clear 27 1016 61 10000 1.5 360 09:41 24.07.2019
4708 Clear 25 1016 57 10000 3.1 330 09:21 24.07.2019
4709 Clear 24 1016 57 10000 3.6 330 08:42 24.07.2019
4710 Clouds 23 1016 64 10000 2.1 350 07:52 24.07.2019
4711 Clouds 23 1016 64 10000 2.1 350 07:31 24.07.2019
4712 Clouds 22 1016 69 10000 3.1 330 06:56 24.07.2019
4713 Clouds 22 1016 69 10000 3.1 330 06:28 24.07.2019
4714 Clouds 23 1016 73 10000 2.1 320 04:56 24.07.2019
4715 Clear 24 1017 94 10000 1.29 221.186 01:48 24.07.2019
4716 Clear 25 1016 88 10000 0.5 0 00:58 24.07.2019
4717 Clear 25 1017 83 10000 1 170 00:30 24.07.2019
4718 Clear 25 1017 83 10000 1 90 23:52 23.07.2019
4719 Clear 26 1016 83 10000 1 0 23:26 23.07.2019
4720 Clear 26 1016 83 10000 1 0 22:59 23.07.2019
4721 Clear 27 1016 83 10000 1 0 22:38 23.07.2019
4722 Clear 27 1016 83 10000 1.5 140 22:18 23.07.2019
4723 Clear 27 1016 78 10000 2.6 150 21:45 23.07.2019
4724 Clear 28 1016 78 10000 3.6 170 21:26 23.07.2019
4725 Clear 29 1016 78 10000 4.6 170 20:49 23.07.2019
4726 Clear 30 1016 78 10000 4.6 170 20:29 23.07.2019
4727 Clear 31 1016 66 10000 4.6 210 19:44 23.07.2019
4728 Clear 31 1016 66 10000 4.6 210 19:44 23.07.2019
4729 Clear 32 1016 62 10000 5.1 210 19:24 23.07.2019
4730 Clear 32 1016 62 10000 5.1 210 19:24 23.07.2019
4731 Clear 32 1016 58 10000 5.7 230 18:59 23.07.2019
4732 Clear 32 1016 58 10000 5.7 230 18:40 23.07.2019
4733 Clear 33 1016 70 10000 7.2 220 18:20 23.07.2019
4734 Clear 33 1017 70 10000 6.7 200 17:43 23.07.2019
4735 Clear 34 1017 70 10000 7.2 210 17:22 23.07.2019
4736 Clear 33 1017 62 10000 7.2 210 16:48 23.07.2019
4737 Clear 34 1017 62 10000 7.2 210 16:27 23.07.2019
4738 Clear 33 1017 66 10000 7.2 210 15:52 23.07.2019
4739 Clear 34 1017 66 10000 7.2 210 15:34 23.07.2019
4740 Clear 34 1017 70 10000 7.2 200 14:59 23.07.2019
4741 Clear 33 1017 70 10000 7.2 200 14:37 23.07.2019
4742 Clear 33 1017 66 10000 7.2 210 14:18 23.07.2019
4743 Clear 33 1017 66 10000 7.2 210 14:18 23.07.2019
4744 Clear 34 1017 66 10000 7.2 210 13:56 23.07.2019
4745 Clear 33 1017 66 10000 6.7 210 13:37 23.07.2019
4746 Clear 33 1018 38 10000 3.6 120 13:19 23.07.2019
4747 Clear 32 1018 62 10000 5.7 220 12:42 23.07.2019
4748 Clear 32 1018 54 10000 5.7 220 12:22 23.07.2019
4749 Clear 31 1018 51 10000 4.6 230 11:41 23.07.2019
4750 Clear 30 1018 54 10000 2.1 260 11:21 23.07.2019
4751 Clear 30 1018 58 10000 2.1 290 10:49 23.07.2019
4752 Clear 29 1018 61 10000 2.1 340 10:23 23.07.2019
4753 Clear 28 1018 61 10000 2.1 320 09:43 23.07.2019
4754 Clear 28 1018 61 10000 2.1 320 09:43 23.07.2019
4755 -273 0 0 0 0 0 09:22 23.07.2019
4756 Clear 25 1017 57 10000 3.1 320 08:56 23.07.2019
4757 Clear 24 1017 57 10000 3.1 320 08:38 23.07.2019
4758 Clear 24 1017 57 10000 2.6 300 08:18 23.07.2019
4759 Clear 23 1017 60 10000 2.1 280 07:39 23.07.2019
4760 Clear 23 1017 57 10000 2.6 310 06:58 23.07.2019
4761 Clear 23 1017 57 10000 2.6 300 06:36 23.07.2019
4762 Clear 23 1018 69 10000 2.6 310 04:45 23.07.2019
4763 Clear 24 1019 78 10000 2.1 290 01:46 23.07.2019
4764 Clear 25 1019 83 10000 2.1 240 00:47 23.07.2019
4765 Clear 25 1020 78 10000 1 0 00:26 23.07.2019
4766 Clear 25 1020 78 10000 0.5 0 23:40 22.07.2019
4767 Clear 26 1020 78 10000 1 140 23:21 22.07.2019
4768 Clear 26 1020 78 10000 1 0 22:46 22.07.2019
4769 Clear 27 1019 78 10000 1.5 200 22:26 22.07.2019
4770 Clear 27 1019 78 10000 1.5 200 21:58 22.07.2019
4771 Clear 27 1020 83 10000 1 0 21:40 22.07.2019
4772 Clear 28 1020 74 10000 2.1 180 21:20 22.07.2019
4773 Clear 29 1020 78 10000 2.6 160 20:44 22.07.2019
4774 Clear 29 1020 74 10000 2.6 160 20:23 22.07.2019
4775 Clear 30 1020 78 10000 3.1 160 19:43 22.07.2019
4776 Clear 30 1020 74 10000 3.6 170 19:24 22.07.2019
4777 Clear 31 1020 70 10000 3.1 170 18:57 22.07.2019
4778 Clear 31 1020 70 10000 3.1 170 18:39 22.07.2019
4779 Clear 31 1020 74 10000 3.6 170 18:21 22.07.2019
4780 Clear 32 1020 74 10000 4.1 170 17:39 22.07.2019
4781 Clear 32 1021 78 10000 4.1 170 17:20 22.07.2019
4782 Clear 32 1021 74 10000 3.6 170 16:41 22.07.2019
4783 Clear 32 1021 70 10000 3.6 160 16:21 22.07.2019
4784 Clear 32 1021 70 10000 3.6 160 15:58 22.07.2019
4785 Clear 33 1021 62 10000 3.6 170 15:36 22.07.2019
4786 Clear 33 1021 62 10000 3.6 170 15:18 22.07.2019
4787 Clear 33 1021 55 10000 3.1 140 14:42 22.07.2019
4788 Clear 32 1021 66 10000 3.1 140 14:20 22.07.2019
4789 Clear 32 1022 65 10000 3.1 150 13:46 22.07.2019
4790 Clear 32 1022 65 10000 3.1 150 13:28 22.07.2019
4791 Clear 31 1021 61 10000 3.1 130 12:45 22.07.2019
4792 Clear 31 1022 65 10000 3.6 120 12:25 22.07.2019
4793 Clear 30 1021 58 10000 3.1 110 11:45 22.07.2019
4794 Clear 30 1021 58 10000 3.1 110 11:24 22.07.2019
4795 Clear 29 1021 48 10000 1.5 330 10:48 22.07.2019
4796 Clear 28 1021 61 10000 3.6 330 10:29 22.07.2019
4797 Clear 28 1021 57 10000 3.6 320 09:44 22.07.2019
4798 Clouds 26 1021 60 10000 3.6 320 09:25 22.07.2019
4799 Clouds 24 1021 60 10000 3.6 320 08:47 22.07.2019
4800 Clouds 23 1021 64 10000 3.1 330 08:25 22.07.2019
4801 Clouds 22 1021 64 10000 3.1 330 07:58 22.07.2019
4802 Clouds 22 1021 64 10000 3.1 330 07:40 22.07.2019
4803 Clouds 22 1021 64 10000 3.1 320 07:21 22.07.2019
4804 Clouds 23 1021 64 10000 1.5 340 03:58 22.07.2019
4805 Clouds 23 1021 78 10000 1.5 320 02:43 22.07.2019
4806 Clear 24 1021 83 10000 1 110 00:57 22.07.2019
4807 Clear 24 1021 78 10000 1 0 00:28 22.07.2019
4808 Clear 25 1021 83 10000 1.5 80 23:56 21.07.2019
4809 Clear 25 1021 83 10000 1.5 80 23:36 21.07.2019
4810 Clear 25 1020 78 10000 1.5 100 22:55 21.07.2019
4811 Clear 25 1020 78 10000 1.5 100 22:36 21.07.2019
4812 Clear 26 1020 78 10000 1.5 110 22:18 21.07.2019
4813 Clear 26 1020 78 10000 1.5 120 21:44 21.07.2019
4814 Clear 27 1020 74 10000 1.5 140 21:24 21.07.2019
4815 Clear 28 1020 74 10000 2.1 150 20:55 21.07.2019
4816 Clear 28 1020 74 10000 2.1 150 20:37 21.07.2019
4817 Clear 28 1020 74 10000 2.6 130 20:19 21.07.2019
4818 Clear 29 1020 69 10000 2.6 140 19:47 21.07.2019
4819 Clear 29 1020 61 10000 3.1 120 19:24 21.07.2019
4820 Clear 29 1020 61 10000 3.1 120 18:48 21.07.2019
4821 Clouds 30 1020 65 10000 3.1 120 18:26 21.07.2019
4822 Clouds 30 1020 51 10000 3.1 120 17:43 21.07.2019
4823 Clouds 31 1020 58 10000 3.1 120 17:20 21.07.2019
4824 Clouds 31 1020 58 10000 3.1 120 17:20 21.07.2019
4825 Clouds 31 1020 58 10000 3.1 120 16:58 21.07.2019
4826 Clouds 31 1020 54 10000 3.1 120 16:39 21.07.2019
4827 Clouds 31 1021 48 10000 3.1 110 16:20 21.07.2019
4828 Clouds 30 1021 61 10000 3.6 110 15:37 21.07.2019
4829 Clouds 31 1021 61 10000 3.1 110 15:19 21.07.2019
4830 Clouds 30 1021 54 10000 3.6 110 14:42 21.07.2019
4831 Clouds 30 1021 61 10000 3.6 100 14:22 21.07.2019
4832 Clouds 30 1021 65 10000 3.6 100 13:52 21.07.2019
4833 Clouds 30 1021 65 10000 3.6 100 13:32 21.07.2019
4834 Clouds 29 1021 74 10000 4.6 70 12:45 21.07.2019
4835 Clouds 29 1021 74 10000 4.6 70 12:26 21.07.2019
4836 Clouds 28 1021 69 10000 5.7 70 11:52 21.07.2019
4837 Clouds 27 1021 69 10000 5.7 70 11:31 21.07.2019
4838 Clouds 27 1021 78 10000 4.6 80 10:58 21.07.2019
4839 Clouds 26 1021 78 10000 4.6 70 10:40 21.07.2019
4840 Clouds 26 1020 78 10000 4.1 60 10:22 21.07.2019
4841 Clouds 26 1020 73 10000 3.1 50 09:38 21.07.2019
4842 Clouds 25 1020 73 10000 2.1 340 09:20 21.07.2019
4843 Clouds 24 1020 73 10000 2.1 330 08:45 21.07.2019
4844 Clouds 23 1019 83 10000 2.6 320 08:26 21.07.2019
4845 Clouds 22 1019 83 10000 2.6 330 07:38 21.07.2019
4846 Clouds 21 1019 83 10000 2.1 340 06:50 21.07.2019
4847 Clouds 22 1019 83 10000 3.1 340 05:43 21.07.2019
4848 Clouds 23 1019 88 10000 2.6 40 02:52 21.07.2019
4849 Clouds 24 1019 88 10000 3.1 70 01:19 21.07.2019
4850 Clouds 24 1019 83 10000 2.6 70 00:40 21.07.2019
4851 Clouds 24 1018 83 10000 2.6 70 00:18 21.07.2019
4852 Clouds 24 1018 83 10000 2.6 70 23:40 20.07.2019
4853 Clouds 24 1018 83 10000 1.5 80 23:21 20.07.2019
4854 Clouds 25 1017 83 10000 2.1 110 22:44 20.07.2019
4855 Clouds 25 1017 83 10000 2.1 100 22:22 20.07.2019
4856 Clouds 25 1017 83 10000 2.1 110 21:56 20.07.2019
4857 Clouds 26 1017 83 10000 2.1 110 21:37 20.07.2019
4858 Clear 26 1017 78 10000 2.6 140 21:18 20.07.2019
4859 Clear 27 1016 78 10000 3.1 140 20:40 20.07.2019
4860 Clear 28 1016 74 10000 3.1 120 20:18 20.07.2019
4861 Clear 28 1016 74 10000 3.6 130 19:45 20.07.2019
4862 Clear 28 1016 69 10000 4.1 160 19:20 20.07.2019
4863 Clear 29 1017 74 10000 4.1 170 18:42 20.07.2019
4864 Clear 29 1017 70 10000 4.6 150 18:20 20.07.2019
4865 Clear 29 1017 70 10000 4.1 160 17:53 20.07.2019
4866 Clear 30 1017 74 10000 5.1 150 17:23 20.07.2019
4867 Clear 30 1017 70 10000 5.7 160 16:44 20.07.2019
4868 Clear 30 1017 74 10000 5.7 160 16:26 20.07.2019
4869 Clear 30 1017 74 10000 5.7 160 15:58 20.07.2019
4870 Clear 30 1016 74 10000 5.1 150 15:38 20.07.2019
4871 Clear 30 1016 74 10000 5.7 130 15:20 20.07.2019
4872 Clear 30 1016 74 10000 5.1 140 14:47 20.07.2019
4873 Clear 30 1016 74 10000 4.6 140 14:24 20.07.2019
4874 Clear 30 1016 69 10000 4.6 140 13:39 20.07.2019
4875 Clear 30 1016 69 10000 4.6 120 13:20 20.07.2019
4876 Clear 30 1016 69 10000 4.6 120 13:20 20.07.2019
4877 Clear 30 1016 58 10000 3.6 120 12:54 20.07.2019
4878 Clear 29 1016 65 10000 4.1 110 12:24 20.07.2019
4879 Clear 29 1016 65 10000 4.1 110 11:57 20.07.2019
4880 Clear 28 1016 62 10000 3.6 110 11:27 20.07.2019
4881 Clouds 28 1016 58 10000 1.5 20 10:58 20.07.2019
4882 Clouds 27 1016 65 10000 2.1 320 10:37 20.07.2019
4883 Clouds 26 1016 69 10000 3.6 330 10:18 20.07.2019
4884 Clouds 26 1016 69 10000 3.6 330 10:18 20.07.2019
4885 Clouds 25 1016 73 10000 4.1 330 09:45 20.07.2019
4886 Clouds 24 1016 78 10000 4.1 330 09:22 20.07.2019
4887 Clouds 23 1016 83 10000 4.1 330 08:46 20.07.2019
4888 Clouds 22 1015 88 10000 3.6 330 08:20 20.07.2019
4889 Clouds 21 1015 88 10000 3.6 320 07:26 20.07.2019
4890 Clouds 21 1015 83 10000 3.1 320 06:43 20.07.2019
4891 Clouds 22 1015 83 10000 2.6 320 04:57 20.07.2019
4892 Clouds 22 1015 83 10000 2.1 330 04:30 20.07.2019
4893 Clouds 23 1015 78 10000 0.5 0 01:21 20.07.2019
4894 Clouds 23 1015 78 10000 1 180 00:49 20.07.2019
4895 Clouds 23 1015 78 10000 1 180 00:26 20.07.2019
4896 Clouds 24 1015 78 10000 1 210 23:49 19.07.2019
4897 Clouds 24 1015 78 10000 1.5 200 23:27 19.07.2019
4898 Clouds 24 1015 78 10000 1.5 200 22:59 19.07.2019
4899 Clouds 24 1015 74 10000 2.6 210 22:40 19.07.2019
4900 Clouds 25 1015 74 10000 2.1 210 22:19 19.07.2019
4901 Clouds 25 1015 78 10000 2.6 210 21:43 19.07.2019
4902 Clouds 26 1015 78 10000 3.1 200 21:24 19.07.2019
4903 Clouds 26 1015 74 10000 3.6 190 20:43 19.07.2019
4904 Clouds 27 1015 74 10000 3.6 190 20:25 19.07.2019
4905 Clouds 27 1015 74 10000 3.6 180 19:39 19.07.2019
4906 Clouds 27 1015 74 10000 3.6 170 19:18 19.07.2019
4907 Clouds 28 1015 65 10000 4.1 190 18:40 19.07.2019
4908 Clouds 28 1015 65 10000 4.6 180 18:19 19.07.2019
4909 Clouds 28 1016 69 10000 4.6 160 17:45 19.07.2019
4910 Clouds 28 1016 69 10000 4.6 170 17:25 19.07.2019
4911 Clouds 28 1016 74 10000 4.6 150 16:48 19.07.2019
4912 Clouds 28 1016 65 10000 4.1 140 16:25 19.07.2019
4913 Clouds 28 1017 65 10000 4.1 150 15:48 19.07.2019
4914 Clouds 28 1017 69 10000 4.6 180 15:29 19.07.2019
4915 Clouds 28 1017 69 10000 4.6 180 14:56 19.07.2019
4916 Clouds 28 1017 65 10000 4.1 160 14:37 19.07.2019
4917 Clouds 28 1017 65 10000 4.1 150 14:19 19.07.2019
4918 Clouds 28 1017 74 10000 4.1 140 13:43 19.07.2019
4919 Clouds 28 1017 74 10000 3.6 150 13:22 19.07.2019
4920 Clouds 28 1017 74 10000 3.6 120 12:49 19.07.2019
4921 Clouds 27 1017 74 10000 3.6 120 12:30 19.07.2019
4922 Clouds 27 1017 69 10000 3.6 90 11:47 19.07.2019
4923 Clouds 27 1017 69 10000 2.6 110 11:20 19.07.2019
4924 Clouds 26 1017 74 10000 2.6 100 10:58 19.07.2019
4925 Clouds 26 1017 74 10000 2.6 100 10:39 19.07.2019
4926 Clouds 26 1017 74 10000 1.5 30 10:20 19.07.2019
4927 Clouds 25 1017 73 10000 1 360 09:44 19.07.2019
4928 Clouds 24 1016 73 10000 2.1 320 09:22 19.07.2019
4929 Clouds 23 1016 78 10000 3.1 330 08:50 19.07.2019
4930 Clouds 22 1016 78 10000 3.1 330 08:32 19.07.2019
4931 Clouds 21 1016 83 10000 2.1 330 07:34 19.07.2019
4932 Clouds 20 1016 83 10000 2.6 330 06:47 19.07.2019
4933 Clouds 21 1016 83 10000 2.1 330 05:39 19.07.2019
4934 Clouds 23 1016 73 10000 2.1 80 01:56 19.07.2019
4935 Clouds 23 1016 74 10000 1 120 00:58 19.07.2019
4936 Clouds 24 1016 78 10000 2.84 178.728 00:21 19.07.2019
4937 Clouds 24 1016 74 10000 2.84 178.728 23:41 18.07.2019
4938 Clouds 24 1015 74 10000 1 0 23:23 18.07.2019
4939 Clouds 24 1015 74 10000 1 0 22:57 18.07.2019
4940 Clouds 24 1015 74 10000 1.5 210 22:39 18.07.2019
4941 Clouds 24 1015 69 10000 2.1 210 22:18 18.07.2019
4942 Clouds 25 1015 74 10000 3.1 210 21:39 18.07.2019
4943 Clouds 25 1014 69 10000 4.1 210 21:20 18.07.2019
4944 Clouds 26 1014 65 10000 5.1 210 20:48 18.07.2019
4945 Clouds 26 1014 58 10000 5.1 200 20:27 18.07.2019
4946 Clouds 27 1014 65 10000 5.1 200 19:51 18.07.2019
4947 Clouds 27 1014 65 10000 4.6 100 19:28 18.07.2019
4948 Clouds 27 1014 65 10000 4.1 190 18:52 18.07.2019
4949 Clouds 28 1014 61 10000 3.6 170 18:24 18.07.2019
4950 Clouds 28 1014 65 10000 3.6 180 17:57 18.07.2019
4951 Clouds 28 1014 65 10000 3.6 180 17:38 18.07.2019
4952 Clouds 28 1014 61 10000 4.1 180 17:19 18.07.2019
4953 Clouds 28 1014 69 10000 3.6 170 16:53 18.07.2019
4954 Clouds 28 1014 69 10000 3.6 170 16:29 18.07.2019
4955 Clouds 28 1014 65 10000 4.6 170 15:58 18.07.2019
4956 Clouds 28 1014 65 10000 4.1 170 15:36 18.07.2019
4957 Clouds 28 1014 57 10000 3.6 120 14:57 18.07.2019
4958 Clouds 28 1014 57 10000 3.6 120 14:38 18.07.2019
4959 Clouds 28 1014 54 10000 4.1 120 14:20 18.07.2019
4960 Clouds 28 1014 61 10000 5.1 110 13:43 18.07.2019
4961 Clouds 28 1015 54 10000 5.1 110 13:22 18.07.2019
4962 Clouds 28 1014 48 10000 5.1 90 12:48 18.07.2019
4963 Clouds 27 1014 48 10000 3.6 80 12:21 18.07.2019
4964 Clouds 27 1014 54 10000 3.6 360 11:52 18.07.2019
4965 Clouds 26 1014 54 10000 3.6 360 11:34 18.07.2019
4966 Clouds 26 1015 57 10000 5.7 340 11:34 18.07.2019
4967 Clouds 26 1014 69 10000 4.6 340 10:58 18.07.2019
4968 Clouds 26 1014 69 10000 4.6 340 10:38 18.07.2019
4969 Clear 24 1014 73 10000 4.6 330 09:48 18.07.2019
4970 Clouds 23 1014 77 10000 4.1 320 09:25 18.07.2019
4971 Clouds 22 1014 77 10000 4.1 330 08:50 18.07.2019
4972 Clear 21 1014 77 10000 5.1 320 08:21 18.07.2019
4973 Clear 20 1014 77 10000 4.1 320 07:48 18.07.2019
4974 Clear 20 1013 77 10000 3.6 320 07:27 18.07.2019
4975 Clouds 20 1014 77 10000 4.6 320 06:40 18.07.2019
4976 Clouds 20 1014 77 10000 4.1 320 05:57 18.07.2019
4977 Clouds 20 1014 73 10000 3.1 320 03:24 18.07.2019
4978 Clouds 20 1014 78 10000 4.1 320 01:52 18.07.2019
4979 Clouds 20 1014 77 10000 4.6 320 01:20 18.07.2019
4980 Clouds 20 1014 83 10000 4.6 320 23:55 17.07.2019
4981 Clouds 20 1014 83 10000 3.6 320 23:21 17.07.2019
4982 Clouds 20 1014 83 10000 5.1 320 22:58 17.07.2019
4983 Clouds 20 1014 83 10000 5.1 320 22:39 17.07.2019
4984 Rain 20 1013 78 10000 2.6 310 22:20 17.07.2019
4985 Rain 20 1013 78 10000 2.1 40 21:45 17.07.2019
4986 Rain 19 1013 78 10000 2.1 40 21:27 17.07.2019
4987 Thunderstorm 19 1015 64 10000 11.8 20 20:59 17.07.2019
4988 Thunderstorm 19 1015 64 10000 11.8 20 20:40 17.07.2019
4989 Thunderstorm 20 1016 88 2000 11.3 310 20:21 17.07.2019
4990 Thunderstorm 21 1015 69 10000 3.1 0 19:57 17.07.2019
4991 Thunderstorm 23 1015 69 10000 3.1 0 19:39 17.07.2019
4992 Thunderstorm 26 1013 69 10000 5.1 210 19:18 17.07.2019
4993 Thunderstorm 27 1013 65 10000 6.2 200 18:41 17.07.2019
4994 Clouds 28 1013 51 10000 5.1 110 18:20 17.07.2019
4995 Clouds 28 1013 69 10000 7.2 210 17:51 17.07.2019
4996 Clouds 29 1013 69 10000 7.2 210 17:27 17.07.2019
4997 Clouds 29 1013 65 10000 6.2 210 16:58 17.07.2019
4998 Clouds 29 1013 65 10000 7.2 210 16:38 17.07.2019
4999 Clouds 29 1013 65 10000 7.2 210 16:18 17.07.2019
5000 Clouds 29 1013 65 10000 7.2 210 15:51 17.07.2019
5001 Clouds 29 1014 69 10000 7.7 210 15:29 17.07.2019
5002 Clouds 29 1014 69 10000 7.2 210 14:55 17.07.2019
5003 Clouds 29 1014 69 10000 7.2 220 14:37 17.07.2019
5004 Clouds 29 1014 69 10000 7.2 220 14:19 17.07.2019
5005 Clouds 29 1014 69 10000 7.2 220 13:45 17.07.2019
5006 Clouds 28 1014 69 10000 7.2 220 13:25 17.07.2019
5007 Clouds 27 1014 74 10000 6.7 210 12:43 17.07.2019
5008 Clouds 26 1014 69 10000 6.2 230 12:21 17.07.2019
5009 Clouds 26 1014 69 10000 6.2 230 11:57 17.07.2019
5010 Clouds 26 1014 74 10000 4.6 210 11:38 17.07.2019
5011 Clouds 25 1014 74 10000 4.6 210 11:19 17.07.2019
5012 Clouds 25 1014 83 10000 3.1 210 10:43 17.07.2019
5013 Clouds 24 1014 83 10000 3.1 210 10:20 17.07.2019
5014 Clouds 24 1014 78 10000 2.6 310 09:44 17.07.2019
5015 Clouds 23 1014 78 10000 2.6 310 09:26 17.07.2019
5016 Clouds 23 1014 73 10000 2.6 320 08:44 17.07.2019
5017 Clouds 23 1014 73 10000 2.6 320 08:44 17.07.2019
5018 Clouds 23 1014 73 10000 2.6 320 08:22 17.07.2019
5019 Clouds 22 1014 78 10000 3.1 310 07:51 17.07.2019
5020 Clouds 22 1014 78 10000 1.45 257.734 07:27 17.07.2019
5021 Clouds 22 1014 78 10000 2.1 340 06:59 17.07.2019
5022 Clouds 22 1014 78 10000 2.6 320 06:37 17.07.2019
5023 Clouds 22 1014 78 10000 2.6 320 06:18 17.07.2019
5024 Clouds 22 1014 78 10000 2.1 320 05:32 17.07.2019
5025 Clouds 22 1015 73 10000 2.1 310 04:49 17.07.2019
5026 Clouds 22 1015 69 10000 1.5 310 03:46 17.07.2019
5027 Clouds 23 1015 73 10000 1 270 02:32 17.07.2019
5028 Clouds 23 1015 73 10000 1.5 240 01:41 17.07.2019
5029 Clouds 23 1015 73 10000 1.5 240 01:20 17.07.2019
5030 Clouds 23 1016 73 10000 3.1 250 00:38 17.07.2019
5031 Clouds 23 1016 73 10000 3.1 250 00:20 17.07.2019
5032 Clouds 24 1016 69 10000 2.6 240 23:42 16.07.2019
5033 Clouds 24 1016 69 10000 2.6 240 23:22 16.07.2019
5034 Clear 25 1015 69 10000 4.6 230 22:43 16.07.2019
5035 Clear 25 1015 69 10000 4.6 230 22:25 16.07.2019
5036 Clear 26 1015 65 10000 5.7 230 21:57 16.07.2019
5037 Clear 26 1015 65 10000 6.7 220 21:39 16.07.2019
5038 Clear 26 1015 65 10000 6.7 220 21:19 16.07.2019
5039 Clear 27 1015 57 10000 7.2 220 20:41 16.07.2019
5040 Clear 27 1015 57 10000 7.2 220 20:23 16.07.2019
5041 Clear 27 1015 58 10000 6.7 210 19:54 16.07.2019
5042 Clouds 27 1015 58 10000 7.2 220 19:30 16.07.2019
5043 Clouds 28 1015 69 10000 7.2 220 18:59 16.07.2019
5044 Clouds 28 1015 65 10000 7.7 230 18:41 16.07.2019
5045 Clouds 28 1015 65 10000 7.7 220 18:21 16.07.2019
5046 Clouds 28 1015 65 10000 7.7 220 17:49 16.07.2019
5047 Clouds 29 1015 65 10000 7.2 210 17:28 16.07.2019
5048 Clear 29 1015 65 10000 6.7 210 16:51 16.07.2019
5049 Clear 29 1015 65 10000 7.2 200 16:27 16.07.2019
5050 Clear 29 1016 65 10000 7.2 200 15:57 16.07.2019
5051 Clear 29 1016 58 10000 6.7 200 15:39 16.07.2019
5052 Clear 29 1016 58 10000 6.7 200 15:19 16.07.2019
5053 Clouds 29 1016 61 10000 6.7 210 14:55 16.07.2019
5054 Clouds 29 1016 65 10000 6.7 200 14:37 16.07.2019
5055 Clouds 29 1016 61 10000 6.7 210 14:19 16.07.2019
5056 Clouds 29 1016 33 10000 5.7 150 13:44 16.07.2019
5057 Clouds 29 1016 33 10000 5.7 150 13:19 16.07.2019
5058 Clear 29 1016 39 10000 2.1 190 12:44 16.07.2019
5059 Clouds 28 1016 65 10000 5.1 190 12:20 16.07.2019
5060 Clouds 28 1016 65 10000 4.1 190 11:55 16.07.2019
5061 Clouds 28 1016 69 10000 4.1 180 11:36 16.07.2019
5062 Clear 27 1016 61 10000 1.5 0 11:18 16.07.2019
5063 Clear 27 1015 54 10000 1 0 10:44 16.07.2019
5064 Clear 26 1015 54 10000 1 0 10:20 16.07.2019
5065 Clear 25 1015 69 10000 3.1 320 09:44 16.07.2019
5066 Clear 24 1015 69 10000 3.1 320 09:21 16.07.2019
5067 Clear 22 1015 73 10000 3.6 330 08:58 16.07.2019
5068 Clear 22 1015 78 10000 3.6 330 08:40 16.07.2019
5069 Clear 22 1015 78 10000 2.6 320 08:18 16.07.2019
5070 Clear 20 1015 78 10000 3.1 320 07:41 16.07.2019
5071 Clear 20 1015 78 10000 3.1 320 07:22 16.07.2019
5072 Clear 20 1015 78 10000 3.1 320 06:45 16.07.2019
5073 Clear 20 1015 78 10000 3.1 330 05:59 16.07.2019
5074 Clear 20 1015 78 10000 2.6 330 05:32 16.07.2019
5075 Clear 21 1015 78 10000 3.6 330 04:54 16.07.2019
5076 Clear 21 1015 73 10000 3.1 320 03:52 16.07.2019
5077 Clear 22 1015 73 10000 3.1 330 02:55 16.07.2019
5078 Clear 22 1015 73 10000 2.6 320 02:30 16.07.2019
5079 Clear 22 1015 69 10000 2.6 290 01:43 16.07.2019
5080 Clear 23 1014 73 10000 2.1 210 00:42 16.07.2019
5081 Clear 23 1014 73 10000 2.1 210 00:20 16.07.2019
5082 Clear 23 1014 69 10000 1.5 200 23:45 15.07.2019
5083 Clear 24 1014 69 10000 1.5 200 23:27 15.07.2019
5084 Clear 24 1013 61 10000 2.1 160 22:47 15.07.2019
5085 Clear 24 1013 61 10000 2.1 160 22:22 15.07.2019
5086 Clouds 24 1013 61 10000 2.6 160 21:59 15.07.2019
5087 Clouds 24 1013 61 10000 2.6 150 21:40 15.07.2019
5088 Clouds 25 1013 61 10000 2.6 150 21:20 15.07.2019
5089 Clouds 25 1012 61 10000 3.1 150 20:56 15.07.2019
5090 Clouds 25 1012 61 10000 3.6 150 20:37 15.07.2019
5091 Clouds 26 1012 61 10000 4.1 140 20:19 15.07.2019
5092 Clouds 26 1011 57 10000 4.6 130 19:39 15.07.2019
5093 Clouds 26 1011 57 10000 4.6 130 19:20 15.07.2019
5094 Clouds 27 1011 61 10000 4.6 140 18:54 15.07.2019
5095 Clouds 27 1011 57 10000 4.6 160 18:36 15.07.2019
5096 Clouds 27 1011 57 10000 6.2 170 18:18 15.07.2019
5097 Clouds 28 1011 57 10000 6.2 170 17:42 15.07.2019
5098 Clouds 28 1011 57 10000 6.2 170 17:22 15.07.2019
5099 Clouds 28 1010 54 10000 7.7 180 16:58 15.07.2019
5100 Clouds 28 1010 61 10000 7.2 170 16:38 15.07.2019
5101 Clouds 28 1010 61 10000 7.2 170 16:20 15.07.2019
5102 Clouds 28 1011 61 10000 6.2 180 15:54 15.07.2019
5103 Clouds 28 1011 57 10000 6.2 170 15:36 15.07.2019
5104 Clouds 28 1010 54 10000 6.7 160 15:18 15.07.2019
5105 Clouds 28 1011 54 10000 5.7 170 14:41 15.07.2019
5106 Clouds 28 1011 51 10000 4.6 140 14:22 15.07.2019
5107 Clouds 28 1011 51 10000 4.6 140 13:49 15.07.2019
5108 Clouds 28 1011 57 10000 4.1 110 13:21 15.07.2019
5109 Clouds 28 1011 57 10000 4.1 110 12:57 15.07.2019
5110 Clouds 28 1011 51 10000 4.6 90 12:39 15.07.2019
5111 Clouds 27 1010 54 10000 5.7 100 12:20 15.07.2019
5112 Clouds 27 1010 57 10000 4.1 90 11:41 15.07.2019
5113 Clouds 26 1010 61 10000 4.6 70 11:21 15.07.2019
5114 Clouds 26 1010 65 10000 3.1 350 10:43 15.07.2019
5115 Clouds 25 1010 65 10000 3.1 350 10:24 15.07.2019
5116 Clouds 24 1010 65 10000 3.1 330 09:44 15.07.2019
5117 Clouds 24 1010 65 10000 3.1 330 09:25 15.07.2019
5118 Clouds 23 1010 60 10000 4.6 340 08:49 15.07.2019
5119 Clouds 23 1010 60 10000 4.6 340 08:27 15.07.2019
5120 Clouds 22 1009 73 10000 4.1 340 07:58 15.07.2019
5121 Clouds 21 1009 83 10000 2.1 360 07:36 15.07.2019
5122 Clouds 21 1009 78 10000 4.1 340 06:51 15.07.2019
5123 Clouds 21 1009 78 10000 4.1 340 06:32 15.07.2019
5124 Clouds 22 1009 78 10000 2.6 330 05:44 15.07.2019
5125 Clouds 22 1009 78 10000 2.6 330 05:19 15.07.2019
5126 Clouds 22 1010 78 10000 2.6 250 04:41 15.07.2019
5127 Clouds 22 1010 78 10000 3.1 250 03:33 15.07.2019
5128 Clouds 23 1010 78 10000 3.6 240 02:30 15.07.2019
5129 Clouds 23 1011 78 10000 3.6 240 01:39 15.07.2019
5130 Clouds 23 1011 78 10000 3.6 240 01:20 15.07.2019
5131 Clouds 23 1011 78 10000 3.1 220 00:46 15.07.2019
5132 Clouds 23 1011 78 10000 3.1 220 00:19 15.07.2019
5133 Clear 23 1011 78 10000 2.1 210 23:42 14.07.2019
5134 Clear 23 1011 73 10000 2.1 190 23:21 14.07.2019
5135 Clear 23 1011 73 10000 2.1 190 22:59 14.07.2019
5136 Clear 23 1010 73 10000 2.1 190 22:40 14.07.2019
5137 Clear 24 1010 65 10000 1.5 150 22:21 14.07.2019
5138 Clear 24 1010 65 10000 1.5 150 21:57 14.07.2019
5139 Clear 24 1010 65 10000 1.5 150 21:57 14.07.2019
5140 Clear 24 1010 65 10000 2.1 150 21:39 14.07.2019
5141 Clear 25 1010 65 10000 2.1 150 21:18 14.07.2019
5142 Clear 25 1010 65 10000 2.1 150 20:54 14.07.2019
5143 Clear 26 1010 65 10000 2.1 140 20:36 14.07.2019
5144 Clear 26 1010 65 10000 2.1 140 20:18 14.07.2019
5145 Clouds 26 1010 54 10000 3.1 140 19:41 14.07.2019
5146 Clouds 27 1010 54 10000 3.1 140 19:22 14.07.2019
5147 Clouds 26 1010 54 10000 2.1 190 18:45 14.07.2019
5148 Clouds 26 1010 54 10000 2.1 190 18:27 14.07.2019
5149 Rain 26 1010 44 10000 0.5 130 17:58 14.07.2019
5150 Rain 26 1011 53 10000 3.1 70 17:39 14.07.2019
5151 Rain 25 1011 53 10000 3.1 70 17:18 14.07.2019
5152 Rain 24 1011 69 10000 5.1 70 16:46 14.07.2019
5153 Rain 24 1011 54 10000 2.6 180 16:23 14.07.2019
5154 Rain 24 1011 51 10000 3.1 100 15:49 14.07.2019
5155 Rain 26 1011 65 10000 1.5 110 15:27 14.07.2019
5156 Clouds 26 1011 51 10000 3.6 130 14:48 14.07.2019
5157 Clouds 27 1011 54 10000 3.1 120 14:21 14.07.2019
5158 Clouds 27 1011 57 10000 2.6 110 13:49 14.07.2019
5159 Clouds 27 1011 57 10000 2.6 110 13:25 14.07.2019
5160 Clouds 27 1011 57 10000 3.6 90 12:58 14.07.2019
5161 Clouds 28 1011 51 10000 4.1 90 12:40 14.07.2019
5162 Clear 27 1011 51 10000 4.6 90 12:19 14.07.2019
5163 Clear 28 1011 51 10000 4.6 90 11:51 14.07.2019
5164 Clear 28 1011 54 10000 5.7 60 11:22 14.07.2019
5165 Clear 27 1011 54 10000 5.7 80 10:49 14.07.2019
5166 Clear 27 1011 54 10000 6.2 70 10:22 14.07.2019
5167 Clear 26 1011 54 10000 7.2 70 09:51 14.07.2019
5168 Clear 25 1011 61 10000 7.2 70 09:30 14.07.2019
5169 Clear 24 1011 54 10000 6.2 60 08:57 14.07.2019
5170 Clear 24 1011 69 10000 3.1 350 08:39 14.07.2019
5171 Clear 22 1011 73 10000 4.6 330 07:56 14.07.2019
5172 Clear 22 1011 73 10000 3.6 330 07:34 14.07.2019
5173 Clear 22 1011 73 10000 4.1 340 06:23 14.07.2019
5174 Clear 22 1011 73 10000 3.1 320 05:43 14.07.2019
5175 Clear 23 1012 73 10000 1.5 350 03:45 14.07.2019
5176 Clear 23 1012 73 10000 2.1 330 03:27 14.07.2019
5177 Clear 23 1012 78 10000 1.5 250 02:38 14.07.2019
5178 Clear 23 1012 78 10000 1.5 250 02:20 14.07.2019
5179 Clear 23 1012 78 10000 1 110 01:30 14.07.2019
5180 Clear 24 1012 73 10000 1 0 00:55 14.07.2019
5181 Clear 24 1012 73 10000 0.5 0 00:37 14.07.2019
5182 Clear 24 1012 73 10000 0.5 0 00:18 14.07.2019
5183 Clear 24 1013 78 10000 0.5 0 23:42 13.07.2019
5184 Clear 25 1013 78 10000 0.5 0 23:22 13.07.2019
5185 Clear 25 1013 69 10000 1 0 22:43 13.07.2019
5186 Clear 25 1013 69 10000 1 0 22:22 13.07.2019
5187 Clear 25 1013 74 10000 1.5 160 21:49 13.07.2019
5188 Clear 26 1013 74 10000 1.5 190 21:23 13.07.2019
5189 Clouds 26 1014 69 10000 1.5 180 20:53 13.07.2019
5190 Clouds 27 1013 69 10000 2.6 170 20:34 13.07.2019
5191 Clouds 27 1013 69 10000 3.1 180 19:59 13.07.2019
5192 Clouds 27 1013 69 10000 2.6 180 19:37 13.07.2019
5193 Clouds 28 1013 69 10000 4.1 180 19:19 13.07.2019
5194 Clouds 28 1013 69 10000 3.6 180 18:39 13.07.2019
5195 Clouds 29 1013 69 10000 3.6 180 18:19 13.07.2019
5196 Clouds 29 1014 69 10000 6.2 210 17:38 13.07.2019
5197 Clear 30 1014 65 10000 7.2 210 17:19 13.07.2019
5198 Clear 30 1014 65 10000 7.2 210 17:19 13.07.2019
5199 Clear 30 1014 65 10000 5.7 210 16:44 13.07.2019
5200 Clear 30 1014 65 10000 5.7 210 16:26 13.07.2019
5201 Clear 30 1014 65 10000 5.7 210 16:26 13.07.2019
5202 Clear 30 1015 65 10000 5.7 210 15:48 13.07.2019
5203 Clear 31 1015 65 10000 5.7 210 15:25 13.07.2019
5204 Clear 31 1014 61 10000 3.6 180 14:57 13.07.2019
5205 Clear 31 1014 58 10000 3.1 170 14:39 13.07.2019
5206 Clear 31 1014 58 10000 3.1 170 14:20 13.07.2019
5207 Clear 31 1015 51 10000 3.1 180 13:43 13.07.2019
5208 Clear 30 1014 51 10000 2.1 160 13:19 13.07.2019
5209 Clouds 30 1015 51 10000 3.1 170 12:41 13.07.2019
5210 Clouds 30 1015 51 10000 3.1 170 12:23 13.07.2019
5211 Clouds 29 1015 54 10000 2.6 160 11:57 13.07.2019
5212 Clouds 29 1015 48 10000 2.1 220 11:37 13.07.2019
5213 Clouds 29 1015 48 10000 2.1 220 11:18 13.07.2019
5214 Clear 28 1015 51 10000 2.1 330 10:40 13.07.2019
5215 Clear 27 1015 51 10000 2.1 330 10:22 13.07.2019
5216 Clear 26 1015 69 10000 2.6 320 09:43 13.07.2019
5217 Clear 25 1015 69 10000 2.6 320 09:24 13.07.2019
5218 Clear 24 1015 69 10000 3.6 330 08:56 13.07.2019
5219 Clear 23 1015 78 10000 3.6 330 08:28 13.07.2019
5220 Clear 23 1015 78 10000 3.6 330 08:28 13.07.2019
5221 Clear 22 1015 73 10000 4.1 330 07:53 13.07.2019
5222 Clear 22 1016 94 10000 1 0 07:25 13.07.2019
5223 Clear 22 1015 78 10000 3.1 310 06:31 13.07.2019
5224 Clear 22 1015 78 10000 2.6 340 05:48 13.07.2019
5225 Clear 22 1014 73 10000 2.6 330 04:40 13.07.2019
5226 Clear 22 1014 73 10000 2.6 330 04:20 13.07.2019
5227 Clear 22 1014 78 10000 1.5 310 03:41 13.07.2019
5228 Clear 23 1014 78 10000 1.5 310 03:18 13.07.2019
5229 Clear 23 1015 78 10000 1.14 122.963 01:53 13.07.2019
5230 Clear 24 1015 83 10000 1.23 123.548 01:21 13.07.2019
5231 Clear 24 1015 83 10000 1.5 80 00:59 13.07.2019
5232 Clear 24 1015 78 10000 1.5 90 00:21 13.07.2019
5233 Clear 24 1015 78 10000 1 110 23:55 12.07.2019
5234 Clear 25 1015 74 10000 1.5 110 23:34 12.07.2019
5235 Clear 25 1015 78 10000 1.5 110 22:59 12.07.2019
5236 Clear 25 1014 78 10000 1.5 120 22:40 12.07.2019
5237 Clear 25 1014 78 10000 1.5 120 22:22 12.07.2019
5238 Clear 26 1014 83 10000 2.1 180 21:42 12.07.2019
5239 Clear 26 1014 83 10000 2.1 180 21:42 12.07.2019
5240 Clear 26 1014 83 10000 2.1 180 21:21 12.07.2019
5241 Clear 27 1014 83 10000 2.6 190 20:53 12.07.2019
5242 Clear 28 1014 83 10000 3.1 190 20:24 12.07.2019
5243 Clouds 29 1014 78 10000 4.1 200 19:45 12.07.2019
5244 Clouds 29 1014 78 10000 4.1 200 19:26 12.07.2019
5245 Clouds 29 1014 78 10000 4.1 180 18:59 12.07.2019
5246 Clouds 30 1014 78 10000 4.6 200 18:38 12.07.2019
5247 Clouds 31 1014 78 10000 4.6 200 18:19 12.07.2019
5248 Clouds 31 1014 83 10000 4.6 210 17:47 12.07.2019
5249 Clouds 31 1014 78 10000 4.6 200 17:27 12.07.2019
5250 Clouds 31 1015 78 10000 5.7 200 16:43 12.07.2019
5251 Clouds 30 1015 78 10000 5.7 200 16:20 12.07.2019
5252 Clouds 30 1015 74 10000 7.2 210 15:41 12.07.2019
5253 Clouds 31 1015 74 10000 7.7 210 15:21 12.07.2019
5254 Clouds 31 1015 74 10000 7.7 210 14:56 12.07.2019
5255 Clouds 31 1015 74 10000 7.7 210 14:38 12.07.2019
5256 Clouds 31 1015 78 10000 8.7 210 14:20 12.07.2019
5257 Clouds 30 1015 78 10000 8.2 210 13:39 12.07.2019
5258 Clouds 30 1016 78 10000 7.2 210 12:59 12.07.2019
5259 Clouds 30 1016 78 10000 7.2 210 12:40 12.07.2019
5260 Clouds 30 1016 78 10000 7.2 210 12:20 12.07.2019
5261 Clear 29 1016 45 10000 1 140 11:44 12.07.2019
5262 Clouds 28 1016 78 10000 3.6 210 11:22 12.07.2019
5263 Clouds 28 1016 78 10000 3.1 200 10:44 12.07.2019
5264 Clouds 27 1016 78 10000 3.1 200 10:24 12.07.2019
5265 Clouds 26 1015 78 10000 3.6 220 09:54 12.07.2019
5266 Clouds 25 1015 78 10000 2.1 300 09:31 12.07.2019
5267 Clear 25 1015 73 10000 2.6 300 08:59 12.07.2019
5268 Clear 24 1015 78 10000 2.6 300 08:41 12.07.2019
5269 Clear 23 1015 78 10000 2.6 300 08:19 12.07.2019
5270 Clouds 22 1015 78 10000 3.1 300 07:46 12.07.2019
5271 Clouds 22 1015 78 10000 3.1 300 07:26 12.07.2019
5272 Clouds 22 1015 78 10000 2.6 310 06:29 12.07.2019
5273 Clouds 22 1015 83 10000 1.5 300 05:48 12.07.2019
5274 Clouds 23 1015 83 10000 1.5 270 03:23 12.07.2019
5275 Clear 23 1015 88 10000 2.6 190 01:45 12.07.2019
5276 Clear 24 1015 88 10000 2.6 190 01:26 12.07.2019
5277 Clear 24 1015 83 10000 4.6 200 00:30 12.07.2019
5278 Clear 25 1014 83 10000 4.6 210 23:50 11.07.2019
5279 Clear 25 1014 74 10000 6.2 210 23:26 11.07.2019
5280 Clear 26 1014 74 10000 6.2 210 22:59 11.07.2019
5281 Clear 26 1013 74 10000 6.2 210 22:39 11.07.2019
5282 Clear 26 1013 74 10000 6.2 210 22:21 11.07.2019
5283 Clear 27 1013 65 10000 7.2 220 21:42 11.07.2019
5284 Clear 27 1013 65 10000 7.2 220 21:42 11.07.2019
5285 Clear 28 1013 65 10000 6.2 220 21:19 11.07.2019
5286 Clear 29 1013 65 10000 6.2 220 20:55 11.07.2019
5287 Clear 29 1012 65 10000 6.2 210 20:37 11.07.2019
5288 Clear 30 1012 65 10000 6.2 210 20:18 11.07.2019
5289 Clear 30 1012 69 10000 6.7 220 19:44 11.07.2019
5290 Clear 31 1012 69 10000 9.3 230 19:24 11.07.2019
5291 Clear 31 1012 69 10000 9.8 230 18:53 11.07.2019
5292 Clear 32 1012 65 10000 10.3 230 18:33 11.07.2019
5293 Clear 32 1013 65 10000 9.8 230 17:58 11.07.2019
5294 Clear 32 1013 65 10000 9.8 230 17:58 11.07.2019
5295 Clear 32 1013 65 10000 10.8 220 17:40 11.07.2019
5296 Clear 32 1013 65 10000 10.8 220 17:22 11.07.2019
5297 Clear 32 1013 69 10000 9.8 220 16:45 11.07.2019
5298 Clear 32 1013 69 10000 10.8 220 16:22 11.07.2019
5299 Clear 32 1013 74 10000 9.3 220 15:44 11.07.2019
5300 Clear 32 1013 74 10000 9.3 220 15:25 11.07.2019
5301 Clear 32 1013 74 10000 9.8 220 14:59 11.07.2019
5302 Clear 32 1013 36 10000 3.1 210 14:40 11.07.2019
5303 Clear 32 1013 34 10000 3.6 210 14:20 11.07.2019
5304 Clouds 32 1014 78 10000 9.3 220 13:45 11.07.2019
5305 Clouds 31 1014 78 10000 9.3 220 13:26 11.07.2019
5306 Clear 31 1014 35 10000 3.1 210 12:45 11.07.2019
5307 Clear 30 1014 35 10000 3.1 210 12:26 11.07.2019
5308 Clouds 29 1014 78 10000 8.7 220 11:53 11.07.2019
5309 Clouds 28 1014 74 10000 7.7 220 11:31 11.07.2019
5310 Clouds 28 1014 74 10000 7.2 230 10:59 11.07.2019
5311 Clear 27 1014 83 10000 5.7 220 10:41 11.07.2019
5312 Clear 27 1014 83 10000 5.7 220 10:18 11.07.2019
5313 Clear 26 1014 73 10000 2.1 280 09:44 11.07.2019
5314 Clear 25 1014 73 10000 2.1 280 09:24 11.07.2019
5315 Clear 24 1014 73 10000 2.6 320 08:51 11.07.2019
5316 Clear 23 1014 69 10000 2.6 310 08:24 11.07.2019
5317 Clear 22 1014 73 10000 3.1 320 07:52 11.07.2019
5318 Clear 21 1014 68 10000 2.1 320 07:32 11.07.2019
5319 Clear 21 1013 68 10000 2.1 290 06:30 11.07.2019
5320 Clear 21 1014 68 10000 3.1 310 05:48 11.07.2019
5321 Clear 21 1014 68 10000 3.1 310 05:28 11.07.2019
5322 Clear 22 1014 68 10000 2.1 310 04:53 11.07.2019
5323 Clear 22 1014 83 10000 2.6 230 02:38 11.07.2019
5324 Clear 23 1014 73 10000 1.5 210 01:27 11.07.2019
5325 Clear 24 1014 73 10000 2.6 270 00:26 11.07.2019
5326 Clear 24 1014 78 10000 4.1 250 23:37 10.07.2019
5327 Clear 24 1014 78 10000 4.1 250 23:18 10.07.2019
5328 Clear 25 1013 73 10000 4.6 220 22:42 10.07.2019
5329 Clear 25 1013 73 10000 4.6 220 22:19 10.07.2019
5330 Clear 26 1013 73 10000 6.7 220 21:44 10.07.2019
5331 Clear 26 1013 73 10000 6.7 220 21:26 10.07.2019
5332 Clear 26 1013 73 10000 6.7 220 21:26 10.07.2019
5333 Clear 27 1013 69 10000 7.2 220 20:56 10.07.2019
5334 Clear 27 1013 65 10000 7.7 220 20:38 10.07.2019
5335 Clear 28 1013 65 10000 7.7 220 20:18 10.07.2019
5336 Clear 28 1012 61 10000 8.2 220 19:45 10.07.2019
5337 Clear 29 1013 61 10000 8.2 220 19:22 10.07.2019
5338 Clear 29 1013 61 10000 8.2 220 18:57 10.07.2019
5339 Clear 30 1013 57 10000 8.2 220 18:38 10.07.2019
5340 Clear 30 1013 57 10000 8.2 220 18:20 10.07.2019
5341 Clear 30 1013 54 10000 8.2 220 17:41 10.07.2019
5342 Clear 30 1013 54 10000 8.2 220 17:20 10.07.2019
5343 Clear 30 1013 54 10000 8.2 220 17:20 10.07.2019
5344 Clouds 30 1013 51 10000 6.7 220 16:37 10.07.2019
5345 Clouds 31 1013 57 10000 7.7 210 16:18 10.07.2019
5346 Clouds 30 1013 57 10000 6.7 210 15:45 10.07.2019
5347 Clouds 30 1014 57 10000 6.2 210 15:21 10.07.2019
5348 Clear 30 1014 51 10000 5.7 210 14:41 10.07.2019
5349 Clear 30 1014 51 10000 5.7 210 14:22 10.07.2019
5350 Clear 29 1014 57 10000 4.6 200 13:46 10.07.2019
5351 Clear 29 1014 57 10000 4.6 200 13:19 10.07.2019
5352 Clear 29 1014 54 10000 4.6 210 13:19 10.07.2019
5353 Clear 29 1014 54 10000 4.6 210 12:58 10.07.2019
5354 Clear 29 1015 47 10000 4.6 200 12:37 10.07.2019
5355 Clear 28 1015 47 10000 4.6 200 12:18 10.07.2019
5356 Clear 27 1014 44 10000 3.6 330 11:46 10.07.2019
5357 Clear 26 1014 44 10000 3.6 330 11:21 10.07.2019
5358 Clear 26 1014 50 10000 5.7 340 10:45 10.07.2019
5359 Clear 25 1014 50 10000 5.7 340 10:20 10.07.2019
5360 Clear 24 1014 53 10000 5.1 330 09:44 10.07.2019
5361 Clear 22 1014 56 10000 5.7 320 09:21 10.07.2019
5362 Clear 22 1014 56 10000 5.7 320 08:52 10.07.2019
5363 Clear 22 1014 56 10000 5.7 320 08:52 10.07.2019
5364 Clear 20 1014 64 10000 5.7 320 08:30 10.07.2019
5365 Clear 20 1014 68 10000 5.1 320 07:56 10.07.2019
5366 Clear 20 1014 73 10000 4.6 320 07:32 10.07.2019
5367 Clouds 19 1014 73 10000 4.6 320 06:57 10.07.2019
5368 Clouds 20 1014 83 10000 2.6 320 05:59 10.07.2019
5369 Clouds 20 1013 88 10000 4.1 330 05:39 10.07.2019
5370 Clouds 20 1013 83 10000 2.1 320 04:28 10.07.2019
5371 Clouds 22 1014 78 10000 2.1 200 00:48 10.07.2019
5372 Clouds 22 1014 78 10000 2.1 200 00:29 10.07.2019
5373 Clouds 22 1014 73 10000 2.1 200 23:41 09.07.2019
5374 Clouds 23 1014 73 10000 2.1 200 23:21 09.07.2019
5375 Clouds 23 1013 73 10000 2.1 170 22:42 09.07.2019
5376 Clouds 23 1013 73 10000 2.1 170 22:24 09.07.2019
5377 Clouds 23 1012 73 10000 2.1 150 21:59 09.07.2019
5378 Clouds 24 1012 73 10000 2.6 160 21:40 09.07.2019
5379 Clouds 24 1012 73 10000 2.6 160 21:22 09.07.2019
5380 Clouds 25 1011 65 10000 2.6 190 20:43 09.07.2019
5381 Clouds 25 1011 65 10000 2.6 190 20:24 09.07.2019
5382 Clouds 25 1011 65 10000 4.1 170 19:42 09.07.2019
5383 Clouds 25 1011 65 10000 4.6 180 19:24 09.07.2019
5384 Clouds 25 1011 65 10000 4.6 180 18:47 09.07.2019
5385 Clouds 26 1011 54 10000 2.1 210 18:26 09.07.2019
5386 Clouds 26 1011 54 10000 2.1 210 18:26 09.07.2019
5387 Clouds 26 1011 54 10000 2.6 190 17:57 09.07.2019
5388 Thunderstorm 25 1012 83 9000 2.6 290 17:38 09.07.2019
5389 Thunderstorm 26 1012 83 9000 2.6 290 17:19 09.07.2019
5390 Clouds 27 1011 54 10000 2.6 200 16:50 09.07.2019
5391 Clouds 27 1011 51 10000 4.1 210 16:25 09.07.2019
5392 Clouds 27 1011 61 10000 4.6 210 15:51 09.07.2019
5393 Thunderstorm 27 1011 68 6000 7.2 280 15:33 09.07.2019
5394 Rain 26 1011 61 10000 6.7 220 14:58 09.07.2019
5395 Thunderstorm 27 1011 69 10000 4.1 150 14:39 09.07.2019
5396 Rain 28 1010 48 10000 4.1 120 14:19 09.07.2019
5397 Clouds 28 1010 54 10000 3.1 110 13:45 09.07.2019
5398 Clouds 28 1010 54 10000 3.1 110 13:27 09.07.2019
5399 Clouds 28 1010 48 10000 5.1 80 12:42 09.07.2019
5400 Clouds 28 1010 48 10000 5.1 80 12:23 09.07.2019
5401 Clouds 28 1010 45 10000 4.1 50 11:58 09.07.2019
5402 Clouds 27 1010 51 10000 3.6 340 11:40 09.07.2019
5403 Clear 26 1010 54 10000 4.6 330 11:21 09.07.2019
5404 Clear 26 1010 54 10000 6.2 320 10:55 09.07.2019
5405 Clear 25 1010 54 10000 6.2 320 10:33 09.07.2019
5406 Clear 24 1010 60 10000 7.2 340 09:48 09.07.2019
5407 Clouds 23 1010 69 10000 8.2 330 09:29 09.07.2019
5408 Clouds 22 1010 64 10000 7.2 340 08:59 09.07.2019
5409 Clouds 22 1010 73 10000 9.8 330 08:40 09.07.2019
5410 Clouds 22 1017 83 10000 1 0 04:18 05.07.2019
5411 Clouds 22 1017 88 10000 1 0 03:38 05.07.2019
5412 Clouds 23 1017 88 10000 1 0 03:19 05.07.2019
5413 Clear 23 1017 88 10000 0.81 163.958 02:49 05.07.2019
5414 Clear 23 1017 94 10000 0.5 0 01:52 05.07.2019
5415 Clear 23 1017 88 10000 0.67 145.483 01:27 05.07.2019
5416 Clear 24 1017 88 10000 1 110 00:51 05.07.2019
5417 Clear 24 1017 88 10000 1 120 00:27 05.07.2019
5418 Clear 25 1016 83 10000 2.6 90 23:23 04.07.2019
5419 Clear 25 1016 83 10000 2.6 90 23:00 04.07.2019
5420 Clear 25 1016 83 10000 2.6 80 22:40 04.07.2019
5421 Clear 26 1016 78 10000 2.6 70 22:19 04.07.2019
5422 Clear 26 1015 83 10000 3.6 80 21:44 04.07.2019
5423 Clear 27 1015 83 10000 3.6 80 21:25 04.07.2019
5424 Clear 27 1016 78 10000 3.1 100 20:58 04.07.2019
5425 Clear 27 1016 69 10000 3.1 110 20:37 04.07.2019
5426 Clear 28 1016 74 10000 3.1 100 20:18 04.07.2019
5427 Clear 28 1016 69 10000 3.1 100 19:41 04.07.2019
5428 Clear 29 1016 69 10000 3.1 110 19:21 04.07.2019
5429 Clear 29 1016 69 10000 3.1 110 18:47 04.07.2019
5430 Clear 30 1016 69 10000 3.1 110 18:28 04.07.2019
5431 Clear 30 1016 69 10000 3.1 110 17:58 04.07.2019
5432 Clear 30 1016 69 10000 3.1 110 17:40 04.07.2019
5433 Clear 30 1016 66 10000 4.1 110 17:18 04.07.2019
5434 Clear 30 1016 58 10000 4.6 90 15:45 04.07.2019
5435 Clear 31 1016 58 10000 4.6 90 15:25 04.07.2019
5436 Clear 31 1017 58 10000 4.1 90 14:59 04.07.2019
5437 Clear 31 1017 54 10000 3.6 120 14:39 04.07.2019
5438 Clear 31 1017 54 10000 3.6 110 14:20 04.07.2019
5439 Clear 31 1017 54 10000 3.6 110 13:57 04.07.2019
5440 Clear 30 1017 58 10000 3.6 130 13:38 04.07.2019
5441 Clear 30 1017 58 10000 3.6 130 13:19 04.07.2019
5442 Clear 31 1017 54 10000 3.1 150 12:39 04.07.2019
5443 Clear 30 1017 61 10000 3.1 140 12:20 04.07.2019
5444 Clear 30 1017 61 10000 3.1 140 11:55 04.07.2019
5445 Clear 30 1017 65 10000 3.1 120 11:36 04.07.2019
5446 Clear 29 1016 61 10000 3.1 100 11:18 04.07.2019
5447 Clear 29 1016 45 10000 2.6 110 10:39 04.07.2019
5448 Clear 28 1016 45 10000 2.6 110 10:18 04.07.2019
5449 Clear 27 1016 50 10000 3.1 320 09:39 04.07.2019
5450 Clear 25 1015 53 10000 4.1 330 09:19 04.07.2019
5451 Clear 25 1015 53 10000 4.1 330 08:53 04.07.2019
5452 Clear 24 1015 57 10000 4.6 330 08:19 04.07.2019
5453 Clear 23 1015 60 10000 5.1 330 07:42 04.07.2019
5454 Clear 23 1015 60 10000 5.1 330 07:19 04.07.2019
5455 Clear 23 1015 60 10000 5.1 330 06:33 04.07.2019
5456 Clear 22 1015 57 10000 3.1 320 05:47 04.07.2019
5457 Clear 22 1015 57 10000 3.1 320 05:29 04.07.2019
5458 Clear 23 1015 94 10000 1.5 290 02:36 04.07.2019
5459 Clear 24 1015 88 10000 2.6 220 01:27 04.07.2019
5460 Clear 24 1015 83 10000 2.6 230 00:52 04.07.2019
5461 Clear 25 1014 83 10000 2.1 230 23:55 03.07.2019
5462 Clear 25 1014 83 10000 2.1 230 23:55 03.07.2019
5463 Clear 25 1015 78 10000 2.6 210 23:21 03.07.2019
5464 Clear 26 1014 78 10000 2.6 220 22:58 03.07.2019
5465 Clear 26 1014 78 10000 2.6 200 22:39 03.07.2019
5466 Clear 26 1014 65 10000 2.1 200 22:21 03.07.2019
5467 Clear 27 1014 65 10000 2.1 200 21:56 03.07.2019
5468 Clear 27 1014 69 10000 2.1 200 21:37 03.07.2019
5469 Clear 28 1014 61 10000 2.6 160 20:57 03.07.2019
5470 Clear 28 1014 61 10000 2.6 140 20:39 03.07.2019
5471 Clear 28 1014 61 10000 2.6 140 20:19 03.07.2019
5472 Clear 29 1014 61 10000 1.5 140 19:48 03.07.2019
5473 Clear 29 1014 61 10000 1.5 140 19:29 03.07.2019
5474 Clear 29 1014 61 10000 2.6 120 18:46 03.07.2019
5475 Clear 30 1014 61 10000 2.6 120 18:24 03.07.2019
5476 Clouds 29 1015 69 10000 3.6 120 17:54 03.07.2019
5477 Clouds 30 1015 69 10000 3.6 120 17:20 03.07.2019
5478 Clear 30 1014 61 10000 3.1 0 16:58 03.07.2019
5479 Clear 30 1014 74 10000 3.6 160 16:40 03.07.2019
5480 Clear 30 1014 74 10000 3.6 160 16:19 03.07.2019
5481 Clear 30 1014 65 10000 4.1 190 15:47 03.07.2019
5482 Clear 31 1014 65 10000 4.1 190 15:27 03.07.2019
5483 Clouds 31 1014 38 10000 7.2 110 14:51 03.07.2019
5484 Clouds 31 1014 38 10000 6.7 110 14:23 03.07.2019
5485 Clouds 31 1015 65 10000 3.1 180 13:50 03.07.2019
5486 Clouds 31 1015 61 10000 3.6 190 13:31 03.07.2019
5487 Clear 31 1015 61 10000 2.1 150 12:54 03.07.2019
5488 Clear 31 1015 61 10000 2.1 150 12:21 03.07.2019
5489 Clouds 30 1015 38 10000 2.1 110 11:58 03.07.2019
5490 Clear 30 1015 65 10000 2.6 180 11:39 03.07.2019
5491 Clear 29 1015 65 10000 2.6 180 11:20 03.07.2019
5492 Clear 29 1015 48 10000 0.5 60 10:41 03.07.2019
5493 Clear 28 1015 48 10000 0.5 60 10:22 03.07.2019
5494 Clear 27 1014 57 10000 2.6 320 09:42 03.07.2019
5495 Clear 26 1014 57 10000 2.6 320 09:21 03.07.2019
5496 Clear 25 1014 61 10000 4.1 320 08:53 03.07.2019
5497 Clear 25 1014 61 10000 4.1 320 08:53 03.07.2019
5498 Clear 25 1014 64 10000 3.6 300 08:32 03.07.2019
5499 Clear 25 1014 64 10000 3.6 300 08:32 03.07.2019
5500 Clouds 23 1014 64 10000 2.6 320 07:53 03.07.2019
5501 Clouds 23 1014 73 10000 2.1 300 07:35 03.07.2019
5502 Clouds 22 1014 83 10000 2.1 310 06:48 03.07.2019
5503 Clouds 22 1014 73 10000 3.1 300 05:53 03.07.2019
5504 Clouds 23 1014 78 10000 3.1 320 05:21 03.07.2019
5505 Clouds 23 1014 83 10000 2.1 300 03:36 03.07.2019
5506 Clouds 23 1014 83 10000 0.55 72.028 02:38 03.07.2019
5507 Clouds 23 1015 88 10000 1.5 170 01:23 03.07.2019
5508 Clouds 23 1015 88 10000 1.5 170 00:58 03.07.2019
5509 Clouds 24 1015 88 10000 1 160 00:36 03.07.2019
5510 Clouds 24 1015 83 10000 1 120 23:48 02.07.2019
5511 Clouds 24 1015 83 10000 1 120 23:21 02.07.2019
5512 Clouds 25 1015 83 10000 1 0 22:59 02.07.2019
5513 Clouds 25 1015 83 10000 1.5 130 22:41 02.07.2019
5514 Clouds 25 1015 83 10000 1.5 210 22:22 02.07.2019
5515 Clouds 25 1015 83 10000 1.5 210 21:57 02.07.2019
5516 Clouds 25 1014 83 10000 2.6 200 21:38 02.07.2019
5517 Clear 26 1014 78 10000 2.6 190 21:18 02.07.2019
5518 Clear 27 1014 78 10000 3.1 210 20:41 02.07.2019
5519 Clear 27 1014 78 10000 3.1 210 20:23 02.07.2019
5520 Clear 27 1014 78 10000 3.1 210 19:57 02.07.2019
5521 Clear 28 1013 78 10000 3.6 190 19:38 02.07.2019
5522 Clear 28 1014 69 10000 3.6 190 19:20 02.07.2019
5523 Clear 29 1014 69 10000 3.6 200 18:45 02.07.2019
5524 Clear 29 1014 69 10000 4.1 190 18:18 02.07.2019
5525 Clear 30 1014 69 10000 4.1 180 17:40 02.07.2019
5526 Clear 30 1014 69 10000 4.1 180 17:21 02.07.2019
5527 Clear 30 1015 74 10000 4.1 180 16:47 02.07.2019
5528 Clear 30 1015 74 10000 4.1 180 16:29 02.07.2019
5529 Clear 30 1015 65 10000 4.1 180 15:44 02.07.2019
5530 Clear 31 1015 65 10000 3.1 150 15:25 02.07.2019
5531 Clear 31 1015 43 10000 6.2 120 14:54 02.07.2019
5532 Clear 31 1016 65 10000 3.1 150 14:36 02.07.2019
5533 Clear 31 1016 69 10000 2.6 140 13:56 02.07.2019
5534 Clear 30 1016 43 10000 4.6 140 13:36 02.07.2019
5535 Clear 30 1016 74 10000 2.6 150 13:18 02.07.2019
5536 Clear 30 1016 69 10000 3.1 130 12:43 02.07.2019
5537 Clear 29 1016 69 10000 3.1 130 12:21 02.07.2019
5538 Clear 29 1016 69 10000 3.1 130 11:42 02.07.2019
5539 Clear 28 1016 69 10000 3.1 130 11:22 02.07.2019
5540 Clear 28 1017 69 10000 3.6 80 10:47 02.07.2019
5541 Clear 27 1017 69 10000 3.6 80 10:26 02.07.2019
5542 Clear 27 1016 74 10000 3.6 80 09:49 02.07.2019
5543 Clear 26 1016 69 10000 2.6 80 09:22 02.07.2019
5544 Clear 25 1016 69 10000 2.6 40 08:52 02.07.2019
5545 Clouds 25 1016 73 10000 2.6 40 08:34 02.07.2019
5546 Clear 23 1016 73 10000 3.1 50 07:55 02.07.2019
5547 Clear 22 1016 73 10000 3.1 60 07:21 02.07.2019
5548 Clear 22 1016 73 10000 3.1 60 07:21 02.07.2019
5549 Clear 22 1016 78 10000 0.5 0 06:54 02.07.2019
5550 Clear 22 1016 78 10000 0.5 0 06:35 02.07.2019
5551 Clear 22 1016 88 10000 1.5 90 04:59 02.07.2019
5552 Clear 23 1017 78 10000 1.5 50 02:28 02.07.2019
5553 Clear 24 1016 83 10000 1.5 70 00:24 02.07.2019
5554 Clear 24 1016 83 10000 2.1 90 23:26 01.07.2019
5555 Clear 25 1016 83 10000 2.1 70 22:52 01.07.2019
5556 Clear 25 1016 83 10000 3.6 70 22:28 01.07.2019
5557 Clear 25 1016 83 10000 3.1 80 21:55 01.07.2019
5558 Clear 26 1016 83 10000 3.1 80 21:36 01.07.2019
5559 Clear 27 1015 83 10000 2.6 80 21:18 01.07.2019
5560 Clear 27 1016 78 10000 3.1 90 20:42 01.07.2019
5561 Clear 28 1016 78 10000 3.1 90 20:20 01.07.2019
5562 Clear 28 1016 78 10000 4.1 100 19:43 01.07.2019
5563 Clear 28 1016 69 10000 4.6 100 19:24 01.07.2019
5564 Clear 29 1016 69 10000 4.6 100 18:56 01.07.2019
5565 Clear 30 1016 69 10000 4.6 100 18:37 01.07.2019
5566 Clear 31 1016 69 10000 4.6 100 18:19 01.07.2019
5567 Clear 31 1017 69 10000 5.1 100 17:42 01.07.2019
5568 Clear 31 1017 69 10000 5.1 100 17:23 01.07.2019
5569 Clear 31 1017 69 10000 5.7 110 16:48 01.07.2019
5570 Clear 31 1017 69 10000 5.7 100 16:27 01.07.2019
5571 Clear 31 1017 65 10000 5.1 90 15:56 01.07.2019
5572 Clear 31 1017 65 10000 5.1 90 15:38 01.07.2019
5573 Clouds 31 1017 69 10000 4.6 110 15:20 01.07.2019
5574 Clouds 31 1018 74 9000 5.7 100 14:43 01.07.2019
5575 Clear 31 1018 74 9000 5.1 90 14:20 01.07.2019
5576 Clear 31 1018 74 9000 4.6 80 13:44 01.07.2019
5577 Clouds 31 1018 78 9000 4.6 100 13:23 01.07.2019
5578 Clouds 30 1018 78 9000 5.1 90 12:55 01.07.2019
5579 Clouds 30 1018 78 9000 5.1 90 12:36 01.07.2019
5580 Clouds 30 1018 78 8000 4.6 100 12:18 01.07.2019
5581 Clouds 29 1018 78 7000 3.6 90 11:43 01.07.2019
5582 Clouds 28 1018 83 7000 4.1 80 11:20 01.07.2019
5583 Clouds 27 1017 83 6000 3.6 100 10:47 01.07.2019
5584 Clouds 27 1017 83 6000 3.1 90 10:23 01.07.2019
5585 Mist 26 1017 83 5000 2.1 100 09:58 01.07.2019
5586 Mist 26 1017 83 5000 2.1 100 09:38 01.07.2019
5587 Fog 25 1017 69 10000 1 0 09:20 01.07.2019
5588 Clouds 24 1017 73 10000 2.1 360 08:37 01.07.2019
5589 Clouds 23 1017 83 9000 2.1 330 07:40 01.07.2019
5590 Clouds 22 1017 83 6000 1 320 07:20 01.07.2019
5591 Mist 21 1017 94 5000 0.5 0 05:43 01.07.2019
5592 Clear 23 1017 88 6000 0.5 120 01:42 01.07.2019
5593 Clear 24 1017 88 7000 1 100 00:47 01.07.2019
5594 Clear 24 1017 88 9000 0.5 130 00:28 01.07.2019
5595 Clouds 24 1017 88 8000 0.5 0 23:52 30.06.2019
5596 Clouds 24 1017 88 8000 1 120 23:21 30.06.2019
5597 Clouds 25 1017 88 8000 1 0 22:44 30.06.2019
5598 Clouds 25 1016 88 8000 1 130 22:20 30.06.2019
5599 Clouds 26 1016 88 8000 1 130 22:20 30.06.2019
5600 Clouds 26 1016 88 8000 1 130 22:20 30.06.2019
5601 Clouds 26 1016 88 10000 1.5 140 21:42 30.06.2019
5602 Clouds 27 1016 83 10000 1.5 170 21:20 30.06.2019
5603 Clouds 28 1016 83 10000 1.5 160 20:56 30.06.2019
5604 Clouds 28 1016 83 10000 1.5 160 20:38 30.06.2019
5605 Clouds 28 1016 83 9000 2.1 120 20:18 30.06.2019
5606 Clouds 29 1017 83 9000 2.6 130 19:44 30.06.2019
5607 Clouds 30 1017 83 9000 2.1 140 19:24 30.06.2019
5608 Clouds 30 1017 83 9000 2.1 140 19:24 30.06.2019
5609 Clouds 32 1017 74 10000 3.1 120 18:26 30.06.2019
5610 Clouds 32 1017 74 10000 3.6 130 17:59 30.06.2019
5611 Clouds 32 1017 74 10000 3.6 130 17:39 30.06.2019
5612 Clouds 32 1017 78 10000 3.6 120 17:18 30.06.2019
5613 Clouds 32 1017 74 10000 3.1 130 16:49 30.06.2019
5614 Clear 32 1017 74 10000 3.1 120 16:27 30.06.2019
5615 Clear 32 1018 74 10000 2.6 110 15:38 30.06.2019
5616 Clear 33 1018 69 10000 2.6 130 15:19 30.06.2019
5617 Clear 33 1018 46 10000 5.7 120 14:54 30.06.2019
5618 Clear 33 1018 74 10000 2.1 160 14:35 30.06.2019
5619 Clear 32 1018 69 10000 3.1 180 13:49 30.06.2019
5620 Clear 32 1018 74 10000 3.1 190 13:30 30.06.2019
5621 Clear 32 1018 43 10000 4.1 120 12:57 30.06.2019
5622 Clear 32 1018 41 10000 3.1 130 12:39 30.06.2019
5623 Clear 31 1018 40 10000 1.5 150 12:19 30.06.2019
5624 Clear 30 1018 40 10000 1.5 130 11:45 30.06.2019
5625 Clear 30 1018 43 10000 1 90 11:21 30.06.2019
5626 Clear 31 1018 43 10000 1 90 11:21 30.06.2019
5627 Clear 29 1018 45 10000 1.5 0 10:55 30.06.2019
5628 Clear 29 1018 45 10000 1.5 0 10:55 30.06.2019
5629 Clear 29 1018 45 10000 1.5 0 10:36 30.06.2019
5630 Clear 28 1018 48 10000 1 70 10:18 30.06.2019
5631 Clear 27 1018 51 10000 1.95 159.447 09:43 30.06.2019
5632 Mist 26 1017 88 1500 2.1 90 09:21 30.06.2019
5633 Mist 24 1017 73 2500 1 0 08:40 30.06.2019
5634 Mist 23 1017 68 3000 0.5 80 08:22 30.06.2019
5635 Mist 23 1017 94 1500 0.5 130 07:51 30.06.2019
5636 Mist 22 1017 94 1500 0.5 130 07:26 30.06.2019
5637 Mist 22 1017 100 1200 2.1 120 06:39 30.06.2019
5638 Mist 22 1016 100 2800 2.6 90 04:48 30.06.2019
5639 Clear 24 1016 65 10000 1.21 117.39 02:27 30.06.2019
5640 Clear 25 1016 65 10000 0.5 0 01:24 30.06.2019
5641 Clear 26 1015 69 10000 0.5 90 00:26 30.06.2019
5642 Clear 26 1015 74 10000 1.5 60 23:53 29.06.2019
5643 Clear 27 1015 69 10000 0.5 0 23:24 29.06.2019
5644 Clear 27 1015 65 10000 1 0 22:55 29.06.2019
5645 Clear 27 1015 74 10000 1 120 22:25 29.06.2019
5646 Clear 28 1014 74 10000 1.5 110 21:57 29.06.2019
5647 Clear 28 1014 74 10000 1.5 110 21:39 29.06.2019
5648 Clear 30 1014 78 10000 2.1 110 21:20 29.06.2019
5649 Clear 32 1014 74 10000 3.1 160 20:40 29.06.2019
5650 Clear 32 1014 29 10000 3.6 100 20:21 29.06.2019
5651 Clear 32 1014 66 10000 1 0 19:43 29.06.2019
5652 Clear 33 1014 31 10000 4.6 120 19:23 29.06.2019
5653 Clear 33 1014 30 10000 3.6 120 18:48 29.06.2019
5654 Clear 35 1015 26 10000 4.1 110 18:25 29.06.2019
5655 Clear 35 1015 28 10000 6.2 120 17:42 29.06.2019
5656 Clear 35 1015 34 10000 5.7 130 17:22 29.06.2019
5657 Clear 35 1015 32 10000 5.1 110 16:54 29.06.2019
5658 Clear 36 1015 34 10000 4.6 130 16:29 29.06.2019
5659 Clear 35 1015 40 10000 4.6 100 15:48 29.06.2019
5660 Clear 36 1014 31 10000 4.6 80 15:24 29.06.2019
5661 Clear 36 1015 32 10000 4.6 70 14:43 29.06.2019
5662 Clear 36 1015 36 10000 4.1 60 14:25 29.06.2019
5663 Clear 36 1015 38 10000 4.1 50 13:46 29.06.2019
5664 Clear 36 1015 35 10000 4.1 80 13:26 29.06.2019
5665 Clear 35 1015 40 10000 3.1 110 12:51 29.06.2019
5666 Clear 35 1015 40 10000 3.1 110 12:33 29.06.2019
5667 Clear 35 1015 28 10000 2.1 140 11:54 29.06.2019
5668 Clear 34 1015 28 10000 2.1 140 11:33 29.06.2019
5669 Clear 34 1015 29 10000 1.5 140 10:57 29.06.2019
5670 Clear 33 1014 45 10000 1.5 230 10:38 29.06.2019
5671 Clear 31 1014 37 10000 3.1 280 10:20 29.06.2019
5672 Clear 30 1013 37 10000 3.6 300 09:44 29.06.2019
5673 Clear 28 1013 41 10000 3.6 300 08:51 29.06.2019
5674 Clear 26 1013 39 10000 3.1 300 08:22 29.06.2019
5675 Clear 27 1013 38 10000 3.1 280 07:44 29.06.2019
5676 Clear 26 1013 44 10000 3.6 290 06:47 29.06.2019
5677 Clear 25 1013 50 10000 2.6 270 06:24 29.06.2019
5678 Clear 24 1013 50 10000 2.6 270 06:24 29.06.2019
5679 Clear 26 1014 54 10000 3.1 240 02:51 29.06.2019
5680 Clear 27 1014 54 10000 3.1 240 01:22 29.06.2019
5681 Clear 28 1014 45 10000 5.1 240 00:29 29.06.2019
5682 Clear 28 1014 51 10000 5.1 250 23:37 28.06.2019
5683 Clear 28 1014 51 10000 5.1 250 23:37 28.06.2019
5684 Clouds 28 1014 48 10000 4.6 240 23:19 28.06.2019
5685 Clouds 29 1014 48 10000 5.1 220 22:45 28.06.2019
5686 Clear 29 1014 51 10000 5.1 220 21:58 28.06.2019
5687 Clear 32 1014 51 10000 7.7 230 21:27 28.06.2019
5688 Clear 32 1014 51 10000 7.7 230 21:26 28.06.2019
5689 Clear 34 1014 54 10000 8.2 220 20:49 28.06.2019
5690 Clear 34 1014 17 10000 3.1 220 20:30 28.06.2019
5691 Clear 34 1013 40 10000 8.2 220 19:57 28.06.2019
5692 Clear 35 1013 38 10000 8.7 220 19:37 28.06.2019
5693 Clear 35 1013 35 10000 10.8 230 19:18 28.06.2019
5694 Clear 36 1013 40 10000 10.3 230 18:41 28.06.2019
5695 Clear 38 1013 40 10000 10.3 230 18:21 28.06.2019
5696 Clear 38 1013 40 10000 10.8 230 17:37 28.06.2019
5697 Clear 38 1014 17 10000 3.6 200 17:18 28.06.2019
5698 Clear 39 1014 40 10000 10.8 220 16:41 28.06.2019
5699 Clear 38 1014 40 10000 10.3 220 16:18 28.06.2019
5700 Clear 38 1014 19 10000 3.6 220 15:39 28.06.2019
5701 Clear 39 1014 18 10000 3.1 190 15:18 28.06.2019
5702 Clear 38 1015 18 10000 3.1 180 14:39 28.06.2019
5703 Clear 38 1015 20 10000 3.6 180 14:20 28.06.2019
5704 Clear 38 1016 22 10000 2.6 200 13:45 28.06.2019
5705 Clear 37 1016 22 10000 2.6 210 13:25 28.06.2019
5706 Clear 36 1016 23 10000 3.1 190 12:50 28.06.2019
5707 Clear 35 1016 23 10000 3.1 190 12:32 28.06.2019
5708 Clear 33 1016 30 10000 1.5 120 11:29 28.06.2019
5709 Clear 32 1016 51 10000 1 0 10:58 28.06.2019
5710 Clear 31 1016 51 10000 1 0 10:38 28.06.2019
5711 -273 0 0 0 0 0 10:18 28.06.2019
5712 Clear 29 1016 42 10000 2.6 300 09:43 28.06.2019
5713 Clear 27 1016 50 10000 4.6 300 09:24 28.06.2019
5714 Clear 25 1016 50 10000 4.1 300 08:42 28.06.2019
5715 Clear 24 1016 53 10000 4.6 310 08:23 28.06.2019
5716 Clear 24 1016 56 10000 3.6 310 07:42 28.06.2019
5717 Clear 23 1016 60 10000 1.5 290 06:54 28.06.2019
5718 Clear 23 1017 60 10000 0.5 0 03:59 28.06.2019
5719 Clear 25 1018 73 10000 1.5 230 00:47 28.06.2019
5720 Clear 24 1018 73 10000 1.5 240 00:20 28.06.2019
5721 Clear 25 1018 78 10000 1.5 220 23:46 27.06.2019
5722 Clear 25 1018 78 10000 1.5 220 23:24 27.06.2019
5723 Clear 26 1018 78 10000 1.5 210 22:44 27.06.2019
5724 Clear 27 1018 69 10000 1.5 200 22:25 27.06.2019
5725 Clear 28 1018 69 10000 1.5 180 21:58 27.06.2019
5726 Clear 28 1018 69 10000 1.5 180 21:39 27.06.2019
5727 Clear 29 1018 57 10000 2.6 160 21:20 27.06.2019
5728 Clear 31 1018 51 10000 2.6 130 20:49 27.06.2019
5729 Clear 32 1018 48 10000 1.5 140 20:31 27.06.2019
5730 Clear 32 1018 45 10000 1.5 150 19:50 27.06.2019
5731 Clear 32 1018 51 10000 2.1 130 19:30 27.06.2019
5732 Clear 33 1018 45 10000 2.6 120 18:55 27.06.2019
5733 Clear 33 1018 45 10000 2.6 120 18:33 27.06.2019
5734 Clear 34 1019 45 10000 3.1 120 17:58 27.06.2019
5735 Clear 34 1019 45 10000 3.1 120 17:37 27.06.2019
5736 Clear 35 1019 42 10000 3.6 120 17:19 27.06.2019
5737 Clear 34 1019 42 10000 2.6 120 16:39 27.06.2019
5738 Clear 35 1020 40 10000 2.6 120 16:19 27.06.2019
5739 Clear 35 1020 40 10000 2.6 120 16:19 27.06.2019
5740 Clear 35 1020 42 10000 3.1 120 15:45 27.06.2019
5741 Clear 35 1020 40 10000 2.6 100 15:26 27.06.2019
5742 Clear 34 1020 40 10000 2.6 110 14:52 27.06.2019
5743 Clear 34 1020 40 10000 2.6 110 14:30 27.06.2019
5744 Clear 34 1021 48 10000 4.1 110 13:56 27.06.2019
5745 Clear 34 1021 48 10000 4.1 110 13:36 27.06.2019
5746 Clear 34 1021 45 10000 3.6 120 13:18 27.06.2019
5747 Clear 33 1021 42 10000 3.1 100 12:41 27.06.2019
5748 Clear 33 1020 40 10000 3.1 110 12:22 27.06.2019
5749 Clear 32 1020 42 10000 2.1 100 11:44 27.06.2019
5750 Clear 31 1020 42 10000 1.5 110 11:21 27.06.2019
5751 Clear 30 1020 42 10000 2.15 130.807 10:56 27.06.2019
5752 Clear 29 1020 42 10000 2.15 130.807 10:36 27.06.2019
5753 Clear 29 1021 47 10000 0.5 0 10:18 27.06.2019
5754 Clear 28 1020 50 10000 2.1 340 09:38 27.06.2019
5755 Clear 26 1020 53 10000 2.6 340 09:20 27.06.2019
5756 Clear 25 1020 56 10000 3.1 330 08:46 27.06.2019
5757 Clear 24 1020 56 10000 3.1 330 08:26 27.06.2019
5758 Clear 23 1020 64 10000 3.1 330 07:40 27.06.2019
5759 Clear 22 1020 64 10000 2.6 340 06:56 27.06.2019
5760 Clear 21 1020 60 10000 2.6 340 06:29 27.06.2019
5761 Clear 23 1020 53 10000 2.1 360 03:50 27.06.2019
5762 Clear 23 1020 57 10000 2.1 350 02:41 27.06.2019
5763 Clear 24 1021 65 10000 2.1 30 01:19 27.06.2019
5764 Clear 24 1021 65 10000 2.1 30 00:48 27.06.2019
5765 Clear 24 1021 65 10000 2.1 30 00:26 27.06.2019
5766 Clear 25 1020 69 10000 3.1 50 23:48 26.06.2019
5767 Clear 25 1020 69 10000 3.6 50 23:23 26.06.2019
5768 Clear 25 1020 69 10000 4.1 60 22:57 26.06.2019
5769 Clear 25 1020 69 10000 4.1 60 22:38 26.06.2019
5770 Clear 26 1020 65 10000 3.6 60 22:19 26.06.2019
5771 Clear 26 1020 61 10000 4.1 60 21:42 26.06.2019
5772 Clear 28 1020 61 10000 5.7 60 21:20 26.06.2019
5773 Clear 29 1020 57 10000 5.7 60 20:55 26.06.2019
5774 Clear 30 1020 57 10000 5.7 60 20:37 26.06.2019
5775 Clear 30 1019 57 10000 6.2 60 20:18 26.06.2019
5776 Clear 30 1019 57 10000 6.2 60 19:41 26.06.2019
5777 Clear 31 1019 57 10000 6.2 70 19:22 26.06.2019
5778 Clear 31 1020 54 10000 7.2 70 18:45 26.06.2019
5779 Clear 32 1020 51 10000 7.2 70 18:22 26.06.2019
5780 Clear 32 1020 48 10000 6.2 70 17:57 26.06.2019
5781 Clear 33 1020 45 10000 6.7 70 17:28 26.06.2019
5782 Clear 33 1020 48 10000 7.7 80 16:57 26.06.2019
5783 Clear 33 1020 48 10000 7.7 80 16:39 26.06.2019
5784 Clear 33 1020 54 10000 7.7 80 16:19 26.06.2019
5785 Clear 33 1020 58 10000 8.2 80 15:37 26.06.2019
5786 Clear 33 1020 48 10000 7.2 70 15:19 26.06.2019
5787 Clear 33 1021 54 10000 7.2 70 14:38 26.06.2019
5788 Clear 33 1021 51 10000 6.2 80 14:19 26.06.2019
5789 Clear 32 1021 54 10000 6.2 90 13:41 26.06.2019
5790 Clear 32 1020 48 10000 7.7 100 13:19 26.06.2019
5791 Clear 33 1020 48 10000 6.2 100 12:41 26.06.2019
5792 Clear 32 1020 48 10000 6.2 100 12:22 26.06.2019
5793 Clear 32 1020 35 10000 8.2 80 11:44 26.06.2019
5794 Clear 31 1020 37 10000 7.7 70 11:19 26.06.2019
5795 Clear 30 1019 40 10000 6.7 70 10:41 26.06.2019
5796 Clear 30 1019 37 10000 8.2 60 10:22 26.06.2019
5797 Clear 28 1019 39 10000 7.2 60 09:42 26.06.2019
5798 Clear 27 1019 42 10000 7.2 60 09:18 26.06.2019
5799 Clear 25 1019 44 10000 6.7 60 08:41 26.06.2019
5800 Clear 24 1019 50 10000 7.7 60 08:19 26.06.2019
5801 Clear 24 1019 47 10000 8.2 60 07:45 26.06.2019
5802 Clear 23 1018 50 10000 8.7 60 06:40 26.06.2019
5803 Clear 22 1018 50 10000 8.7 60 06:21 26.06.2019
5804 Clouds 23 1019 73 10000 4.6 50 01:25 26.06.2019
5805 Clouds 23 1019 73 10000 5.7 50 00:24 26.06.2019
5806 Clouds 23 1019 73 10000 6.7 60 23:45 25.06.2019
5807 Clouds 23 1019 73 10000 6.7 60 23:27 25.06.2019
5808 Clouds 24 1018 73 10000 6.2 60 22:57 25.06.2019
5809 Clouds 24 1018 83 10000 6.2 60 22:38 25.06.2019
5810 Clouds 24 1018 83 10000 6.7 70 22:20 25.06.2019
5811 Clear 24 1018 78 9000 6.7 70 21:43 25.06.2019
5812 Clear 25 1017 78 9000 7.7 70 21:22 25.06.2019
5813 Clear 25 1017 78 9000 7.2 70 20:45 25.06.2019
5814 Clear 25 1017 78 9000 7.2 70 20:45 25.06.2019
5815 Clear 25 1017 78 9000 7.2 70 20:45 25.06.2019
5816 Clear 25 1017 78 9000 7.2 70 20:45 25.06.2019
5817 Clear 26 1017 78 9000 7.7 70 20:22 25.06.2019
5818 Clear 26 1017 73 10000 8.2 60 19:46 25.06.2019
5819 Clear 27 1017 73 10000 7.2 70 19:23 25.06.2019
5820 Clear 28 1017 73 10000 8.2 70 18:47 25.06.2019
5821 Clear 28 1017 73 10000 8.2 70 18:29 25.06.2019
5822 Clear 28 1017 69 10000 7.2 70 18:01 25.06.2019
5823 -273 0 0 0 0 0 17:30 25.06.2019
5824 Clear 29 1017 65 10000 7.7 80 16:58 25.06.2019
5825 Clear 29 1017 65 10000 7.7 80 16:39 25.06.2019
5826 Clear 29 1017 61 10000 6.7 80 16:21 25.06.2019
5827 Clear 29 1017 61 10000 6.2 90 15:42 25.06.2019
5828 Clear 29 1017 54 10000 6.2 80 15:24 25.06.2019
5829 Clear 29 1017 54 10000 6.2 80 15:24 25.06.2019
5830 Clear 29 1017 57 10000 6.7 80 14:54 25.06.2019
5831 Clear 29 1017 57 10000 6.7 80 14:35 25.06.2019
5832 Clear 29 1018 54 10000 7.2 70 13:47 25.06.2019
5833 Clear 29 1018 54 10000 7.2 70 13:29 25.06.2019
5834 Clouds 28 1017 61 10000 8.2 70 12:55 25.06.2019
5835 Clouds 28 1017 61 10000 8.2 70 12:36 25.06.2019
5836 Clouds 27 1018 61 10000 7.2 60 12:18 25.06.2019
5837 Clouds 26 1017 65 10000 7.7 70 11:41 25.06.2019
5838 Clouds 26 1018 65 10000 7.7 60 11:21 25.06.2019
5839 Clouds 25 1018 69 10000 6.7 70 10:45 25.06.2019
5840 Clouds 25 1017 69 10000 8.2 70 10:23 25.06.2019
5841 Clouds 24 1017 69 10000 6.7 70 09:55 25.06.2019
5842 Clouds 24 1017 69 10000 6.7 70 09:37 25.06.2019
5843 Clouds 23 1017 73 10000 5.7 70 09:18 25.06.2019
5844 Clouds 22 1016 73 10000 6.7 70 08:43 25.06.2019
5845 Clouds 22 1016 73 10000 6.7 70 08:24 25.06.2019
5846 Clouds 21 1015 78 10000 6.2 70 07:40 25.06.2019
5847 Clouds 21 1015 78 10000 5.7 70 06:57 25.06.2019
5848 Clouds 20 1015 78 10000 5.7 70 06:39 25.06.2019
5849 Clear 21 1016 73 10000 6.2 60 02:48 25.06.2019
5850 Clear 22 1016 83 10000 6.2 60 01:50 25.06.2019
5851 Clear 22 1016 83 10000 6.2 60 00:37 25.06.2019
5852 Clear 22 1016 83 10000 5.7 60 23:59 24.06.2019
5853 Clear 22 1016 83 10000 6.2 60 23:40 24.06.2019
5854 Clear 22 1015 88 10000 5.7 60 23:22 24.06.2019
5855 Clear 23 1015 88 10000 5.7 60 22:41 24.06.2019
5856 Clear 23 1015 88 10000 6.2 60 22:19 24.06.2019
5857 Clear 23 1015 83 10000 6.2 70 21:41 24.06.2019
5858 Clear 24 1014 78 10000 7.7 60 21:19 24.06.2019
5859 Clear 25 1014 78 10000 7.7 60 20:58 24.06.2019
5860 Clear 25 1014 78 10000 6.7 60 20:40 24.06.2019
5861 Clear 25 1014 73 10000 7.7 60 20:21 24.06.2019
5862 Clear 26 1014 69 10000 9.8 60 19:46 24.06.2019
5863 Clear 27 1014 65 10000 8.2 70 19:21 24.06.2019
5864 Clear 27 1014 61 10000 8.2 70 18:48 24.06.2019
5865 Clear 28 1014 42 10000 7.2 80 18:29 24.06.2019
5866 Clear 29 1015 36 10000 7.7 80 17:56 24.06.2019
5867 Clear 29 1015 36 10000 7.7 80 17:36 24.06.2019
5868 Clear 29 1015 47 10000 7.2 80 16:55 24.06.2019
5869 Clear 30 1015 47 10000 7.2 80 16:36 24.06.2019
5870 Clear 29 1015 51 10000 8.2 70 16:18 24.06.2019
5871 Clear 30 1015 47 10000 8.7 60 15:38 24.06.2019
5872 Clear 30 1015 47 10000 9.3 70 15:19 24.06.2019
5873 Clear 29 1016 47 10000 8.2 60 14:34 24.06.2019
5874 Clear 28 1016 57 10000 8.2 70 13:54 24.06.2019
5875 Clear 28 1016 57 10000 8.2 70 13:31 24.06.2019
5876 Clear 29 1016 57 10000 8.2 70 13:31 24.06.2019
5877 Clear 27 1016 61 10000 7.2 70 12:45 24.06.2019
5878 Clear 27 1017 61 10000 5.7 70 12:22 24.06.2019
5879 Clear 27 1016 61 10000 5.7 60 11:58 24.06.2019
5880 Clear 27 1016 61 10000 5.7 60 11:40 24.06.2019
5881 Clear 26 1016 64 10000 5.7 60 11:20 24.06.2019
5882 Clear 25 1016 64 10000 6.2 60 10:47 24.06.2019
5883 Clear 25 1016 57 10000 4.1 50 10:27 24.06.2019
5884 Clear 24 1015 57 10000 4.6 60 09:49 24.06.2019
5885 Clear 23 1015 64 10000 2.1 360 09:22 24.06.2019
5886 Clear 22 1015 64 10000 2.6 350 08:52 24.06.2019
5887 Clear 21 1014 68 10000 3.1 340 08:25 24.06.2019
5888 Clouds 21 1014 72 10000 3.1 340 07:45 24.06.2019
5889 Clouds 20 1014 72 10000 4.1 330 07:26 24.06.2019
5890 Clouds 19 1015 73 9000 4.1 340 06:39 24.06.2019
5891 Clouds 19 1015 77 8000 4.1 340 06:19 24.06.2019
5892 Clouds 19 1015 77 6000 3.6 330 05:24 24.06.2019
5893 Clouds 19 1016 82 7000 2.6 350 04:24 24.06.2019
5894 Mist 20 1016 88 5000 1.5 30 03:23 24.06.2019
5895 Clouds 20 1016 94 9000 1.5 50 02:32 24.06.2019
5896 Clear 21 1016 94 10000 2.1 80 01:53 24.06.2019
5897 Clear 21 1016 88 10000 1.5 80 01:22 24.06.2019
5898 Clear 21 1016 88 10000 1.5 80 00:40 24.06.2019
5899 Clear 21 1016 78 10000 1 130 00:19 24.06.2019
5900 Clear 21 1016 78 10000 1 130 00:19 24.06.2019
5901 Clear 22 1015 88 10000 2.1 130 23:44 23.06.2019
5902 Clear 22 1015 78 10000 2.1 150 23:23 23.06.2019
5903 Clear 23 1014 78 10000 3.1 180 22:43 23.06.2019
5904 Clear 23 1014 78 10000 3.6 200 22:20 23.06.2019
5905 Clear 24 1014 78 10000 3.6 210 21:56 23.06.2019
5906 Clear 24 1014 78 10000 3.6 210 21:36 23.06.2019
5907 Clear 25 1014 78 10000 5.7 220 21:18 23.06.2019
5908 Clear 26 1014 78 10000 6.2 210 20:40 23.06.2019
5909 Clear 27 1014 78 10000 6.7 210 20:22 23.06.2019
5910 Clear 27 1013 73 10000 6.7 210 19:44 23.06.2019
5911 Clear 28 1013 73 10000 6.7 210 19:21 23.06.2019
5912 Clear 28 1013 69 10000 8.2 220 18:54 23.06.2019
5913 Clear 30 1014 69 10000 8.2 220 18:24 23.06.2019
5914 Clear 30 1014 69 10000 7.7 220 17:51 23.06.2019
5915 Clear 30 1014 69 10000 7.7 210 17:26 23.06.2019
5916 Clear 30 1014 69 10000 7.7 210 16:55 23.06.2019
5917 Clear 30 1014 69 10000 8.7 210 16:37 23.06.2019
5918 Clear 30 1014 78 10000 9.3 210 16:18 23.06.2019
5919 Clear 30 1014 73 10000 7.7 200 15:40 23.06.2019
5920 Clear 30 1014 78 10000 8.7 200 15:21 23.06.2019
5921 Clear 30 1014 78 10000 6.7 190 14:41 23.06.2019
5922 Clear 30 1014 73 10000 7.2 190 14:22 23.06.2019
5923 Clear 30 1014 73 10000 7.2 190 13:58 23.06.2019
5924 Clear 30 1014 73 10000 6.2 200 13:40 23.06.2019
5925 Clear 29 1015 73 10000 3.6 200 13:19 23.06.2019
5926 Clear 28 1015 78 10000 4.6 210 12:44 23.06.2019
5927 Clear 27 1015 73 10000 4.1 230 12:22 23.06.2019
5928 Clear 27 1015 73 10000 4.1 230 12:22 23.06.2019
5929 Clear 27 1015 54 10000 3.1 240 11:55 23.06.2019
5930 Clear 26 1015 54 10000 3.1 240 11:37 23.06.2019
5931 Clear 26 1015 50 10000 3.6 250 11:19 23.06.2019
5932 Clouds 25 1015 83 10000 3.1 210 10:43 23.06.2019
5933 Clouds 24 1015 83 10000 3.1 210 10:18 23.06.2019
5934 Clouds 22 1015 83 10000 2.1 230 09:39 23.06.2019
5935 Clouds 22 1015 83 10000 2.1 230 09:20 23.06.2019
5936 Clouds 21 1015 88 10000 2.6 240 08:44 23.06.2019
5937 Clouds 20 1015 88 10000 3.1 230 08:26 23.06.2019
5938 Clouds 19 1015 94 10000 2.6 220 07:53 23.06.2019
5939 Clouds 18 1015 94 10000 2.1 210 07:21 23.06.2019
5940 Clouds 18 1015 94 10000 2.6 210 06:54 23.06.2019
5941 Clouds 18 1015 82 10000 0.78 286.402 05:54 23.06.2019
5942 Clouds 19 1015 82 10000 1.5 310 04:30 23.06.2019
5943 Clouds 19 1015 88 10000 2.1 200 01:54 23.06.2019
5944 Clouds 19 1015 88 10000 2.1 200 01:35 23.06.2019
5945 Clouds 20 1015 88 10000 2.6 200 00:36 23.06.2019
5946 Clouds 21 1015 83 10000 4.1 220 23:54 22.06.2019
5947 Clouds 21 1015 78 10000 4.6 220 23:27 22.06.2019
5948 Clear 22 1015 78 10000 4.6 220 22:49 22.06.2019
5949 Clear 22 1015 78 10000 4.6 220 22:31 22.06.2019
5950 Clear 22 1015 78 10000 6.2 230 21:59 22.06.2019
5951 Clear 23 1015 78 10000 5.7 220 21:37 22.06.2019
5952 Clear 23 1014 78 10000 7.2 240 21:19 22.06.2019
5953 Clear 24 1014 73 10000 8.7 240 20:50 22.06.2019
5954 Clear 24 1014 73 10000 8.7 240 20:50 22.06.2019
5955 Clear 25 1014 78 10000 10.3 240 20:25 22.06.2019
5956 Clear 26 1014 69 10000 11.3 230 19:47 22.06.2019
5957 Clear 27 1014 69 10000 10.8 230 19:23 22.06.2019
5958 Clouds 27 1014 73 10000 10.3 230 18:48 22.06.2019
5959 Clouds 27 1015 73 10000 10.3 230 18:30 22.06.2019
5960 Clouds 28 1014 69 10000 9.8 230 17:56 22.06.2019
5961 Clouds 28 1015 69 10000 8.7 220 17:34 22.06.2019
5962 Clouds 28 1015 65 10000 9.3 220 16:51 22.06.2019
5963 Clouds 28 1015 61 10000 10.3 230 16:25 22.06.2019
5964 Clouds 28 1015 57 10000 10.3 230 15:56 22.06.2019
5965 Clouds 28 1015 57 10000 10.3 230 15:37 22.06.2019
5966 Clouds 28 1015 54 10000 10.3 220 15:19 22.06.2019
5967 Clouds 28 1015 57 10000 9.3 220 14:37 22.06.2019
5968 Clear 28 1016 50 10000 9.3 220 14:18 22.06.2019
5969 Clear 27 1016 60 10000 10.3 220 13:41 22.06.2019
5970 Clear 27 1016 64 10000 7.7 220 13:21 22.06.2019
5971 Clear 27 1016 60 10000 7.2 210 12:52 22.06.2019
5972 Clear 26 1016 60 10000 7.2 210 12:33 22.06.2019
5973 Clear 25 1016 60 10000 6.2 220 11:58 22.06.2019
5974 Clear 25 1016 60 10000 6.2 220 11:33 22.06.2019
5975 Clear 24 1016 57 10000 4.1 240 10:50 22.06.2019
5976 Clear 23 1016 60 10000 2.1 290 10:21 22.06.2019
5977 Clouds 23 1016 64 10000 2.6 310 09:55 22.06.2019
5978 Clouds 21 1016 73 10000 1.5 310 09:22 22.06.2019
5979 Clouds 20 1016 77 10000 3.1 300 08:43 22.06.2019
5980 Clouds 20 1016 77 10000 2.1 320 08:23 22.06.2019
5981 Clouds 18 1016 77 10000 1.5 300 07:33 22.06.2019
5982 Clouds 18 1016 77 10000 1.5 300 06:55 22.06.2019
5983 Clouds 18 1016 77 10000 1 320 05:23 22.06.2019
5984 Clouds 19 1016 73 10000 1.5 300 02:33 22.06.2019
5985 Clouds 20 1016 77 10000 2.6 250 01:22 22.06.2019
5986 Clouds 20 1016 77 10000 2.6 250 00:41 22.06.2019
5987 Clear 20 1016 77 10000 2.1 260 00:22 22.06.2019
5988 Clear 21 1016 73 10000 1 210 23:44 21.06.2019
5989 Clouds 21 1015 68 10000 0.5 210 23:22 21.06.2019
5990 Clouds 21 1015 68 10000 2.14 152.227 22:50 21.06.2019
5991 Clouds 21 1015 68 10000 0.5 0 22:24 21.06.2019
5992 Clouds 21 1015 68 10000 0.5 130 21:55 21.06.2019
5993 Clouds 21 1015 68 10000 0.5 130 21:36 21.06.2019
5994 Clouds 22 1015 68 10000 0.5 0 21:18 21.06.2019
5995 Clouds 23 1015 68 10000 2.1 160 20:42 21.06.2019
5996 Clouds 23 1015 73 10000 1.5 160 20:20 21.06.2019
5997 Clouds 23 1014 68 10000 2.1 130 19:35 21.06.2019
5998 Clouds 24 1014 64 10000 3.1 140 18:49 21.06.2019
5999 Clouds 24 1014 64 10000 4.1 130 18:30 21.06.2019
6000 Clouds 24 1014 69 10000 4.1 120 17:47 21.06.2019
6001 Clouds 24 1014 69 10000 4.1 130 17:28 21.06.2019
6002 Clouds 25 1014 69 10000 4.1 150 16:41 21.06.2019
6003 Clouds 25 1015 69 10000 4.1 140 16:22 21.06.2019
6004 Clouds 25 1015 64 10000 3.1 160 15:40 21.06.2019
6005 Clouds 25 1015 64 10000 3.1 170 15:21 21.06.2019
6006 Clouds 26 1015 64 10000 2.6 190 14:50 21.06.2019
6007 Clouds 26 1015 64 10000 2.6 190 14:30 21.06.2019
6008 Clouds 25 1015 69 10000 4.6 200 13:57 21.06.2019
6009 Clouds 25 1015 69 10000 4.6 200 13:36 21.06.2019
6010 Clouds 25 1015 73 10000 4.6 180 13:18 21.06.2019
6011 Clouds 25 1014 64 10000 3.6 170 12:39 21.06.2019
6012 Clouds 24 1014 64 10000 2.6 160 12:18 21.06.2019
6013 Clouds 25 1015 47 10000 1.5 140 11:47 21.06.2019
6014 Clouds 25 1014 53 10000 5.1 50 11:26 21.06.2019
6015 Clouds 25 1014 64 10000 3.6 50 10:51 21.06.2019
6016 Clouds 23 1014 69 10000 2.6 30 10:22 21.06.2019
6017 Clouds 23 1014 73 10000 3.6 340 09:59 21.06.2019
6018 Clouds 23 1014 73 10000 3.6 340 09:40 21.06.2019
6019 Clouds 21 1014 77 10000 3.6 340 09:19 21.06.2019
6020 Clouds 20 1014 82 10000 2.1 360 08:43 21.06.2019
6021 Clouds 20 1014 82 10000 2.6 30 08:23 21.06.2019
6022 Clouds 19 1013 82 10000 3.6 30 07:51 21.06.2019
6023 Clouds 19 1014 82 10000 3.6 20 07:30 21.06.2019
6024 Clouds 19 1014 82 10000 2.6 30 06:54 21.06.2019
6025 Clouds 18 1014 82 10000 2.1 30 06:21 21.06.2019
6026 Clouds 18 1014 82 10000 2.1 30 05:26 21.06.2019
6027 Clouds 19 1014 82 10000 2.1 50 04:29 21.06.2019
6028 Clouds 19 1014 82 10000 1.5 60 03:34 21.06.2019
6029 Clouds 19 1014 77 10000 1.5 60 02:52 21.06.2019
6030 Clear 19 1014 82 10000 2.1 80 01:49 21.06.2019
6031 Clouds 19 1014 77 10000 2.1 70 00:56 21.06.2019
6032 Clouds 20 1014 77 10000 1.5 90 00:23 21.06.2019
6033 Clouds 20 1014 73 10000 3.1 30 23:49 20.06.2019
6034 Clouds 20 1014 73 10000 2.6 40 23:23 20.06.2019
6035 Clouds 20 1013 77 10000 2.6 70 22:58 20.06.2019
6036 Clouds 20 1013 77 10000 2.6 70 22:39 20.06.2019
6037 Clouds 21 1012 77 10000 4.1 60 22:20 20.06.2019
6038 Clouds 21 1013 73 10000 4.1 60 21:49 20.06.2019
6039 Clouds 21 1013 73 10000 5.1 40 21:19 20.06.2019
6040 Clouds 22 1013 73 10000 5.1 50 20:50 20.06.2019
6041 Clouds 22 1013 73 10000 3.1 100 20:27 20.06.2019
6042 Clouds 22 1013 73 10000 3.6 90 19:59 20.06.2019
6043 Clouds 22 1013 73 10000 3.6 90 19:39 20.06.2019
6044 Clouds 23 1013 78 10000 3.6 110 19:18 20.06.2019
6045 Clouds 23 1013 78 10000 4.1 110 18:43 20.06.2019
6046 Clouds 23 1013 78 10000 3.6 110 18:23 20.06.2019
6047 Clouds 23 1013 78 10000 3.6 110 18:23 20.06.2019
6048 Clouds 24 1013 78 10000 3.6 110 17:57 20.06.2019
6049 Clouds 24 1013 69 10000 5.1 100 17:39 20.06.2019
6050 Clouds 25 1014 64 10000 4.6 90 16:58 20.06.2019
6051 Clouds 25 1014 64 10000 4.6 90 16:39 20.06.2019
6052 Clouds 25 1014 69 10000 5.1 80 16:19 20.06.2019
6053 Clouds 25 1014 69 10000 5.1 80 16:19 20.06.2019
6054 Clouds 25 1014 64 10000 5.7 100 15:43 20.06.2019
6055 Clouds 26 1014 69 10000 5.7 90 15:23 20.06.2019
6056 Clouds 26 1014 69 10000 5.7 100 14:54 20.06.2019
6057 Clouds 26 1014 64 10000 5.1 90 14:24 20.06.2019
6058 Clouds 26 1014 64 10000 5.1 90 13:59 20.06.2019
6059 Clouds 26 1014 69 10000 4.6 90 13:37 20.06.2019
6060 Clouds 26 1014 73 10000 4.6 90 13:18 20.06.2019
6061 Clouds 26 1014 73 10000 6.2 70 12:41 20.06.2019
6062 Clouds 25 1014 78 10000 5.7 70 12:19 20.06.2019
6063 Clouds 24 1014 73 10000 6.2 70 11:40 20.06.2019
6064 Clouds 24 1014 78 9000 6.2 70 11:22 20.06.2019
6065 Clouds 23 1014 78 9000 1.5 140 10:43 20.06.2019
6066 Clouds 22 1014 83 9000 4.6 70 10:23 20.06.2019
6067 Clouds 22 1014 88 9000 2.6 90 09:46 20.06.2019
6068 Clouds 21 1014 83 9000 1.5 110 09:24 20.06.2019
6069 Clouds 21 1014 94 7000 1.5 160 08:58 20.06.2019
6070 Clouds 21 1014 94 7000 1.5 160 08:40 20.06.2019
6071 Clouds 20 1014 88 9000 1.5 170 08:19 20.06.2019
6072 Clouds 19 1013 82 8000 1 170 07:42 20.06.2019
6073 Clouds 19 1013 82 8000 1.66 148.782 07:23 20.06.2019
6074 Clouds 19 1012 88 8000 2.1 350 06:19 20.06.2019
6075 Clouds 19 1013 88 10000 1.49 87.197 03:40 20.06.2019
6076 Clouds 20 1013 83 10000 1 0 01:56 20.06.2019
6077 Clouds 20 1013 83 10000 1.5 120 00:33 20.06.2019
6078 Clouds 20 1013 83 10000 1 80 23:45 19.06.2019
6079 Clouds 20 1013 83 10000 1.5 110 23:27 19.06.2019
6080 Clouds 21 1012 83 10000 1 130 22:48 19.06.2019
6081 Clouds 21 1012 83 10000 2.1 180 22:24 19.06.2019
6082 Clouds 22 1012 78 10000 3.1 190 21:58 19.06.2019
6083 Clouds 22 1012 78 10000 3.1 190 21:58 19.06.2019
6084 Clouds 22 1012 78 10000 3.1 190 21:37 19.06.2019
6085 Clouds 22 1012 78 10000 3.1 190 21:19 19.06.2019
6086 Clouds 23 1012 78 10000 3.1 200 20:41 19.06.2019
6087 Clouds 24 1012 78 10000 3.1 210 20:21 19.06.2019
6088 Clouds 24 1012 78 10000 3.6 200 19:46 19.06.2019
6089 Clouds 25 1012 78 10000 3.6 210 19:26 19.06.2019
6090 Clouds 25 1012 73 10000 3.6 200 18:56 19.06.2019
6091 Clouds 26 1012 78 10000 4.1 210 18:24 19.06.2019
6092 Clouds 26 1012 73 10000 4.6 210 17:47 19.06.2019
6093 Clouds 26 1012 78 10000 4.6 200 17:26 19.06.2019
6094 Clouds 27 1013 78 10000 4.1 190 16:56 19.06.2019
6095 Clouds 27 1013 78 10000 4.1 190 16:37 19.06.2019
6096 Clouds 27 1013 73 10000 4.6 190 16:19 19.06.2019
6097 Clouds 27 1013 83 10000 5.7 190 15:44 19.06.2019
6098 Clouds 26 1013 78 10000 5.7 200 15:24 19.06.2019
6099 Clouds 27 1013 78 10000 6.2 200 14:43 19.06.2019
6100 Clouds 27 1013 78 10000 5.7 190 14:25 19.06.2019
6101 Clouds 27 1013 73 10000 6.2 200 13:48 19.06.2019
6102 Clouds 27 1013 73 10000 6.2 200 13:29 19.06.2019
6103 Clouds 27 1013 73 10000 6.2 200 12:59 19.06.2019
6104 Clouds 26 1013 69 10000 5.7 210 12:41 19.06.2019
6105 Clouds 26 1013 69 10000 5.7 210 12:19 19.06.2019
6106 Clouds 25 1013 73 10000 5.7 210 11:43 19.06.2019
6107 Clouds 25 1013 73 10000 5.7 210 11:43 19.06.2019
6108 Clouds 24 1013 68 10000 4.6 210 11:21 19.06.2019
6109 Clouds 24 1013 78 10000 4.6 220 10:51 19.06.2019
6110 Clouds 23 1013 78 10000 4.6 220 10:30 19.06.2019
6111 Clear 22 1013 83 10000 4.1 220 09:58 19.06.2019
6112 Clear 22 1013 77 10000 1.5 310 09:38 19.06.2019
6113 Clear 20 1013 72 10000 2.1 320 09:19 19.06.2019
6114 Clear 20 1013 72 10000 2.6 310 08:44 19.06.2019
6115 Clear 19 1013 72 10000 2.6 310 08:25 19.06.2019
6116 Clear 18 1013 72 10000 2.6 320 07:44 19.06.2019
6117 Clear 17 1013 72 10000 2.1 310 07:23 19.06.2019
6118 Clear 17 1013 72 10000 2.1 310 06:44 19.06.2019
6119 Clouds 16 1013 68 10000 2.1 320 06:22 19.06.2019
6120 Clouds 17 1013 72 10000 2.1 310 05:41 19.06.2019
6121 Clear 17 1013 72 10000 2.1 300 03:58 19.06.2019
6122 Clear 18 1014 63 10000 0.5 250 03:18 19.06.2019
6123 Clear 18 1014 82 10000 2.1 230 01:48 19.06.2019
6124 Clear 19 1014 88 10000 2.6 210 00:57 19.06.2019
6125 Clear 19 1014 88 10000 2.6 210 00:39 19.06.2019
6126 Clear 20 1014 82 10000 2.6 240 00:20 19.06.2019
6127 Clear 20 1014 82 10000 2.6 230 23:46 18.06.2019
6128 Clear 21 1014 82 10000 2.6 230 23:26 18.06.2019
6129 Clear 21 1014 77 10000 4.1 210 22:44 18.06.2019
6130 Clear 22 1014 77 10000 4.1 220 22:24 18.06.2019
6131 Clear 22 1014 73 10000 4.6 220 21:56 18.06.2019
6132 Clear 23 1014 73 10000 4.6 220 21:38 18.06.2019
6133 Clouds 23 1014 73 10000 4.1 220 21:19 18.06.2019
6134 Clouds 24 1014 69 10000 4.6 210 20:42 18.06.2019
6135 Clouds 25 1014 73 10000 4.6 210 20:24 18.06.2019
6136 Clouds 25 1014 69 10000 5.1 220 19:41 18.06.2019
6137 Clouds 25 1014 69 10000 5.1 220 19:23 18.06.2019
6138 Clear 26 1014 73 10000 5.7 210 18:56 18.06.2019
6139 Clear 26 1014 73 10000 5.7 210 18:28 18.06.2019
6140 Clear 26 1014 73 10000 5.7 210 17:59 18.06.2019
6141 Clear 27 1014 73 10000 5.7 210 17:38 18.06.2019
6142 Clear 27 1015 69 10000 5.7 210 17:19 18.06.2019
6143 Clear 27 1014 28 10000 5.1 170 16:43 18.06.2019
6144 Clear 27 1015 57 10000 6.7 210 16:24 18.06.2019
6145 Clear 28 1015 53 10000 6.2 210 15:43 18.06.2019
6146 Clear 27 1015 57 10000 6.7 210 15:24 18.06.2019
6147 Clear 27 1015 53 10000 7.2 210 14:58 18.06.2019
6148 Clear 27 1015 53 10000 7.2 210 14:40 18.06.2019
6149 Clear 27 1015 57 10000 7.2 220 14:20 18.06.2019
6150 Clear 27 1015 64 10000 5.7 210 13:52 18.06.2019
6151 Clear 27 1015 64 10000 5.7 210 13:31 18.06.2019
6152 Clear 27 1015 30 10000 2.6 0 12:48 18.06.2019
6153 Clear 26 1015 30 10000 2.6 170 12:29 18.06.2019
6154 Clouds 26 1015 57 10000 6.2 220 11:59 18.06.2019
6155 Clouds 26 1015 57 10000 6.2 220 11:40 18.06.2019
6156 Clear 25 1015 69 10000 4.6 200 11:20 18.06.2019
6157 Clear 25 1015 60 10000 3.1 250 10:55 18.06.2019
6158 Clear 25 1015 60 10000 3.1 250 10:36 18.06.2019
6159 Clear 24 1015 68 10000 2.6 270 10:18 18.06.2019
6160 Clear 22 1015 64 10000 2.6 290 09:36 18.06.2019
6161 Clear 22 1015 68 10000 2.6 300 09:18 18.06.2019
6162 Clear 21 1015 68 10000 3.1 310 08:42 18.06.2019
6163 Clear 20 1015 72 10000 2.1 330 08:21 18.06.2019
6164 Clouds 19 1015 77 10000 2.6 310 07:37 18.06.2019
6165 Clouds 18 1015 72 10000 2.6 300 07:18 18.06.2019
6166 Clouds 17 1015 68 10000 1 300 05:38 18.06.2019
6167 Clouds 17 1015 72 10000 1 310 04:23 18.06.2019
6168 Clouds 18 1016 100 10000 2.6 250 02:51 18.06.2019
6169 Clear 18 1016 93 10000 3.1 220 01:52 18.06.2019
6170 Clear 18 1016 93 10000 2.6 220 01:24 18.06.2019
6171 Clear 19 1016 93 10000 3.6 250 00:41 18.06.2019
6172 Clear 19 1016 93 10000 3.1 240 00:23 18.06.2019
6173 Clear 20 1016 88 10000 3.1 220 23:40 17.06.2019
6174 Clear 20 1016 88 10000 3.1 220 23:19 17.06.2019
6175 Clear 21 1016 88 10000 3.6 220 22:42 17.06.2019
6176 Clear 21 1015 77 10000 4.6 220 22:22 17.06.2019
6177 Clear 22 1015 77 10000 5.7 220 21:58 17.06.2019
6178 Clear 22 1015 77 10000 5.7 220 21:40 17.06.2019
6179 Clear 23 1015 83 10000 6.7 220 21:20 17.06.2019
6180 Clear 24 1015 78 10000 6.7 210 20:37 17.06.2019
6181 Clear 24 1015 78 10000 6.7 210 20:18 17.06.2019
6182 Clear 24 1015 78 10000 6.7 210 20:18 17.06.2019
6183 Clear 25 1015 69 10000 6.7 210 19:41 17.06.2019
6184 Clear 26 1015 73 10000 7.2 210 19:22 17.06.2019
6185 Clear 26 1015 83 10000 7.2 210 18:57 17.06.2019
6186 Clear 27 1015 73 10000 7.2 210 18:37 17.06.2019
6187 Clear 27 1015 73 10000 7.2 210 18:18 17.06.2019
6188 Clear 27 1016 73 10000 8.2 220 17:42 17.06.2019
6189 Clear 28 1016 73 10000 8.7 220 17:24 17.06.2019
6190 Clear 28 1016 73 10000 8.2 220 16:46 17.06.2019
6191 Clear 28 1016 73 10000 8.2 220 16:28 17.06.2019
6192 Clear 28 1016 73 10000 7.7 210 15:56 17.06.2019
6193 Clear 28 1016 37 10000 5.1 120 15:38 17.06.2019
6194 Clear 29 1016 37 10000 5.1 120 15:18 17.06.2019
6195 Clear 28 1016 42 10000 6.2 90 14:48 17.06.2019
6196 Clear 28 1016 69 10000 5.7 190 14:30 17.06.2019
6197 Clear 28 1016 33 10000 3.6 130 13:50 17.06.2019
6198 Clear 28 1016 33 10000 3.6 130 13:24 17.06.2019
6199 Clear 28 1016 64 10000 3.6 200 12:52 17.06.2019
6200 Clear 28 1016 28 10000 1.5 220 12:31 17.06.2019
6201 Clear 26 1017 64 10000 1 0 11:49 17.06.2019
6202 Clear 26 1017 64 10000 1 0 11:26 17.06.2019
6203 Clear 25 1017 64 10000 1 0 10:59 17.06.2019
6204 Clear 24 1017 73 10000 0.5 280 10:40 17.06.2019
6205 Clear 23 1017 73 10000 2.1 270 10:22 17.06.2019
6206 Clear 22 1017 73 10000 2.1 270 09:55 17.06.2019
6207 Clear 21 1017 68 10000 3.1 280 09:30 17.06.2019
6208 Clear 19 1017 72 10000 2.6 300 08:42 17.06.2019
6209 Clear 19 1017 72 10000 2.6 300 08:23 17.06.2019
6210 Clear 18 1017 77 10000 3.6 240 07:46 17.06.2019
6211 Clear 17 1017 77 10000 3.6 240 07:28 17.06.2019
6212 Clear 17 1017 77 10000 4.6 320 06:46 17.06.2019
6213 Clear 16 1016 72 10000 4.1 320 05:50 17.06.2019
6214 Clouds 17 1016 72 10000 2.1 320 04:52 17.06.2019
6215 Clear 17 1017 82 10000 2.6 260 03:50 17.06.2019
6216 Clear 17 1017 82 10000 2.6 260 03:25 17.06.2019
6217 Clear 17 1017 63 10000 1.5 270 02:42 17.06.2019
6218 Clear 18 1017 68 10000 2.1 300 02:18 17.06.2019
6219 Clear 18 1018 68 10000 2.6 260 01:34 17.06.2019
6220 Clouds 19 1018 72 10000 3.1 240 00:45 17.06.2019
6221 Clouds 19 1018 72 10000 3.1 240 00:24 17.06.2019
6222 Clouds 19 1018 72 10000 3.1 240 23:56 16.06.2019
6223 Clouds 19 1018 68 10000 3.6 240 23:36 16.06.2019
6224 Clouds 19 1018 68 10000 5.1 240 23:18 16.06.2019
6225 Clear 20 1017 72 10000 5.1 240 22:39 16.06.2019
6226 Clear 20 1017 72 10000 5.1 230 22:19 16.06.2019
6227 Clear 21 1017 77 10000 5.1 230 21:56 16.06.2019
6228 Clear 21 1017 77 10000 5.1 230 21:38 16.06.2019
6229 Clear 21 1018 73 10000 7.2 230 21:19 16.06.2019
6230 Clear 22 1018 73 10000 7.7 230 20:38 16.06.2019
6231 Clear 22 1017 73 10000 8.7 220 20:19 16.06.2019
6232 Clear 23 1017 73 10000 8.7 220 19:58 16.06.2019
6233 Clear 23 1017 68 10000 6.7 230 19:38 16.06.2019
6234 Clear 23 1017 68 10000 6.7 230 19:19 16.06.2019
6235 Clear 24 1018 68 10000 7.7 230 18:41 16.06.2019
6236 Clear 25 1018 68 10000 7.7 230 18:21 16.06.2019
6237 Clear 25 1018 73 10000 8.2 220 17:49 16.06.2019
6238 Clear 26 1018 64 10000 8.2 220 17:25 16.06.2019
6239 Clear 26 1018 64 10000 8.2 220 16:58 16.06.2019
6240 Clear 26 1018 64 10000 8.2 220 16:58 16.06.2019
6241 Clear 26 1018 68 10000 7.7 220 16:40 16.06.2019
6242 Clear 26 1018 68 10000 7.7 220 16:21 16.06.2019
6243 Clear 26 1019 64 10000 6.7 220 15:57 16.06.2019
6244 Clear 26 1019 64 10000 7.2 230 15:38 16.06.2019
6245 Clear 26 1019 60 10000 7.2 220 15:19 16.06.2019
6246 Clear 25 1020 56 10000 8.2 220 14:37 16.06.2019
6247 Clouds 25 1020 64 10000 5.7 200 14:19 16.06.2019
6248 Clouds 25 1020 68 10000 3.6 190 13:46 16.06.2019
6249 Clouds 25 1020 68 10000 3.6 190 13:25 16.06.2019
6250 Clouds 24 1020 64 10000 3.1 180 12:45 16.06.2019
6251 Clouds 24 1020 64 10000 3.6 150 12:22 16.06.2019
6252 Clouds 23 1020 64 10000 3.6 150 11:56 16.06.2019
6253 Clouds 23 1020 64 10000 3.1 140 11:38 16.06.2019
6254 Clear 23 1020 64 10000 2.6 130 11:18 16.06.2019
6255 Clear 22 1020 68 10000 2.1 110 10:44 16.06.2019
6256 Clear 21 1020 68 10000 2.1 110 10:19 16.06.2019
6257 Clear 20 1020 68 10000 0.5 360 09:43 16.06.2019
6258 Clear 20 1020 68 10000 0.5 360 09:24 16.06.2019
6259 Clear 18 1020 77 10000 2.6 310 08:47 16.06.2019
6260 Clear 18 1020 77 10000 2.6 310 08:21 16.06.2019
6261 Clear 16 1020 82 10000 2.6 330 07:49 16.06.2019
6262 Clear 16 1020 82 10000 2.6 330 07:31 16.06.2019
6263 Clear 15 1019 87 10000 2.6 320 06:55 16.06.2019
6264 Clear 16 1020 82 10000 2.1 300 05:57 16.06.2019
6265 Clear 16 1020 82 10000 2.1 310 05:26 16.06.2019
6266 Clear 16 1020 82 10000 2.1 310 04:26 16.06.2019
6267 Clear 16 1020 82 10000 2.1 300 03:43 16.06.2019
6268 Clear 16 1020 82 10000 2.1 300 03:23 16.06.2019
6269 Clouds 17 1020 88 10000 0.5 0 01:51 16.06.2019
6270 Clouds 17 1020 82 10000 1 0 01:33 16.06.2019
6271 Clouds 18 1020 88 10000 0.5 0 00:49 16.06.2019
6272 Clouds 18 1020 88 10000 0.5 0 00:26 16.06.2019
6273 Clouds 18 1020 77 10000 2.36 147.374 23:59 15.06.2019
6274 Clouds 18 1020 82 10000 1 20 23:39 15.06.2019
6275 Clouds 18 1019 82 10000 1 0 23:20 15.06.2019
6276 Clouds 19 1019 82 10000 2.6 100 22:48 15.06.2019
6277 Clouds 19 1019 82 10000 2.6 100 22:26 15.06.2019
6278 Clouds 19 1018 77 10000 2.6 90 21:45 15.06.2019
6279 Clouds 20 1018 77 10000 3.1 90 21:21 15.06.2019
6280 Clouds 20 1018 77 10000 4.1 100 20:46 15.06.2019
6281 Clouds 21 1018 77 10000 4.1 100 20:24 15.06.2019
6282 Clouds 21 1017 73 10000 5.7 100 19:53 15.06.2019
6283 Clouds 21 1017 73 10000 6.2 90 19:29 15.06.2019
6284 Clouds 22 1017 77 10000 5.7 90 18:59 15.06.2019
6285 Clouds 22 1017 77 10000 5.7 100 18:37 15.06.2019
6286 Clouds 23 1017 83 10000 6.2 90 18:19 15.06.2019
6287 Clouds 23 1017 77 10000 5.1 100 17:41 15.06.2019
6288 Clouds 23 1017 83 10000 5.1 110 17:21 15.06.2019
6289 Clouds 23 1017 77 10000 4.6 100 16:44 15.06.2019
6290 Clouds 23 1017 77 10000 4.6 100 16:18 15.06.2019
6291 Clouds 24 1016 78 10000 5.1 100 15:42 15.06.2019
6292 Clouds 24 1016 78 10000 5.1 100 15:22 15.06.2019
6293 Clouds 24 1017 73 10000 4.6 100 14:39 15.06.2019
6294 Clouds 24 1017 73 10000 4.6 100 14:18 15.06.2019
6295 Clouds 24 1017 68 10000 4.1 100 13:55 15.06.2019
6296 Clouds 24 1017 77 10000 4.1 110 13:36 15.06.2019
6297 Clouds 24 1017 77 10000 4.1 110 13:18 15.06.2019
6298 Clouds 24 1016 78 10000 3.6 130 12:42 15.06.2019
6299 Clouds 24 1016 78 10000 3.6 130 12:23 15.06.2019
6300 Clouds 23 1016 73 10000 4.1 80 11:48 15.06.2019
6301 Clouds 23 1016 73 10000 4.1 80 11:29 15.06.2019
6302 Clouds 23 1016 73 10000 1 0 10:46 15.06.2019
6303 Clouds 22 1016 73 10000 1 0 10:25 15.06.2019
6304 Clouds 21 1016 72 10000 0.5 0 09:48 15.06.2019
6305 Clouds 20 1016 72 10000 0.5 0 09:27 15.06.2019
6306 Clouds 19 1015 72 10000 2.1 340 08:55 15.06.2019
6307 Clouds 19 1015 72 10000 2.1 340 08:55 15.06.2019
6308 Clouds 19 1015 82 10000 2.6 330 08:37 15.06.2019
6309 Clouds 18 1015 82 10000 2.6 330 08:18 15.06.2019
6310 Clouds 18 1015 82 10000 2.6 320 08:18 15.06.2019
6311 Clouds 17 1014 82 10000 2.1 330 07:26 15.06.2019
6312 Clouds 17 1014 82 10000 2.1 330 07:26 15.06.2019
6313 Clouds 17 1014 82 10000 2.1 330 07:26 15.06.2019
6314 Clouds 16 1014 77 10000 1 0 06:48 15.06.2019
6315 Clouds 16 1014 77 10000 1 0 06:28 15.06.2019
6316 Clouds 16 1014 77 10000 0.5 0 05:39 15.06.2019
6317 Clouds 16 1013 77 10000 1.06 338.66 04:56 15.06.2019
6318 Clouds 17 1013 82 10000 1.06 338.66 04:20 15.06.2019
6319 Clouds 17 1013 82 10000 1.28 152.198 03:22 15.06.2019
6320 Clouds 17 1013 72 10000 1 210 02:34 15.06.2019
6321 Clouds 18 1013 77 10000 1.5 270 01:57 15.06.2019
6322 Clear 18 1014 77 10000 2.6 230 01:24 15.06.2019
6323 Clear 19 1013 72 10000 3.1 220 00:42 15.06.2019
6324 Clear 19 1013 72 10000 3.1 220 00:23 15.06.2019
6325 Clear 19 1013 68 10000 5.7 220 23:49 14.06.2019
6326 Clear 19 1013 68 10000 5.7 220 23:20 14.06.2019
6327 Clear 20 1012 60 10000 6.7 250 22:41 14.06.2019
6328 Clear 20 1012 60 10000 6.7 250 22:41 14.06.2019
6329 Clear 20 1011 64 10000 7.2 230 22:21 14.06.2019
6330 Clear 21 1011 64 10000 7.7 230 21:48 14.06.2019
6331 Clear 21 1011 64 10000 7.7 230 21:28 14.06.2019
6332 Clear 22 1011 68 10000 7.2 240 20:57 14.06.2019
6333 Clear 23 1011 73 10000 6.7 240 20:38 14.06.2019
6334 Clear 23 1010 68 10000 9.3 230 20:18 14.06.2019
6335 Clear 23 1010 73 10000 9.3 230 19:41 14.06.2019
6336 Clear 24 1010 68 10000 9.3 230 19:22 14.06.2019
6337 Clear 24 1010 68 10000 9.3 230 18:54 14.06.2019
6338 Clear 24 1010 68 10000 9.3 230 18:36 14.06.2019
6339 Clear 24 1010 68 10000 12.3 240 18:18 14.06.2019
6340 Clear 25 1010 64 10000 11.3 230 17:45 14.06.2019
6341 Clear 25 1010 64 10000 11.3 230 17:23 14.06.2019
6342 Clear 24 1010 68 10000 11.3 230 16:53 14.06.2019
6343 Clear 24 1009 68 10000 10.3 240 16:27 14.06.2019
6344 Clear 25 1010 68 10000 11.8 230 15:59 14.06.2019
6345 Clear 25 1010 68 10000 13.9 240 15:39 14.06.2019
6346 Clear 26 1009 57 10000 11.3 230 15:20 14.06.2019
6347 Clear 26 1009 57 10000 11.3 230 15:20 14.06.2019
6348 Clear 25 1009 50 10000 11.8 240 14:48 14.06.2019
6349 Clear 25 1009 50 10000 11.8 240 14:29 14.06.2019
6350 Clear 23 1010 68 10000 5.7 220 13:49 14.06.2019
6351 Clear 23 1010 68 10000 5.7 220 13:30 14.06.2019
6352 Clear 24 1009 56 10000 6.2 190 13:00 14.06.2019
6353 Clear 25 1008 53 10000 1.5 260 12:40 14.06.2019
6354 Clear 24 1008 53 10000 1.5 260 12:22 14.06.2019
6355 Clear 23 1009 60 10000 5.1 250 11:43 14.06.2019
6356 Clear 23 1009 60 10000 5.1 250 11:24 14.06.2019
6357 Clear 22 1009 52 10000 1 0 10:50 14.06.2019
6358 Clear 22 1009 52 10000 1 0 10:22 14.06.2019
6359 Clear 21 1008 56 10000 3.6 350 09:56 14.06.2019
6360 Clear 21 1008 52 10000 2.6 40 09:37 14.06.2019
6361 Clear 21 1008 52 10000 0.5 330 09:19 14.06.2019
6362 Clear 20 1008 49 10000 2.6 280 08:41 14.06.2019
6363 Clear 19 1007 49 10000 3.1 330 08:18 14.06.2019
6364 Clear 19 1007 52 10000 2.6 330 07:45 14.06.2019
6365 Clear 18 1007 52 10000 2.6 330 07:19 14.06.2019
6366 Clear 17 1008 82 10000 1.5 290 06:27 14.06.2019
6367 Clear 17 1008 82 10000 1.5 290 06:27 14.06.2019
6368 Clear 18 1007 45 10000 3.1 340 05:53 14.06.2019
6369 Rain 18 1008 42 10000 3.1 350 04:56 14.06.2019
6370 Rain 18 1009 39 10000 3.1 330 04:32 14.06.2019
6371 Clear 18 1010 39 10000 4.1 340 03:46 14.06.2019
6372 Clear 18 1010 39 10000 4.1 340 03:23 14.06.2019
6373 Clear 18 1011 42 10000 5.1 40 02:43 14.06.2019
6374 Clear 18 1012 42 10000 4.6 40 01:56 14.06.2019
6375 Clear 18 1013 59 10000 3.6 50 00:46 14.06.2019
6376 Clear 18 1013 55 10000 3.6 60 00:22 14.06.2019
6377 Clear 18 1013 55 10000 3.6 60 23:52 13.06.2019
6378 Clear 18 1013 55 10000 4.6 50 23:27 13.06.2019
6379 Clear 18 1013 59 10000 5.7 60 22:58 13.06.2019
6380 Clear 19 1013 59 10000 5.7 60 22:38 13.06.2019
6381 Clear 19 1013 59 10000 5.7 60 22:19 13.06.2019
6382 Clear 19 1012 55 10000 6.2 60 21:38 13.06.2019
6383 Clear 19 1012 63 10000 7.2 50 21:19 13.06.2019
6384 Clouds 20 1012 63 10000 6.7 60 20:45 13.06.2019
6385 Clouds 20 1012 68 10000 7.2 70 20:22 13.06.2019
6386 Clouds 20 1012 68 10000 7.2 70 19:57 13.06.2019
6387 Clouds 21 1012 64 10000 6.7 70 19:37 13.06.2019
6388 Clouds 21 1013 64 10000 6.7 70 19:19 13.06.2019
6389 Clouds 21 1013 64 10000 6.7 70 18:46 13.06.2019
6390 Clouds 21 1013 64 10000 6.7 70 18:28 13.06.2019
6391 Clouds 22 1013 52 10000 6.2 80 17:59 13.06.2019
6392 Clouds 22 1013 56 10000 5.7 80 17:41 13.06.2019
6393 Clouds 21 1013 60 10000 6.2 90 17:20 13.06.2019
6394 Clouds 21 1014 64 10000 5.7 90 16:46 13.06.2019
6395 Clouds 21 1014 64 10000 5.1 90 16:21 13.06.2019
6396 Clouds 22 1014 72 10000 6.2 110 15:56 13.06.2019
6397 Clouds 22 1014 72 10000 6.2 110 15:38 13.06.2019
6398 Clear 22 1014 68 10000 6.7 100 15:18 13.06.2019
6399 Clear 22 1014 68 10000 6.2 90 14:44 13.06.2019
6400 Clear 23 1014 68 10000 6.2 90 14:23 13.06.2019
6401 Clear 22 1015 64 10000 4.6 100 13:46 13.06.2019
6402 Clear 22 1015 64 10000 4.6 100 13:21 13.06.2019
6403 Clouds 22 1015 68 10000 4.1 120 12:44 13.06.2019
6404 Clouds 21 1015 68 10000 4.1 120 12:23 13.06.2019
6405 Clouds 21 1015 68 10000 4.1 120 12:23 13.06.2019
6406 Clouds 21 1015 64 10000 4.1 100 11:57 13.06.2019
6407 Clouds 21 1015 60 10000 3.6 110 11:39 13.06.2019
6408 Clouds 20 1015 60 10000 3.6 110 11:21 13.06.2019
6409 Clouds 19 1015 63 10000 1.5 70 10:45 13.06.2019
6410 Clouds 19 1015 63 10000 1.5 70 10:27 13.06.2019
6411 Clear 18 1015 72 10000 3.1 340 09:44 13.06.2019
6412 Clear 17 1015 72 10000 3.1 340 09:24 13.06.2019
6413 Clear 17 1015 72 10000 3.1 340 09:24 13.06.2019
6414 Clear 17 1015 72 10000 3.1 340 09:24 13.06.2019
6415 Clear 16 1015 72 10000 4.1 330 08:49 13.06.2019
6416 Clouds 14 1015 76 10000 4.6 330 08:28 13.06.2019
6417 Clouds 13 1015 76 10000 4.1 330 07:59 13.06.2019
6418 Clouds 13 1015 82 10000 4.1 330 07:30 13.06.2019
6419 Clouds 12 1014 82 10000 5.1 330 06:52 13.06.2019
6420 Clouds 12 1015 87 10000 3.6 330 06:24 13.06.2019
6421 Clouds 11 1015 87 10000 3.6 330 05:57 13.06.2019
6422 Clouds 12 1015 82 10000 4.1 330 05:37 13.06.2019
6423 Clouds 12 1015 82 10000 3.6 330 04:59 13.06.2019
6424 Clouds 12 1015 82 10000 3.1 330 03:28 13.06.2019
6425 Clouds 13 1015 77 10000 1 330 01:43 13.06.2019
6426 Clouds 14 1016 77 10000 0.5 340 00:29 13.06.2019
6427 Clouds 15 1016 77 10000 2.1 200 23:26 12.06.2019
6428 Clouds 16 1015 77 10000 2.6 230 22:47 12.06.2019
6429 Clouds 17 1015 77 10000 2.6 230 22:28 12.06.2019
6430 Clouds 17 1015 77 10000 3.1 230 21:59 12.06.2019
6431 Clouds 17 1015 68 10000 3.6 220 21:40 12.06.2019
6432 Clouds 18 1015 63 10000 4.1 210 21:22 12.06.2019
6433 Clouds 18 1015 63 10000 4.1 210 20:48 12.06.2019
6434 Clouds 19 1014 63 10000 4.6 210 20:29 12.06.2019
6435 Clear 19 1014 63 10000 5.1 210 19:57 12.06.2019
6436 Clear 19 1014 63 10000 5.1 210 19:38 12.06.2019
6437 Clear 19 1014 63 10000 5.7 200 19:19 12.06.2019
6438 Clear 20 1014 63 10000 6.2 210 18:44 12.06.2019
6439 Clear 20 1014 63 10000 6.2 210 18:24 12.06.2019
6440 Clouds 20 1014 59 10000 6.2 210 17:46 12.06.2019
6441 Clouds 20 1015 59 10000 6.2 210 17:23 12.06.2019
6442 Clouds 20 1015 59 10000 6.2 200 16:43 12.06.2019
6443 Clouds 20 1015 59 10000 6.2 200 16:25 12.06.2019
6444 Clouds 20 1015 59 10000 5.7 210 15:58 12.06.2019
6445 Clouds 20 1015 59 10000 5.7 210 15:33 12.06.2019
6446 -273 0 0 0 0 0 14:58 12.06.2019
6447 Clouds 20 1015 63 10000 6.2 200 14:33 12.06.2019
6448 Clouds 20 1016 52 10000 6.2 200 13:58 12.06.2019
6449 Clouds 20 1016 52 10000 6.2 200 13:58 12.06.2019
6450 Clouds 20 1016 63 10000 6.2 210 13:39 12.06.2019
6451 Clouds 19 1016 63 10000 5.7 200 13:19 12.06.2019
6452 Clouds 19 1016 72 10000 4.6 200 12:44 12.06.2019
6453 Clouds 18 1016 72 10000 4.6 200 12:21 12.06.2019
6454 Rain 18 1016 68 10000 4.6 190 11:55 12.06.2019
6455 Rain 17 1016 72 10000 3.6 180 11:37 12.06.2019
6456 Rain 17 1016 72 10000 3.6 180 11:19 12.06.2019
6457 Clouds 16 1016 77 10000 1 0 10:42 12.06.2019
6458 Clouds 16 1016 82 10000 2.6 320 10:19 12.06.2019
6459 Clouds 15 1015 87 8000 3.6 330 09:41 12.06.2019
6460 Clouds 14 1015 87 8000 3.6 330 09:22 12.06.2019
6461 Mist 13 1015 93 5000 3.6 330 08:37 12.06.2019
6462 Mist 12 1015 93 4500 3.1 330 08:18 12.06.2019
6463 Mist 11 1014 100 3500 3.1 330 07:20 12.06.2019
6464 Fog 11 1014 100 1500 4.1 330 06:40 12.06.2019
6465 Mist 11 1014 100 3500 2.1 320 05:25 12.06.2019
6466 Clouds 12 1015 93 10000 1.5 300 03:41 12.06.2019
6467 Clouds 13 1015 82 10000 1.5 60 00:47 12.06.2019
6468 Clouds 13 1015 82 10000 1.5 60 00:20 12.06.2019
6469 Clouds 13 1015 93 10000 3.6 80 23:43 11.06.2019
6470 Clouds 13 1015 93 10000 3.6 80 23:24 11.06.2019
6471 Clouds 13 1014 87 10000 4.6 70 22:43 11.06.2019
6472 Clouds 13 1014 87 10000 3.6 90 22:18 11.06.2019
6473 Clouds 13 1014 87 10000 3.6 90 21:56 11.06.2019
6474 Rain 13 1014 87 10000 3.1 100 21:37 11.06.2019
6475 Rain 13 1013 93 10000 3.6 90 21:19 11.06.2019
6476 Rain 13 1013 93 10000 3.1 90 20:46 11.06.2019
6477 Rain 13 1013 93 10000 1.5 100 20:23 11.06.2019
6478 Rain 13 1013 93 10000 1.5 100 19:53 11.06.2019
6479 Rain 13 1013 87 10000 1.9 6.33 19:31 11.06.2019
6480 -273 0 0 0 0 0 18:55 11.06.2019
6481 Rain 13 1013 93 7000 2.1 30 18:21 11.06.2019
6482 Rain 13 1013 93 6000 2.6 350 17:42 11.06.2019
6483 Rain 13 1013 93 6000 2.6 350 17:22 11.06.2019
6484 Rain 13 1013 87 10000 3.6 340 16:56 11.06.2019
6485 Rain 13 1013 87 4500 3.6 330 16:37 11.06.2019
6486 Rain 13 1012 93 6000 4.1 330 16:19 11.06.2019
6487 Rain 14 1012 93 10000 5.1 330 15:42 11.06.2019
6488 -273 0 0 0 0 0 15:42 11.06.2019
6489 Rain 14 1012 93 10000 5.1 330 15:22 11.06.2019
6490 Rain 14 1013 93 10000 5.1 320 14:47 11.06.2019
6491 Rain 13 1012 100 3200 7.2 320 14:21 11.06.2019
6492 Rain 13 1012 100 3200 7.2 320 13:51 11.06.2019
6493 Rain 14 1012 87 10000 4.6 330 13:24 11.06.2019
6494 Rain 14 1012 87 10000 4.6 330 12:55 11.06.2019
6495 Rain 14 1012 87 10000 4.6 330 12:55 11.06.2019
6496 Rain 14 1012 87 10000 5.1 340 12:37 11.06.2019
6497 Rain 14 1012 87 10000 5.1 340 12:18 11.06.2019
6498 Rain 14 1012 93 8000 5.7 320 11:39 11.06.2019
6499 Rain 14 1012 87 5000 4.1 320 11:19 11.06.2019
6500 Rain 14 1011 77 10000 2.6 320 10:45 11.06.2019
6501 Rain 14 1011 77 10000 2.6 320 10:25 11.06.2019
6502 Rain 15 1011 72 9000 0.5 0 09:49 11.06.2019
6503 Rain 15 1011 72 9000 0.5 0 09:24 11.06.2019
6504 Rain 15 1011 77 10000 2.6 310 08:45 11.06.2019
6505 Rain 15 1011 77 10000 2.6 310 08:26 11.06.2019
6506 Rain 16 1011 72 10000 1.5 10 07:38 11.06.2019
6507 Rain 16 1011 67 10000 2.6 350 06:56 11.06.2019
6508 Rain 16 1011 72 10000 2.1 360 06:34 11.06.2019
6509 Rain 17 1011 82 10000 2.1 110 04:55 11.06.2019
6510 Clouds 18 1012 82 10000 3.6 150 03:42 11.06.2019
6511 Clouds 19 1013 88 10000 3.6 140 01:40 11.06.2019
6512 Clouds 19 1013 82 10000 4.1 150 00:47 11.06.2019
6513 Clouds 19 1012 68 10000 3.6 150 23:48 10.06.2019
6514 Clouds 19 1012 68 10000 3.6 150 23:25 10.06.2019
6515 Clouds 20 1012 68 10000 3.1 140 22:56 10.06.2019
6516 Clouds 20 1011 56 10000 5.7 250 22:37 10.06.2019
6517 Clouds 20 1011 56 10000 5.7 250 22:19 10.06.2019
6518 Clouds 21 1011 56 10000 8.2 230 21:41 10.06.2019
6519 Clouds 21 1011 56 10000 8.2 230 21:22 10.06.2019
6520 Clouds 22 1010 68 10000 7.2 230 20:46 10.06.2019
6521 Clouds 22 1010 60 10000 7.2 230 20:25 10.06.2019
6522 Clouds 23 1010 60 10000 7.2 220 19:57 10.06.2019
6523 Clouds 24 1010 56 10000 6.7 210 19:38 10.06.2019
6524 Clouds 24 1010 56 10000 7.7 220 19:20 10.06.2019
6525 Clouds 25 1010 56 10000 7.7 220 18:55 10.06.2019
6526 Clouds 25 1010 56 10000 6.7 200 18:37 10.06.2019
6527 Clouds 25 1010 50 10000 6.2 210 18:18 10.06.2019
6528 Clouds 25 1010 44 10000 7.2 220 17:40 10.06.2019
6529 Clouds 26 1010 44 10000 7.2 220 17:21 10.06.2019
6530 Clouds 26 1011 50 10000 8.2 220 16:45 10.06.2019
6531 Clouds 26 1011 50 10000 8.2 220 16:27 10.06.2019
6532 Clouds 26 1011 44 10000 9.3 220 15:43 10.06.2019
6533 Clouds 26 1011 44 10000 9.3 220 15:24 10.06.2019
6534 Clouds 26 1012 50 10000 6.7 210 14:59 10.06.2019
6535 Clouds 26 1012 47 10000 6.2 210 14:38 10.06.2019
6536 Clouds 26 1012 44 10000 6.2 220 14:20 10.06.2019
6537 Clouds 26 1012 47 10000 6.7 220 13:43 10.06.2019
6538 Clouds 26 1012 47 10000 6.7 220 13:22 10.06.2019
6539 Clouds 26 1012 47 10000 6.7 220 13:22 10.06.2019
6540 Clouds 25 1012 44 10000 4.1 220 12:45 10.06.2019
6541 Clouds 25 1012 44 10000 4.1 220 12:26 10.06.2019
6542 Clouds 24 1012 44 10000 4.1 320 11:46 10.06.2019
6543 Clouds 24 1012 44 10000 4.1 320 11:46 10.06.2019
6544 Clouds 24 1012 44 10000 4.1 320 11:28 10.06.2019
6545 Clouds 23 1013 46 10000 5.1 330 10:57 10.06.2019
6546 Clouds 22 1013 49 10000 6.7 330 10:38 10.06.2019
6547 Clouds 22 1013 49 10000 6.7 330 10:18 10.06.2019
6548 Clouds 21 1013 52 10000 7.2 330 09:45 10.06.2019
6549 Clouds 20 1013 52 10000 7.2 330 09:26 10.06.2019
6550 Clouds 19 1013 63 10000 5.1 340 08:45 10.06.2019
6551 Clouds 18 1013 63 10000 5.1 340 08:25 10.06.2019
6552 Clear 16 1012 67 10000 2.1 350 07:26 10.06.2019
6553 Clouds 17 1012 88 10000 1.35 250.704 04:41 10.06.2019
6554 Clouds 18 1013 88 9000 3.1 310 02:18 10.06.2019
6555 Clouds 18 1013 82 10000 3.1 310 01:28 10.06.2019
6556 Clouds 18 1014 82 10000 1.5 300 00:59 10.06.2019
6557 Clouds 18 1014 88 9000 1 0 00:31 10.06.2019
6558 Clouds 19 1013 88 9000 1.5 300 23:45 09.06.2019
6559 Clouds 19 1013 88 9000 1.5 300 23:21 09.06.2019
6560 Clouds 19 1014 88 10000 2.1 200 22:45 09.06.2019
6561 Clouds 19 1014 88 10000 2.1 200 22:25 09.06.2019
6562 Clouds 20 1013 88 10000 2.6 200 21:46 09.06.2019
6563 Clouds 20 1013 88 10000 2.6 200 21:28 09.06.2019
6564 Clouds 20 1013 88 9000 1.5 220 20:58 09.06.2019
6565 Clouds 21 1013 88 10000 3.1 190 20:40 09.06.2019
6566 Clouds 21 1012 82 10000 1.5 130 20:21 09.06.2019
6567 Clouds 21 1012 82 10000 2.1 180 19:42 09.06.2019
6568 Clouds 21 1012 82 10000 2.1 180 19:18 09.06.2019
6569 Clouds 21 1013 82 10000 1 0 18:43 09.06.2019
6570 Clouds 22 1013 82 10000 1 0 18:24 09.06.2019
6571 Clear 23 1013 73 10000 2.6 120 17:50 09.06.2019
6572 Clear 23 1013 73 10000 2.6 120 17:30 09.06.2019
6573 Clear 24 1013 68 10000 4.1 80 16:58 09.06.2019
6574 Clear 24 1013 68 10000 4.1 80 16:58 09.06.2019
6575 Clear 24 1012 60 10000 4.6 100 16:39 09.06.2019
6576 Clear 25 1013 60 10000 6.7 80 16:20 09.06.2019
6577 Clear 24 1013 60 10000 6.7 80 16:20 09.06.2019
6578 Clear 24 1013 60 10000 6.7 80 15:49 09.06.2019
6579 Clear 24 1014 56 10000 4.1 80 15:28 09.06.2019
6580 Clear 24 1014 33 10000 4.6 110 14:51 09.06.2019
6581 Clear 24 1014 33 10000 4.6 110 14:51 09.06.2019
6582 Clear 24 1014 33 10000 4.6 110 14:33 09.06.2019
6583 Clear 25 1014 21 10000 3.1 90 13:57 09.06.2019
6584 Clear 24 1014 31 10000 2.6 350 13:38 09.06.2019
6585 Clear 25 1014 33 10000 3.6 330 12:55 09.06.2019
6586 Clear 25 1014 29 10000 3.6 340 12:34 09.06.2019
6587 Clear 24 1015 31 10000 3.6 0 11:51 09.06.2019
6588 Clear 23 1015 28 10000 5.7 30 11:30 09.06.2019
6589 -273 0 0 0 0 0 10:58 09.06.2019
6590 -273 0 0 0 0 0 10:58 09.06.2019
6591 Clear 21 1015 40 10000 5.1 40 10:39 09.06.2019
6592 Clear 21 1015 40 10000 5.1 40 10:19 09.06.2019
6593 Clear 21 1015 40 10000 5.1 40 10:19 09.06.2019
6594 Clear 20 1017 46 10000 2.6 90 09:38 09.06.2019
6595 Clear 19 1016 42 10000 2.6 310 09:19 09.06.2019
6596 Clear 19 1015 42 10000 3.1 340 08:44 09.06.2019
6597 Clear 18 1015 39 10000 3.1 310 07:53 09.06.2019
6598 Clear 18 1015 37 10000 4.1 330 06:45 09.06.2019
6599 Clear 17 1015 37 10000 4.6 330 06:20 09.06.2019
6600 Clear 19 1019 37 10000 3.1 330 02:59 09.06.2019
6601 Clear 19 1020 37 10000 0.5 0 01:37 09.06.2019
6602 Clear 19 1020 37 10000 0.5 0 01:37 09.06.2019
6603 Clear 19 1020 37 10000 0.5 0 01:19 09.06.2019
6604 Clear 19 1020 28 10000 1.5 20 00:31 09.06.2019
6605 Clear 19 1021 32 10000 1 0 23:41 08.06.2019
6606 Clear 19 1021 32 10000 1 0 23:23 08.06.2019
6607 Clear 20 1021 32 10000 2.6 60 22:56 08.06.2019
6608 Clear 20 1021 32 10000 2.6 60 22:37 08.06.2019
6609 Clear 20 1021 35 10000 3.1 60 22:18 08.06.2019
6610 Clouds 20 1020 37 10000 3.6 60 21:49 08.06.2019
6611 Clouds 20 1020 37 10000 3.6 60 21:24 08.06.2019
6612 Clear 21 1021 40 10000 5.1 60 20:46 08.06.2019
6613 Clear 21 1021 40 10000 5.1 60 20:25 08.06.2019
6614 Clear 22 1021 46 10000 5.1 70 19:58 08.06.2019
6615 Clear 22 1021 46 10000 6.2 70 19:39 08.06.2019
6616 Clear 22 1021 46 10000 6.2 70 19:19 08.06.2019
6617 Clear 22 1021 40 10000 7.2 70 18:51 08.06.2019
6618 Clear 23 1021 40 10000 7.2 70 18:32 08.06.2019
6619 Clear 23 1022 40 10000 7.2 70 17:46 08.06.2019
6620 Clear 23 1022 40 10000 6.7 70 17:23 08.06.2019
6621 Clear 23 1022 40 10000 6.7 70 16:54 08.06.2019
6622 Clear 23 1022 46 10000 6.7 90 16:35 08.06.2019
6623 Clear 23 1023 46 10000 7.7 80 15:54 08.06.2019
6624 Clear 23 1023 43 10000 7.2 80 15:35 08.06.2019
6625 Clear 23 1023 46 10000 6.7 80 14:49 08.06.2019
6626 Clear 23 1023 46 10000 6.7 80 14:31 08.06.2019
6627 Clear 23 1023 52 10000 6.2 100 13:53 08.06.2019
6628 Clear 22 1023 52 10000 4.6 110 12:57 08.06.2019
6629 Clear 22 1023 49 10000 4.6 100 12:39 08.06.2019
6630 Clear 22 1023 49 10000 6.2 100 11:57 08.06.2019
6631 Clear 22 1023 56 10000 4.6 110 11:38 08.06.2019
6632 Clear 22 1023 52 10000 3.1 130 11:20 08.06.2019
6633 Clear 21 1023 52 10000 1 0 10:43 08.06.2019
6634 Clear 21 1023 52 10000 1.84 104.895 10:22 08.06.2019
6635 Clear 20 1023 52 10000 1 0 09:40 08.06.2019
6636 Clouds 18 1023 55 10000 2.1 310 08:59 08.06.2019
6637 Clouds 16 1022 67 10000 3.6 330 08:25 08.06.2019
6638 Clouds 15 1022 67 10000 3.6 330 07:46 08.06.2019
6639 Clouds 14 1022 82 10000 2.1 330 06:45 08.06.2019
6640 Clouds 14 1022 82 10000 2.1 330 06:45 08.06.2019
6641 Clouds 16 1021 68 10000 3.6 70 03:41 08.06.2019
6642 Clouds 17 1021 68 10000 3.6 60 02:21 08.06.2019
6643 Clouds 18 1020 77 10000 4.1 70 00:45 08.06.2019
6644 Clouds 18 1020 77 10000 4.1 70 00:24 08.06.2019
6645 Clouds 18 1020 77 10000 6.7 80 23:39 07.06.2019
6646 Clouds 19 1019 77 10000 7.2 70 23:19 07.06.2019
6647 Clouds 20 1018 72 10000 10.3 60 22:35 07.06.2019
6648 Clouds 20 1017 64 10000 8.2 50 21:57 07.06.2019
6649 Clouds 21 1016 73 10000 3.1 220 21:39 07.06.2019
6650 Clouds 22 1016 73 10000 4.6 220 21:20 07.06.2019
6651 Clouds 24 1016 73 10000 4.6 220 20:53 07.06.2019
6652 Clouds 25 1015 69 10000 4.6 250 20:35 07.06.2019
6653 Clouds 26 1015 60 10000 6.2 220 19:46 07.06.2019
6654 Clouds 26 1014 69 10000 7.7 220 19:20 07.06.2019
6655 Clouds 26 1014 60 10000 8.7 220 18:47 07.06.2019
6656 Clouds 26 1014 60 10000 8.7 220 18:28 07.06.2019
6657 Clouds 26 1013 69 10000 10.3 230 17:47 07.06.2019
6658 Clouds 26 1013 69 10000 10.3 230 17:24 07.06.2019
6659 Clouds 25 1013 73 10000 10.8 230 16:47 07.06.2019
6660 Clouds 25 1013 73 10000 10.8 230 16:29 07.06.2019
6661 Clouds 25 1013 73 10000 10.8 230 15:50 07.06.2019
6662 Clouds 25 1013 69 10000 9.3 230 15:21 07.06.2019
6663 Clouds 24 1013 64 10000 9.8 220 14:46 07.06.2019
6664 Clouds 24<